<?xml version="1.0" encoding="UTF-8" standalone="no" ?>
<gpx xmlns="http://www.topografix.com/GPX/1/1" xmlns:xsi="http://www.w3.org/2001/XMLSchema-instance" xsi:schemaLocation="http://www.topografix.com/GPX/1/1 http://www.topografix.com/GPX/1/1/gpx.xsd" version="1.1" creator="VisuGPX - https://www.visugpx.com">
  <metadata>
    <name>Bayons col de Clapouse</name>
    <desc><![CDATA[Possibilité de démarrer à partir du village d'Esparron ce qui permet d'éviter la partie route. 

Magnifique ascension vers les alpages au pied des Monges, passage près du lac d'Esparron, sérénité garantie.]]></desc>
  </metadata>
  <trk>
    <name><![CDATA[Bayons col de Clapouse]]></name>
    <trkseg>
      <trkpt lat="44.32922" lon="6.13038">
        <ele>848.214386</ele>
        <time>2023-09-19T07:16:03.945Z</time>
      </trkpt>
      <trkpt lat="44.32925" lon="6.13054">
        <ele>848.214386</ele>
        <time>2023-09-19T07:16:57.699Z</time>
      </trkpt>
      <trkpt lat="44.32929" lon="6.13067">
        <ele>848.214386</ele>
        <time>2023-09-19T07:20:14.695Z</time>
      </trkpt>
      <trkpt lat="44.32933" lon="6.13082">
        <ele>848.214386</ele>
        <time>2023-09-19T07:20:18.690Z</time>
      </trkpt>
      <trkpt lat="44.32934" lon="6.13098">
        <ele>848.214386</ele>
        <time>2023-09-19T07:20:22.690Z</time>
      </trkpt>
      <trkpt lat="44.32936" lon="6.13114">
        <ele>848.214386</ele>
        <time>2023-09-19T07:20:25.697Z</time>
      </trkpt>
      <trkpt lat="44.32937" lon="6.13127">
        <ele>848.214386</ele>
        <time>2023-09-19T07:20:27.697Z</time>
      </trkpt>
      <trkpt lat="44.32938" lon="6.13142">
        <ele>848.214386</ele>
        <time>2023-09-19T07:20:29.699Z</time>
      </trkpt>
      <trkpt lat="44.32941" lon="6.13158">
        <ele>848.214386</ele>
        <time>2023-09-19T07:20:31.686Z</time>
      </trkpt>
      <trkpt lat="44.32943" lon="6.13176">
        <ele>848.087297</ele>
        <time>2023-09-19T07:20:33.694Z</time>
      </trkpt>
      <trkpt lat="44.32946" lon="6.13194">
        <ele>847.936075</ele>
        <time>2023-09-19T07:20:35.690Z</time>
      </trkpt>
      <trkpt lat="44.3295" lon="6.13214">
        <ele>847.774632</ele>
        <time>2023-09-19T07:20:37.696Z</time>
      </trkpt>
      <trkpt lat="44.32953" lon="6.13234">
        <ele>847.615747</ele>
        <time>2023-09-19T07:20:39.691Z</time>
      </trkpt>
      <trkpt lat="44.32956" lon="6.13252">
        <ele>847.469091</ele>
        <time>2023-09-19T07:20:41.709Z</time>
      </trkpt>
      <trkpt lat="44.32951" lon="6.1324">
        <ele>847.362624</ele>
        <time>2023-09-19T07:21:08.697Z</time>
      </trkpt>
      <trkpt lat="44.32954" lon="6.13256">
        <ele>847.236545</ele>
        <time>2023-09-19T07:21:14.700Z</time>
      </trkpt>
      <trkpt lat="44.32956" lon="6.1327">
        <ele>847.123021</ele>
        <time>2023-09-19T07:21:18.686Z</time>
      </trkpt>
      <trkpt lat="44.32961" lon="6.13281">
        <ele>847.019951</ele>
        <time>2023-09-19T07:21:22.693Z</time>
      </trkpt>
      <trkpt lat="44.32966" lon="6.13296">
        <ele>846.88655</ele>
        <time>2023-09-19T07:21:26.690Z</time>
      </trkpt>
      <trkpt lat="44.32971" lon="6.13309">
        <ele>846.776341</ele>
        <time>2023-09-19T07:21:29.687Z</time>
      </trkpt>
      <trkpt lat="44.32976" lon="6.1332">
        <ele>846.66806</ele>
        <time>2023-09-19T07:21:32.691Z</time>
      </trkpt>
      <trkpt lat="44.3298" lon="6.13335">
        <ele>846.539079</ele>
        <time>2023-09-19T07:21:35.694Z</time>
      </trkpt>
      <trkpt lat="44.32985" lon="6.13347">
        <ele>846.433913</ele>
        <time>2023-09-19T07:21:37.690Z</time>
      </trkpt>
      <trkpt lat="44.32987" lon="6.1336">
        <ele>846.324947</ele>
        <time>2023-09-19T07:21:39.693Z</time>
      </trkpt>
      <trkpt lat="44.32989" lon="6.13373">
        <ele>846.248678</ele>
        <time>2023-09-19T07:21:41.696Z</time>
      </trkpt>
      <trkpt lat="44.32989" lon="6.13386">
        <ele>846.620812</ele>
        <time>2023-09-19T07:21:43.697Z</time>
      </trkpt>
      <trkpt lat="44.32988" lon="6.13405">
        <ele>847.15662</ele>
        <time>2023-09-19T07:21:46.690Z</time>
      </trkpt>
      <trkpt lat="44.32986" lon="6.13422">
        <ele>847.644193</ele>
        <time>2023-09-19T07:21:49.696Z</time>
      </trkpt>
      <trkpt lat="44.3298" lon="6.13437">
        <ele>848.121586</ele>
        <time>2023-09-19T07:21:52.695Z</time>
      </trkpt>
      <trkpt lat="44.32972" lon="6.13448">
        <ele>848.585191</ele>
        <time>2023-09-19T07:21:55.690Z</time>
      </trkpt>
      <trkpt lat="44.32963" lon="6.13457">
        <ele>849.041097</ele>
        <time>2023-09-19T07:21:58.695Z</time>
      </trkpt>
      <trkpt lat="44.32953" lon="6.13466">
        <ele>849.518561</ele>
        <time>2023-09-19T07:22:01.699Z</time>
      </trkpt>
      <trkpt lat="44.32943" lon="6.13475">
        <ele>850.00251</ele>
        <time>2023-09-19T07:22:04.697Z</time>
      </trkpt>
      <trkpt lat="44.32931" lon="6.13486">
        <ele>850.54534</ele>
        <time>2023-09-19T07:22:07.697Z</time>
      </trkpt>
      <trkpt lat="44.32923" lon="6.13495">
        <ele>850.965206</ele>
        <time>2023-09-19T07:22:09.696Z</time>
      </trkpt>
      <trkpt lat="44.32914" lon="6.13503">
        <ele>851.378463</ele>
        <time>2023-09-19T07:22:11.692Z</time>
      </trkpt>
      <trkpt lat="44.32907" lon="6.1351">
        <ele>851.752487</ele>
        <time>2023-09-19T07:22:13.694Z</time>
      </trkpt>
      <trkpt lat="44.32897" lon="6.13521">
        <ele>852.251006</ele>
        <time>2023-09-19T07:22:16.692Z</time>
      </trkpt>
      <trkpt lat="44.32889" lon="6.13531">
        <ele>852.689164</ele>
        <time>2023-09-19T07:22:19.691Z</time>
      </trkpt>
      <trkpt lat="44.32881" lon="6.13542">
        <ele>853.141048</ele>
        <time>2023-09-19T07:22:22.693Z</time>
      </trkpt>
      <trkpt lat="44.32872" lon="6.13554">
        <ele>853.851924</ele>
        <time>2023-09-19T07:22:25.690Z</time>
      </trkpt>
      <trkpt lat="44.32865" lon="6.13565">
        <ele>854.927759</ele>
        <time>2023-09-19T07:22:28.691Z</time>
      </trkpt>
      <trkpt lat="44.32857" lon="6.13577">
        <ele>855.981839</ele>
        <time>2023-09-19T07:22:31.691Z</time>
      </trkpt>
      <trkpt lat="44.3285" lon="6.13589">
        <ele>857.027138</ele>
        <time>2023-09-19T07:22:34.695Z</time>
      </trkpt>
      <trkpt lat="44.32843" lon="6.13601">
        <ele>858.013012</ele>
        <time>2023-09-19T07:22:37.692Z</time>
      </trkpt>
      <trkpt lat="44.32837" lon="6.13613">
        <ele>859.040108</ele>
        <time>2023-09-19T07:22:40.696Z</time>
      </trkpt>
      <trkpt lat="44.32831" lon="6.13626">
        <ele>860.117205</ele>
        <time>2023-09-19T07:22:43.696Z</time>
      </trkpt>
      <trkpt lat="44.32824" lon="6.13639">
        <ele>861.160858</ele>
        <time>2023-09-19T07:22:46.699Z</time>
      </trkpt>
      <trkpt lat="44.32817" lon="6.13652">
        <ele>862.25417</ele>
        <time>2023-09-19T07:22:49.696Z</time>
      </trkpt>
      <trkpt lat="44.3281" lon="6.13665">
        <ele>863.343302</ele>
        <time>2023-09-19T07:22:52.699Z</time>
      </trkpt>
      <trkpt lat="44.32802" lon="6.13676">
        <ele>864.417849</ele>
        <time>2023-09-19T07:22:55.698Z</time>
      </trkpt>
      <trkpt lat="44.32793" lon="6.13686">
        <ele>865.497127</ele>
        <time>2023-09-19T07:22:58.696Z</time>
      </trkpt>
      <trkpt lat="44.32784" lon="6.13695">
        <ele>866.590335</ele>
        <time>2023-09-19T07:23:01.812Z</time>
      </trkpt>
      <trkpt lat="44.32775" lon="6.13702">
        <ele>867.554195</ele>
        <time>2023-09-19T07:23:04.699Z</time>
      </trkpt>
      <trkpt lat="44.32764" lon="6.13709">
        <ele>868.609611</ele>
        <time>2023-09-19T07:23:08.698Z</time>
      </trkpt>
      <trkpt lat="44.32753" lon="6.13714">
        <ele>869.699981</ele>
        <time>2023-09-19T07:23:12.695Z</time>
      </trkpt>
      <trkpt lat="44.32742" lon="6.13718">
        <ele>870.825996</ele>
        <time>2023-09-19T07:23:16.697Z</time>
      </trkpt>
      <trkpt lat="44.32732" lon="6.13723">
        <ele>871.971579</ele>
        <time>2023-09-19T07:23:20.699Z</time>
      </trkpt>
      <trkpt lat="44.32722" lon="6.1373">
        <ele>873.123423</ele>
        <time>2023-09-19T07:23:24.692Z</time>
      </trkpt>
      <trkpt lat="44.32712" lon="6.13739">
        <ele>874.299364</ele>
        <time>2023-09-19T07:23:28.699Z</time>
      </trkpt>
      <trkpt lat="44.32703" lon="6.13749">
        <ele>875.521968</ele>
        <time>2023-09-19T07:23:32.707Z</time>
      </trkpt>
      <trkpt lat="44.32694" lon="6.13759">
        <ele>876.729374</ele>
        <time>2023-09-19T07:23:36.697Z</time>
      </trkpt>
      <trkpt lat="44.32689" lon="6.13774">
        <ele>877.937177</ele>
        <time>2023-09-19T07:23:40.701Z</time>
      </trkpt>
      <trkpt lat="44.32689" lon="6.1379">
        <ele>879.133368</ele>
        <time>2023-09-19T07:23:44.700Z</time>
      </trkpt>
      <trkpt lat="44.32691" lon="6.13807">
        <ele>880.347666</ele>
        <time>2023-09-19T07:23:48.698Z</time>
      </trkpt>
      <trkpt lat="44.32693" lon="6.13819">
        <ele>881.281861</ele>
        <time>2023-09-19T07:23:51.695Z</time>
      </trkpt>
      <trkpt lat="44.3269" lon="6.13835">
        <ele>882.471745</ele>
        <time>2023-09-19T07:23:55.699Z</time>
      </trkpt>
      <trkpt lat="44.32687" lon="6.1385">
        <ele>883.613344</ele>
        <time>2023-09-19T07:23:59.706Z</time>
      </trkpt>
      <trkpt lat="44.32685" lon="6.13865">
        <ele>884.772788</ele>
        <time>2023-09-19T07:24:03.692Z</time>
      </trkpt>
      <trkpt lat="44.32684" lon="6.13881">
        <ele>885.95705</ele>
        <time>2023-09-19T07:24:07.702Z</time>
      </trkpt>
      <trkpt lat="44.32689" lon="6.13896">
        <ele>887.120014</ele>
        <time>2023-09-19T07:24:11.699Z</time>
      </trkpt>
      <trkpt lat="44.32696" lon="6.13909">
        <ele>888.345139</ele>
        <time>2023-09-19T07:24:15.698Z</time>
      </trkpt>
      <trkpt lat="44.32699" lon="6.13921">
        <ele>889.185276</ele>
        <time>2023-09-19T07:24:18.684Z</time>
      </trkpt>
      <trkpt lat="44.327" lon="6.13937">
        <ele>890.131289</ele>
        <time>2023-09-19T07:24:22.695Z</time>
      </trkpt>
      <trkpt lat="44.32697" lon="6.13953">
        <ele>891.07555</ele>
        <time>2023-09-19T07:24:26.687Z</time>
      </trkpt>
      <trkpt lat="44.32693" lon="6.13967">
        <ele>891.952997</ele>
        <time>2023-09-19T07:24:30.706Z</time>
      </trkpt>
      <trkpt lat="44.32688" lon="6.13982">
        <ele>892.857795</ele>
        <time>2023-09-19T07:24:34.697Z</time>
      </trkpt>
      <trkpt lat="44.3268" lon="6.13993">
        <ele>893.771804</ele>
        <time>2023-09-19T07:24:38.698Z</time>
      </trkpt>
      <trkpt lat="44.32669" lon="6.13996">
        <ele>894.694337</ele>
        <time>2023-09-19T07:24:42.686Z</time>
      </trkpt>
      <trkpt lat="44.32658" lon="6.1399">
        <ele>895.613545</ele>
        <time>2023-09-19T07:24:46.691Z</time>
      </trkpt>
      <trkpt lat="44.32651" lon="6.13981">
        <ele>896.348518</ele>
        <time>2023-09-19T07:24:49.697Z</time>
      </trkpt>
      <trkpt lat="44.32641" lon="6.13973">
        <ele>897.292833</ele>
        <time>2023-09-19T07:24:53.690Z</time>
      </trkpt>
      <trkpt lat="44.32631" lon="6.13965">
        <ele>898.211206</ele>
        <time>2023-09-19T07:24:57.695Z</time>
      </trkpt>
      <trkpt lat="44.32621" lon="6.13958">
        <ele>899.103034</ele>
        <time>2023-09-19T07:25:01.695Z</time>
      </trkpt>
      <trkpt lat="44.32611" lon="6.13951">
        <ele>900.016197</ele>
        <time>2023-09-19T07:25:05.699Z</time>
      </trkpt>
      <trkpt lat="44.32601" lon="6.13944">
        <ele>900.883388</ele>
        <time>2023-09-19T07:25:09.707Z</time>
      </trkpt>
      <trkpt lat="44.32592" lon="6.13936">
        <ele>901.754065</ele>
        <time>2023-09-19T07:25:13.706Z</time>
      </trkpt>
      <trkpt lat="44.32581" lon="6.13929">
        <ele>902.677762</ele>
        <time>2023-09-19T07:25:17.697Z</time>
      </trkpt>
      <trkpt lat="44.32571" lon="6.13923">
        <ele>903.579243</ele>
        <time>2023-09-19T07:25:21.695Z</time>
      </trkpt>
      <trkpt lat="44.32561" lon="6.13922">
        <ele>904.505221</ele>
        <time>2023-09-19T07:25:25.698Z</time>
      </trkpt>
      <trkpt lat="44.32551" lon="6.13928">
        <ele>905.452701</ele>
        <time>2023-09-19T07:25:29.692Z</time>
      </trkpt>
      <trkpt lat="44.32543" lon="6.13937">
        <ele>906.323643</ele>
        <time>2023-09-19T07:25:33.700Z</time>
      </trkpt>
      <trkpt lat="44.32533" lon="6.13941">
        <ele>907.196368</ele>
        <time>2023-09-19T07:25:37.696Z</time>
      </trkpt>
      <trkpt lat="44.32523" lon="6.1394">
        <ele>908.056576</ele>
        <time>2023-09-19T07:25:41.698Z</time>
      </trkpt>
      <trkpt lat="44.32515" lon="6.1393">
        <ele>908.964893</ele>
        <time>2023-09-19T07:25:45.699Z</time>
      </trkpt>
      <trkpt lat="44.3251" lon="6.13918">
        <ele>909.840413</ele>
        <time>2023-09-19T07:25:49.691Z</time>
      </trkpt>
      <trkpt lat="44.32503" lon="6.13908">
        <ele>910.679685</ele>
        <time>2023-09-19T07:25:53.695Z</time>
      </trkpt>
      <trkpt lat="44.32495" lon="6.13899">
        <ele>911.5518</ele>
        <time>2023-09-19T07:25:57.695Z</time>
      </trkpt>
      <trkpt lat="44.32486" lon="6.13891">
        <ele>912.476462</ele>
        <time>2023-09-19T07:26:01.698Z</time>
      </trkpt>
      <trkpt lat="44.32476" lon="6.13887">
        <ele>913.364046</ele>
        <time>2023-09-19T07:26:05.693Z</time>
      </trkpt>
      <trkpt lat="44.32466" lon="6.13891">
        <ele>914.282594</ele>
        <time>2023-09-19T07:26:09.697Z</time>
      </trkpt>
      <trkpt lat="44.32458" lon="6.13901">
        <ele>915.227745</ele>
        <time>2023-09-19T07:26:13.687Z</time>
      </trkpt>
      <trkpt lat="44.32449" lon="6.1391">
        <ele>916.151959</ele>
        <time>2023-09-19T07:26:17.694Z</time>
      </trkpt>
      <trkpt lat="44.32439" lon="6.13913">
        <ele>917.056366</ele>
        <time>2023-09-19T07:26:21.784Z</time>
      </trkpt>
      <trkpt lat="44.32428" lon="6.13911">
        <ele>917.990619</ele>
        <time>2023-09-19T07:26:25.693Z</time>
      </trkpt>
      <trkpt lat="44.32418" lon="6.13906">
        <ele>918.914038</ele>
        <time>2023-09-19T07:26:29.691Z</time>
      </trkpt>
      <trkpt lat="44.32407" lon="6.13903">
        <ele>919.808038</ele>
        <time>2023-09-19T07:26:33.691Z</time>
      </trkpt>
      <trkpt lat="44.32397" lon="6.139">
        <ele>920.6955</ele>
        <time>2023-09-19T07:26:37.695Z</time>
      </trkpt>
      <trkpt lat="44.32387" lon="6.13896">
        <ele>921.573298</ele>
        <time>2023-09-19T07:26:41.696Z</time>
      </trkpt>
      <trkpt lat="44.32377" lon="6.13892">
        <ele>922.480799</ele>
        <time>2023-09-19T07:26:45.689Z</time>
      </trkpt>
      <trkpt lat="44.32366" lon="6.13889">
        <ele>923.390039</ele>
        <time>2023-09-19T07:26:49.698Z</time>
      </trkpt>
      <trkpt lat="44.32356" lon="6.13887">
        <ele>924.243055</ele>
        <time>2023-09-19T07:26:53.698Z</time>
      </trkpt>
      <trkpt lat="44.32345" lon="6.13884">
        <ele>925.172679</ele>
        <time>2023-09-19T07:26:57.700Z</time>
      </trkpt>
      <trkpt lat="44.32335" lon="6.13881">
        <ele>926.083047</ele>
        <time>2023-09-19T07:27:01.695Z</time>
      </trkpt>
      <trkpt lat="44.32325" lon="6.13873">
        <ele>927.019611</ele>
        <time>2023-09-19T07:27:05.695Z</time>
      </trkpt>
      <trkpt lat="44.32317" lon="6.13861">
        <ele>927.965663</ele>
        <time>2023-09-19T07:27:09.694Z</time>
      </trkpt>
      <trkpt lat="44.32312" lon="6.13849">
        <ele>928.822015</ele>
        <time>2023-09-19T07:27:13.689Z</time>
      </trkpt>
      <trkpt lat="44.32304" lon="6.1384">
        <ele>929.707098</ele>
        <time>2023-09-19T07:27:17.691Z</time>
      </trkpt>
      <trkpt lat="44.32293" lon="6.13836">
        <ele>930.641457</ele>
        <time>2023-09-19T07:27:21.698Z</time>
      </trkpt>
      <trkpt lat="44.32282" lon="6.13837">
        <ele>931.587962</ele>
        <time>2023-09-19T07:27:25.706Z</time>
      </trkpt>
      <trkpt lat="44.32271" lon="6.13839">
        <ele>932.512201</ele>
        <time>2023-09-19T07:27:29.698Z</time>
      </trkpt>
      <trkpt lat="44.3226" lon="6.13842">
        <ele>933.455595</ele>
        <time>2023-09-19T07:27:33.707Z</time>
      </trkpt>
      <trkpt lat="44.3225" lon="6.13846">
        <ele>934.580468</ele>
        <time>2023-09-19T07:27:37.695Z</time>
      </trkpt>
      <trkpt lat="44.32239" lon="6.13845">
        <ele>936.147565</ele>
        <time>2023-09-19T07:27:41.694Z</time>
      </trkpt>
      <trkpt lat="44.32229" lon="6.13841">
        <ele>937.556539</ele>
        <time>2023-09-19T07:27:45.699Z</time>
      </trkpt>
      <trkpt lat="44.32219" lon="6.1384">
        <ele>938.968014</ele>
        <time>2023-09-19T07:27:49.687Z</time>
      </trkpt>
      <trkpt lat="44.3221" lon="6.13844">
        <ele>940.354569</ele>
        <time>2023-09-19T07:27:53.695Z</time>
      </trkpt>
      <trkpt lat="44.322" lon="6.13848">
        <ele>941.774263</ele>
        <time>2023-09-19T07:27:57.704Z</time>
      </trkpt>
      <trkpt lat="44.32191" lon="6.13852">
        <ele>943.106307</ele>
        <time>2023-09-19T07:28:01.695Z</time>
      </trkpt>
      <trkpt lat="44.32182" lon="6.13856">
        <ele>944.425726</ele>
        <time>2023-09-19T07:28:05.689Z</time>
      </trkpt>
      <trkpt lat="44.32174" lon="6.1386">
        <ele>945.728947</ele>
        <time>2023-09-19T07:28:09.691Z</time>
      </trkpt>
      <trkpt lat="44.32164" lon="6.13867">
        <ele>947.227409</ele>
        <time>2023-09-19T07:28:14.700Z</time>
      </trkpt>
      <trkpt lat="44.32156" lon="6.13876">
        <ele>948.719791</ele>
        <time>2023-09-19T07:28:19.691Z</time>
      </trkpt>
      <trkpt lat="44.32149" lon="6.13884">
        <ele>950.032597</ele>
        <time>2023-09-19T07:28:23.689Z</time>
      </trkpt>
      <trkpt lat="44.32141" lon="6.13893">
        <ele>951.390821</ele>
        <time>2023-09-19T07:28:27.694Z</time>
      </trkpt>
      <trkpt lat="44.32135" lon="6.13902">
        <ele>952.732768</ele>
        <time>2023-09-19T07:28:31.695Z</time>
      </trkpt>
      <trkpt lat="44.32128" lon="6.13912">
        <ele>954.043</ele>
        <time>2023-09-19T07:28:35.696Z</time>
      </trkpt>
      <trkpt lat="44.32121" lon="6.13921">
        <ele>955.357761</ele>
        <time>2023-09-19T07:28:39.698Z</time>
      </trkpt>
      <trkpt lat="44.32113" lon="6.13928">
        <ele>956.722921</ele>
        <time>2023-09-19T07:28:43.708Z</time>
      </trkpt>
      <trkpt lat="44.32107" lon="6.13938">
        <ele>958.062704</ele>
        <time>2023-09-19T07:28:47.698Z</time>
      </trkpt>
      <trkpt lat="44.32102" lon="6.1395">
        <ele>959.375661</ele>
        <time>2023-09-19T07:28:51.695Z</time>
      </trkpt>
      <trkpt lat="44.32097" lon="6.13961">
        <ele>960.50423</ele>
        <time>2023-09-19T07:28:55.696Z</time>
      </trkpt>
      <trkpt lat="44.32093" lon="6.13972">
        <ele>961.618856</ele>
        <time>2023-09-19T07:28:59.697Z</time>
      </trkpt>
      <trkpt lat="44.3209" lon="6.13985">
        <ele>962.713721</ele>
        <time>2023-09-19T07:29:03.695Z</time>
      </trkpt>
      <trkpt lat="44.32087" lon="6.13997">
        <ele>963.808585</ele>
        <time>2023-09-19T07:29:07.702Z</time>
      </trkpt>
      <trkpt lat="44.32084" lon="6.14012">
        <ele>965.116934</ele>
        <time>2023-09-19T07:29:12.701Z</time>
      </trkpt>
      <trkpt lat="44.32082" lon="6.14027">
        <ele>966.430722</ele>
        <time>2023-09-19T07:29:17.696Z</time>
      </trkpt>
      <trkpt lat="44.32079" lon="6.14039">
        <ele>967.500631</ele>
        <time>2023-09-19T07:29:21.696Z</time>
      </trkpt>
      <trkpt lat="44.32077" lon="6.14054">
        <ele>968.795708</ele>
        <time>2023-09-19T07:29:26.697Z</time>
      </trkpt>
      <trkpt lat="44.32076" lon="6.14067">
        <ele>969.88617</ele>
        <time>2023-09-19T07:29:30.698Z</time>
      </trkpt>
      <trkpt lat="44.32074" lon="6.14082">
        <ele>971.189567</ele>
        <time>2023-09-19T07:29:35.702Z</time>
      </trkpt>
      <trkpt lat="44.32071" lon="6.14097">
        <ele>972.471548</ele>
        <time>2023-09-19T07:29:40.709Z</time>
      </trkpt>
      <trkpt lat="44.32068" lon="6.14111">
        <ele>973.764199</ele>
        <time>2023-09-19T07:29:45.701Z</time>
      </trkpt>
      <trkpt lat="44.32063" lon="6.14125">
        <ele>975.055801</ele>
        <time>2023-09-19T07:29:50.706Z</time>
      </trkpt>
      <trkpt lat="44.32055" lon="6.14137">
        <ele>976.405746</ele>
        <time>2023-09-19T07:29:55.700Z</time>
      </trkpt>
      <trkpt lat="44.32048" lon="6.14146">
        <ele>977.56062</ele>
        <time>2023-09-19T07:29:59.698Z</time>
      </trkpt>
      <trkpt lat="44.3204" lon="6.14153">
        <ele>978.657354</ele>
        <time>2023-09-19T07:30:03.691Z</time>
      </trkpt>
      <trkpt lat="44.32031" lon="6.14158">
        <ele>979.792068</ele>
        <time>2023-09-19T07:30:07.800Z</time>
      </trkpt>
      <trkpt lat="44.32022" lon="6.14164">
        <ele>980.912518</ele>
        <time>2023-09-19T07:30:11.695Z</time>
      </trkpt>
      <trkpt lat="44.32015" lon="6.14171">
        <ele>981.943913</ele>
        <time>2023-09-19T07:30:15.697Z</time>
      </trkpt>
      <trkpt lat="44.32008" lon="6.14179">
        <ele>982.962095</ele>
        <time>2023-09-19T07:30:19.696Z</time>
      </trkpt>
      <trkpt lat="44.32" lon="6.14187">
        <ele>984.039964</ele>
        <time>2023-09-19T07:30:23.700Z</time>
      </trkpt>
      <trkpt lat="44.31992" lon="6.14196">
        <ele>985.109908</ele>
        <time>2023-09-19T07:30:27.700Z</time>
      </trkpt>
      <trkpt lat="44.3199" lon="6.14208">
        <ele>986.184296</ele>
        <time>2023-09-19T07:30:31.696Z</time>
      </trkpt>
      <trkpt lat="44.3199" lon="6.14221">
        <ele>987.204484</ele>
        <time>2023-09-19T07:30:35.696Z</time>
      </trkpt>
      <trkpt lat="44.31991" lon="6.14236">
        <ele>988.421614</ele>
        <time>2023-09-19T07:30:40.810Z</time>
      </trkpt>
      <trkpt lat="44.31987" lon="6.14251">
        <ele>989.631574</ele>
        <time>2023-09-19T07:30:45.694Z</time>
      </trkpt>
      <trkpt lat="44.31981" lon="6.1426">
        <ele>990.654897</ele>
        <time>2023-09-19T07:30:49.698Z</time>
      </trkpt>
      <trkpt lat="44.31974" lon="6.14268">
        <ele>991.693669</ele>
        <time>2023-09-19T07:30:53.703Z</time>
      </trkpt>
      <trkpt lat="44.31967" lon="6.14277">
        <ele>992.78257</ele>
        <time>2023-09-19T07:30:57.692Z</time>
      </trkpt>
      <trkpt lat="44.31962" lon="6.14288">
        <ele>993.817396</ele>
        <time>2023-09-19T07:31:01.695Z</time>
      </trkpt>
      <trkpt lat="44.31955" lon="6.14297">
        <ele>994.840461</ele>
        <time>2023-09-19T07:31:05.697Z</time>
      </trkpt>
      <trkpt lat="44.31949" lon="6.14307">
        <ele>995.894728</ele>
        <time>2023-09-19T07:31:09.697Z</time>
      </trkpt>
      <trkpt lat="44.31944" lon="6.14318">
        <ele>996.930226</ele>
        <time>2023-09-19T07:31:13.701Z</time>
      </trkpt>
      <trkpt lat="44.3194" lon="6.1433">
        <ele>997.989472</ele>
        <time>2023-09-19T07:31:17.702Z</time>
      </trkpt>
      <trkpt lat="44.31936" lon="6.14342">
        <ele>999.02981</ele>
        <time>2023-09-19T07:31:21.701Z</time>
      </trkpt>
      <trkpt lat="44.31932" lon="6.14354">
        <ele>1000.06024</ele>
        <time>2023-09-19T07:31:25.697Z</time>
      </trkpt>
      <trkpt lat="44.31928" lon="6.14368">
        <ele>1001.37889</ele>
        <time>2023-09-19T07:31:30.717Z</time>
      </trkpt>
      <trkpt lat="44.31921" lon="6.14379">
        <ele>1002.683405</ele>
        <time>2023-09-19T07:31:35.699Z</time>
      </trkpt>
      <trkpt lat="44.31913" lon="6.14389">
        <ele>1003.987281</ele>
        <time>2023-09-19T07:31:40.715Z</time>
      </trkpt>
      <trkpt lat="44.31905" lon="6.14399">
        <ele>1005.291351</ele>
        <time>2023-09-19T07:31:45.695Z</time>
      </trkpt>
      <trkpt lat="44.31898" lon="6.1441">
        <ele>1006.600622</ele>
        <time>2023-09-19T07:31:50.713Z</time>
      </trkpt>
      <trkpt lat="44.31892" lon="6.14422">
        <ele>1007.866543</ele>
        <time>2023-09-19T07:31:55.697Z</time>
      </trkpt>
      <trkpt lat="44.31886" lon="6.14434">
        <ele>1009.16835</ele>
        <time>2023-09-19T07:32:00.715Z</time>
      </trkpt>
      <trkpt lat="44.31881" lon="6.14447">
        <ele>1010.485705</ele>
        <time>2023-09-19T07:32:05.694Z</time>
      </trkpt>
      <trkpt lat="44.31875" lon="6.1446">
        <ele>1011.830789</ele>
        <time>2023-09-19T07:32:10.722Z</time>
      </trkpt>
      <trkpt lat="44.31868" lon="6.14472">
        <ele>1013.19688</ele>
        <time>2023-09-19T07:32:15.703Z</time>
      </trkpt>
      <trkpt lat="44.31861" lon="6.14484">
        <ele>1014.553929</ele>
        <time>2023-09-19T07:32:20.711Z</time>
      </trkpt>
      <trkpt lat="44.31854" lon="6.14495">
        <ele>1015.881636</ele>
        <time>2023-09-19T07:32:25.699Z</time>
      </trkpt>
      <trkpt lat="44.31848" lon="6.14508">
        <ele>1017.162922</ele>
        <time>2023-09-19T07:32:30.703Z</time>
      </trkpt>
      <trkpt lat="44.31842" lon="6.1452">
        <ele>1018.464539</ele>
        <time>2023-09-19T07:32:35.697Z</time>
      </trkpt>
      <trkpt lat="44.31835" lon="6.14531">
        <ele>1019.783244</ele>
        <time>2023-09-19T07:32:40.712Z</time>
      </trkpt>
      <trkpt lat="44.31828" lon="6.14542">
        <ele>1021.05813</ele>
        <time>2023-09-19T07:32:45.712Z</time>
      </trkpt>
      <trkpt lat="44.3182" lon="6.14552">
        <ele>1022.329347</ele>
        <time>2023-09-19T07:32:50.696Z</time>
      </trkpt>
      <trkpt lat="44.31813" lon="6.14562">
        <ele>1023.496873</ele>
        <time>2023-09-19T07:32:55.702Z</time>
      </trkpt>
      <trkpt lat="44.31806" lon="6.14573">
        <ele>1024.623023</ele>
        <time>2023-09-19T07:33:00.701Z</time>
      </trkpt>
      <trkpt lat="44.31798" lon="6.14583">
        <ele>1025.724187</ele>
        <time>2023-09-19T07:33:05.699Z</time>
      </trkpt>
      <trkpt lat="44.31791" lon="6.14593">
        <ele>1026.826678</ele>
        <time>2023-09-19T07:33:10.718Z</time>
      </trkpt>
      <trkpt lat="44.31784" lon="6.14604">
        <ele>1027.920173</ele>
        <time>2023-09-19T07:33:15.693Z</time>
      </trkpt>
      <trkpt lat="44.3178" lon="6.14617">
        <ele>1029.031928</ele>
        <time>2023-09-19T07:33:20.707Z</time>
      </trkpt>
      <trkpt lat="44.31786" lon="6.14629">
        <ele>1030.104718</ele>
        <time>2023-09-19T07:33:25.687Z</time>
      </trkpt>
      <trkpt lat="44.31795" lon="6.14625">
        <ele>1031.172805</ele>
        <time>2023-09-19T07:33:29.692Z</time>
      </trkpt>
      <trkpt lat="44.31802" lon="6.14614">
        <ele>1032.201233</ele>
        <time>2023-09-19T07:33:33.700Z</time>
      </trkpt>
      <trkpt lat="44.31807" lon="6.14603">
        <ele>1033.189943</ele>
        <time>2023-09-19T07:33:37.692Z</time>
      </trkpt>
      <trkpt lat="44.31813" lon="6.14592">
        <ele>1034.315057</ele>
        <time>2023-09-19T07:33:42.687Z</time>
      </trkpt>
      <trkpt lat="44.31822" lon="6.14584">
        <ele>1035.384153</ele>
        <time>2023-09-19T07:33:47.701Z</time>
      </trkpt>
      <trkpt lat="44.31831" lon="6.14576">
        <ele>1036.51017</ele>
        <time>2023-09-19T07:33:52.697Z</time>
      </trkpt>
      <trkpt lat="44.3184" lon="6.1457">
        <ele>1037.592936</ele>
        <time>2023-09-19T07:33:57.695Z</time>
      </trkpt>
      <trkpt lat="44.31849" lon="6.14563">
        <ele>1038.704099</ele>
        <time>2023-09-19T07:34:02.693Z</time>
      </trkpt>
      <trkpt lat="44.31858" lon="6.14554">
        <ele>1039.833926</ele>
        <time>2023-09-19T07:34:07.700Z</time>
      </trkpt>
      <trkpt lat="44.31865" lon="6.14543">
        <ele>1040.963353</ele>
        <time>2023-09-19T07:34:12.708Z</time>
      </trkpt>
      <trkpt lat="44.31872" lon="6.14532">
        <ele>1042.050513</ele>
        <time>2023-09-19T07:34:17.700Z</time>
      </trkpt>
      <trkpt lat="44.31879" lon="6.14521">
        <ele>1043.029907</ele>
        <time>2023-09-19T07:34:22.700Z</time>
      </trkpt>
      <trkpt lat="44.31887" lon="6.14511">
        <ele>1044.027675</ele>
        <time>2023-09-19T07:34:27.698Z</time>
      </trkpt>
      <trkpt lat="44.31894" lon="6.14502">
        <ele>1044.899137</ele>
        <time>2023-09-19T07:34:31.699Z</time>
      </trkpt>
      <trkpt lat="44.31901" lon="6.14493">
        <ele>1045.759402</ele>
        <time>2023-09-19T07:34:35.693Z</time>
      </trkpt>
      <trkpt lat="44.31908" lon="6.14485">
        <ele>1046.630097</ele>
        <time>2023-09-19T07:34:39.692Z</time>
      </trkpt>
      <trkpt lat="44.31917" lon="6.14479">
        <ele>1047.500967</ele>
        <time>2023-09-19T07:34:43.692Z</time>
      </trkpt>
      <trkpt lat="44.31926" lon="6.14474">
        <ele>1048.380219</ele>
        <time>2023-09-19T07:34:47.701Z</time>
      </trkpt>
      <trkpt lat="44.31934" lon="6.14466">
        <ele>1049.25997</ele>
        <time>2023-09-19T07:34:51.699Z</time>
      </trkpt>
      <trkpt lat="44.31941" lon="6.1446">
        <ele>1050.114301</ele>
        <time>2023-09-19T07:34:55.702Z</time>
      </trkpt>
      <trkpt lat="44.31949" lon="6.14453">
        <ele>1050.945235</ele>
        <time>2023-09-19T07:34:59.700Z</time>
      </trkpt>
      <trkpt lat="44.31957" lon="6.14446">
        <ele>1051.804015</ele>
        <time>2023-09-19T07:35:03.698Z</time>
      </trkpt>
      <trkpt lat="44.31966" lon="6.14441">
        <ele>1052.702762</ele>
        <time>2023-09-19T07:35:07.800Z</time>
      </trkpt>
      <trkpt lat="44.31974" lon="6.14433">
        <ele>1053.624875</ele>
        <time>2023-09-19T07:35:11.706Z</time>
      </trkpt>
      <trkpt lat="44.31984" lon="6.14427">
        <ele>1054.574112</ele>
        <time>2023-09-19T07:35:15.697Z</time>
      </trkpt>
      <trkpt lat="44.31992" lon="6.14419">
        <ele>1055.507524</ele>
        <time>2023-09-19T07:35:19.704Z</time>
      </trkpt>
      <trkpt lat="44.32001" lon="6.14412">
        <ele>1056.41414</ele>
        <time>2023-09-19T07:35:23.698Z</time>
      </trkpt>
      <trkpt lat="44.32009" lon="6.14405">
        <ele>1057.32364</ele>
        <time>2023-09-19T07:35:27.700Z</time>
      </trkpt>
      <trkpt lat="44.32017" lon="6.14395">
        <ele>1058.252156</ele>
        <time>2023-09-19T07:35:31.703Z</time>
      </trkpt>
      <trkpt lat="44.32025" lon="6.14387">
        <ele>1058.897189</ele>
        <time>2023-09-19T07:35:35.702Z</time>
      </trkpt>
      <trkpt lat="44.32032" lon="6.14378">
        <ele>1059.495758</ele>
        <time>2023-09-19T07:35:39.698Z</time>
      </trkpt>
      <trkpt lat="44.32038" lon="6.14367">
        <ele>1060.103121</ele>
        <time>2023-09-19T07:35:43.702Z</time>
      </trkpt>
      <trkpt lat="44.32045" lon="6.14356">
        <ele>1060.704956</ele>
        <time>2023-09-19T07:35:47.702Z</time>
      </trkpt>
      <trkpt lat="44.32054" lon="6.14359">
        <ele>1061.293214</ele>
        <time>2023-09-19T07:35:51.693Z</time>
      </trkpt>
      <trkpt lat="44.32052" lon="6.14374">
        <ele>1061.976561</ele>
        <time>2023-09-19T07:35:55.692Z</time>
      </trkpt>
      <trkpt lat="44.32045" lon="6.14386">
        <ele>1062.655651</ele>
        <time>2023-09-19T07:35:59.689Z</time>
      </trkpt>
      <trkpt lat="44.32036" lon="6.14395">
        <ele>1063.30581</ele>
        <time>2023-09-19T07:36:03.699Z</time>
      </trkpt>
      <trkpt lat="44.32028" lon="6.14402">
        <ele>1063.896401</ele>
        <time>2023-09-19T07:36:07.697Z</time>
      </trkpt>
      <trkpt lat="44.32019" lon="6.14411">
        <ele>1064.528361</ele>
        <time>2023-09-19T07:36:11.719Z</time>
      </trkpt>
      <trkpt lat="44.32012" lon="6.14422">
        <ele>1065.157812</ele>
        <time>2023-09-19T07:36:15.697Z</time>
      </trkpt>
      <trkpt lat="44.32006" lon="6.14433">
        <ele>1065.765873</ele>
        <time>2023-09-19T07:36:19.704Z</time>
      </trkpt>
      <trkpt lat="44.31998" lon="6.14444">
        <ele>1066.40663</ele>
        <time>2023-09-19T07:36:23.707Z</time>
      </trkpt>
      <trkpt lat="44.3199" lon="6.14453">
        <ele>1067.033547</ele>
        <time>2023-09-19T07:36:27.698Z</time>
      </trkpt>
      <trkpt lat="44.31981" lon="6.1446">
        <ele>1067.675468</ele>
        <time>2023-09-19T07:36:31.706Z</time>
      </trkpt>
      <trkpt lat="44.31972" lon="6.14467">
        <ele>1068.308036</ele>
        <time>2023-09-19T07:36:35.698Z</time>
      </trkpt>
      <trkpt lat="44.31963" lon="6.14476">
        <ele>1068.928731</ele>
        <time>2023-09-19T07:36:39.706Z</time>
      </trkpt>
      <trkpt lat="44.31957" lon="6.14488">
        <ele>1069.572579</ele>
        <time>2023-09-19T07:36:43.703Z</time>
      </trkpt>
      <trkpt lat="44.3195" lon="6.14499">
        <ele>1070.190625</ele>
        <time>2023-09-19T07:36:47.700Z</time>
      </trkpt>
      <trkpt lat="44.31942" lon="6.14508">
        <ele>1070.804907</ele>
        <time>2023-09-19T07:36:51.756Z</time>
      </trkpt>
      <trkpt lat="44.31935" lon="6.1452">
        <ele>1071.444326</ele>
        <time>2023-09-19T07:36:55.700Z</time>
      </trkpt>
      <trkpt lat="44.31929" lon="6.14533">
        <ele>1072.087148</ele>
        <time>2023-09-19T07:36:59.699Z</time>
      </trkpt>
      <trkpt lat="44.31923" lon="6.14545">
        <ele>1072.716068</ele>
        <time>2023-09-19T07:37:03.712Z</time>
      </trkpt>
      <trkpt lat="44.31916" lon="6.14557">
        <ele>1073.351685</ele>
        <time>2023-09-19T07:37:07.701Z</time>
      </trkpt>
      <trkpt lat="44.31911" lon="6.14571">
        <ele>1074.002954</ele>
        <time>2023-09-19T07:37:11.699Z</time>
      </trkpt>
      <trkpt lat="44.31908" lon="6.14586">
        <ele>1074.681467</ele>
        <time>2023-09-19T07:37:15.706Z</time>
      </trkpt>
      <trkpt lat="44.31908" lon="6.14602">
        <ele>1075.350033</ele>
        <time>2023-09-19T07:37:19.698Z</time>
      </trkpt>
      <trkpt lat="44.31907" lon="6.14618">
        <ele>1076.014687</ele>
        <time>2023-09-19T07:37:23.706Z</time>
      </trkpt>
      <trkpt lat="44.31907" lon="6.14633">
        <ele>1076.658074</ele>
        <time>2023-09-19T07:37:27.698Z</time>
      </trkpt>
      <trkpt lat="44.31905" lon="6.14649">
        <ele>1077.311777</ele>
        <time>2023-09-19T07:37:31.719Z</time>
      </trkpt>
      <trkpt lat="44.31903" lon="6.14664">
        <ele>1077.953897</ele>
        <time>2023-09-19T07:37:35.704Z</time>
      </trkpt>
      <trkpt lat="44.31903" lon="6.14679">
        <ele>1078.593734</ele>
        <time>2023-09-19T07:37:39.705Z</time>
      </trkpt>
      <trkpt lat="44.31902" lon="6.14694">
        <ele>1079.234944</ele>
        <time>2023-09-19T07:37:43.702Z</time>
      </trkpt>
      <trkpt lat="44.31899" lon="6.14709">
        <ele>1080.011032</ele>
        <time>2023-09-19T07:37:47.701Z</time>
      </trkpt>
      <trkpt lat="44.31895" lon="6.14723">
        <ele>1081.171426</ele>
        <time>2023-09-19T07:37:51.697Z</time>
      </trkpt>
      <trkpt lat="44.3189" lon="6.14736">
        <ele>1082.32585</ele>
        <time>2023-09-19T07:37:55.704Z</time>
      </trkpt>
      <trkpt lat="44.3188" lon="6.14743">
        <ele>1083.47103</ele>
        <time>2023-09-19T07:37:59.696Z</time>
      </trkpt>
      <trkpt lat="44.31869" lon="6.14742">
        <ele>1084.649808</ele>
        <time>2023-09-19T07:38:03.704Z</time>
      </trkpt>
      <trkpt lat="44.31858" lon="6.14737">
        <ele>1085.873177</ele>
        <time>2023-09-19T07:38:07.695Z</time>
      </trkpt>
      <trkpt lat="44.31848" lon="6.14732">
        <ele>1087.037918</ele>
        <time>2023-09-19T07:38:11.714Z</time>
      </trkpt>
      <trkpt lat="44.31837" lon="6.1473">
        <ele>1088.214518</ele>
        <time>2023-09-19T07:38:15.703Z</time>
      </trkpt>
      <trkpt lat="44.31826" lon="6.14729">
        <ele>1089.403948</ele>
        <time>2023-09-19T07:38:19.722Z</time>
      </trkpt>
      <trkpt lat="44.31815" lon="6.1473">
        <ele>1090.561426</ele>
        <time>2023-09-19T07:38:23.698Z</time>
      </trkpt>
      <trkpt lat="44.31805" lon="6.14735">
        <ele>1091.706483</ele>
        <time>2023-09-19T07:38:27.706Z</time>
      </trkpt>
      <trkpt lat="44.31797" lon="6.14744">
        <ele>1092.790536</ele>
        <time>2023-09-19T07:38:31.700Z</time>
      </trkpt>
      <trkpt lat="44.31792" lon="6.14757">
        <ele>1093.913703</ele>
        <time>2023-09-19T07:38:35.704Z</time>
      </trkpt>
      <trkpt lat="44.31788" lon="6.1477">
        <ele>1095.042895</ele>
        <time>2023-09-19T07:38:39.704Z</time>
      </trkpt>
      <trkpt lat="44.31781" lon="6.14782">
        <ele>1096.161884</ele>
        <time>2023-09-19T07:38:43.701Z</time>
      </trkpt>
      <trkpt lat="44.31774" lon="6.14792">
        <ele>1097.284842</ele>
        <time>2023-09-19T07:38:47.720Z</time>
      </trkpt>
      <trkpt lat="44.31766" lon="6.14801">
        <ele>1098.376232</ele>
        <time>2023-09-19T07:38:51.710Z</time>
      </trkpt>
      <trkpt lat="44.31759" lon="6.14811">
        <ele>1099.341921</ele>
        <time>2023-09-19T07:38:55.706Z</time>
      </trkpt>
      <trkpt lat="44.31751" lon="6.14821">
        <ele>1100.189095</ele>
        <time>2023-09-19T07:38:59.705Z</time>
      </trkpt>
      <trkpt lat="44.31743" lon="6.1483">
        <ele>1101.057606</ele>
        <time>2023-09-19T07:39:03.722Z</time>
      </trkpt>
      <trkpt lat="44.31735" lon="6.1484">
        <ele>1101.898946</ele>
        <time>2023-09-19T07:39:07.722Z</time>
      </trkpt>
      <trkpt lat="44.31726" lon="6.14848">
        <ele>1102.747187</ele>
        <time>2023-09-19T07:39:11.721Z</time>
      </trkpt>
      <trkpt lat="44.31717" lon="6.14854">
        <ele>1103.590927</ele>
        <time>2023-09-19T07:39:15.704Z</time>
      </trkpt>
      <trkpt lat="44.31708" lon="6.14862">
        <ele>1104.428478</ele>
        <time>2023-09-19T07:39:19.712Z</time>
      </trkpt>
      <trkpt lat="44.31699" lon="6.14869">
        <ele>1105.288874</ele>
        <time>2023-09-19T07:39:23.713Z</time>
      </trkpt>
      <trkpt lat="44.31689" lon="6.14874">
        <ele>1106.134174</ele>
        <time>2023-09-19T07:39:27.703Z</time>
      </trkpt>
      <trkpt lat="44.31681" lon="6.14883">
        <ele>1106.985848</ele>
        <time>2023-09-19T07:39:31.705Z</time>
      </trkpt>
      <trkpt lat="44.31673" lon="6.14894">
        <ele>1107.868221</ele>
        <time>2023-09-19T07:39:35.704Z</time>
      </trkpt>
      <trkpt lat="44.31665" lon="6.14903">
        <ele>1108.737975</ele>
        <time>2023-09-19T07:39:39.707Z</time>
      </trkpt>
      <trkpt lat="44.31654" lon="6.14909">
        <ele>1109.652209</ele>
        <time>2023-09-19T07:39:43.704Z</time>
      </trkpt>
      <trkpt lat="44.31644" lon="6.14915">
        <ele>1110.565387</ele>
        <time>2023-09-19T07:39:47.708Z</time>
      </trkpt>
      <trkpt lat="44.31635" lon="6.14924">
        <ele>1111.480357</ele>
        <time>2023-09-19T07:39:51.712Z</time>
      </trkpt>
      <trkpt lat="44.31626" lon="6.14932">
        <ele>1112.322416</ele>
        <time>2023-09-19T07:39:55.711Z</time>
      </trkpt>
      <trkpt lat="44.31615" lon="6.14933">
        <ele>1113.201298</ele>
        <time>2023-09-19T07:39:59.710Z</time>
      </trkpt>
      <trkpt lat="44.31606" lon="6.14929">
        <ele>1114.056438</ele>
        <time>2023-09-19T07:40:03.700Z</time>
      </trkpt>
      <trkpt lat="44.31597" lon="6.14928">
        <ele>1114.975335</ele>
        <time>2023-09-19T07:40:07.709Z</time>
      </trkpt>
      <trkpt lat="44.31588" lon="6.14933">
        <ele>1115.928267</ele>
        <time>2023-09-19T07:40:11.715Z</time>
      </trkpt>
      <trkpt lat="44.3158" lon="6.14941">
        <ele>1116.85801</ele>
        <time>2023-09-19T07:40:15.695Z</time>
      </trkpt>
      <trkpt lat="44.31573" lon="6.14953">
        <ele>1117.938397</ele>
        <time>2023-09-19T07:40:20.705Z</time>
      </trkpt>
      <trkpt lat="44.31569" lon="6.14965">
        <ele>1118.851818</ele>
        <time>2023-09-19T07:40:24.709Z</time>
      </trkpt>
      <trkpt lat="44.31569" lon="6.14978">
        <ele>1119.773744</ele>
        <time>2023-09-19T07:40:28.694Z</time>
      </trkpt>
      <trkpt lat="44.3157" lon="6.14991">
        <ele>1120.694212</ele>
        <time>2023-09-19T07:40:32.698Z</time>
      </trkpt>
      <trkpt lat="44.31571" lon="6.15006">
        <ele>1121.769352</ele>
        <time>2023-09-19T07:40:37.703Z</time>
      </trkpt>
      <trkpt lat="44.31573" lon="6.15021">
        <ele>1122.779899</ele>
        <time>2023-09-19T07:40:42.697Z</time>
      </trkpt>
      <trkpt lat="44.31574" lon="6.15035">
        <ele>1123.812324</ele>
        <time>2023-09-19T07:40:47.704Z</time>
      </trkpt>
      <trkpt lat="44.31576" lon="6.1505">
        <ele>1124.84783</ele>
        <time>2023-09-19T07:40:52.700Z</time>
      </trkpt>
      <trkpt lat="44.31577" lon="6.15064">
        <ele>1125.877072</ele>
        <time>2023-09-19T07:40:57.704Z</time>
      </trkpt>
      <trkpt lat="44.31579" lon="6.1508">
        <ele>1126.94086</ele>
        <time>2023-09-19T07:41:02.701Z</time>
      </trkpt>
      <trkpt lat="44.3158" lon="6.15092">
        <ele>1127.837444</ele>
        <time>2023-09-19T07:41:06.698Z</time>
      </trkpt>
      <trkpt lat="44.31583" lon="6.15107">
        <ele>1128.914423</ele>
        <time>2023-09-19T07:41:11.701Z</time>
      </trkpt>
      <trkpt lat="44.31585" lon="6.15122">
        <ele>1129.986499</ele>
        <time>2023-09-19T07:41:16.695Z</time>
      </trkpt>
      <trkpt lat="44.31583" lon="6.15138">
        <ele>1131.065478</ele>
        <time>2023-09-19T07:41:21.699Z</time>
      </trkpt>
      <trkpt lat="44.31577" lon="6.15151">
        <ele>1132.400996</ele>
        <time>2023-09-19T07:41:26.694Z</time>
      </trkpt>
      <trkpt lat="44.31569" lon="6.1516">
        <ele>1133.689506</ele>
        <time>2023-09-19T07:41:31.698Z</time>
      </trkpt>
      <trkpt lat="44.31561" lon="6.15171">
        <ele>1134.992716</ele>
        <time>2023-09-19T07:41:36.695Z</time>
      </trkpt>
      <trkpt lat="44.31555" lon="6.15184">
        <ele>1136.351156</ele>
        <time>2023-09-19T07:41:41.702Z</time>
      </trkpt>
      <trkpt lat="44.31549" lon="6.15197">
        <ele>1137.659975</ele>
        <time>2023-09-19T07:41:46.701Z</time>
      </trkpt>
      <trkpt lat="44.31543" lon="6.15209">
        <ele>1138.948926</ele>
        <time>2023-09-19T07:41:51.699Z</time>
      </trkpt>
      <trkpt lat="44.31536" lon="6.15221">
        <ele>1140.24011</ele>
        <time>2023-09-19T07:41:56.700Z</time>
      </trkpt>
      <trkpt lat="44.31528" lon="6.1523">
        <ele>1141.507542</ele>
        <time>2023-09-19T07:42:01.706Z</time>
      </trkpt>
      <trkpt lat="44.31521" lon="6.1524">
        <ele>1142.67366</ele>
        <time>2023-09-19T07:42:06.696Z</time>
      </trkpt>
      <trkpt lat="44.31512" lon="6.15246">
        <ele>1143.950312</ele>
        <time>2023-09-19T07:42:11.699Z</time>
      </trkpt>
      <trkpt lat="44.31505" lon="6.15258">
        <ele>1145.215325</ele>
        <time>2023-09-19T07:42:16.703Z</time>
      </trkpt>
      <trkpt lat="44.31498" lon="6.15269">
        <ele>1146.497923</ele>
        <time>2023-09-19T07:42:21.709Z</time>
      </trkpt>
      <trkpt lat="44.31491" lon="6.15278">
        <ele>1147.695353</ele>
        <time>2023-09-19T07:42:26.699Z</time>
      </trkpt>
      <trkpt lat="44.31481" lon="6.15286">
        <ele>1148.961263</ele>
        <time>2023-09-19T07:42:31.705Z</time>
      </trkpt>
      <trkpt lat="44.31471" lon="6.15288">
        <ele>1150.283114</ele>
        <time>2023-09-19T07:42:36.698Z</time>
      </trkpt>
      <trkpt lat="44.31462" lon="6.15289">
        <ele>1151.370178</ele>
        <time>2023-09-19T07:42:40.704Z</time>
      </trkpt>
      <trkpt lat="44.31451" lon="6.15289">
        <ele>1152.681488</ele>
        <time>2023-09-19T07:42:45.704Z</time>
      </trkpt>
      <trkpt lat="44.3144" lon="6.15288">
        <ele>1153.732785</ele>
        <time>2023-09-19T07:42:50.696Z</time>
      </trkpt>
      <trkpt lat="44.31429" lon="6.15292">
        <ele>1154.763934</ele>
        <time>2023-09-19T07:42:55.704Z</time>
      </trkpt>
      <trkpt lat="44.31421" lon="6.15301">
        <ele>1155.754708</ele>
        <time>2023-09-19T07:43:00.699Z</time>
      </trkpt>
      <trkpt lat="44.31412" lon="6.15305">
        <ele>1156.710488</ele>
        <time>2023-09-19T07:43:05.698Z</time>
      </trkpt>
      <trkpt lat="44.31402" lon="6.15309">
        <ele>1157.636422</ele>
        <time>2023-09-19T07:43:10.700Z</time>
      </trkpt>
      <trkpt lat="44.31394" lon="6.15316">
        <ele>1158.55087</ele>
        <time>2023-09-19T07:43:15.707Z</time>
      </trkpt>
      <trkpt lat="44.31387" lon="6.15324">
        <ele>1159.437477</ele>
        <time>2023-09-19T07:43:20.695Z</time>
      </trkpt>
      <trkpt lat="44.31379" lon="6.15331">
        <ele>1160.310305</ele>
        <time>2023-09-19T07:43:25.694Z</time>
      </trkpt>
      <trkpt lat="44.31372" lon="6.15341">
        <ele>1161.310008</ele>
        <time>2023-09-19T07:43:31.715Z</time>
      </trkpt>
      <trkpt lat="44.31363" lon="6.15349">
        <ele>1162.253568</ele>
        <time>2023-09-19T07:43:36.700Z</time>
      </trkpt>
      <trkpt lat="44.31357" lon="6.15358">
        <ele>1163.169102</ele>
        <time>2023-09-19T07:43:41.719Z</time>
      </trkpt>
      <trkpt lat="44.3135" lon="6.15368">
        <ele>1164.103033</ele>
        <time>2023-09-19T07:43:46.701Z</time>
      </trkpt>
      <trkpt lat="44.3134" lon="6.15373">
        <ele>1165.077916</ele>
        <time>2023-09-19T07:43:51.713Z</time>
      </trkpt>
      <trkpt lat="44.3133" lon="6.1537">
        <ele>1166.135513</ele>
        <time>2023-09-19T07:43:56.705Z</time>
      </trkpt>
      <trkpt lat="44.3132" lon="6.15368">
        <ele>1167.090719</ele>
        <time>2023-09-19T07:44:01.712Z</time>
      </trkpt>
      <trkpt lat="44.31309" lon="6.15373">
        <ele>1168.121869</ele>
        <time>2023-09-19T07:44:07.696Z</time>
      </trkpt>
      <trkpt lat="44.31304" lon="6.15385">
        <ele>1169.122505</ele>
        <time>2023-09-19T07:44:12.700Z</time>
      </trkpt>
      <trkpt lat="44.31306" lon="6.15401">
        <ele>1170.151891</ele>
        <time>2023-09-19T07:44:17.704Z</time>
      </trkpt>
      <trkpt lat="44.31309" lon="6.15413">
        <ele>1170.858546</ele>
        <time>2023-09-19T07:44:21.708Z</time>
      </trkpt>
      <trkpt lat="44.31314" lon="6.15424">
        <ele>1171.577955</ele>
        <time>2023-09-19T07:44:25.707Z</time>
      </trkpt>
      <trkpt lat="44.31318" lon="6.15436">
        <ele>1172.273623</ele>
        <time>2023-09-19T07:44:29.699Z</time>
      </trkpt>
      <trkpt lat="44.31321" lon="6.15451">
        <ele>1173.112146</ele>
        <time>2023-09-19T07:44:34.698Z</time>
      </trkpt>
      <trkpt lat="44.31319" lon="6.15463">
        <ele>1173.801962</ele>
        <time>2023-09-19T07:44:38.698Z</time>
      </trkpt>
      <trkpt lat="44.31309" lon="6.15468">
        <ele>1174.580397</ele>
        <time>2023-09-19T07:44:42.699Z</time>
      </trkpt>
      <trkpt lat="44.31299" lon="6.15461">
        <ele>1175.410019</ele>
        <time>2023-09-19T07:44:46.706Z</time>
      </trkpt>
      <trkpt lat="44.31293" lon="6.15449">
        <ele>1176.199404</ele>
        <time>2023-09-19T07:44:50.703Z</time>
      </trkpt>
      <trkpt lat="44.31288" lon="6.15435">
        <ele>1176.991703</ele>
        <time>2023-09-19T07:44:54.713Z</time>
      </trkpt>
      <trkpt lat="44.31284" lon="6.15421">
        <ele>1177.803642</ele>
        <time>2023-09-19T07:44:58.701Z</time>
      </trkpt>
      <trkpt lat="44.3128" lon="6.15408">
        <ele>1178.596449</ele>
        <time>2023-09-19T07:45:02.702Z</time>
      </trkpt>
      <trkpt lat="44.31277" lon="6.15393">
        <ele>1179.399787</ele>
        <time>2023-09-19T07:45:06.702Z</time>
      </trkpt>
      <trkpt lat="44.31272" lon="6.15381">
        <ele>1180.159634</ele>
        <time>2023-09-19T07:45:10.699Z</time>
      </trkpt>
      <trkpt lat="44.31263" lon="6.15376">
        <ele>1180.918367</ele>
        <time>2023-09-19T07:45:14.703Z</time>
      </trkpt>
      <trkpt lat="44.31255" lon="6.15387">
        <ele>1181.743441</ele>
        <time>2023-09-19T07:45:18.695Z</time>
      </trkpt>
      <trkpt lat="44.31256" lon="6.154">
        <ele>1182.436558</ele>
        <time>2023-09-19T07:45:21.694Z</time>
      </trkpt>
      <trkpt lat="44.3126" lon="6.15411">
        <ele>1183.122777</ele>
        <time>2023-09-19T07:45:24.695Z</time>
      </trkpt>
      <trkpt lat="44.31265" lon="6.15426">
        <ele>1184.144935</ele>
        <time>2023-09-19T07:45:28.703Z</time>
      </trkpt>
      <trkpt lat="44.31267" lon="6.1544">
        <ele>1185.164056</ele>
        <time>2023-09-19T07:45:32.703Z</time>
      </trkpt>
      <trkpt lat="44.31265" lon="6.15454">
        <ele>1186.17635</ele>
        <time>2023-09-19T07:45:36.697Z</time>
      </trkpt>
      <trkpt lat="44.31257" lon="6.15465">
        <ele>1187.248514</ele>
        <time>2023-09-19T07:45:40.705Z</time>
      </trkpt>
      <trkpt lat="44.31248" lon="6.15473">
        <ele>1188.321542</ele>
        <time>2023-09-19T07:45:44.705Z</time>
      </trkpt>
      <trkpt lat="44.31238" lon="6.15479">
        <ele>1189.356428</ele>
        <time>2023-09-19T07:45:48.700Z</time>
      </trkpt>
      <trkpt lat="44.31228" lon="6.15483">
        <ele>1190.425687</ele>
        <time>2023-09-19T07:45:52.704Z</time>
      </trkpt>
      <trkpt lat="44.31218" lon="6.15487">
        <ele>1191.403688</ele>
        <time>2023-09-19T07:45:56.702Z</time>
      </trkpt>
      <trkpt lat="44.31209" lon="6.15491">
        <ele>1192.374246</ele>
        <time>2023-09-19T07:46:00.701Z</time>
      </trkpt>
      <trkpt lat="44.31199" lon="6.15492">
        <ele>1193.330588</ele>
        <time>2023-09-19T07:46:04.702Z</time>
      </trkpt>
      <trkpt lat="44.31189" lon="6.15491">
        <ele>1194.273464</ele>
        <time>2023-09-19T07:46:08.699Z</time>
      </trkpt>
      <trkpt lat="44.31181" lon="6.15485">
        <ele>1195.208209</ele>
        <time>2023-09-19T07:46:12.702Z</time>
      </trkpt>
      <trkpt lat="44.31175" lon="6.15473">
        <ele>1196.278615</ele>
        <time>2023-09-19T07:46:16.698Z</time>
      </trkpt>
      <trkpt lat="44.31175" lon="6.15458">
        <ele>1197.330833</ele>
        <time>2023-09-19T07:46:20.696Z</time>
      </trkpt>
      <trkpt lat="44.31182" lon="6.15446">
        <ele>1198.37848</ele>
        <time>2023-09-19T07:46:24.701Z</time>
      </trkpt>
      <trkpt lat="44.31189" lon="6.15435">
        <ele>1199.38817</ele>
        <time>2023-09-19T07:46:28.705Z</time>
      </trkpt>
      <trkpt lat="44.31195" lon="6.15422">
        <ele>1200.425728</ele>
        <time>2023-09-19T07:46:32.714Z</time>
      </trkpt>
      <trkpt lat="44.31198" lon="6.15408">
        <ele>1201.36284</ele>
        <time>2023-09-19T07:46:36.701Z</time>
      </trkpt>
      <trkpt lat="44.31201" lon="6.15395">
        <ele>1202.13666</ele>
        <time>2023-09-19T07:46:40.704Z</time>
      </trkpt>
      <trkpt lat="44.31206" lon="6.15381">
        <ele>1202.912839</ele>
        <time>2023-09-19T07:46:44.709Z</time>
      </trkpt>
      <trkpt lat="44.31212" lon="6.15369">
        <ele>1203.717505</ele>
        <time>2023-09-19T07:46:48.700Z</time>
      </trkpt>
      <trkpt lat="44.31219" lon="6.15358">
        <ele>1204.519294</ele>
        <time>2023-09-19T07:46:52.711Z</time>
      </trkpt>
      <trkpt lat="44.31226" lon="6.15346">
        <ele>1205.319719</ele>
        <time>2023-09-19T07:46:56.704Z</time>
      </trkpt>
      <trkpt lat="44.31232" lon="6.15334">
        <ele>1206.089666</ele>
        <time>2023-09-19T07:47:00.703Z</time>
      </trkpt>
      <trkpt lat="44.31234" lon="6.1532">
        <ele>1206.850403</ele>
        <time>2023-09-19T07:47:04.708Z</time>
      </trkpt>
      <trkpt lat="44.31223" lon="6.15315">
        <ele>1207.676944</ele>
        <time>2023-09-19T07:47:08.707Z</time>
      </trkpt>
      <trkpt lat="44.31216" lon="6.15324">
        <ele>1208.367651</ele>
        <time>2023-09-19T07:47:11.701Z</time>
      </trkpt>
      <trkpt lat="44.31212" lon="6.15335">
        <ele>1209.045238</ele>
        <time>2023-09-19T07:47:14.703Z</time>
      </trkpt>
      <trkpt lat="44.31206" lon="6.15349">
        <ele>1209.896395</ele>
        <time>2023-09-19T07:47:18.698Z</time>
      </trkpt>
      <trkpt lat="44.31199" lon="6.15362">
        <ele>1210.735543</ele>
        <time>2023-09-19T07:47:22.708Z</time>
      </trkpt>
      <trkpt lat="44.31192" lon="6.15374">
        <ele>1211.563062</ele>
        <time>2023-09-19T07:47:26.701Z</time>
      </trkpt>
      <trkpt lat="44.31185" lon="6.15385">
        <ele>1212.336154</ele>
        <time>2023-09-19T07:47:30.701Z</time>
      </trkpt>
      <trkpt lat="44.31178" lon="6.15395">
        <ele>1213.093876</ele>
        <time>2023-09-19T07:47:34.705Z</time>
      </trkpt>
      <trkpt lat="44.3117" lon="6.15402">
        <ele>1213.821932</ele>
        <time>2023-09-19T07:47:38.714Z</time>
      </trkpt>
      <trkpt lat="44.31161" lon="6.15411">
        <ele>1214.810872</ele>
        <time>2023-09-19T07:47:43.704Z</time>
      </trkpt>
      <trkpt lat="44.31153" lon="6.15422">
        <ele>1216.08613</ele>
        <time>2023-09-19T07:47:48.712Z</time>
      </trkpt>
      <trkpt lat="44.31144" lon="6.15429">
        <ele>1217.298732</ele>
        <time>2023-09-19T07:47:53.703Z</time>
      </trkpt>
      <trkpt lat="44.31133" lon="6.15426">
        <ele>1218.605281</ele>
        <time>2023-09-19T07:47:58.704Z</time>
      </trkpt>
      <trkpt lat="44.31124" lon="6.15422">
        <ele>1219.791953</ele>
        <time>2023-09-19T07:48:02.706Z</time>
      </trkpt>
      <trkpt lat="44.31115" lon="6.15416">
        <ele>1220.880924</ele>
        <time>2023-09-19T07:48:06.700Z</time>
      </trkpt>
      <trkpt lat="44.31107" lon="6.15411">
        <ele>1221.990237</ele>
        <time>2023-09-19T07:48:10.707Z</time>
      </trkpt>
      <trkpt lat="44.31097" lon="6.15407">
        <ele>1223.135236</ele>
        <time>2023-09-19T07:48:14.700Z</time>
      </trkpt>
      <trkpt lat="44.31089" lon="6.15401">
        <ele>1224.267083</ele>
        <time>2023-09-19T07:48:18.695Z</time>
      </trkpt>
      <trkpt lat="44.3108" lon="6.15396">
        <ele>1225.366541</ele>
        <time>2023-09-19T07:48:22.703Z</time>
      </trkpt>
      <trkpt lat="44.31072" lon="6.1539">
        <ele>1226.497976</ele>
        <time>2023-09-19T07:48:26.707Z</time>
      </trkpt>
      <trkpt lat="44.31063" lon="6.15392">
        <ele>1227.580151</ele>
        <time>2023-09-19T07:48:30.709Z</time>
      </trkpt>
      <trkpt lat="44.3106" lon="6.15407">
        <ele>1228.881222</ele>
        <time>2023-09-19T07:48:34.704Z</time>
      </trkpt>
      <trkpt lat="44.31054" lon="6.15419">
        <ele>1230.032481</ele>
        <time>2023-09-19T07:48:38.698Z</time>
      </trkpt>
      <trkpt lat="44.31045" lon="6.15421">
        <ele>1231.167788</ele>
        <time>2023-09-19T07:48:42.704Z</time>
      </trkpt>
      <trkpt lat="44.31035" lon="6.15419">
        <ele>1232.351202</ele>
        <time>2023-09-19T07:48:46.701Z</time>
      </trkpt>
      <trkpt lat="44.31025" lon="6.15417">
        <ele>1233.495386</ele>
        <time>2023-09-19T07:48:50.701Z</time>
      </trkpt>
      <trkpt lat="44.31015" lon="6.15415">
        <ele>1234.640903</ele>
        <time>2023-09-19T07:48:54.706Z</time>
      </trkpt>
      <trkpt lat="44.31006" lon="6.15415">
        <ele>1235.733495</ele>
        <time>2023-09-19T07:48:58.704Z</time>
      </trkpt>
      <trkpt lat="44.30997" lon="6.15415">
        <ele>1236.934892</ele>
        <time>2023-09-19T07:49:02.715Z</time>
      </trkpt>
      <trkpt lat="44.30987" lon="6.15415">
        <ele>1238.099694</ele>
        <time>2023-09-19T07:49:06.701Z</time>
      </trkpt>
      <trkpt lat="44.30978" lon="6.15415">
        <ele>1239.239113</ele>
        <time>2023-09-19T07:49:10.703Z</time>
      </trkpt>
      <trkpt lat="44.30969" lon="6.15415">
        <ele>1240.365141</ele>
        <time>2023-09-19T07:49:14.699Z</time>
      </trkpt>
      <trkpt lat="44.30958" lon="6.15414">
        <ele>1241.754631</ele>
        <time>2023-09-19T07:49:19.712Z</time>
      </trkpt>
      <trkpt lat="44.30947" lon="6.15412">
        <ele>1243.101977</ele>
        <time>2023-09-19T07:49:24.701Z</time>
      </trkpt>
      <trkpt lat="44.30937" lon="6.15407">
        <ele>1244.472169</ele>
        <time>2023-09-19T07:49:29.701Z</time>
      </trkpt>
      <trkpt lat="44.30928" lon="6.15398">
        <ele>1245.872596</ele>
        <time>2023-09-19T07:49:34.697Z</time>
      </trkpt>
      <trkpt lat="44.30919" lon="6.15389">
        <ele>1247.257422</ele>
        <time>2023-09-19T07:49:39.697Z</time>
      </trkpt>
      <trkpt lat="44.3091" lon="6.1538">
        <ele>1248.621779</ele>
        <time>2023-09-19T07:49:44.704Z</time>
      </trkpt>
      <trkpt lat="44.30903" lon="6.15372">
        <ele>1249.787907</ele>
        <time>2023-09-19T07:49:48.704Z</time>
      </trkpt>
      <trkpt lat="44.30896" lon="6.1536">
        <ele>1251.188854</ele>
        <time>2023-09-19T07:49:53.714Z</time>
      </trkpt>
      <trkpt lat="44.30891" lon="6.15349">
        <ele>1252.342346</ele>
        <time>2023-09-19T07:49:57.704Z</time>
      </trkpt>
      <trkpt lat="44.30886" lon="6.15338">
        <ele>1253.495838</ele>
        <time>2023-09-19T07:50:01.702Z</time>
      </trkpt>
      <trkpt lat="44.3088" lon="6.15329">
        <ele>1254.649585</ele>
        <time>2023-09-19T07:50:05.709Z</time>
      </trkpt>
      <trkpt lat="44.30871" lon="6.15336">
        <ele>1255.97458</ele>
        <time>2023-09-19T07:50:10.703Z</time>
      </trkpt>
      <trkpt lat="44.30876" lon="6.15351">
        <ele>1257.372523</ele>
        <time>2023-09-19T07:50:14.696Z</time>
      </trkpt>
      <trkpt lat="44.30884" lon="6.15362">
        <ele>1258.311118</ele>
        <time>2023-09-19T07:50:18.695Z</time>
      </trkpt>
      <trkpt lat="44.3089" lon="6.15374">
        <ele>1258.748939</ele>
        <time>2023-09-19T07:50:22.700Z</time>
      </trkpt>
      <trkpt lat="44.30895" lon="6.15387">
        <ele>1259.171459</ele>
        <time>2023-09-19T07:50:26.713Z</time>
      </trkpt>
      <trkpt lat="44.30901" lon="6.15399">
        <ele>1259.591903</ele>
        <time>2023-09-19T07:50:30.707Z</time>
      </trkpt>
      <trkpt lat="44.30905" lon="6.15412">
        <ele>1260.007518</ele>
        <time>2023-09-19T07:50:34.702Z</time>
      </trkpt>
      <trkpt lat="44.3091" lon="6.15425">
        <ele>1260.431522</ele>
        <time>2023-09-19T07:50:38.708Z</time>
      </trkpt>
      <trkpt lat="44.30915" lon="6.15438">
        <ele>1260.856054</ele>
        <time>2023-09-19T07:50:42.707Z</time>
      </trkpt>
      <trkpt lat="44.3092" lon="6.15451">
        <ele>1261.276121</ele>
        <time>2023-09-19T07:50:46.708Z</time>
      </trkpt>
      <trkpt lat="44.30924" lon="6.15465">
        <ele>1261.723609</ele>
        <time>2023-09-19T07:50:50.706Z</time>
      </trkpt>
      <trkpt lat="44.30927" lon="6.15478">
        <ele>1262.137029</ele>
        <time>2023-09-19T07:50:54.699Z</time>
      </trkpt>
      <trkpt lat="44.3093" lon="6.15492">
        <ele>1262.537583</ele>
        <time>2023-09-19T07:50:58.713Z</time>
      </trkpt>
      <trkpt lat="44.30933" lon="6.15506">
        <ele>1262.963554</ele>
        <time>2023-09-19T07:51:02.704Z</time>
      </trkpt>
      <trkpt lat="44.30932" lon="6.1552">
        <ele>1263.380738</ele>
        <time>2023-09-19T07:51:06.707Z</time>
      </trkpt>
      <trkpt lat="44.3093" lon="6.15534">
        <ele>1263.782507</ele>
        <time>2023-09-19T07:51:10.703Z</time>
      </trkpt>
      <trkpt lat="44.30926" lon="6.15547">
        <ele>1264.208481</ele>
        <time>2023-09-19T07:51:14.704Z</time>
      </trkpt>
      <trkpt lat="44.30922" lon="6.15561">
        <ele>1264.631584</ele>
        <time>2023-09-19T07:51:18.702Z</time>
      </trkpt>
      <trkpt lat="44.30916" lon="6.15573">
        <ele>1265.06026</ele>
        <time>2023-09-19T07:51:22.706Z</time>
      </trkpt>
      <trkpt lat="44.30909" lon="6.15585">
        <ele>1265.422167</ele>
        <time>2023-09-19T07:51:26.700Z</time>
      </trkpt>
      <trkpt lat="44.30903" lon="6.15597">
        <ele>1265.601102</ele>
        <time>2023-09-19T07:51:30.703Z</time>
      </trkpt>
      <trkpt lat="44.30896" lon="6.15608">
        <ele>1265.784608</ele>
        <time>2023-09-19T07:51:34.702Z</time>
      </trkpt>
      <trkpt lat="44.3089" lon="6.1562">
        <ele>1265.960502</ele>
        <time>2023-09-19T07:51:38.704Z</time>
      </trkpt>
      <trkpt lat="44.30884" lon="6.15632">
        <ele>1266.133671</ele>
        <time>2023-09-19T07:51:42.700Z</time>
      </trkpt>
      <trkpt lat="44.30879" lon="6.15644">
        <ele>1266.305088</ele>
        <time>2023-09-19T07:51:46.711Z</time>
      </trkpt>
      <trkpt lat="44.30875" lon="6.15657">
        <ele>1266.478637</ele>
        <time>2023-09-19T07:51:50.716Z</time>
      </trkpt>
      <trkpt lat="44.30872" lon="6.15671">
        <ele>1266.660954</ele>
        <time>2023-09-19T07:51:54.706Z</time>
      </trkpt>
      <trkpt lat="44.30867" lon="6.15683">
        <ele>1266.834614</ele>
        <time>2023-09-19T07:51:58.709Z</time>
      </trkpt>
      <trkpt lat="44.30862" lon="6.15697">
        <ele>1267.014721</ele>
        <time>2023-09-19T07:52:02.701Z</time>
      </trkpt>
      <trkpt lat="44.30859" lon="6.15712">
        <ele>1267.207339</ele>
        <time>2023-09-19T07:52:06.708Z</time>
      </trkpt>
      <trkpt lat="44.30856" lon="6.15727">
        <ele>1267.397474</ele>
        <time>2023-09-19T07:52:10.705Z</time>
      </trkpt>
      <trkpt lat="44.30854" lon="6.15742">
        <ele>1267.58387</ele>
        <time>2023-09-19T07:52:14.705Z</time>
      </trkpt>
      <trkpt lat="44.30848" lon="6.15757">
        <ele>1267.789546</ele>
        <time>2023-09-19T07:52:18.697Z</time>
      </trkpt>
      <trkpt lat="44.3084" lon="6.15768">
        <ele>1267.982363</ele>
        <time>2023-09-19T07:52:21.701Z</time>
      </trkpt>
      <trkpt lat="44.30833" lon="6.15781">
        <ele>1268.182057</ele>
        <time>2023-09-19T07:52:24.702Z</time>
      </trkpt>
      <trkpt lat="44.30829" lon="6.15798">
        <ele>1268.398351</ele>
        <time>2023-09-19T07:52:27.702Z</time>
      </trkpt>
      <trkpt lat="44.30826" lon="6.1581">
        <ele>1268.519302</ele>
        <time>2023-09-19T07:52:29.707Z</time>
      </trkpt>
      <trkpt lat="44.30823" lon="6.15822">
        <ele>1268.638941</ele>
        <time>2023-09-19T07:52:31.703Z</time>
      </trkpt>
      <trkpt lat="44.30821" lon="6.15837">
        <ele>1268.773836</ele>
        <time>2023-09-19T07:52:33.701Z</time>
      </trkpt>
      <trkpt lat="44.30817" lon="6.15852">
        <ele>1268.92042</ele>
        <time>2023-09-19T07:52:35.706Z</time>
      </trkpt>
      <trkpt lat="44.30816" lon="6.15869">
        <ele>1269.073251</ele>
        <time>2023-09-19T07:52:37.702Z</time>
      </trkpt>
      <trkpt lat="44.3082" lon="6.15885">
        <ele>1269.226158</ele>
        <time>2023-09-19T07:52:39.703Z</time>
      </trkpt>
      <trkpt lat="44.30826" lon="6.15896">
        <ele>1269.347525</ele>
        <time>2023-09-19T07:52:42.701Z</time>
      </trkpt>
      <trkpt lat="44.30822" lon="6.15908">
        <ele>1269.467592</ele>
        <time>2023-09-19T07:52:47.704Z</time>
      </trkpt>
      <trkpt lat="44.30814" lon="6.15916">
        <ele>1269.591562</ele>
        <time>2023-09-19T07:52:50.706Z</time>
      </trkpt>
      <trkpt lat="44.30806" lon="6.15924">
        <ele>1269.715571</ele>
        <time>2023-09-19T07:52:53.696Z</time>
      </trkpt>
      <trkpt lat="44.30797" lon="6.15934">
        <ele>1269.861621</ele>
        <time>2023-09-19T07:52:57.703Z</time>
      </trkpt>
      <trkpt lat="44.30789" lon="6.1594">
        <ele>1269.97556</ele>
        <time>2023-09-19T07:53:00.703Z</time>
      </trkpt>
      <trkpt lat="44.30779" lon="6.15948">
        <ele>1270.11791</ele>
        <time>2023-09-19T07:53:04.707Z</time>
      </trkpt>
      <trkpt lat="44.30771" lon="6.15955">
        <ele>1270.241111</ele>
        <time>2023-09-19T07:53:08.700Z</time>
      </trkpt>
      <trkpt lat="44.3076" lon="6.15959">
        <ele>1270.373638</ele>
        <time>2023-09-19T07:53:12.700Z</time>
      </trkpt>
      <trkpt lat="44.30752" lon="6.15967">
        <ele>1270.502802</ele>
        <time>2023-09-19T07:53:16.705Z</time>
      </trkpt>
      <trkpt lat="44.30747" lon="6.15981">
        <ele>1270.637667</ele>
        <time>2023-09-19T07:53:20.703Z</time>
      </trkpt>
      <trkpt lat="44.30744" lon="6.15993">
        <ele>1271.167779</ele>
        <time>2023-09-19T07:53:24.695Z</time>
      </trkpt>
      <trkpt lat="44.30743" lon="6.16007">
        <ele>1271.913384</ele>
        <time>2023-09-19T07:53:28.699Z</time>
      </trkpt>
      <trkpt lat="44.30738" lon="6.16018">
        <ele>1272.608512</ele>
        <time>2023-09-19T07:53:32.700Z</time>
      </trkpt>
      <trkpt lat="44.30731" lon="6.16026">
        <ele>1273.345652</ele>
        <time>2023-09-19T07:53:36.698Z</time>
      </trkpt>
      <trkpt lat="44.30721" lon="6.16028">
        <ele>1274.066682</ele>
        <time>2023-09-19T07:53:40.709Z</time>
      </trkpt>
      <trkpt lat="44.30711" lon="6.16027">
        <ele>1274.83603</ele>
        <time>2023-09-19T07:53:44.709Z</time>
      </trkpt>
      <trkpt lat="44.30702" lon="6.16035">
        <ele>1275.629024</ele>
        <time>2023-09-19T07:53:48.704Z</time>
      </trkpt>
      <trkpt lat="44.30696" lon="6.16046">
        <ele>1276.37921</ele>
        <time>2023-09-19T07:53:52.704Z</time>
      </trkpt>
      <trkpt lat="44.30692" lon="6.16059">
        <ele>1277.174433</ele>
        <time>2023-09-19T07:53:56.703Z</time>
      </trkpt>
      <trkpt lat="44.30685" lon="6.16072">
        <ele>1278.051794</ele>
        <time>2023-09-19T07:54:00.700Z</time>
      </trkpt>
      <trkpt lat="44.30677" lon="6.16079">
        <ele>1278.737775</ele>
        <time>2023-09-19T07:54:03.702Z</time>
      </trkpt>
      <trkpt lat="44.30668" lon="6.1608">
        <ele>1279.451247</ele>
        <time>2023-09-19T07:54:06.703Z</time>
      </trkpt>
      <trkpt lat="44.30659" lon="6.1608">
        <ele>1280.144229</ele>
        <time>2023-09-19T07:54:09.702Z</time>
      </trkpt>
      <trkpt lat="44.3065" lon="6.16085">
        <ele>1280.852502</ele>
        <time>2023-09-19T07:54:12.704Z</time>
      </trkpt>
      <trkpt lat="44.30641" lon="6.16094">
        <ele>1281.711914</ele>
        <time>2023-09-19T07:54:16.706Z</time>
      </trkpt>
      <trkpt lat="44.30635" lon="6.16107">
        <ele>1282.562748</ele>
        <time>2023-09-19T07:54:20.707Z</time>
      </trkpt>
      <trkpt lat="44.30629" lon="6.1612">
        <ele>1283.406153</ele>
        <time>2023-09-19T07:54:24.707Z</time>
      </trkpt>
      <trkpt lat="44.3062" lon="6.16128">
        <ele>1284.250699</ele>
        <time>2023-09-19T07:54:28.703Z</time>
      </trkpt>
      <trkpt lat="44.30609" lon="6.16134">
        <ele>1285.104701</ele>
        <time>2023-09-19T07:54:32.702Z</time>
      </trkpt>
      <trkpt lat="44.30597" lon="6.16138">
        <ele>1285.942599</ele>
        <time>2023-09-19T07:54:36.695Z</time>
      </trkpt>
      <trkpt lat="44.30587" lon="6.16143">
        <ele>1286.730138</ele>
        <time>2023-09-19T07:54:40.700Z</time>
      </trkpt>
      <trkpt lat="44.30578" lon="6.16149">
        <ele>1287.485528</ele>
        <time>2023-09-19T07:54:44.702Z</time>
      </trkpt>
      <trkpt lat="44.30568" lon="6.16155">
        <ele>1288.269996</ele>
        <time>2023-09-19T07:54:48.700Z</time>
      </trkpt>
      <trkpt lat="44.30557" lon="6.16159">
        <ele>1289.044774</ele>
        <time>2023-09-19T07:54:52.707Z</time>
      </trkpt>
      <trkpt lat="44.30547" lon="6.16165">
        <ele>1289.835091</ele>
        <time>2023-09-19T07:54:56.704Z</time>
      </trkpt>
      <trkpt lat="44.30537" lon="6.16172">
        <ele>1290.638454</ele>
        <time>2023-09-19T07:55:00.720Z</time>
      </trkpt>
      <trkpt lat="44.30528" lon="6.16181">
        <ele>1291.42881</ele>
        <time>2023-09-19T07:55:04.716Z</time>
      </trkpt>
      <trkpt lat="44.30521" lon="6.16191">
        <ele>1292.177211</ele>
        <time>2023-09-19T07:55:08.709Z</time>
      </trkpt>
      <trkpt lat="44.30514" lon="6.16202">
        <ele>1292.918215</ele>
        <time>2023-09-19T07:55:12.706Z</time>
      </trkpt>
      <trkpt lat="44.30509" lon="6.16214">
        <ele>1293.645432</ele>
        <time>2023-09-19T07:55:16.715Z</time>
      </trkpt>
      <trkpt lat="44.30503" lon="6.16225">
        <ele>1294.360047</ele>
        <time>2023-09-19T07:55:20.720Z</time>
      </trkpt>
      <trkpt lat="44.30498" lon="6.16237">
        <ele>1295.088043</ele>
        <time>2023-09-19T07:55:24.712Z</time>
      </trkpt>
      <trkpt lat="44.30493" lon="6.1625">
        <ele>1295.840533</ele>
        <time>2023-09-19T07:55:28.715Z</time>
      </trkpt>
      <trkpt lat="44.30488" lon="6.16262">
        <ele>1296.586746</ele>
        <time>2023-09-19T07:55:32.715Z</time>
      </trkpt>
      <trkpt lat="44.30481" lon="6.16273">
        <ele>1297.334738</ele>
        <time>2023-09-19T07:55:36.713Z</time>
      </trkpt>
      <trkpt lat="44.30473" lon="6.16283">
        <ele>1298.269201</ele>
        <time>2023-09-19T07:55:40.720Z</time>
      </trkpt>
      <trkpt lat="44.30466" lon="6.16294">
        <ele>1299.199098</ele>
        <time>2023-09-19T07:55:44.713Z</time>
      </trkpt>
      <trkpt lat="44.30459" lon="6.16305">
        <ele>1300.131649</ele>
        <time>2023-09-19T07:55:48.716Z</time>
      </trkpt>
      <trkpt lat="44.30453" lon="6.16316">
        <ele>1301.05593</ele>
        <time>2023-09-19T07:55:52.707Z</time>
      </trkpt>
      <trkpt lat="44.30448" lon="6.16328">
        <ele>1301.935821</ele>
        <time>2023-09-19T07:55:56.696Z</time>
      </trkpt>
      <trkpt lat="44.30445" lon="6.16341">
        <ele>1302.801407</ele>
        <time>2023-09-19T07:56:00.710Z</time>
      </trkpt>
      <trkpt lat="44.30444" lon="6.16355">
        <ele>1303.685189</ele>
        <time>2023-09-19T07:56:04.711Z</time>
      </trkpt>
      <trkpt lat="44.30441" lon="6.16369">
        <ele>1304.599643</ele>
        <time>2023-09-19T07:56:08.716Z</time>
      </trkpt>
      <trkpt lat="44.30436" lon="6.16382">
        <ele>1305.515874</ele>
        <time>2023-09-19T07:56:12.717Z</time>
      </trkpt>
      <trkpt lat="44.3043" lon="6.16392">
        <ele>1306.386786</ele>
        <time>2023-09-19T07:56:16.714Z</time>
      </trkpt>
      <trkpt lat="44.30425" lon="6.16405">
        <ele>1307.299877</ele>
        <time>2023-09-19T07:56:20.714Z</time>
      </trkpt>
      <trkpt lat="44.3042" lon="6.16417">
        <ele>1308.178303</ele>
        <time>2023-09-19T07:56:24.710Z</time>
      </trkpt>
      <trkpt lat="44.30416" lon="6.16429">
        <ele>1308.998082</ele>
        <time>2023-09-19T07:56:28.706Z</time>
      </trkpt>
      <trkpt lat="44.3041" lon="6.16439">
        <ele>1309.866509</ele>
        <time>2023-09-19T07:56:32.712Z</time>
      </trkpt>
      <trkpt lat="44.30402" lon="6.16447">
        <ele>1310.72547</ele>
        <time>2023-09-19T07:56:36.717Z</time>
      </trkpt>
      <trkpt lat="44.30394" lon="6.16454">
        <ele>1311.561951</ele>
        <time>2023-09-19T07:56:40.713Z</time>
      </trkpt>
      <trkpt lat="44.30385" lon="6.16462">
        <ele>1312.47566</ele>
        <time>2023-09-19T07:56:44.706Z</time>
      </trkpt>
      <trkpt lat="44.30376" lon="6.16467">
        <ele>1313.377886</ele>
        <time>2023-09-19T07:56:48.704Z</time>
      </trkpt>
      <trkpt lat="44.30366" lon="6.16473">
        <ele>1314.10246</ele>
        <time>2023-09-19T07:56:52.710Z</time>
      </trkpt>
      <trkpt lat="44.30357" lon="6.16478">
        <ele>1314.83326</ele>
        <time>2023-09-19T07:56:56.715Z</time>
      </trkpt>
      <trkpt lat="44.30347" lon="6.16483">
        <ele>1315.565853</ele>
        <time>2023-09-19T07:57:00.707Z</time>
      </trkpt>
      <trkpt lat="44.30338" lon="6.16488">
        <ele>1316.278182</ele>
        <time>2023-09-19T07:57:04.702Z</time>
      </trkpt>
      <trkpt lat="44.30329" lon="6.16491">
        <ele>1316.915727</ele>
        <time>2023-09-19T07:57:08.697Z</time>
      </trkpt>
      <trkpt lat="44.30319" lon="6.16493">
        <ele>1317.600141</ele>
        <time>2023-09-19T07:57:12.702Z</time>
      </trkpt>
      <trkpt lat="44.3031" lon="6.16496">
        <ele>1318.289672</ele>
        <time>2023-09-19T07:57:16.704Z</time>
      </trkpt>
      <trkpt lat="44.30299" lon="6.16499">
        <ele>1319.016741</ele>
        <time>2023-09-19T07:57:20.705Z</time>
      </trkpt>
      <trkpt lat="44.3029" lon="6.16506">
        <ele>1319.80707</ele>
        <time>2023-09-19T07:57:24.729Z</time>
      </trkpt>
      <trkpt lat="44.30284" lon="6.16517">
        <ele>1320.517323</ele>
        <time>2023-09-19T07:57:28.705Z</time>
      </trkpt>
      <trkpt lat="44.30278" lon="6.16528">
        <ele>1321.175244</ele>
        <time>2023-09-19T07:57:32.710Z</time>
      </trkpt>
      <trkpt lat="44.30269" lon="6.16535">
        <ele>1321.890823</ele>
        <time>2023-09-19T07:57:36.705Z</time>
      </trkpt>
      <trkpt lat="44.30261" lon="6.16543">
        <ele>1322.577254</ele>
        <time>2023-09-19T07:57:40.714Z</time>
      </trkpt>
      <trkpt lat="44.30255" lon="6.16553">
        <ele>1323.232686</ele>
        <time>2023-09-19T07:57:44.716Z</time>
      </trkpt>
      <trkpt lat="44.30249" lon="6.16563">
        <ele>1323.925684</ele>
        <time>2023-09-19T07:57:48.704Z</time>
      </trkpt>
      <trkpt lat="44.30243" lon="6.16575">
        <ele>1324.631614</ele>
        <time>2023-09-19T07:57:52.707Z</time>
      </trkpt>
      <trkpt lat="44.30237" lon="6.16586">
        <ele>1325.353976</ele>
        <time>2023-09-19T07:57:56.716Z</time>
      </trkpt>
      <trkpt lat="44.30231" lon="6.16598">
        <ele>1326.102991</ele>
        <time>2023-09-19T07:58:00.708Z</time>
      </trkpt>
      <trkpt lat="44.30226" lon="6.1661">
        <ele>1327.060409</ele>
        <time>2023-09-19T07:58:04.717Z</time>
      </trkpt>
      <trkpt lat="44.30223" lon="6.16624">
        <ele>1328.041562</ele>
        <time>2023-09-19T07:58:08.704Z</time>
      </trkpt>
      <trkpt lat="44.30222" lon="6.16639">
        <ele>1329.020634</ele>
        <time>2023-09-19T07:58:12.702Z</time>
      </trkpt>
      <trkpt lat="44.30221" lon="6.16652">
        <ele>1329.955571</ele>
        <time>2023-09-19T07:58:16.715Z</time>
      </trkpt>
      <trkpt lat="44.30215" lon="6.16665">
        <ele>1330.937522</ele>
        <time>2023-09-19T07:58:20.712Z</time>
      </trkpt>
      <trkpt lat="44.30206" lon="6.16673">
        <ele>1331.970993</ele>
        <time>2023-09-19T07:58:24.697Z</time>
      </trkpt>
      <trkpt lat="44.30197" lon="6.16681">
        <ele>1333.009725</ele>
        <time>2023-09-19T07:58:28.706Z</time>
      </trkpt>
      <trkpt lat="44.30189" lon="6.1669">
        <ele>1333.988819</ele>
        <time>2023-09-19T07:58:32.719Z</time>
      </trkpt>
      <trkpt lat="44.30181" lon="6.167">
        <ele>1334.978853</ele>
        <time>2023-09-19T07:58:36.705Z</time>
      </trkpt>
      <trkpt lat="44.30174" lon="6.1671">
        <ele>1335.952602</ele>
        <time>2023-09-19T07:58:40.721Z</time>
      </trkpt>
      <trkpt lat="44.30166" lon="6.16719">
        <ele>1336.902843</ele>
        <time>2023-09-19T07:58:44.714Z</time>
      </trkpt>
      <trkpt lat="44.30156" lon="6.1672">
        <ele>1337.851888</ele>
        <time>2023-09-19T07:58:48.703Z</time>
      </trkpt>
      <trkpt lat="44.30146" lon="6.16718">
        <ele>1338.820786</ele>
        <time>2023-09-19T07:58:52.723Z</time>
      </trkpt>
      <trkpt lat="44.30135" lon="6.16718">
        <ele>1339.835809</ele>
        <time>2023-09-19T07:58:56.709Z</time>
      </trkpt>
      <trkpt lat="44.30126" lon="6.16723">
        <ele>1340.818166</ele>
        <time>2023-09-19T07:59:00.697Z</time>
      </trkpt>
      <trkpt lat="44.30117" lon="6.16729">
        <ele>1341.786321</ele>
        <time>2023-09-19T07:59:04.698Z</time>
      </trkpt>
      <trkpt lat="44.30108" lon="6.16738">
        <ele>1342.777251</ele>
        <time>2023-09-19T07:59:08.703Z</time>
      </trkpt>
      <trkpt lat="44.30101" lon="6.16749">
        <ele>1343.710371</ele>
        <time>2023-09-19T07:59:12.699Z</time>
      </trkpt>
      <trkpt lat="44.30098" lon="6.16763">
        <ele>1344.593422</ele>
        <time>2023-09-19T07:59:16.700Z</time>
      </trkpt>
      <trkpt lat="44.30094" lon="6.16777">
        <ele>1345.466024</ele>
        <time>2023-09-19T07:59:20.708Z</time>
      </trkpt>
      <trkpt lat="44.30088" lon="6.16788">
        <ele>1346.323861</ele>
        <time>2023-09-19T07:59:24.706Z</time>
      </trkpt>
      <trkpt lat="44.3008" lon="6.16796">
        <ele>1347.183382</ele>
        <time>2023-09-19T07:59:28.701Z</time>
      </trkpt>
      <trkpt lat="44.3007" lon="6.16803">
        <ele>1348.058894</ele>
        <time>2023-09-19T07:59:32.708Z</time>
      </trkpt>
      <trkpt lat="44.30064" lon="6.16815">
        <ele>1348.936034</ele>
        <time>2023-09-19T07:59:36.707Z</time>
      </trkpt>
      <trkpt lat="44.30063" lon="6.16829">
        <ele>1349.81094</ele>
        <time>2023-09-19T07:59:40.711Z</time>
      </trkpt>
      <trkpt lat="44.30061" lon="6.16844">
        <ele>1350.733368</ele>
        <time>2023-09-19T07:59:44.703Z</time>
      </trkpt>
      <trkpt lat="44.3006" lon="6.16859">
        <ele>1351.634075</ele>
        <time>2023-09-19T07:59:48.704Z</time>
      </trkpt>
      <trkpt lat="44.30057" lon="6.16873">
        <ele>1352.519131</ele>
        <time>2023-09-19T07:59:52.701Z</time>
      </trkpt>
      <trkpt lat="44.30055" lon="6.16888">
        <ele>1353.440123</ele>
        <time>2023-09-19T07:59:56.700Z</time>
      </trkpt>
      <trkpt lat="44.30051" lon="6.16902">
        <ele>1354.357202</ele>
        <time>2023-09-19T08:00:00.702Z</time>
      </trkpt>
      <trkpt lat="44.30044" lon="6.16914">
        <ele>1355.266899</ele>
        <time>2023-09-19T08:00:04.700Z</time>
      </trkpt>
      <trkpt lat="44.30036" lon="6.16925">
        <ele>1356.217721</ele>
        <time>2023-09-19T08:00:08.705Z</time>
      </trkpt>
      <trkpt lat="44.3003" lon="6.16937">
        <ele>1357.119445</ele>
        <time>2023-09-19T08:00:12.696Z</time>
      </trkpt>
      <trkpt lat="44.30025" lon="6.1695">
        <ele>1357.999466</ele>
        <time>2023-09-19T08:00:16.698Z</time>
      </trkpt>
      <trkpt lat="44.30023" lon="6.16965">
        <ele>1358.900263</ele>
        <time>2023-09-19T08:00:20.699Z</time>
      </trkpt>
      <trkpt lat="44.30019" lon="6.16979">
        <ele>1359.753652</ele>
        <time>2023-09-19T08:00:24.699Z</time>
      </trkpt>
      <trkpt lat="44.30017" lon="6.16993">
        <ele>1360.5818</ele>
        <time>2023-09-19T08:00:28.696Z</time>
      </trkpt>
      <trkpt lat="44.30014" lon="6.17007">
        <ele>1361.388158</ele>
        <time>2023-09-19T08:00:32.695Z</time>
      </trkpt>
      <trkpt lat="44.30009" lon="6.17019">
        <ele>1362.246273</ele>
        <time>2023-09-19T08:00:36.694Z</time>
      </trkpt>
      <trkpt lat="44.30001" lon="6.1703">
        <ele>1363.105354</ele>
        <time>2023-09-19T08:00:40.711Z</time>
      </trkpt>
      <trkpt lat="44.29994" lon="6.17041">
        <ele>1363.982228</ele>
        <time>2023-09-19T08:00:44.709Z</time>
      </trkpt>
      <trkpt lat="44.29988" lon="6.17054">
        <ele>1364.827082</ele>
        <time>2023-09-19T08:00:48.706Z</time>
      </trkpt>
      <trkpt lat="44.29984" lon="6.17067">
        <ele>1365.689009</ele>
        <time>2023-09-19T08:00:52.701Z</time>
      </trkpt>
      <trkpt lat="44.29979" lon="6.1708">
        <ele>1366.545887</ele>
        <time>2023-09-19T08:00:56.704Z</time>
      </trkpt>
      <trkpt lat="44.29977" lon="6.17095">
        <ele>1367.424473</ele>
        <time>2023-09-19T08:01:00.702Z</time>
      </trkpt>
      <trkpt lat="44.29979" lon="6.1711">
        <ele>1368.257019</ele>
        <time>2023-09-19T08:01:04.708Z</time>
      </trkpt>
      <trkpt lat="44.29983" lon="6.17123">
        <ele>1369.129341</ele>
        <time>2023-09-19T08:01:08.707Z</time>
      </trkpt>
      <trkpt lat="44.29985" lon="6.17137">
        <ele>1369.957568</ele>
        <time>2023-09-19T08:01:12.710Z</time>
      </trkpt>
      <trkpt lat="44.29984" lon="6.17151">
        <ele>1370.770642</ele>
        <time>2023-09-19T08:01:16.717Z</time>
      </trkpt>
      <trkpt lat="44.29983" lon="6.17165">
        <ele>1371.566749</ele>
        <time>2023-09-19T08:01:20.715Z</time>
      </trkpt>
      <trkpt lat="44.2998" lon="6.17179">
        <ele>1372.393227</ele>
        <time>2023-09-19T08:01:24.715Z</time>
      </trkpt>
      <trkpt lat="44.29979" lon="6.17193">
        <ele>1373.387861</ele>
        <time>2023-09-19T08:01:28.719Z</time>
      </trkpt>
      <trkpt lat="44.29977" lon="6.17207">
        <ele>1374.428891</ele>
        <time>2023-09-19T08:01:32.710Z</time>
      </trkpt>
      <trkpt lat="44.29976" lon="6.17221">
        <ele>1375.465103</ele>
        <time>2023-09-19T08:01:36.711Z</time>
      </trkpt>
      <trkpt lat="44.29974" lon="6.17234">
        <ele>1376.522955</ele>
        <time>2023-09-19T08:01:40.705Z</time>
      </trkpt>
      <trkpt lat="44.29974" lon="6.17248">
        <ele>1377.572882</ele>
        <time>2023-09-19T08:01:44.719Z</time>
      </trkpt>
      <trkpt lat="44.29971" lon="6.17262">
        <ele>1378.596685</ele>
        <time>2023-09-19T08:01:48.725Z</time>
      </trkpt>
      <trkpt lat="44.29966" lon="6.17274">
        <ele>1379.690073</ele>
        <time>2023-09-19T08:01:52.720Z</time>
      </trkpt>
      <trkpt lat="44.29959" lon="6.17285">
        <ele>1380.762324</ele>
        <time>2023-09-19T08:01:56.704Z</time>
      </trkpt>
      <trkpt lat="44.29952" lon="6.17295">
        <ele>1381.852648</ele>
        <time>2023-09-19T08:02:00.700Z</time>
      </trkpt>
      <trkpt lat="44.29946" lon="6.17307">
        <ele>1382.90139</ele>
        <time>2023-09-19T08:02:04.699Z</time>
      </trkpt>
      <trkpt lat="44.29941" lon="6.17319">
        <ele>1384.014401</ele>
        <time>2023-09-19T08:02:08.702Z</time>
      </trkpt>
      <trkpt lat="44.29935" lon="6.17332">
        <ele>1385.09848</ele>
        <time>2023-09-19T08:02:12.712Z</time>
      </trkpt>
      <trkpt lat="44.2993" lon="6.17345">
        <ele>1386.229834</ele>
        <time>2023-09-19T08:02:16.709Z</time>
      </trkpt>
      <trkpt lat="44.29926" lon="6.17358">
        <ele>1387.310488</ele>
        <time>2023-09-19T08:02:20.701Z</time>
      </trkpt>
      <trkpt lat="44.29921" lon="6.17371">
        <ele>1388.391143</ele>
        <time>2023-09-19T08:02:24.716Z</time>
      </trkpt>
      <trkpt lat="44.29914" lon="6.17382">
        <ele>1389.490708</ele>
        <time>2023-09-19T08:02:28.709Z</time>
      </trkpt>
      <trkpt lat="44.29907" lon="6.17392">
        <ele>1390.570258</ele>
        <time>2023-09-19T08:02:32.715Z</time>
      </trkpt>
      <trkpt lat="44.29899" lon="6.17402">
        <ele>1391.629324</ele>
        <time>2023-09-19T08:02:36.705Z</time>
      </trkpt>
      <trkpt lat="44.29892" lon="6.17414">
        <ele>1392.453534</ele>
        <time>2023-09-19T08:02:40.714Z</time>
      </trkpt>
      <trkpt lat="44.29885" lon="6.17425">
        <ele>1393.282632</ele>
        <time>2023-09-19T08:02:44.717Z</time>
      </trkpt>
      <trkpt lat="44.29878" lon="6.17435">
        <ele>1394.082644</ele>
        <time>2023-09-19T08:02:48.701Z</time>
      </trkpt>
      <trkpt lat="44.2987" lon="6.17444">
        <ele>1394.866615</ele>
        <time>2023-09-19T08:02:52.710Z</time>
      </trkpt>
      <trkpt lat="44.29861" lon="6.17453">
        <ele>1395.72289</ele>
        <time>2023-09-19T08:02:56.705Z</time>
      </trkpt>
      <trkpt lat="44.29853" lon="6.17465">
        <ele>1396.577965</ele>
        <time>2023-09-19T08:03:00.707Z</time>
      </trkpt>
      <trkpt lat="44.29848" lon="6.17478">
        <ele>1397.399845</ele>
        <time>2023-09-19T08:03:04.702Z</time>
      </trkpt>
      <trkpt lat="44.29846" lon="6.17493">
        <ele>1398.216951</ele>
        <time>2023-09-19T08:03:08.711Z</time>
      </trkpt>
      <trkpt lat="44.29843" lon="6.17507">
        <ele>1399.02717</ele>
        <time>2023-09-19T08:03:12.698Z</time>
      </trkpt>
      <trkpt lat="44.29842" lon="6.17521">
        <ele>1399.823211</ele>
        <time>2023-09-19T08:03:16.711Z</time>
      </trkpt>
      <trkpt lat="44.2984" lon="6.17535">
        <ele>1400.6111</ele>
        <time>2023-09-19T08:03:20.698Z</time>
      </trkpt>
      <trkpt lat="44.29838" lon="6.17549">
        <ele>1401.386622</ele>
        <time>2023-09-19T08:03:24.699Z</time>
      </trkpt>
      <trkpt lat="44.29836" lon="6.17561">
        <ele>1402.083527</ele>
        <time>2023-09-19T08:03:28.698Z</time>
      </trkpt>
      <trkpt lat="44.29831" lon="6.17573">
        <ele>1402.861084</ele>
        <time>2023-09-19T08:03:33.713Z</time>
      </trkpt>
      <trkpt lat="44.29826" lon="6.17587">
        <ele>1403.673054</ele>
        <time>2023-09-19T08:03:38.707Z</time>
      </trkpt>
      <trkpt lat="44.29825" lon="6.17601">
        <ele>1404.481782</ele>
        <time>2023-09-19T08:03:43.709Z</time>
      </trkpt>
      <trkpt lat="44.29826" lon="6.17616">
        <ele>1405.308935</ele>
        <time>2023-09-19T08:03:48.699Z</time>
      </trkpt>
      <trkpt lat="44.29831" lon="6.17627">
        <ele>1405.46657</ele>
        <time>2023-09-19T08:03:52.701Z</time>
      </trkpt>
      <trkpt lat="44.29835" lon="6.1764">
        <ele>1405.645826</ele>
        <time>2023-09-19T08:03:56.699Z</time>
      </trkpt>
      <trkpt lat="44.29836" lon="6.17656">
        <ele>1405.838213</ele>
        <time>2023-09-19T08:04:00.705Z</time>
      </trkpt>
      <trkpt lat="44.29835" lon="6.17669">
        <ele>1405.994764</ele>
        <time>2023-09-19T08:04:03.701Z</time>
      </trkpt>
      <trkpt lat="44.29831" lon="6.17684">
        <ele>1406.201789</ele>
        <time>2023-09-19T08:04:07.701Z</time>
      </trkpt>
      <trkpt lat="44.29825" lon="6.17698">
        <ele>1406.39938</ele>
        <time>2023-09-19T08:04:11.713Z</time>
      </trkpt>
      <trkpt lat="44.2982" lon="6.17713">
        <ele>1406.604308</ele>
        <time>2023-09-19T08:04:15.704Z</time>
      </trkpt>
      <trkpt lat="44.29816" lon="6.17729">
        <ele>1406.812743</ele>
        <time>2023-09-19T08:04:19.696Z</time>
      </trkpt>
      <trkpt lat="44.29814" lon="6.17741">
        <ele>1406.973827</ele>
        <time>2023-09-19T08:04:22.713Z</time>
      </trkpt>
      <trkpt lat="44.29813" lon="6.17754">
        <ele>1407.131779</ele>
        <time>2023-09-19T08:04:25.700Z</time>
      </trkpt>
      <trkpt lat="44.29814" lon="6.17767">
        <ele>1407.291694</ele>
        <time>2023-09-19T08:04:28.696Z</time>
      </trkpt>
      <trkpt lat="44.29818" lon="6.17779">
        <ele>1407.449453</ele>
        <time>2023-09-19T08:04:31.695Z</time>
      </trkpt>
      <trkpt lat="44.29823" lon="6.17793">
        <ele>1407.650358</ele>
        <time>2023-09-19T08:04:35.700Z</time>
      </trkpt>
      <trkpt lat="44.29829" lon="6.17807">
        <ele>1407.848804</ele>
        <time>2023-09-19T08:04:39.707Z</time>
      </trkpt>
      <trkpt lat="44.29834" lon="6.17821">
        <ele>1408.043632</ele>
        <time>2023-09-19T08:04:43.705Z</time>
      </trkpt>
      <trkpt lat="44.29839" lon="6.17834">
        <ele>1408.233049</ele>
        <time>2023-09-19T08:04:47.708Z</time>
      </trkpt>
      <trkpt lat="44.29844" lon="6.17847">
        <ele>1408.41679</ele>
        <time>2023-09-19T08:04:51.718Z</time>
      </trkpt>
      <trkpt lat="44.29846" lon="6.17863">
        <ele>1408.859977</ele>
        <time>2023-09-19T08:04:55.696Z</time>
      </trkpt>
      <trkpt lat="44.29846" lon="6.17876">
        <ele>1409.221945</ele>
        <time>2023-09-19T08:04:58.698Z</time>
      </trkpt>
      <trkpt lat="44.29847" lon="6.17889">
        <ele>1409.594943</ele>
        <time>2023-09-19T08:05:01.704Z</time>
      </trkpt>
      <trkpt lat="44.2985" lon="6.17902">
        <ele>1409.998544</ele>
        <time>2023-09-19T08:05:04.713Z</time>
      </trkpt>
      <trkpt lat="44.29857" lon="6.17915">
        <ele>1410.426269</ele>
        <time>2023-09-19T08:05:07.702Z</time>
      </trkpt>
      <trkpt lat="44.29862" lon="6.17926">
        <ele>1410.797135</ele>
        <time>2023-09-19T08:05:11.701Z</time>
      </trkpt>
      <trkpt lat="44.29858" lon="6.17938">
        <ele>1411.178142</ele>
        <time>2023-09-19T08:05:16.699Z</time>
      </trkpt>
      <trkpt lat="44.29848" lon="6.1794">
        <ele>1411.585083</ele>
        <time>2023-09-19T08:05:20.704Z</time>
      </trkpt>
      <trkpt lat="44.29838" lon="6.17939">
        <ele>1411.967059</ele>
        <time>2023-09-19T08:05:24.708Z</time>
      </trkpt>
      <trkpt lat="44.29829" lon="6.17941">
        <ele>1412.332941</ele>
        <time>2023-09-19T08:05:28.710Z</time>
      </trkpt>
      <trkpt lat="44.29823" lon="6.17951">
        <ele>1412.710756</ele>
        <time>2023-09-19T08:05:32.706Z</time>
      </trkpt>
      <trkpt lat="44.29817" lon="6.17962">
        <ele>1413.097176</ele>
        <time>2023-09-19T08:05:36.711Z</time>
      </trkpt>
      <trkpt lat="44.29812" lon="6.17973">
        <ele>1413.453799</ele>
        <time>2023-09-19T08:05:40.720Z</time>
      </trkpt>
      <trkpt lat="44.29806" lon="6.17986">
        <ele>1413.896617</ele>
        <time>2023-09-19T08:05:45.711Z</time>
      </trkpt>
      <trkpt lat="44.29801" lon="6.17998">
        <ele>1414.279941</ele>
        <time>2023-09-19T08:05:49.716Z</time>
      </trkpt>
      <trkpt lat="44.29798" lon="6.18011">
        <ele>1414.68344</ele>
        <time>2023-09-19T08:05:53.706Z</time>
      </trkpt>
      <trkpt lat="44.29792" lon="6.18023">
        <ele>1415.081258</ele>
        <time>2023-09-19T08:05:57.702Z</time>
      </trkpt>
      <trkpt lat="44.29787" lon="6.18036">
        <ele>1415.497988</ele>
        <time>2023-09-19T08:06:01.719Z</time>
      </trkpt>
      <trkpt lat="44.29781" lon="6.1805">
        <ele>1415.444816</ele>
        <time>2023-09-19T08:06:05.704Z</time>
      </trkpt>
      <trkpt lat="44.29773" lon="6.18062">
        <ele>1415.352148</ele>
        <time>2023-09-19T08:06:08.706Z</time>
      </trkpt>
      <trkpt lat="44.29767" lon="6.18073">
        <ele>1415.276111</ele>
        <time>2023-09-19T08:06:10.723Z</time>
      </trkpt>
      <trkpt lat="44.29763" lon="6.18086">
        <ele>1415.201132</ele>
        <time>2023-09-19T08:06:12.702Z</time>
      </trkpt>
      <trkpt lat="44.29762" lon="6.181">
        <ele>1415.124081</ele>
        <time>2023-09-19T08:06:15.704Z</time>
      </trkpt>
      <trkpt lat="44.29756" lon="6.18113">
        <ele>1415.041402</ele>
        <time>2023-09-19T08:06:18.702Z</time>
      </trkpt>
      <trkpt lat="44.29748" lon="6.1812">
        <ele>1414.971495</ele>
        <time>2023-09-19T08:06:20.704Z</time>
      </trkpt>
      <trkpt lat="44.29738" lon="6.18126">
        <ele>1414.891964</ele>
        <time>2023-09-19T08:06:22.699Z</time>
      </trkpt>
      <trkpt lat="44.29728" lon="6.18131">
        <ele>1414.808669</ele>
        <time>2023-09-19T08:06:24.701Z</time>
      </trkpt>
      <trkpt lat="44.29718" lon="6.18136">
        <ele>1414.727866</ele>
        <time>2023-09-19T08:06:26.701Z</time>
      </trkpt>
      <trkpt lat="44.29708" lon="6.18143">
        <ele>1414.647619</ele>
        <time>2023-09-19T08:06:28.712Z</time>
      </trkpt>
      <trkpt lat="44.29698" lon="6.18146">
        <ele>1414.570258</ele>
        <time>2023-09-19T08:06:30.700Z</time>
      </trkpt>
      <trkpt lat="44.29688" lon="6.18147">
        <ele>1414.494616</ele>
        <time>2023-09-19T08:06:32.707Z</time>
      </trkpt>
      <trkpt lat="44.29679" lon="6.18146">
        <ele>1414.42507</ele>
        <time>2023-09-19T08:06:34.709Z</time>
      </trkpt>
      <trkpt lat="44.2967" lon="6.18143">
        <ele>1414.353095</ele>
        <time>2023-09-19T08:06:36.703Z</time>
      </trkpt>
      <trkpt lat="44.29661" lon="6.18145">
        <ele>1414.283863</ele>
        <time>2023-09-19T08:06:38.715Z</time>
      </trkpt>
      <trkpt lat="44.29652" lon="6.18143">
        <ele>1414.214964</ele>
        <time>2023-09-19T08:06:40.707Z</time>
      </trkpt>
      <trkpt lat="44.29639" lon="6.18141">
        <ele>1414.41661</ele>
        <time>2023-09-19T08:06:43.700Z</time>
      </trkpt>
      <trkpt lat="44.29627" lon="6.18145">
        <ele>1414.903941</ele>
        <time>2023-09-19T08:06:46.700Z</time>
      </trkpt>
      <trkpt lat="44.29615" lon="6.18151">
        <ele>1415.393796</ele>
        <time>2023-09-19T08:06:49.708Z</time>
      </trkpt>
      <trkpt lat="44.29603" lon="6.18157">
        <ele>1415.887005</ele>
        <time>2023-09-19T08:06:52.699Z</time>
      </trkpt>
      <trkpt lat="44.29591" lon="6.18163">
        <ele>1416.365187</ele>
        <time>2023-09-19T08:06:55.709Z</time>
      </trkpt>
      <trkpt lat="44.2958" lon="6.18169">
        <ele>1416.812392</ele>
        <time>2023-09-19T08:06:58.711Z</time>
      </trkpt>
      <trkpt lat="44.2957" lon="6.18175">
        <ele>1417.246862</ele>
        <time>2023-09-19T08:07:01.710Z</time>
      </trkpt>
      <trkpt lat="44.29559" lon="6.18183">
        <ele>1417.717369</ele>
        <time>2023-09-19T08:07:04.707Z</time>
      </trkpt>
      <trkpt lat="44.29549" lon="6.18192">
        <ele>1418.160583</ele>
        <time>2023-09-19T08:07:07.707Z</time>
      </trkpt>
      <trkpt lat="44.29542" lon="6.18206">
        <ele>1418.616193</ele>
        <time>2023-09-19T08:07:10.699Z</time>
      </trkpt>
      <trkpt lat="44.29536" lon="6.18219">
        <ele>1419.05968</ele>
        <time>2023-09-19T08:07:13.703Z</time>
      </trkpt>
      <trkpt lat="44.29532" lon="6.18232">
        <ele>1419.435671</ele>
        <time>2023-09-19T08:07:16.705Z</time>
      </trkpt>
      <trkpt lat="44.29522" lon="6.18241">
        <ele>1419.896261</ele>
        <time>2023-09-19T08:07:20.709Z</time>
      </trkpt>
      <trkpt lat="44.29512" lon="6.18245">
        <ele>1420.275497</ele>
        <time>2023-09-19T08:07:23.700Z</time>
      </trkpt>
      <trkpt lat="44.29504" lon="6.18252">
        <ele>1420.651917</ele>
        <time>2023-09-19T08:07:26.698Z</time>
      </trkpt>
      <trkpt lat="44.29497" lon="6.18261">
        <ele>1421.014849</ele>
        <time>2023-09-19T08:07:29.707Z</time>
      </trkpt>
      <trkpt lat="44.29491" lon="6.18271">
        <ele>1421.588188</ele>
        <time>2023-09-19T08:07:32.703Z</time>
      </trkpt>
      <trkpt lat="44.29483" lon="6.18279">
        <ele>1422.203333</ele>
        <time>2023-09-19T08:07:35.707Z</time>
      </trkpt>
      <trkpt lat="44.29475" lon="6.18286">
        <ele>1422.831525</ele>
        <time>2023-09-19T08:07:38.710Z</time>
      </trkpt>
      <trkpt lat="44.29469" lon="6.18296">
        <ele>1423.431254</ele>
        <time>2023-09-19T08:07:41.699Z</time>
      </trkpt>
      <trkpt lat="44.29463" lon="6.1831">
        <ele>1424.206536</ele>
        <time>2023-09-19T08:07:45.706Z</time>
      </trkpt>
      <trkpt lat="44.2946" lon="6.18322">
        <ele>1424.803251</ele>
        <time>2023-09-19T08:07:48.701Z</time>
      </trkpt>
      <trkpt lat="44.29456" lon="6.18337">
        <ele>1425.566114</ele>
        <time>2023-09-19T08:07:52.710Z</time>
      </trkpt>
      <trkpt lat="44.29455" lon="6.1835">
        <ele>1426.163656</ele>
        <time>2023-09-19T08:07:55.699Z</time>
      </trkpt>
      <trkpt lat="44.2945" lon="6.18362">
        <ele>1426.802311</ele>
        <time>2023-09-19T08:07:58.704Z</time>
      </trkpt>
      <trkpt lat="44.29445" lon="6.18373">
        <ele>1427.414811</ele>
        <time>2023-09-19T08:08:01.705Z</time>
      </trkpt>
      <trkpt lat="44.29438" lon="6.18382">
        <ele>1428.059687</ele>
        <time>2023-09-19T08:08:04.701Z</time>
      </trkpt>
      <trkpt lat="44.29428" lon="6.18387">
        <ele>1428.741066</ele>
        <time>2023-09-19T08:08:07.706Z</time>
      </trkpt>
      <trkpt lat="44.29419" lon="6.18391">
        <ele>1429.402429</ele>
        <time>2023-09-19T08:08:10.707Z</time>
      </trkpt>
      <trkpt lat="44.2941" lon="6.18396">
        <ele>1430.033083</ele>
        <time>2023-09-19T08:08:13.703Z</time>
      </trkpt>
      <trkpt lat="44.29402" lon="6.18404">
        <ele>1430.634025</ele>
        <time>2023-09-19T08:08:16.698Z</time>
      </trkpt>
      <trkpt lat="44.29397" lon="6.18415">
        <ele>1431.265403</ele>
        <time>2023-09-19T08:08:19.700Z</time>
      </trkpt>
      <trkpt lat="44.29394" lon="6.18427">
        <ele>1431.890109</ele>
        <time>2023-09-19T08:08:22.701Z</time>
      </trkpt>
      <trkpt lat="44.2939" lon="6.1844">
        <ele>1432.524851</ele>
        <time>2023-09-19T08:08:25.700Z</time>
      </trkpt>
      <trkpt lat="44.29384" lon="6.1845">
        <ele>1433.101484</ele>
        <time>2023-09-19T08:08:28.704Z</time>
      </trkpt>
      <trkpt lat="44.29376" lon="6.18457">
        <ele>1433.639529</ele>
        <time>2023-09-19T08:08:31.702Z</time>
      </trkpt>
      <trkpt lat="44.29367" lon="6.1846">
        <ele>1434.221769</ele>
        <time>2023-09-19T08:08:36.701Z</time>
      </trkpt>
      <trkpt lat="44.2936" lon="6.1847">
        <ele>1434.770174</ele>
        <time>2023-09-19T08:08:41.697Z</time>
      </trkpt>
      <trkpt lat="44.29357" lon="6.18484">
        <ele>1435.396977</ele>
        <time>2023-09-19T08:08:46.707Z</time>
      </trkpt>
      <trkpt lat="44.29354" lon="6.18498">
        <ele>1435.976098</ele>
        <time>2023-09-19T08:08:50.718Z</time>
      </trkpt>
      <trkpt lat="44.29347" lon="6.18506">
        <ele>1436.502105</ele>
        <time>2023-09-19T08:08:54.697Z</time>
      </trkpt>
      <trkpt lat="44.29337" lon="6.18513">
        <ele>1437.155312</ele>
        <time>2023-09-19T08:08:58.697Z</time>
      </trkpt>
      <trkpt lat="44.29327" lon="6.1852">
        <ele>1437.805504</ele>
        <time>2023-09-19T08:09:02.706Z</time>
      </trkpt>
      <trkpt lat="44.29318" lon="6.18531">
        <ele>1438.487962</ele>
        <time>2023-09-19T08:09:06.698Z</time>
      </trkpt>
      <trkpt lat="44.29311" lon="6.18538">
        <ele>1439.012244</ele>
        <time>2023-09-19T08:09:09.700Z</time>
      </trkpt>
      <trkpt lat="44.293" lon="6.18544">
        <ele>1439.702522</ele>
        <time>2023-09-19T08:09:13.702Z</time>
      </trkpt>
      <trkpt lat="44.2929" lon="6.18554">
        <ele>1440.373289</ele>
        <time>2023-09-19T08:09:17.698Z</time>
      </trkpt>
      <trkpt lat="44.29285" lon="6.18568">
        <ele>1441.029461</ele>
        <time>2023-09-19T08:09:21.698Z</time>
      </trkpt>
      <trkpt lat="44.2928" lon="6.18582">
        <ele>1441.666734</ele>
        <time>2023-09-19T08:09:25.705Z</time>
      </trkpt>
      <trkpt lat="44.29269" lon="6.18579">
        <ele>1442.306531</ele>
        <time>2023-09-19T08:09:29.701Z</time>
      </trkpt>
      <trkpt lat="44.29267" lon="6.18565">
        <ele>1442.919517</ele>
        <time>2023-09-19T08:09:32.694Z</time>
      </trkpt>
      <trkpt lat="44.29272" lon="6.18553">
        <ele>1443.624161</ele>
        <time>2023-09-19T08:09:35.698Z</time>
      </trkpt>
      <trkpt lat="44.2928" lon="6.18544">
        <ele>1444.432973</ele>
        <time>2023-09-19T08:09:38.697Z</time>
      </trkpt>
      <trkpt lat="44.29285" lon="6.18533">
        <ele>1445.192569</ele>
        <time>2023-09-19T08:09:41.705Z</time>
      </trkpt>
      <trkpt lat="44.2929" lon="6.18521">
        <ele>1445.981615</ele>
        <time>2023-09-19T08:09:44.699Z</time>
      </trkpt>
      <trkpt lat="44.29296" lon="6.18507">
        <ele>1446.964809</ele>
        <time>2023-09-19T08:09:48.702Z</time>
      </trkpt>
      <trkpt lat="44.29301" lon="6.18496">
        <ele>1447.755893</ele>
        <time>2023-09-19T08:09:51.704Z</time>
      </trkpt>
      <trkpt lat="44.29305" lon="6.18484">
        <ele>1448.520729</ele>
        <time>2023-09-19T08:09:54.701Z</time>
      </trkpt>
      <trkpt lat="44.29309" lon="6.18469">
        <ele>1449.475346</ele>
        <time>2023-09-19T08:09:58.706Z</time>
      </trkpt>
      <trkpt lat="44.29311" lon="6.18457">
        <ele>1450.231138</ele>
        <time>2023-09-19T08:10:01.703Z</time>
      </trkpt>
      <trkpt lat="44.29312" lon="6.18443">
        <ele>1451.011788</ele>
        <time>2023-09-19T08:10:04.704Z</time>
      </trkpt>
      <trkpt lat="44.2931" lon="6.1843">
        <ele>1451.822619</ele>
        <time>2023-09-19T08:10:07.703Z</time>
      </trkpt>
      <trkpt lat="44.29305" lon="6.1842">
        <ele>1452.601579</ele>
        <time>2023-09-19T08:10:10.696Z</time>
      </trkpt>
      <trkpt lat="44.29294" lon="6.18414">
        <ele>1453.511002</ele>
        <time>2023-09-19T08:10:14.694Z</time>
      </trkpt>
      <trkpt lat="44.29284" lon="6.18411">
        <ele>1454.346332</ele>
        <time>2023-09-19T08:10:18.711Z</time>
      </trkpt>
      <trkpt lat="44.29276" lon="6.18405">
        <ele>1455.162399</ele>
        <time>2023-09-19T08:10:22.703Z</time>
      </trkpt>
      <trkpt lat="44.29268" lon="6.18396">
        <ele>1455.937038</ele>
        <time>2023-09-19T08:10:26.703Z</time>
      </trkpt>
      <trkpt lat="44.29261" lon="6.18387">
        <ele>1456.781049</ele>
        <time>2023-09-19T08:10:30.712Z</time>
      </trkpt>
      <trkpt lat="44.29254" lon="6.18376">
        <ele>1457.603735</ele>
        <time>2023-09-19T08:10:34.702Z</time>
      </trkpt>
      <trkpt lat="44.29249" lon="6.18366">
        <ele>1458.368008</ele>
        <time>2023-09-19T08:10:38.697Z</time>
      </trkpt>
      <trkpt lat="44.29251" lon="6.18352">
        <ele>1459.163203</ele>
        <time>2023-09-19T08:10:42.706Z</time>
      </trkpt>
      <trkpt lat="44.29261" lon="6.18348">
        <ele>1460.010627</ele>
        <time>2023-09-19T08:10:46.704Z</time>
      </trkpt>
      <trkpt lat="44.29271" lon="6.18349">
        <ele>1460.876452</ele>
        <time>2023-09-19T08:10:50.703Z</time>
      </trkpt>
      <trkpt lat="44.29278" lon="6.1834">
        <ele>1461.686771</ele>
        <time>2023-09-19T08:10:54.699Z</time>
      </trkpt>
      <trkpt lat="44.29281" lon="6.18326">
        <ele>1462.535642</ele>
        <time>2023-09-19T08:10:58.707Z</time>
      </trkpt>
      <trkpt lat="44.29282" lon="6.18311">
        <ele>1463.407356</ele>
        <time>2023-09-19T08:11:02.702Z</time>
      </trkpt>
      <trkpt lat="44.29282" lon="6.18296">
        <ele>1464.291177</ele>
        <time>2023-09-19T08:11:06.708Z</time>
      </trkpt>
      <trkpt lat="44.29285" lon="6.18282">
        <ele>1465.169022</ele>
        <time>2023-09-19T08:11:10.707Z</time>
      </trkpt>
      <trkpt lat="44.29287" lon="6.1827">
        <ele>1465.907946</ele>
        <time>2023-09-19T08:11:14.717Z</time>
      </trkpt>
      <trkpt lat="44.2929" lon="6.18256">
        <ele>1466.730891</ele>
        <time>2023-09-19T08:11:18.712Z</time>
      </trkpt>
      <trkpt lat="44.29293" lon="6.18245">
        <ele>1467.47957</ele>
        <time>2023-09-19T08:11:22.709Z</time>
      </trkpt>
      <trkpt lat="44.29298" lon="6.18231">
        <ele>1468.372823</ele>
        <time>2023-09-19T08:11:27.696Z</time>
      </trkpt>
      <trkpt lat="44.29299" lon="6.18216">
        <ele>1469.243953</ele>
        <time>2023-09-19T08:11:32.711Z</time>
      </trkpt>
      <trkpt lat="44.29289" lon="6.18213">
        <ele>1470.047509</ele>
        <time>2023-09-19T08:11:37.699Z</time>
      </trkpt>
      <trkpt lat="44.29283" lon="6.18226">
        <ele>1470.933091</ele>
        <time>2023-09-19T08:11:41.702Z</time>
      </trkpt>
      <trkpt lat="44.29278" lon="6.18237">
        <ele>1471.717635</ele>
        <time>2023-09-19T08:11:45.702Z</time>
      </trkpt>
      <trkpt lat="44.29273" lon="6.18247">
        <ele>1472.459627</ele>
        <time>2023-09-19T08:11:49.701Z</time>
      </trkpt>
      <trkpt lat="44.29265" lon="6.18257">
        <ele>1473.404576</ele>
        <time>2023-09-19T08:11:54.702Z</time>
      </trkpt>
      <trkpt lat="44.29257" lon="6.18264">
        <ele>1474.248293</ele>
        <time>2023-09-19T08:11:58.712Z</time>
      </trkpt>
      <trkpt lat="44.29247" lon="6.1827">
        <ele>1475.217224</ele>
        <time>2023-09-19T08:12:03.699Z</time>
      </trkpt>
      <trkpt lat="44.29237" lon="6.18272">
        <ele>1476.168652</ele>
        <time>2023-09-19T08:12:08.704Z</time>
      </trkpt>
      <trkpt lat="44.29226" lon="6.18271">
        <ele>1477.148185</ele>
        <time>2023-09-19T08:12:13.709Z</time>
      </trkpt>
      <trkpt lat="44.29216" lon="6.18267">
        <ele>1478.109173</ele>
        <time>2023-09-19T08:12:18.706Z</time>
      </trkpt>
      <trkpt lat="44.29207" lon="6.18264">
        <ele>1479.014418</ele>
        <time>2023-09-19T08:12:23.708Z</time>
      </trkpt>
      <trkpt lat="44.29196" lon="6.18261">
        <ele>1479.976044</ele>
        <time>2023-09-19T08:12:28.714Z</time>
      </trkpt>
      <trkpt lat="44.29185" lon="6.18259">
        <ele>1480.986949</ele>
        <time>2023-09-19T08:12:33.695Z</time>
      </trkpt>
      <trkpt lat="44.29175" lon="6.18259">
        <ele>1481.951717</ele>
        <time>2023-09-19T08:12:38.708Z</time>
      </trkpt>
      <trkpt lat="44.29167" lon="6.18266">
        <ele>1482.825908</ele>
        <time>2023-09-19T08:12:43.703Z</time>
      </trkpt>
      <trkpt lat="44.29163" lon="6.18279">
        <ele>1483.777078</ele>
        <time>2023-09-19T08:12:48.702Z</time>
      </trkpt>
      <trkpt lat="44.29165" lon="6.18294">
        <ele>1484.759428</ele>
        <time>2023-09-19T08:12:53.698Z</time>
      </trkpt>
      <trkpt lat="44.29167" lon="6.18308">
        <ele>1485.71272</ele>
        <time>2023-09-19T08:12:58.708Z</time>
      </trkpt>
      <trkpt lat="44.29165" lon="6.18322">
        <ele>1486.596402</ele>
        <time>2023-09-19T08:13:03.699Z</time>
      </trkpt>
      <trkpt lat="44.29161" lon="6.18334">
        <ele>1487.510457</ele>
        <time>2023-09-19T08:13:08.720Z</time>
      </trkpt>
      <trkpt lat="44.29156" lon="6.18346">
        <ele>1488.447529</ele>
        <time>2023-09-19T08:13:13.700Z</time>
      </trkpt>
      <trkpt lat="44.29154" lon="6.1836">
        <ele>1489.336014</ele>
        <time>2023-09-19T08:13:18.703Z</time>
      </trkpt>
      <trkpt lat="44.29157" lon="6.18373">
        <ele>1489.988215</ele>
        <time>2023-09-19T08:13:23.693Z</time>
      </trkpt>
      <trkpt lat="44.29162" lon="6.18384">
        <ele>1490.555425</ele>
        <time>2023-09-19T08:13:28.707Z</time>
      </trkpt>
      <trkpt lat="44.29165" lon="6.18396">
        <ele>1491.16965</ele>
        <time>2023-09-19T08:13:34.708Z</time>
      </trkpt>
      <trkpt lat="44.29165" lon="6.18409">
        <ele>1491.740394</ele>
        <time>2023-09-19T08:13:39.701Z</time>
      </trkpt>
      <trkpt lat="44.29159" lon="6.18421">
        <ele>1492.381609</ele>
        <time>2023-09-19T08:13:44.709Z</time>
      </trkpt>
      <trkpt lat="44.2915" lon="6.18428">
        <ele>1493.027769</ele>
        <time>2023-09-19T08:13:49.708Z</time>
      </trkpt>
      <trkpt lat="44.2914" lon="6.18434">
        <ele>1493.702039</ele>
        <time>2023-09-19T08:13:54.712Z</time>
      </trkpt>
      <trkpt lat="44.2913" lon="6.18432">
        <ele>1494.347165</ele>
        <time>2023-09-19T08:13:59.702Z</time>
      </trkpt>
      <trkpt lat="44.2912" lon="6.18425">
        <ele>1494.998022</ele>
        <time>2023-09-19T08:14:04.707Z</time>
      </trkpt>
      <trkpt lat="44.29113" lon="6.18416">
        <ele>1495.637004</ele>
        <time>2023-09-19T08:14:09.708Z</time>
      </trkpt>
      <trkpt lat="44.29102" lon="6.18416">
        <ele>1496.308834</ele>
        <time>2023-09-19T08:14:15.696Z</time>
      </trkpt>
      <trkpt lat="44.29093" lon="6.18423">
        <ele>1496.934166</ele>
        <time>2023-09-19T08:14:20.695Z</time>
      </trkpt>
      <trkpt lat="44.29086" lon="6.18431">
        <ele>1497.528397</ele>
        <time>2023-09-19T08:14:26.696Z</time>
      </trkpt>
      <trkpt lat="44.29077" lon="6.18438">
        <ele>1498.137658</ele>
        <time>2023-09-19T08:14:32.702Z</time>
      </trkpt>
      <trkpt lat="44.29068" lon="6.18442">
        <ele>1498.705815</ele>
        <time>2023-09-19T08:14:38.705Z</time>
      </trkpt>
      <trkpt lat="44.29059" lon="6.18448">
        <ele>1499.343115</ele>
        <time>2023-09-19T08:14:44.702Z</time>
      </trkpt>
      <trkpt lat="44.29052" lon="6.18457">
        <ele>1499.933496</ele>
        <time>2023-09-19T08:14:49.710Z</time>
      </trkpt>
      <trkpt lat="44.29048" lon="6.18469">
        <ele>1500.535654</ele>
        <time>2023-09-19T08:14:54.703Z</time>
      </trkpt>
      <trkpt lat="44.29041" lon="6.18479">
        <ele>1500.813249</ele>
        <time>2023-09-19T08:14:59.693Z</time>
      </trkpt>
      <trkpt lat="44.29033" lon="6.18484">
        <ele>1501.008873</ele>
        <time>2023-09-19T08:15:04.705Z</time>
      </trkpt>
      <trkpt lat="44.29023" lon="6.18489">
        <ele>1501.22706</ele>
        <time>2023-09-19T08:15:09.707Z</time>
      </trkpt>
      <trkpt lat="44.29012" lon="6.18493">
        <ele>1501.464665</ele>
        <time>2023-09-19T08:15:14.718Z</time>
      </trkpt>
      <trkpt lat="44.29003" lon="6.18494">
        <ele>1501.663564</ele>
        <time>2023-09-19T08:15:18.704Z</time>
      </trkpt>
      <trkpt lat="44.28993" lon="6.18497">
        <ele>1501.877088</ele>
        <time>2023-09-19T08:15:22.718Z</time>
      </trkpt>
      <trkpt lat="44.28984" lon="6.18498">
        <ele>1502.088073</ele>
        <time>2023-09-19T08:15:26.716Z</time>
      </trkpt>
      <trkpt lat="44.28972" lon="6.18502">
        <ele>1502.343801</ele>
        <time>2023-09-19T08:15:30.693Z</time>
      </trkpt>
      <trkpt lat="44.28963" lon="6.18505">
        <ele>1502.542662</ele>
        <time>2023-09-19T08:15:33.705Z</time>
      </trkpt>
      <trkpt lat="44.28951" lon="6.18505">
        <ele>1502.802834</ele>
        <time>2023-09-19T08:15:37.712Z</time>
      </trkpt>
      <trkpt lat="44.28941" lon="6.18504">
        <ele>1503.020826</ele>
        <time>2023-09-19T08:15:40.704Z</time>
      </trkpt>
      <trkpt lat="44.2893" lon="6.18504">
        <ele>1503.259436</ele>
        <time>2023-09-19T08:15:43.712Z</time>
      </trkpt>
      <trkpt lat="44.28918" lon="6.18502">
        <ele>1503.520965</ele>
        <time>2023-09-19T08:15:46.717Z</time>
      </trkpt>
      <trkpt lat="44.28909" lon="6.18499">
        <ele>1503.715979</ele>
        <time>2023-09-19T08:15:48.701Z</time>
      </trkpt>
      <trkpt lat="44.28901" lon="6.18493">
        <ele>1503.909542</ele>
        <time>2023-09-19T08:15:50.707Z</time>
      </trkpt>
      <trkpt lat="44.28894" lon="6.18485">
        <ele>1504.106311</ele>
        <time>2023-09-19T08:15:52.711Z</time>
      </trkpt>
      <trkpt lat="44.28887" lon="6.18477">
        <ele>1504.300828</ele>
        <time>2023-09-19T08:15:54.704Z</time>
      </trkpt>
      <trkpt lat="44.28879" lon="6.18462">
        <ele>1504.442339</ele>
        <time>2023-09-19T08:15:57.705Z</time>
      </trkpt>
      <trkpt lat="44.28868" lon="6.18459">
        <ele>1504.229058</ele>
        <time>2023-09-19T08:16:00.702Z</time>
      </trkpt>
      <trkpt lat="44.28864" lon="6.18475">
        <ele>1504.010387</ele>
        <time>2023-09-19T08:16:03.703Z</time>
      </trkpt>
      <trkpt lat="44.28864" lon="6.18491">
        <ele>1503.786128</ele>
        <time>2023-09-19T08:16:06.703Z</time>
      </trkpt>
      <trkpt lat="44.28862" lon="6.18506">
        <ele>1503.582516</ele>
        <time>2023-09-19T08:16:09.704Z</time>
      </trkpt>
      <trkpt lat="44.28854" lon="6.18517">
        <ele>1503.377425</ele>
        <time>2023-09-19T08:16:12.705Z</time>
      </trkpt>
      <trkpt lat="44.28845" lon="6.18526">
        <ele>1503.168797</ele>
        <time>2023-09-19T08:16:15.701Z</time>
      </trkpt>
      <trkpt lat="44.28835" lon="6.18533">
        <ele>1502.960485</ele>
        <time>2023-09-19T08:16:18.697Z</time>
      </trkpt>
      <trkpt lat="44.28826" lon="6.1854">
        <ele>1502.762531</ele>
        <time>2023-09-19T08:16:21.697Z</time>
      </trkpt>
      <trkpt lat="44.28817" lon="6.18549">
        <ele>1502.558367</ele>
        <time>2023-09-19T08:16:24.703Z</time>
      </trkpt>
      <trkpt lat="44.28808" lon="6.1856">
        <ele>1502.339497</ele>
        <time>2023-09-19T08:16:27.697Z</time>
      </trkpt>
      <trkpt lat="44.28801" lon="6.18571">
        <ele>1502.142245</ele>
        <time>2023-09-19T08:16:30.702Z</time>
      </trkpt>
      <trkpt lat="44.28791" lon="6.1858">
        <ele>1501.916</ele>
        <time>2023-09-19T08:16:33.700Z</time>
      </trkpt>
      <trkpt lat="44.28779" lon="6.18588">
        <ele>1501.676573</ele>
        <time>2023-09-19T08:16:36.704Z</time>
      </trkpt>
      <trkpt lat="44.2877" lon="6.18591">
        <ele>1501.494514</ele>
        <time>2023-09-19T08:16:38.707Z</time>
      </trkpt>
      <trkpt lat="44.28761" lon="6.18596">
        <ele>1501.320272</ele>
        <time>2023-09-19T08:16:40.712Z</time>
      </trkpt>
      <trkpt lat="44.28752" lon="6.18601">
        <ele>1501.155951</ele>
        <time>2023-09-19T08:16:42.706Z</time>
      </trkpt>
      <trkpt lat="44.28742" lon="6.1861">
        <ele>1501.18479</ele>
        <time>2023-09-19T08:16:45.704Z</time>
      </trkpt>
      <trkpt lat="44.28733" lon="6.18619">
        <ele>1501.212968</ele>
        <time>2023-09-19T08:16:48.707Z</time>
      </trkpt>
      <trkpt lat="44.28721" lon="6.18624">
        <ele>1501.241969</ele>
        <time>2023-09-19T08:16:51.700Z</time>
      </trkpt>
      <trkpt lat="44.28709" lon="6.18626">
        <ele>1501.272424</ele>
        <time>2023-09-19T08:16:54.709Z</time>
      </trkpt>
      <trkpt lat="44.28697" lon="6.18624">
        <ele>1501.30286</ele>
        <time>2023-09-19T08:16:57.709Z</time>
      </trkpt>
      <trkpt lat="44.28684" lon="6.1862">
        <ele>1501.333596</ele>
        <time>2023-09-19T08:17:00.716Z</time>
      </trkpt>
      <trkpt lat="44.28672" lon="6.1862">
        <ele>1501.364393</ele>
        <time>2023-09-19T08:17:03.706Z</time>
      </trkpt>
      <trkpt lat="44.28665" lon="6.18629">
        <ele>1501.38675</ele>
        <time>2023-09-19T08:17:05.703Z</time>
      </trkpt>
      <trkpt lat="44.28664" lon="6.18641">
        <ele>1501.408773</ele>
        <time>2023-09-19T08:17:07.699Z</time>
      </trkpt>
      <trkpt lat="44.28671" lon="6.18657">
        <ele>1501.440489</ele>
        <time>2023-09-19T08:17:10.706Z</time>
      </trkpt>
      <trkpt lat="44.2868" lon="6.18671">
        <ele>1501.47321</ele>
        <time>2023-09-19T08:17:13.698Z</time>
      </trkpt>
      <trkpt lat="44.28689" lon="6.18684">
        <ele>1501.50577</ele>
        <time>2023-09-19T08:17:16.709Z</time>
      </trkpt>
      <trkpt lat="44.28698" lon="6.18697">
        <ele>1501.537737</ele>
        <time>2023-09-19T08:17:19.709Z</time>
      </trkpt>
      <trkpt lat="44.28705" lon="6.18705">
        <ele>1501.55998</ele>
        <time>2023-09-19T08:17:21.707Z</time>
      </trkpt>
      <trkpt lat="44.28715" lon="6.18717">
        <ele>1501.592528</ele>
        <time>2023-09-19T08:17:24.706Z</time>
      </trkpt>
      <trkpt lat="44.28725" lon="6.18731">
        <ele>1502.680191</ele>
        <time>2023-09-19T08:17:27.712Z</time>
      </trkpt>
      <trkpt lat="44.28732" lon="6.18745">
        <ele>1503.771991</ele>
        <time>2023-09-19T08:17:30.704Z</time>
      </trkpt>
      <trkpt lat="44.28739" lon="6.1876">
        <ele>1504.80037</ele>
        <time>2023-09-19T08:17:33.702Z</time>
      </trkpt>
      <trkpt lat="44.28741" lon="6.18773">
        <ele>1505.602785</ele>
        <time>2023-09-19T08:17:36.704Z</time>
      </trkpt>
      <trkpt lat="44.28737" lon="6.18788">
        <ele>1506.583794</ele>
        <time>2023-09-19T08:17:40.697Z</time>
      </trkpt>
      <trkpt lat="44.28731" lon="6.18799">
        <ele>1507.44548</ele>
        <time>2023-09-19T08:17:44.708Z</time>
      </trkpt>
      <trkpt lat="44.28725" lon="6.18811">
        <ele>1508.322011</ele>
        <time>2023-09-19T08:17:49.701Z</time>
      </trkpt>
      <trkpt lat="44.28719" lon="6.18824">
        <ele>1509.218021</ele>
        <time>2023-09-19T08:17:54.712Z</time>
      </trkpt>
      <trkpt lat="44.28713" lon="6.18835">
        <ele>1510.035649</ele>
        <time>2023-09-19T08:17:59.714Z</time>
      </trkpt>
      <trkpt lat="44.28707" lon="6.18846">
        <ele>1510.899116</ele>
        <time>2023-09-19T08:18:04.715Z</time>
      </trkpt>
      <trkpt lat="44.28701" lon="6.18858">
        <ele>1511.790598</ele>
        <time>2023-09-19T08:18:09.718Z</time>
      </trkpt>
      <trkpt lat="44.28693" lon="6.18869">
        <ele>1512.704117</ele>
        <time>2023-09-19T08:18:14.708Z</time>
      </trkpt>
      <trkpt lat="44.28684" lon="6.18875">
        <ele>1513.579576</ele>
        <time>2023-09-19T08:18:19.705Z</time>
      </trkpt>
      <trkpt lat="44.28674" lon="6.1888">
        <ele>1514.448093</ele>
        <time>2023-09-19T08:18:24.702Z</time>
      </trkpt>
      <trkpt lat="44.28664" lon="6.18875">
        <ele>1515.381695</ele>
        <time>2023-09-19T08:18:29.716Z</time>
      </trkpt>
      <trkpt lat="44.28654" lon="6.18868">
        <ele>1516.296771</ele>
        <time>2023-09-19T08:18:34.714Z</time>
      </trkpt>
      <trkpt lat="44.28644" lon="6.18861">
        <ele>1517.201279</ele>
        <time>2023-09-19T08:18:39.716Z</time>
      </trkpt>
      <trkpt lat="44.28635" lon="6.18858">
        <ele>1517.974585</ele>
        <time>2023-09-19T08:18:43.708Z</time>
      </trkpt>
      <trkpt lat="44.28625" lon="6.1886">
        <ele>1518.849763</ele>
        <time>2023-09-19T08:18:48.704Z</time>
      </trkpt>
      <trkpt lat="44.28619" lon="6.18871">
        <ele>1519.649975</ele>
        <time>2023-09-19T08:18:52.712Z</time>
      </trkpt>
      <trkpt lat="44.2862" lon="6.18885">
        <ele>1520.471975</ele>
        <time>2023-09-19T08:18:56.703Z</time>
      </trkpt>
      <trkpt lat="44.28619" lon="6.18898">
        <ele>1521.304163</ele>
        <time>2023-09-19T08:19:00.705Z</time>
      </trkpt>
      <trkpt lat="44.28616" lon="6.18911">
        <ele>1522.11794</ele>
        <time>2023-09-19T08:19:04.700Z</time>
      </trkpt>
      <trkpt lat="44.2861" lon="6.18922">
        <ele>1522.909276</ele>
        <time>2023-09-19T08:19:08.709Z</time>
      </trkpt>
      <trkpt lat="44.28601" lon="6.18927">
        <ele>1523.714558</ele>
        <time>2023-09-19T08:19:12.701Z</time>
      </trkpt>
      <trkpt lat="44.28592" lon="6.18924">
        <ele>1524.511897</ele>
        <time>2023-09-19T08:19:16.705Z</time>
      </trkpt>
      <trkpt lat="44.28585" lon="6.18915">
        <ele>1525.330296</ele>
        <time>2023-09-19T08:19:20.701Z</time>
      </trkpt>
      <trkpt lat="44.28581" lon="6.18904">
        <ele>1526.122652</ele>
        <time>2023-09-19T08:19:24.707Z</time>
      </trkpt>
      <trkpt lat="44.28577" lon="6.18892">
        <ele>1526.89095</ele>
        <time>2023-09-19T08:19:28.701Z</time>
      </trkpt>
      <trkpt lat="44.28574" lon="6.18877">
        <ele>1527.803233</ele>
        <time>2023-09-19T08:19:33.712Z</time>
      </trkpt>
      <trkpt lat="44.28568" lon="6.18864">
        <ele>1528.750925</ele>
        <time>2023-09-19T08:19:38.717Z</time>
      </trkpt>
      <trkpt lat="44.28563" lon="6.18853">
        <ele>1529.52764</ele>
        <time>2023-09-19T08:19:42.698Z</time>
      </trkpt>
      <trkpt lat="44.28559" lon="6.18841">
        <ele>1530.287716</ele>
        <time>2023-09-19T08:19:46.704Z</time>
      </trkpt>
      <trkpt lat="44.28561" lon="6.18826">
        <ele>1531.219387</ele>
        <time>2023-09-19T08:19:51.708Z</time>
      </trkpt>
      <trkpt lat="44.28566" lon="6.18813">
        <ele>1531.979114</ele>
        <time>2023-09-19T08:19:55.710Z</time>
      </trkpt>
      <trkpt lat="44.28569" lon="6.18801">
        <ele>1532.535693</ele>
        <time>2023-09-19T08:19:59.702Z</time>
      </trkpt>
      <trkpt lat="44.28575" lon="6.18789">
        <ele>1533.156177</ele>
        <time>2023-09-19T08:20:03.707Z</time>
      </trkpt>
      <trkpt lat="44.28579" lon="6.18777">
        <ele>1533.730896</ele>
        <time>2023-09-19T08:20:07.699Z</time>
      </trkpt>
      <trkpt lat="44.28584" lon="6.18766">
        <ele>1534.293005</ele>
        <time>2023-09-19T08:20:11.709Z</time>
      </trkpt>
      <trkpt lat="44.28591" lon="6.18756">
        <ele>1534.861037</ele>
        <time>2023-09-19T08:20:15.708Z</time>
      </trkpt>
      <trkpt lat="44.28598" lon="6.18747">
        <ele>1535.443174</ele>
        <time>2023-09-19T08:20:19.710Z</time>
      </trkpt>
      <trkpt lat="44.28603" lon="6.18735">
        <ele>1536.012948</ele>
        <time>2023-09-19T08:20:23.711Z</time>
      </trkpt>
      <trkpt lat="44.286" lon="6.18721">
        <ele>1536.63098</ele>
        <time>2023-09-19T08:20:27.707Z</time>
      </trkpt>
      <trkpt lat="44.28593" lon="6.18711">
        <ele>1537.209269</ele>
        <time>2023-09-19T08:20:31.708Z</time>
      </trkpt>
      <trkpt lat="44.28583" lon="6.18706">
        <ele>1537.843145</ele>
        <time>2023-09-19T08:20:35.697Z</time>
      </trkpt>
      <trkpt lat="44.28575" lon="6.18701">
        <ele>1538.399649</ele>
        <time>2023-09-19T08:20:39.701Z</time>
      </trkpt>
      <trkpt lat="44.28566" lon="6.18695">
        <ele>1538.972139</ele>
        <time>2023-09-19T08:20:43.716Z</time>
      </trkpt>
      <trkpt lat="44.28557" lon="6.18691">
        <ele>1539.554352</ele>
        <time>2023-09-19T08:20:47.703Z</time>
      </trkpt>
      <trkpt lat="44.28547" lon="6.18686">
        <ele>1540.163097</ele>
        <time>2023-09-19T08:20:51.711Z</time>
      </trkpt>
      <trkpt lat="44.28538" lon="6.18681">
        <ele>1540.738338</ele>
        <time>2023-09-19T08:20:55.708Z</time>
      </trkpt>
      <trkpt lat="44.28529" lon="6.18677">
        <ele>1541.314964</ele>
        <time>2023-09-19T08:20:59.708Z</time>
      </trkpt>
      <trkpt lat="44.28519" lon="6.18672">
        <ele>1541.913038</ele>
        <time>2023-09-19T08:21:03.712Z</time>
      </trkpt>
      <trkpt lat="44.2851" lon="6.18666">
        <ele>1542.498627</ele>
        <time>2023-09-19T08:21:07.712Z</time>
      </trkpt>
      <trkpt lat="44.28501" lon="6.18659">
        <ele>1542.988236</ele>
        <time>2023-09-19T08:21:11.715Z</time>
      </trkpt>
      <trkpt lat="44.28492" lon="6.18651">
        <ele>1543.528574</ele>
        <time>2023-09-19T08:21:15.709Z</time>
      </trkpt>
      <trkpt lat="44.28485" lon="6.18643">
        <ele>1543.99727</ele>
        <time>2023-09-19T08:21:19.715Z</time>
      </trkpt>
      <trkpt lat="44.28477" lon="6.18633">
        <ele>1544.503618</ele>
        <time>2023-09-19T08:21:23.726Z</time>
      </trkpt>
      <trkpt lat="44.2847" lon="6.18622">
        <ele>1545.049688</ele>
        <time>2023-09-19T08:21:27.709Z</time>
      </trkpt>
      <trkpt lat="44.28463" lon="6.1861">
        <ele>1545.595734</ele>
        <time>2023-09-19T08:21:31.704Z</time>
      </trkpt>
      <trkpt lat="44.2846" lon="6.18596">
        <ele>1546.13058</ele>
        <time>2023-09-19T08:21:35.709Z</time>
      </trkpt>
      <trkpt lat="44.28461" lon="6.1858">
        <ele>1546.672258</ele>
        <time>2023-09-19T08:21:39.700Z</time>
      </trkpt>
      <trkpt lat="44.28462" lon="6.18566">
        <ele>1547.205985</ele>
        <time>2023-09-19T08:21:43.710Z</time>
      </trkpt>
      <trkpt lat="44.28461" lon="6.18551">
        <ele>1547.731518</ele>
        <time>2023-09-19T08:21:47.708Z</time>
      </trkpt>
      <trkpt lat="44.28459" lon="6.18537">
        <ele>1548.24642</ele>
        <time>2023-09-19T08:21:51.712Z</time>
      </trkpt>
      <trkpt lat="44.28457" lon="6.18523">
        <ele>1548.729914</ele>
        <time>2023-09-19T08:21:55.701Z</time>
      </trkpt>
      <trkpt lat="44.28454" lon="6.18511">
        <ele>1549.216016</ele>
        <time>2023-09-19T08:21:59.711Z</time>
      </trkpt>
      <trkpt lat="44.28448" lon="6.18501">
        <ele>1549.676813</ele>
        <time>2023-09-19T08:22:03.703Z</time>
      </trkpt>
      <trkpt lat="44.2844" lon="6.18491">
        <ele>1550.214846</ele>
        <time>2023-09-19T08:22:08.710Z</time>
      </trkpt>
      <trkpt lat="44.28433" lon="6.18482">
        <ele>1550.668864</ele>
        <time>2023-09-19T08:22:12.723Z</time>
      </trkpt>
      <trkpt lat="44.28423" lon="6.18475">
        <ele>1551.213637</ele>
        <time>2023-09-19T08:22:17.709Z</time>
      </trkpt>
      <trkpt lat="44.28413" lon="6.18469">
        <ele>1551.868252</ele>
        <time>2023-09-19T08:22:22.714Z</time>
      </trkpt>
      <trkpt lat="44.28405" lon="6.18465">
        <ele>1552.441955</ele>
        <time>2023-09-19T08:22:26.720Z</time>
      </trkpt>
      <trkpt lat="44.28394" lon="6.18461">
        <ele>1553.112457</ele>
        <time>2023-09-19T08:22:31.733Z</time>
      </trkpt>
      <trkpt lat="44.28384" lon="6.18456">
        <ele>1553.802463</ele>
        <time>2023-09-19T08:22:36.708Z</time>
      </trkpt>
      <trkpt lat="44.28374" lon="6.1845">
        <ele>1554.475683</ele>
        <time>2023-09-19T08:22:41.705Z</time>
      </trkpt>
      <trkpt lat="44.28365" lon="6.18445">
        <ele>1555.088161</ele>
        <time>2023-09-19T08:22:45.702Z</time>
      </trkpt>
      <trkpt lat="44.28356" lon="6.18441">
        <ele>1555.720181</ele>
        <time>2023-09-19T08:22:49.714Z</time>
      </trkpt>
      <trkpt lat="44.28347" lon="6.18435">
        <ele>1556.370646</ele>
        <time>2023-09-19T08:22:53.702Z</time>
      </trkpt>
      <trkpt lat="44.28339" lon="6.18426">
        <ele>1556.988975</ele>
        <time>2023-09-19T08:22:57.703Z</time>
      </trkpt>
      <trkpt lat="44.28332" lon="6.18417">
        <ele>1557.589967</ele>
        <time>2023-09-19T08:23:01.708Z</time>
      </trkpt>
      <trkpt lat="44.28328" lon="6.18406">
        <ele>1558.161798</ele>
        <time>2023-09-19T08:23:05.709Z</time>
      </trkpt>
      <trkpt lat="44.2833" lon="6.18393">
        <ele>1558.74722</ele>
        <time>2023-09-19T08:23:09.703Z</time>
      </trkpt>
      <trkpt lat="44.28339" lon="6.1839">
        <ele>1559.339712</ele>
        <time>2023-09-19T08:23:13.714Z</time>
      </trkpt>
      <trkpt lat="44.28349" lon="6.18391">
        <ele>1559.917791</ele>
        <time>2023-09-19T08:23:17.697Z</time>
      </trkpt>
      <trkpt lat="44.2836" lon="6.18391">
        <ele>1560.626639</ele>
        <time>2023-09-19T08:23:22.720Z</time>
      </trkpt>
      <trkpt lat="44.28369" lon="6.18391">
        <ele>1561.202584</ele>
        <time>2023-09-19T08:23:26.719Z</time>
      </trkpt>
      <trkpt lat="44.28378" lon="6.18388">
        <ele>1561.772801</ele>
        <time>2023-09-19T08:23:30.704Z</time>
      </trkpt>
      <trkpt lat="44.28387" lon="6.1838">
        <ele>1562.461064</ele>
        <time>2023-09-19T08:23:35.707Z</time>
      </trkpt>
      <trkpt lat="44.28395" lon="6.18369">
        <ele>1563.233106</ele>
        <time>2023-09-19T08:23:40.721Z</time>
      </trkpt>
      <trkpt lat="44.28401" lon="6.18356">
        <ele>1564.050983</ele>
        <time>2023-09-19T08:23:45.705Z</time>
      </trkpt>
      <trkpt lat="44.28401" lon="6.18342">
        <ele>1564.746816</ele>
        <time>2023-09-19T08:23:49.706Z</time>
      </trkpt>
      <trkpt lat="44.28399" lon="6.18329">
        <ele>1565.441726</ele>
        <time>2023-09-19T08:23:53.714Z</time>
      </trkpt>
      <trkpt lat="44.28397" lon="6.18316">
        <ele>1566.126084</ele>
        <time>2023-09-19T08:23:57.703Z</time>
      </trkpt>
      <trkpt lat="44.28402" lon="6.18305">
        <ele>1566.790411</ele>
        <time>2023-09-19T08:24:01.706Z</time>
      </trkpt>
      <trkpt lat="44.28411" lon="6.18301">
        <ele>1567.498834</ele>
        <time>2023-09-19T08:24:05.703Z</time>
      </trkpt>
      <trkpt lat="44.2842" lon="6.183">
        <ele>1568.170613</ele>
        <time>2023-09-19T08:24:09.703Z</time>
      </trkpt>
      <trkpt lat="44.28428" lon="6.18306">
        <ele>1568.843625</ele>
        <time>2023-09-19T08:24:13.700Z</time>
      </trkpt>
      <trkpt lat="44.28438" lon="6.18311">
        <ele>1569.61</ele>
        <time>2023-09-19T08:24:18.696Z</time>
      </trkpt>
      <trkpt lat="44.28448" lon="6.18314">
        <ele>1570.365068</ele>
        <time>2023-09-19T08:24:23.710Z</time>
      </trkpt>
      <trkpt lat="44.28459" lon="6.18314">
        <ele>1571.169635</ele>
        <time>2023-09-19T08:24:28.719Z</time>
      </trkpt>
      <trkpt lat="44.28469" lon="6.18309">
        <ele>1571.959216</ele>
        <time>2023-09-19T08:24:33.706Z</time>
      </trkpt>
      <trkpt lat="44.2848" lon="6.18304">
        <ele>1572.772852</ele>
        <time>2023-09-19T08:24:38.699Z</time>
      </trkpt>
      <trkpt lat="44.2849" lon="6.183">
        <ele>1573.519159</ele>
        <time>2023-09-19T08:24:43.706Z</time>
      </trkpt>
      <trkpt lat="44.28498" lon="6.18294">
        <ele>1574.214297</ele>
        <time>2023-09-19T08:24:48.731Z</time>
      </trkpt>
      <trkpt lat="44.28507" lon="6.18286">
        <ele>1574.998581</ele>
        <time>2023-09-19T08:24:53.706Z</time>
      </trkpt>
      <trkpt lat="44.28517" lon="6.18278">
        <ele>1575.796071</ele>
        <time>2023-09-19T08:24:58.704Z</time>
      </trkpt>
      <trkpt lat="44.28526" lon="6.18271">
        <ele>1576.649098</ele>
        <time>2023-09-19T08:25:03.704Z</time>
      </trkpt>
      <trkpt lat="44.28536" lon="6.18265">
        <ele>1577.5445</ele>
        <time>2023-09-19T08:25:08.714Z</time>
      </trkpt>
      <trkpt lat="44.28547" lon="6.18262">
        <ele>1578.429305</ele>
        <time>2023-09-19T08:25:13.726Z</time>
      </trkpt>
      <trkpt lat="44.28557" lon="6.18265">
        <ele>1579.278106</ele>
        <time>2023-09-19T08:25:18.709Z</time>
      </trkpt>
      <trkpt lat="44.28567" lon="6.18272">
        <ele>1580.176781</ele>
        <time>2023-09-19T08:25:23.706Z</time>
      </trkpt>
      <trkpt lat="44.28577" lon="6.18276">
        <ele>1581.032905</ele>
        <time>2023-09-19T08:25:28.723Z</time>
      </trkpt>
      <trkpt lat="44.28588" lon="6.18275">
        <ele>1581.916514</ele>
        <time>2023-09-19T08:25:33.704Z</time>
      </trkpt>
      <trkpt lat="44.28597" lon="6.18268">
        <ele>1582.778084</ele>
        <time>2023-09-19T08:25:38.727Z</time>
      </trkpt>
      <trkpt lat="44.28605" lon="6.18257">
        <ele>1583.665438</ele>
        <time>2023-09-19T08:25:43.715Z</time>
      </trkpt>
      <trkpt lat="44.2861" lon="6.18244">
        <ele>1584.540422</ele>
        <time>2023-09-19T08:25:48.728Z</time>
      </trkpt>
      <trkpt lat="44.2861" lon="6.18231">
        <ele>1585.301843</ele>
        <time>2023-09-19T08:25:52.731Z</time>
      </trkpt>
      <trkpt lat="44.2861" lon="6.18216">
        <ele>1586.168407</ele>
        <time>2023-09-19T08:25:57.708Z</time>
      </trkpt>
      <trkpt lat="44.28608" lon="6.18201">
        <ele>1587.065093</ele>
        <time>2023-09-19T08:26:02.726Z</time>
      </trkpt>
      <trkpt lat="44.28607" lon="6.18186">
        <ele>1587.948798</ele>
        <time>2023-09-19T08:26:07.714Z</time>
      </trkpt>
      <trkpt lat="44.28605" lon="6.18171">
        <ele>1588.845122</ele>
        <time>2023-09-19T08:26:12.721Z</time>
      </trkpt>
      <trkpt lat="44.28597" lon="6.18163">
        <ele>1589.685778</ele>
        <time>2023-09-19T08:26:17.711Z</time>
      </trkpt>
      <trkpt lat="44.28589" lon="6.18169">
        <ele>1590.448977</ele>
        <time>2023-09-19T08:26:21.717Z</time>
      </trkpt>
      <trkpt lat="44.28583" lon="6.18179">
        <ele>1590.915505</ele>
        <time>2023-09-19T08:26:25.707Z</time>
      </trkpt>
      <trkpt lat="44.28575" lon="6.1819">
        <ele>1591.38079</ele>
        <time>2023-09-19T08:26:30.727Z</time>
      </trkpt>
      <trkpt lat="44.28567" lon="6.18199">
        <ele>1591.834008</ele>
        <time>2023-09-19T08:26:35.711Z</time>
      </trkpt>
      <trkpt lat="44.28556" lon="6.18203">
        <ele>1592.305647</ele>
        <time>2023-09-19T08:26:40.709Z</time>
      </trkpt>
      <trkpt lat="44.28546" lon="6.18206">
        <ele>1592.727441</ele>
        <time>2023-09-19T08:26:45.711Z</time>
      </trkpt>
      <trkpt lat="44.28537" lon="6.18203">
        <ele>1593.120133</ele>
        <time>2023-09-19T08:26:50.708Z</time>
      </trkpt>
      <trkpt lat="44.28528" lon="6.18203">
        <ele>1593.500692</ele>
        <time>2023-09-19T08:26:54.715Z</time>
      </trkpt>
      <trkpt lat="44.28519" lon="6.18203">
        <ele>1593.893983</ele>
        <time>2023-09-19T08:26:58.715Z</time>
      </trkpt>
      <trkpt lat="44.28508" lon="6.18203">
        <ele>1594.363495</ele>
        <time>2023-09-19T08:27:03.702Z</time>
      </trkpt>
      <trkpt lat="44.28498" lon="6.18206">
        <ele>1594.775874</ele>
        <time>2023-09-19T08:27:07.705Z</time>
      </trkpt>
      <trkpt lat="44.28489" lon="6.18208">
        <ele>1595.171615</ele>
        <time>2023-09-19T08:27:11.705Z</time>
      </trkpt>
      <trkpt lat="44.28479" lon="6.18209">
        <ele>1595.591803</ele>
        <time>2023-09-19T08:27:15.702Z</time>
      </trkpt>
      <trkpt lat="44.2847" lon="6.18209">
        <ele>1595.985151</ele>
        <time>2023-09-19T08:27:19.710Z</time>
      </trkpt>
      <trkpt lat="44.28458" lon="6.18209">
        <ele>1596.492599</ele>
        <time>2023-09-19T08:27:23.709Z</time>
      </trkpt>
      <trkpt lat="44.28448" lon="6.1821">
        <ele>1596.882568</ele>
        <time>2023-09-19T08:27:26.704Z</time>
      </trkpt>
      <trkpt lat="44.28437" lon="6.18212">
        <ele>1597.385182</ele>
        <time>2023-09-19T08:27:30.714Z</time>
      </trkpt>
      <trkpt lat="44.28425" lon="6.18214">
        <ele>1597.88018</ele>
        <time>2023-09-19T08:27:34.713Z</time>
      </trkpt>
      <trkpt lat="44.28416" lon="6.18216">
        <ele>1598.218823</ele>
        <time>2023-09-19T08:27:37.708Z</time>
      </trkpt>
      <trkpt lat="44.28405" lon="6.18217">
        <ele>1598.093805</ele>
        <time>2023-09-19T08:27:40.712Z</time>
      </trkpt>
      <trkpt lat="44.28393" lon="6.18218">
        <ele>1597.948967</ele>
        <time>2023-09-19T08:27:43.714Z</time>
      </trkpt>
      <trkpt lat="44.28381" lon="6.18218">
        <ele>1597.801018</ele>
        <time>2023-09-19T08:27:46.710Z</time>
      </trkpt>
      <trkpt lat="44.28368" lon="6.18217">
        <ele>1597.655969</ele>
        <time>2023-09-19T08:27:49.709Z</time>
      </trkpt>
      <trkpt lat="44.28355" lon="6.18215">
        <ele>1597.49782</ele>
        <time>2023-09-19T08:27:52.713Z</time>
      </trkpt>
      <trkpt lat="44.28342" lon="6.18213">
        <ele>1597.346391</ele>
        <time>2023-09-19T08:27:55.710Z</time>
      </trkpt>
      <trkpt lat="44.28332" lon="6.18212">
        <ele>1597.233619</ele>
        <time>2023-09-19T08:27:57.716Z</time>
      </trkpt>
      <trkpt lat="44.28319" lon="6.18209">
        <ele>1597.075562</ele>
        <time>2023-09-19T08:28:00.709Z</time>
      </trkpt>
      <trkpt lat="44.2831" lon="6.18208">
        <ele>1596.965898</ele>
        <time>2023-09-19T08:28:02.707Z</time>
      </trkpt>
      <trkpt lat="44.283" lon="6.18207">
        <ele>1596.854148</ele>
        <time>2023-09-19T08:28:04.715Z</time>
      </trkpt>
      <trkpt lat="44.28287" lon="6.18207">
        <ele>1596.696727</ele>
        <time>2023-09-19T08:28:07.709Z</time>
      </trkpt>
      <trkpt lat="44.28273" lon="6.18208">
        <ele>1596.534472</ele>
        <time>2023-09-19T08:28:10.721Z</time>
      </trkpt>
      <trkpt lat="44.28262" lon="6.18209">
        <ele>1596.407482</ele>
        <time>2023-09-19T08:28:13.711Z</time>
      </trkpt>
      <trkpt lat="44.28252" lon="6.18212">
        <ele>1596.282177</ele>
        <time>2023-09-19T08:28:17.710Z</time>
      </trkpt>
      <trkpt lat="44.28245" lon="6.18221">
        <ele>1596.168727</ele>
        <time>2023-09-19T08:28:22.698Z</time>
      </trkpt>
      <trkpt lat="44.28241" lon="6.18233">
        <ele>1596.21532</ele>
        <time>2023-09-19T08:28:26.704Z</time>
      </trkpt>
      <trkpt lat="44.28239" lon="6.18246">
        <ele>1596.425351</ele>
        <time>2023-09-19T08:28:31.717Z</time>
      </trkpt>
      <trkpt lat="44.28243" lon="6.18234">
        <ele>1596.630958</ele>
        <time>2023-09-19T08:29:23.723Z</time>
      </trkpt>
      <trkpt lat="44.28246" lon="6.1822">
        <ele>1596.861591</ele>
        <time>2023-09-19T08:29:28.707Z</time>
      </trkpt>
      <trkpt lat="44.28249" lon="6.18207">
        <ele>1597.071829</ele>
        <time>2023-09-19T08:29:33.701Z</time>
      </trkpt>
      <trkpt lat="44.28246" lon="6.18194">
        <ele>1597.299515</ele>
        <time>2023-09-19T08:29:38.719Z</time>
      </trkpt>
      <trkpt lat="44.28241" lon="6.1818">
        <ele>1597.523758</ele>
        <time>2023-09-19T08:29:44.757Z</time>
      </trkpt>
      <trkpt lat="44.28235" lon="6.18169">
        <ele>1597.74562</ele>
        <time>2023-09-19T08:29:49.711Z</time>
      </trkpt>
      <trkpt lat="44.2823" lon="6.18157">
        <ele>1597.960183</ele>
        <time>2023-09-19T08:29:53.722Z</time>
      </trkpt>
      <trkpt lat="44.28224" lon="6.18147">
        <ele>1598.164337</ele>
        <time>2023-09-19T08:29:57.711Z</time>
      </trkpt>
      <trkpt lat="44.28219" lon="6.18133">
        <ele>1598.396034</ele>
        <time>2023-09-19T08:30:02.711Z</time>
      </trkpt>
      <trkpt lat="44.28218" lon="6.1812">
        <ele>1598.598187</ele>
        <time>2023-09-19T08:30:07.705Z</time>
      </trkpt>
      <trkpt lat="44.28217" lon="6.18108">
        <ele>1598.799046</ele>
        <time>2023-09-19T08:30:11.705Z</time>
      </trkpt>
      <trkpt lat="44.28215" lon="6.18093">
        <ele>1599.027046</ele>
        <time>2023-09-19T08:30:15.709Z</time>
      </trkpt>
      <trkpt lat="44.28215" lon="6.18079">
        <ele>1599.250581</ele>
        <time>2023-09-19T08:30:19.713Z</time>
      </trkpt>
      <trkpt lat="44.28215" lon="6.18063">
        <ele>1599.489481</ele>
        <time>2023-09-19T08:30:24.706Z</time>
      </trkpt>
      <trkpt lat="44.28216" lon="6.1805">
        <ele>1599.699406</ele>
        <time>2023-09-19T08:30:28.705Z</time>
      </trkpt>
      <trkpt lat="44.28219" lon="6.18036">
        <ele>1599.914028</ele>
        <time>2023-09-19T08:30:32.708Z</time>
      </trkpt>
      <trkpt lat="44.28217" lon="6.18022">
        <ele>1600.021744</ele>
        <time>2023-09-19T08:30:36.702Z</time>
      </trkpt>
      <trkpt lat="44.28215" lon="6.18007">
        <ele>1600.041342</ele>
        <time>2023-09-19T08:30:39.711Z</time>
      </trkpt>
      <trkpt lat="44.28215" lon="6.17994">
        <ele>1600.059602</ele>
        <time>2023-09-19T08:30:42.711Z</time>
      </trkpt>
      <trkpt lat="44.28214" lon="6.17977">
        <ele>1600.081485</ele>
        <time>2023-09-19T08:30:46.710Z</time>
      </trkpt>
      <trkpt lat="44.28213" lon="6.17961">
        <ele>1600.102678</ele>
        <time>2023-09-19T08:30:50.714Z</time>
      </trkpt>
      <trkpt lat="44.28211" lon="6.17948">
        <ele>1600.12114</ele>
        <time>2023-09-19T08:30:54.718Z</time>
      </trkpt>
      <trkpt lat="44.28206" lon="6.17934">
        <ele>1600.141396</ele>
        <time>2023-09-19T08:30:59.714Z</time>
      </trkpt>
      <trkpt lat="44.282" lon="6.17924">
        <ele>1600.159062</ele>
        <time>2023-09-19T08:31:04.711Z</time>
      </trkpt>
      <trkpt lat="44.28194" lon="6.17913">
        <ele>1600.177131</ele>
        <time>2023-09-19T08:31:09.710Z</time>
      </trkpt>
      <trkpt lat="44.28184" lon="6.17909">
        <ele>1600.195608</ele>
        <time>2023-09-19T08:31:13.718Z</time>
      </trkpt>
      <trkpt lat="44.28175" lon="6.17908">
        <ele>1600.212747</ele>
        <time>2023-09-19T08:31:19.704Z</time>
      </trkpt>
      <trkpt lat="44.28168" lon="6.17918">
        <ele>1600.230999</ele>
        <time>2023-09-19T08:31:28.712Z</time>
      </trkpt>
      <trkpt lat="44.28167" lon="6.17918">
        <ele>1600.233985</ele>
        <time>2023-09-19T08:31:54.929Z</time>
      </trkpt>
      <trkpt lat="44.28176" lon="6.1792">
        <ele>1600.250781</ele>
        <time>2023-09-19T08:37:19.733Z</time>
      </trkpt>
      <trkpt lat="44.28185" lon="6.17915">
        <ele>1600.268905</ele>
        <time>2023-09-19T08:37:27.728Z</time>
      </trkpt>
      <trkpt lat="44.28195" lon="6.17916">
        <ele>1600.288657</ele>
        <time>2023-09-19T08:37:33.752Z</time>
      </trkpt>
      <trkpt lat="44.28203" lon="6.17924">
        <ele>1600.306034</ele>
        <time>2023-09-19T08:37:38.781Z</time>
      </trkpt>
      <trkpt lat="44.28208" lon="6.17935">
        <ele>1600.322922</ele>
        <time>2023-09-19T08:37:43.726Z</time>
      </trkpt>
      <trkpt lat="44.28214" lon="6.17946">
        <ele>1600.341422</ele>
        <time>2023-09-19T08:37:49.770Z</time>
      </trkpt>
      <trkpt lat="44.28215" lon="6.17962">
        <ele>1600.150272</ele>
        <time>2023-09-19T08:37:53.769Z</time>
      </trkpt>
      <trkpt lat="44.28215" lon="6.17975">
        <ele>1599.969508</ele>
        <time>2023-09-19T08:37:56.731Z</time>
      </trkpt>
      <trkpt lat="44.28215" lon="6.17991">
        <ele>1599.741105</ele>
        <time>2023-09-19T08:38:01.731Z</time>
      </trkpt>
      <trkpt lat="44.28216" lon="6.18007">
        <ele>1599.519168</ele>
        <time>2023-09-19T08:38:05.725Z</time>
      </trkpt>
      <trkpt lat="44.28217" lon="6.18019">
        <ele>1599.341536</ele>
        <time>2023-09-19T08:38:08.737Z</time>
      </trkpt>
      <trkpt lat="44.28217" lon="6.18033">
        <ele>1599.155136</ele>
        <time>2023-09-19T08:38:11.742Z</time>
      </trkpt>
      <trkpt lat="44.28217" lon="6.18045">
        <ele>1598.978586</ele>
        <time>2023-09-19T08:38:14.746Z</time>
      </trkpt>
      <trkpt lat="44.28217" lon="6.18058">
        <ele>1598.797314</ele>
        <time>2023-09-19T08:38:17.733Z</time>
      </trkpt>
      <trkpt lat="44.28216" lon="6.18075">
        <ele>1598.557063</ele>
        <time>2023-09-19T08:38:21.741Z</time>
      </trkpt>
      <trkpt lat="44.28216" lon="6.18091">
        <ele>1598.339561</ele>
        <time>2023-09-19T08:38:24.732Z</time>
      </trkpt>
      <trkpt lat="44.28217" lon="6.18107">
        <ele>1598.113122</ele>
        <time>2023-09-19T08:38:27.732Z</time>
      </trkpt>
      <trkpt lat="44.28219" lon="6.18123">
        <ele>1597.889247</ele>
        <time>2023-09-19T08:38:30.730Z</time>
      </trkpt>
      <trkpt lat="44.28222" lon="6.18136">
        <ele>1597.690653</ele>
        <time>2023-09-19T08:38:33.757Z</time>
      </trkpt>
      <trkpt lat="44.28226" lon="6.18151">
        <ele>1597.465349</ele>
        <time>2023-09-19T08:38:37.725Z</time>
      </trkpt>
      <trkpt lat="44.28232" lon="6.18165">
        <ele>1597.237062</ele>
        <time>2023-09-19T08:38:41.753Z</time>
      </trkpt>
      <trkpt lat="44.28238" lon="6.18176">
        <ele>1597.044405</ele>
        <time>2023-09-19T08:38:45.730Z</time>
      </trkpt>
      <trkpt lat="44.28246" lon="6.18187">
        <ele>1596.828784</ele>
        <time>2023-09-19T08:38:50.732Z</time>
      </trkpt>
      <trkpt lat="44.28253" lon="6.18197">
        <ele>1597.383177</ele>
        <time>2023-09-19T08:38:55.726Z</time>
      </trkpt>
      <trkpt lat="44.28252" lon="6.1821">
        <ele>1597.900058</ele>
        <time>2023-09-19T08:39:03.726Z</time>
      </trkpt>
      <trkpt lat="44.28245" lon="6.18222">
        <ele>1598.490852</ele>
        <time>2023-09-19T08:39:08.740Z</time>
      </trkpt>
      <trkpt lat="44.28241" lon="6.18236">
        <ele>1599.113218</ele>
        <time>2023-09-19T08:39:13.738Z</time>
      </trkpt>
      <trkpt lat="44.2824" lon="6.18251">
        <ele>1599.700489</ele>
        <time>2023-09-19T08:39:18.778Z</time>
      </trkpt>
      <trkpt lat="44.28237" lon="6.18266">
        <ele>1600.303585</ele>
        <time>2023-09-19T08:39:23.763Z</time>
      </trkpt>
      <trkpt lat="44.28233" lon="6.1828">
        <ele>1600.902846</ele>
        <time>2023-09-19T08:39:28.784Z</time>
      </trkpt>
      <trkpt lat="44.28225" lon="6.1829">
        <ele>1601.489553</ele>
        <time>2023-09-19T08:39:33.738Z</time>
      </trkpt>
      <trkpt lat="44.28215" lon="6.18295">
        <ele>1602.063906</ele>
        <time>2023-09-19T08:39:38.756Z</time>
      </trkpt>
      <trkpt lat="44.28206" lon="6.18299">
        <ele>1602.58722</ele>
        <time>2023-09-19T08:39:42.753Z</time>
      </trkpt>
      <trkpt lat="44.28196" lon="6.18305">
        <ele>1603.19601</ele>
        <time>2023-09-19T08:39:47.773Z</time>
      </trkpt>
      <trkpt lat="44.28185" lon="6.18309">
        <ele>1603.795582</ele>
        <time>2023-09-19T08:39:52.763Z</time>
      </trkpt>
      <trkpt lat="44.28175" lon="6.18311">
        <ele>1604.394659</ele>
        <time>2023-09-19T08:39:57.768Z</time>
      </trkpt>
      <trkpt lat="44.28164" lon="6.18312">
        <ele>1604.986277</ele>
        <time>2023-09-19T08:40:02.751Z</time>
      </trkpt>
      <trkpt lat="44.28153" lon="6.18312">
        <ele>1605.577828</ele>
        <time>2023-09-19T08:40:07.751Z</time>
      </trkpt>
      <trkpt lat="44.28142" lon="6.18312">
        <ele>1606.202608</ele>
        <time>2023-09-19T08:40:12.754Z</time>
      </trkpt>
      <trkpt lat="44.28133" lon="6.18316">
        <ele>1606.736092</ele>
        <time>2023-09-19T08:40:16.765Z</time>
      </trkpt>
      <trkpt lat="44.28124" lon="6.18322">
        <ele>1607.194325</ele>
        <time>2023-09-19T08:40:20.754Z</time>
      </trkpt>
      <trkpt lat="44.28117" lon="6.18328">
        <ele>1607.633173</ele>
        <time>2023-09-19T08:40:24.780Z</time>
      </trkpt>
      <trkpt lat="44.28108" lon="6.18336">
        <ele>1608.155294</ele>
        <time>2023-09-19T08:40:29.753Z</time>
      </trkpt>
      <trkpt lat="44.281" lon="6.18346">
        <ele>1608.676969</ele>
        <time>2023-09-19T08:40:34.749Z</time>
      </trkpt>
      <trkpt lat="44.28094" lon="6.18356">
        <ele>1609.153932</ele>
        <time>2023-09-19T08:40:39.767Z</time>
      </trkpt>
      <trkpt lat="44.28087" lon="6.18366">
        <ele>1609.627284</ele>
        <time>2023-09-19T08:40:43.763Z</time>
      </trkpt>
      <trkpt lat="44.28082" lon="6.18379">
        <ele>1610.142895</ele>
        <time>2023-09-19T08:40:48.746Z</time>
      </trkpt>
      <trkpt lat="44.28077" lon="6.18392">
        <ele>1610.650293</ele>
        <time>2023-09-19T08:40:53.737Z</time>
      </trkpt>
      <trkpt lat="44.28076" lon="6.18405">
        <ele>1611.133865</ele>
        <time>2023-09-19T08:40:58.749Z</time>
      </trkpt>
      <trkpt lat="44.28077" lon="6.18419">
        <ele>1611.629219</ele>
        <time>2023-09-19T08:41:03.738Z</time>
      </trkpt>
      <trkpt lat="44.28077" lon="6.18434">
        <ele>1612.143462</ele>
        <time>2023-09-19T08:41:08.757Z</time>
      </trkpt>
      <trkpt lat="44.28074" lon="6.18449">
        <ele>1612.685018</ele>
        <time>2023-09-19T08:41:13.769Z</time>
      </trkpt>
      <trkpt lat="44.28069" lon="6.18462">
        <ele>1613.225552</ele>
        <time>2023-09-19T08:41:18.778Z</time>
      </trkpt>
      <trkpt lat="44.28065" lon="6.18476">
        <ele>1613.757583</ele>
        <time>2023-09-19T08:41:23.735Z</time>
      </trkpt>
      <trkpt lat="44.2806" lon="6.18489">
        <ele>1614.274612</ele>
        <time>2023-09-19T08:41:28.757Z</time>
      </trkpt>
      <trkpt lat="44.28054" lon="6.18503">
        <ele>1614.849241</ele>
        <time>2023-09-19T08:41:33.768Z</time>
      </trkpt>
      <trkpt lat="44.28049" lon="6.18516">
        <ele>1615.38258</ele>
        <time>2023-09-19T08:41:37.767Z</time>
      </trkpt>
      <trkpt lat="44.28042" lon="6.18529">
        <ele>1615.684484</ele>
        <time>2023-09-19T08:41:41.760Z</time>
      </trkpt>
      <trkpt lat="44.28036" lon="6.18541">
        <ele>1615.805638</ele>
        <time>2023-09-19T08:41:45.759Z</time>
      </trkpt>
      <trkpt lat="44.28029" lon="6.18554">
        <ele>1615.940129</ele>
        <time>2023-09-19T08:41:49.753Z</time>
      </trkpt>
      <trkpt lat="44.28023" lon="6.18565">
        <ele>1616.048217</ele>
        <time>2023-09-19T08:41:52.729Z</time>
      </trkpt>
      <trkpt lat="44.28017" lon="6.18575">
        <ele>1616.157584</ele>
        <time>2023-09-19T08:41:55.771Z</time>
      </trkpt>
      <trkpt lat="44.2801" lon="6.18585">
        <ele>1616.272207</ele>
        <time>2023-09-19T08:41:58.735Z</time>
      </trkpt>
      <trkpt lat="44.28002" lon="6.18596">
        <ele>1616.393891</ele>
        <time>2023-09-19T08:42:01.766Z</time>
      </trkpt>
      <trkpt lat="44.27995" lon="6.18607">
        <ele>1616.514757</ele>
        <time>2023-09-19T08:42:04.770Z</time>
      </trkpt>
      <trkpt lat="44.27986" lon="6.18616">
        <ele>1616.639938</ele>
        <time>2023-09-19T08:42:07.730Z</time>
      </trkpt>
      <trkpt lat="44.27976" lon="6.18626">
        <ele>1616.778224</ele>
        <time>2023-09-19T08:42:10.744Z</time>
      </trkpt>
      <trkpt lat="44.27968" lon="6.1864">
        <ele>1616.922646</ele>
        <time>2023-09-19T08:42:13.744Z</time>
      </trkpt>
      <trkpt lat="44.2797" lon="6.18654">
        <ele>1617.041622</ele>
        <time>2023-09-19T08:42:15.747Z</time>
      </trkpt>
      <trkpt lat="44.27979" lon="6.18663">
        <ele>1617.158692</ele>
        <time>2023-09-19T08:42:18.727Z</time>
      </trkpt>
      <trkpt lat="44.27989" lon="6.18663">
        <ele>1617.275219</ele>
        <time>2023-09-19T08:42:21.753Z</time>
      </trkpt>
      <trkpt lat="44.27999" lon="6.18663">
        <ele>1617.3872</ele>
        <time>2023-09-19T08:42:24.732Z</time>
      </trkpt>
      <trkpt lat="44.2801" lon="6.18661">
        <ele>1617.515588</ele>
        <time>2023-09-19T08:42:28.752Z</time>
      </trkpt>
      <trkpt lat="44.28021" lon="6.1866">
        <ele>1617.641579</ele>
        <time>2023-09-19T08:42:32.731Z</time>
      </trkpt>
      <trkpt lat="44.28032" lon="6.18657">
        <ele>1618.432029</ele>
        <time>2023-09-19T08:42:36.774Z</time>
      </trkpt>
      <trkpt lat="44.28042" lon="6.18654">
        <ele>1619.274668</ele>
        <time>2023-09-19T08:42:40.771Z</time>
      </trkpt>
      <trkpt lat="44.28053" lon="6.18655">
        <ele>1620.086621</ele>
        <time>2023-09-19T08:42:44.771Z</time>
      </trkpt>
      <trkpt lat="44.28064" lon="6.18659">
        <ele>1620.918395</ele>
        <time>2023-09-19T08:42:48.734Z</time>
      </trkpt>
      <trkpt lat="44.28074" lon="6.18662">
        <ele>1621.728901</ele>
        <time>2023-09-19T08:42:52.734Z</time>
      </trkpt>
      <trkpt lat="44.28085" lon="6.18666">
        <ele>1622.56805</ele>
        <time>2023-09-19T08:42:56.768Z</time>
      </trkpt>
      <trkpt lat="44.28094" lon="6.1867">
        <ele>1623.347486</ele>
        <time>2023-09-19T08:43:00.747Z</time>
      </trkpt>
      <trkpt lat="44.28105" lon="6.18674">
        <ele>1624.21093</ele>
        <time>2023-09-19T08:43:05.731Z</time>
      </trkpt>
      <trkpt lat="44.28114" lon="6.18677">
        <ele>1624.91064</ele>
        <time>2023-09-19T08:43:09.758Z</time>
      </trkpt>
      <trkpt lat="44.28125" lon="6.18681">
        <ele>1625.76792</ele>
        <time>2023-09-19T08:43:14.775Z</time>
      </trkpt>
      <trkpt lat="44.28136" lon="6.18684">
        <ele>1626.641605</ele>
        <time>2023-09-19T08:43:19.739Z</time>
      </trkpt>
      <trkpt lat="44.28147" lon="6.18683">
        <ele>1627.460836</ele>
        <time>2023-09-19T08:43:24.783Z</time>
      </trkpt>
      <trkpt lat="44.28158" lon="6.1868">
        <ele>1628.300325</ele>
        <time>2023-09-19T08:43:29.775Z</time>
      </trkpt>
      <trkpt lat="44.28167" lon="6.18682">
        <ele>1629.018641</ele>
        <time>2023-09-19T08:43:33.759Z</time>
      </trkpt>
      <trkpt lat="44.28171" lon="6.18693">
        <ele>1629.711779</ele>
        <time>2023-09-19T08:43:37.733Z</time>
      </trkpt>
      <trkpt lat="44.28164" lon="6.18705">
        <ele>1630.569207</ele>
        <time>2023-09-19T08:43:42.746Z</time>
      </trkpt>
      <trkpt lat="44.28158" lon="6.18715">
        <ele>1631.264314</ele>
        <time>2023-09-19T08:43:46.748Z</time>
      </trkpt>
      <trkpt lat="44.28155" lon="6.18729">
        <ele>1632.096282</ele>
        <time>2023-09-19T08:43:51.761Z</time>
      </trkpt>
      <trkpt lat="44.28153" lon="6.18744">
        <ele>1632.938124</ele>
        <time>2023-09-19T08:43:56.751Z</time>
      </trkpt>
      <trkpt lat="44.28149" lon="6.18758">
        <ele>1633.82244</ele>
        <time>2023-09-19T08:44:01.730Z</time>
      </trkpt>
      <trkpt lat="44.2814" lon="6.18756">
        <ele>1634.563675</ele>
        <time>2023-09-19T08:44:06.747Z</time>
      </trkpt>
      <trkpt lat="44.28137" lon="6.18742">
        <ele>1635.364962</ele>
        <time>2023-09-19T08:44:11.731Z</time>
      </trkpt>
      <trkpt lat="44.2813" lon="6.18733">
        <ele>1636.128778</ele>
        <time>2023-09-19T08:44:16.772Z</time>
      </trkpt>
      <trkpt lat="44.2812" lon="6.18738">
        <ele>1636.963794</ele>
        <time>2023-09-19T08:44:21.731Z</time>
      </trkpt>
      <trkpt lat="44.28113" lon="6.18747">
        <ele>1637.710688</ele>
        <time>2023-09-19T08:44:26.757Z</time>
      </trkpt>
      <trkpt lat="44.28106" lon="6.18757">
        <ele>1638.513597</ele>
        <time>2023-09-19T08:44:31.747Z</time>
      </trkpt>
      <trkpt lat="44.28099" lon="6.18769">
        <ele>1639.336764</ele>
        <time>2023-09-19T08:44:36.755Z</time>
      </trkpt>
      <trkpt lat="44.28092" lon="6.18779">
        <ele>1640.159354</ele>
        <time>2023-09-19T08:44:41.725Z</time>
      </trkpt>
      <trkpt lat="44.28085" lon="6.1879">
        <ele>1640.969183</ele>
        <time>2023-09-19T08:44:46.753Z</time>
      </trkpt>
      <trkpt lat="44.28079" lon="6.18803">
        <ele>1641.856499</ele>
        <time>2023-09-19T08:44:51.733Z</time>
      </trkpt>
      <trkpt lat="44.28075" lon="6.18816">
        <ele>1642.699068</ele>
        <time>2023-09-19T08:44:56.775Z</time>
      </trkpt>
      <trkpt lat="44.2807" lon="6.18828">
        <ele>1643.474283</ele>
        <time>2023-09-19T08:45:01.739Z</time>
      </trkpt>
      <trkpt lat="44.28067" lon="6.18842">
        <ele>1644.269839</ele>
        <time>2023-09-19T08:45:07.770Z</time>
      </trkpt>
      <trkpt lat="44.28068" lon="6.18856">
        <ele>1645.077337</ele>
        <time>2023-09-19T08:45:12.779Z</time>
      </trkpt>
      <trkpt lat="44.28069" lon="6.18869">
        <ele>1645.64606</ele>
        <time>2023-09-19T08:45:17.739Z</time>
      </trkpt>
      <trkpt lat="44.28069" lon="6.18894">
        <ele>1645.966008</ele>
        <time>2023-09-19T08:45:52.788Z</time>
      </trkpt>
      <trkpt lat="44.28069" lon="6.18907">
        <ele>1646.134975</ele>
        <time>2023-09-19T08:45:56.771Z</time>
      </trkpt>
      <trkpt lat="44.28072" lon="6.18921">
        <ele>1646.320874</ele>
        <time>2023-09-19T08:46:01.730Z</time>
      </trkpt>
      <trkpt lat="44.28072" lon="6.18934">
        <ele>1646.486206</ele>
        <time>2023-09-19T08:46:05.760Z</time>
      </trkpt>
      <trkpt lat="44.28072" lon="6.18947">
        <ele>1646.650368</ele>
        <time>2023-09-19T08:46:09.735Z</time>
      </trkpt>
      <trkpt lat="44.2807" lon="6.18962">
        <ele>1646.847536</ele>
        <time>2023-09-19T08:46:14.760Z</time>
      </trkpt>
      <trkpt lat="44.2807" lon="6.18977">
        <ele>1647.040988</ele>
        <time>2023-09-19T08:46:19.758Z</time>
      </trkpt>
      <trkpt lat="44.28071" lon="6.18992">
        <ele>1647.230698</ele>
        <time>2023-09-19T08:46:24.752Z</time>
      </trkpt>
      <trkpt lat="44.28071" lon="6.19007">
        <ele>1647.426633</ele>
        <time>2023-09-19T08:46:29.752Z</time>
      </trkpt>
      <trkpt lat="44.28069" lon="6.1902">
        <ele>1647.587642</ele>
        <time>2023-09-19T08:46:33.727Z</time>
      </trkpt>
      <trkpt lat="44.28065" lon="6.19031">
        <ele>1647.754397</ele>
        <time>2023-09-19T08:46:37.724Z</time>
      </trkpt>
      <trkpt lat="44.28062" lon="6.19044">
        <ele>1647.9267</ele>
        <time>2023-09-19T08:46:42.730Z</time>
      </trkpt>
      <trkpt lat="44.28056" lon="6.19056">
        <ele>1648.117442</ele>
        <time>2023-09-19T08:46:48.767Z</time>
      </trkpt>
      <trkpt lat="44.2805" lon="6.19066">
        <ele>1648.279825</ele>
        <time>2023-09-19T08:46:51.729Z</time>
      </trkpt>
      <trkpt lat="44.28047" lon="6.1908">
        <ele>1648.461818</ele>
        <time>2023-09-19T08:46:54.730Z</time>
      </trkpt>
      <trkpt lat="44.28044" lon="6.19094">
        <ele>1648.656002</ele>
        <time>2023-09-19T08:46:57.761Z</time>
      </trkpt>
      <trkpt lat="44.28041" lon="6.19109">
        <ele>1648.882626</ele>
        <time>2023-09-19T08:47:00.759Z</time>
      </trkpt>
      <trkpt lat="44.28039" lon="6.19123">
        <ele>1649.232883</ele>
        <time>2023-09-19T08:47:03.736Z</time>
      </trkpt>
      <trkpt lat="44.28036" lon="6.19135">
        <ele>1649.540534</ele>
        <time>2023-09-19T08:47:06.735Z</time>
      </trkpt>
      <trkpt lat="44.28032" lon="6.19149">
        <ele>1649.908857</ele>
        <time>2023-09-19T08:47:09.747Z</time>
      </trkpt>
      <trkpt lat="44.28028" lon="6.19165">
        <ele>1650.303518</ele>
        <time>2023-09-19T08:47:13.729Z</time>
      </trkpt>
      <trkpt lat="44.28028" lon="6.19179">
        <ele>1650.653077</ele>
        <time>2023-09-19T08:47:17.734Z</time>
      </trkpt>
      <trkpt lat="44.28029" lon="6.19193">
        <ele>1650.998754</ele>
        <time>2023-09-19T08:47:21.741Z</time>
      </trkpt>
      <trkpt lat="44.28029" lon="6.19208">
        <ele>1651.35217</ele>
        <time>2023-09-19T08:47:26.732Z</time>
      </trkpt>
      <trkpt lat="44.28028" lon="6.19221">
        <ele>1651.671925</ele>
        <time>2023-09-19T08:47:31.766Z</time>
      </trkpt>
      <trkpt lat="44.28024" lon="6.19232">
        <ele>1651.990307</ele>
        <time>2023-09-19T08:47:37.734Z</time>
      </trkpt>
      <trkpt lat="44.28018" lon="6.19244">
        <ele>1652.350429</ele>
        <time>2023-09-19T08:47:43.732Z</time>
      </trkpt>
      <trkpt lat="44.2801" lon="6.19253">
        <ele>1652.667106</ele>
        <time>2023-09-19T08:47:48.766Z</time>
      </trkpt>
      <trkpt lat="44.28003" lon="6.19261">
        <ele>1652.973982</ele>
        <time>2023-09-19T08:47:53.764Z</time>
      </trkpt>
      <trkpt lat="44.27995" lon="6.19269">
        <ele>1653.310728</ele>
        <time>2023-09-19T08:47:58.777Z</time>
      </trkpt>
      <trkpt lat="44.27986" lon="6.19275">
        <ele>1653.658172</ele>
        <time>2023-09-19T08:48:03.731Z</time>
      </trkpt>
      <trkpt lat="44.27976" lon="6.1928">
        <ele>1654.007939</ele>
        <time>2023-09-19T08:48:08.759Z</time>
      </trkpt>
      <trkpt lat="44.27966" lon="6.19285">
        <ele>1654.386935</ele>
        <time>2023-09-19T08:48:13.737Z</time>
      </trkpt>
      <trkpt lat="44.27955" lon="6.19289">
        <ele>1654.764034</ele>
        <time>2023-09-19T08:48:17.731Z</time>
      </trkpt>
      <trkpt lat="44.27947" lon="6.19296">
        <ele>1654.918511</ele>
        <time>2023-09-19T08:48:20.781Z</time>
      </trkpt>
      <trkpt lat="44.27939" lon="6.19305">
        <ele>1654.965675</ele>
        <time>2023-09-19T08:48:23.769Z</time>
      </trkpt>
      <trkpt lat="44.27931" lon="6.19316">
        <ele>1655.015357</ele>
        <time>2023-09-19T08:48:25.745Z</time>
      </trkpt>
      <trkpt lat="44.27924" lon="6.19328">
        <ele>1655.066151</ele>
        <time>2023-09-19T08:48:28.736Z</time>
      </trkpt>
      <trkpt lat="44.27918" lon="6.19341">
        <ele>1655.116827</ele>
        <time>2023-09-19T08:48:31.768Z</time>
      </trkpt>
      <trkpt lat="44.27911" lon="6.19355">
        <ele>1655.172503</ele>
        <time>2023-09-19T08:48:34.773Z</time>
      </trkpt>
      <trkpt lat="44.27905" lon="6.19369">
        <ele>1655.222513</ele>
        <time>2023-09-19T08:48:37.734Z</time>
      </trkpt>
      <trkpt lat="44.27899" lon="6.1938">
        <ele>1655.268157</ele>
        <time>2023-09-19T08:48:40.731Z</time>
      </trkpt>
      <trkpt lat="44.27894" lon="6.19392">
        <ele>1655.311806</ele>
        <time>2023-09-19T08:48:43.773Z</time>
      </trkpt>
      <trkpt lat="44.27891" lon="6.19404">
        <ele>1655.353207</ele>
        <time>2023-09-19T08:48:46.738Z</time>
      </trkpt>
      <trkpt lat="44.27889" lon="6.19416">
        <ele>1655.394254</ele>
        <time>2023-09-19T08:48:49.774Z</time>
      </trkpt>
      <trkpt lat="44.27886" lon="6.19428">
        <ele>1655.435496</ele>
        <time>2023-09-19T08:48:52.741Z</time>
      </trkpt>
      <trkpt lat="44.27884" lon="6.19442">
        <ele>1655.481992</ele>
        <time>2023-09-19T08:48:55.728Z</time>
      </trkpt>
      <trkpt lat="44.27881" lon="6.19455">
        <ele>1655.526613</ele>
        <time>2023-09-19T08:48:58.733Z</time>
      </trkpt>
      <trkpt lat="44.27878" lon="6.1947">
        <ele>1655.577313</ele>
        <time>2023-09-19T08:49:01.760Z</time>
      </trkpt>
      <trkpt lat="44.27876" lon="6.19485">
        <ele>1655.627604</ele>
        <time>2023-09-19T08:49:04.765Z</time>
      </trkpt>
      <trkpt lat="44.2787" lon="6.19498">
        <ele>1655.674561</ele>
        <time>2023-09-19T08:49:07.737Z</time>
      </trkpt>
      <trkpt lat="44.27864" lon="6.19509">
        <ele>1655.641309</ele>
        <time>2023-09-19T08:49:10.763Z</time>
      </trkpt>
      <trkpt lat="44.27857" lon="6.19522">
        <ele>1655.386066</ele>
        <time>2023-09-19T08:49:13.728Z</time>
      </trkpt>
      <trkpt lat="44.27853" lon="6.19535">
        <ele>1655.165125</ele>
        <time>2023-09-19T08:49:15.760Z</time>
      </trkpt>
      <trkpt lat="44.27851" lon="6.19548">
        <ele>1654.964029</ele>
        <time>2023-09-19T08:49:17.732Z</time>
      </trkpt>
      <trkpt lat="44.27847" lon="6.19563">
        <ele>1654.707008</ele>
        <time>2023-09-19T08:49:20.759Z</time>
      </trkpt>
      <trkpt lat="44.27842" lon="6.19576">
        <ele>1654.492917</ele>
        <time>2023-09-19T08:49:23.732Z</time>
      </trkpt>
      <trkpt lat="44.27835" lon="6.19587">
        <ele>1654.258132</ele>
        <time>2023-09-19T08:49:28.754Z</time>
      </trkpt>
      <trkpt lat="44.2783" lon="6.19602">
        <ele>1653.996269</ele>
        <time>2023-09-19T08:49:32.729Z</time>
      </trkpt>
      <trkpt lat="44.27832" lon="6.19617">
        <ele>1653.764003</ele>
        <time>2023-09-19T08:49:36.742Z</time>
      </trkpt>
      <trkpt lat="44.27828" lon="6.19631">
        <ele>1653.535539</ele>
        <time>2023-09-19T08:49:40.737Z</time>
      </trkpt>
      <trkpt lat="44.27828" lon="6.19647">
        <ele>1653.279141</ele>
        <time>2023-09-19T08:49:43.752Z</time>
      </trkpt>
      <trkpt lat="44.27831" lon="6.19662">
        <ele>1653.042509</ele>
        <time>2023-09-19T08:49:46.733Z</time>
      </trkpt>
      <trkpt lat="44.27833" lon="6.19675">
        <ele>1652.829901</ele>
        <time>2023-09-19T08:49:49.729Z</time>
      </trkpt>
      <trkpt lat="44.27836" lon="6.19688">
        <ele>1652.615513</ele>
        <time>2023-09-19T08:49:52.756Z</time>
      </trkpt>
      <trkpt lat="44.27841" lon="6.19702">
        <ele>1652.374909</ele>
        <time>2023-09-19T08:49:54.771Z</time>
      </trkpt>
      <trkpt lat="44.27847" lon="6.19712">
        <ele>1652.171392</ele>
        <time>2023-09-19T08:49:57.773Z</time>
      </trkpt>
      <trkpt lat="44.27856" lon="6.19721">
        <ele>1651.943597</ele>
        <time>2023-09-19T08:50:01.774Z</time>
      </trkpt>
      <trkpt lat="44.27863" lon="6.19731">
        <ele>1651.723796</ele>
        <time>2023-09-19T08:50:05.743Z</time>
      </trkpt>
      <trkpt lat="44.27867" lon="6.19743">
        <ele>1651.522243</ele>
        <time>2023-09-19T08:50:09.758Z</time>
      </trkpt>
      <trkpt lat="44.27873" lon="6.19752">
        <ele>1651.322704</ele>
        <time>2023-09-19T08:50:13.731Z</time>
      </trkpt>
      <trkpt lat="44.2788" lon="6.19763">
        <ele>1651.110743</ele>
        <time>2023-09-19T08:50:17.733Z</time>
      </trkpt>
      <trkpt lat="44.27883" lon="6.19777">
        <ele>1650.885988</ele>
        <time>2023-09-19T08:50:22.779Z</time>
      </trkpt>
      <trkpt lat="44.27879" lon="6.19789">
        <ele>1650.677988</ele>
        <time>2023-09-19T08:50:27.731Z</time>
      </trkpt>
      <trkpt lat="44.27874" lon="6.19801">
        <ele>1650.464081</ele>
        <time>2023-09-19T08:50:32.723Z</time>
      </trkpt>
      <trkpt lat="44.27869" lon="6.19811">
        <ele>1650.266984</ele>
        <time>2023-09-19T08:50:35.769Z</time>
      </trkpt>
      <trkpt lat="44.27861" lon="6.19825">
        <ele>1650.00334</ele>
        <time>2023-09-19T08:50:39.773Z</time>
      </trkpt>
      <trkpt lat="44.27854" lon="6.19837">
        <ele>1649.75859</ele>
        <time>2023-09-19T08:50:43.762Z</time>
      </trkpt>
      <trkpt lat="44.27848" lon="6.1985">
        <ele>1649.521721</ele>
        <time>2023-09-19T08:50:48.745Z</time>
      </trkpt>
      <trkpt lat="44.27842" lon="6.19864">
        <ele>1649.274118</ele>
        <time>2023-09-19T08:50:53.734Z</time>
      </trkpt>
      <trkpt lat="44.27835" lon="6.19874">
        <ele>1649.05928</ele>
        <time>2023-09-19T08:50:56.754Z</time>
      </trkpt>
      <trkpt lat="44.27829" lon="6.19889">
        <ele>1648.792673</ele>
        <time>2023-09-19T08:51:00.732Z</time>
      </trkpt>
      <trkpt lat="44.27821" lon="6.19899">
        <ele>1648.555906</ele>
        <time>2023-09-19T08:51:05.738Z</time>
      </trkpt>
      <trkpt lat="44.27813" lon="6.19908">
        <ele>1648.330492</ele>
        <time>2023-09-19T08:51:10.768Z</time>
      </trkpt>
      <trkpt lat="44.27809" lon="6.1992">
        <ele>1648.120407</ele>
        <time>2023-09-19T08:51:14.762Z</time>
      </trkpt>
      <trkpt lat="44.27804" lon="6.19933">
        <ele>1647.907003</ele>
        <time>2023-09-19T08:51:19.757Z</time>
      </trkpt>
      <trkpt lat="44.27796" lon="6.19938">
        <ele>1647.71589</ele>
        <time>2023-09-19T08:51:25.760Z</time>
      </trkpt>
      <trkpt lat="44.27788" lon="6.19943">
        <ele>1647.524127</ele>
        <time>2023-09-19T08:51:30.751Z</time>
      </trkpt>
      <trkpt lat="44.27778" lon="6.19944">
        <ele>1647.313603</ele>
        <time>2023-09-19T08:51:34.742Z</time>
      </trkpt>
      <trkpt lat="44.27768" lon="6.19948">
        <ele>1647.10421</ele>
        <time>2023-09-19T08:51:38.758Z</time>
      </trkpt>
      <trkpt lat="44.27759" lon="6.19951">
        <ele>1646.898904</ele>
        <time>2023-09-19T08:51:43.746Z</time>
      </trkpt>
      <trkpt lat="44.2775" lon="6.19945">
        <ele>1646.693116</ele>
        <time>2023-09-19T08:51:49.733Z</time>
      </trkpt>
      <trkpt lat="44.27745" lon="6.19958">
        <ele>1646.474438</ele>
        <time>2023-09-19T08:51:56.758Z</time>
      </trkpt>
      <trkpt lat="44.27747" lon="6.19973">
        <ele>1646.247074</ele>
        <time>2023-09-19T08:52:01.766Z</time>
      </trkpt>
      <trkpt lat="44.27747" lon="6.19987">
        <ele>1646.039457</ele>
        <time>2023-09-19T08:52:07.750Z</time>
      </trkpt>
      <trkpt lat="44.27746" lon="6.2">
        <ele>1645.833589</ele>
        <time>2023-09-19T08:52:13.762Z</time>
      </trkpt>
      <trkpt lat="44.27746" lon="6.20014">
        <ele>1645.631856</ele>
        <time>2023-09-19T08:52:18.729Z</time>
      </trkpt>
      <trkpt lat="44.27746" lon="6.20028">
        <ele>1645.41359</ele>
        <time>2023-09-19T08:52:23.746Z</time>
      </trkpt>
      <trkpt lat="44.2775" lon="6.20042">
        <ele>1645.20045</ele>
        <time>2023-09-19T08:52:28.730Z</time>
      </trkpt>
      <trkpt lat="44.27758" lon="6.20051">
        <ele>1644.983029</ele>
        <time>2023-09-19T08:52:33.741Z</time>
      </trkpt>
      <trkpt lat="44.27765" lon="6.20059">
        <ele>1644.778687</ele>
        <time>2023-09-19T08:52:38.732Z</time>
      </trkpt>
      <trkpt lat="44.27771" lon="6.20072">
        <ele>1644.552423</ele>
        <time>2023-09-19T08:52:43.729Z</time>
      </trkpt>
      <trkpt lat="44.27772" lon="6.20086">
        <ele>1644.334067</ele>
        <time>2023-09-19T08:52:48.737Z</time>
      </trkpt>
      <trkpt lat="44.2777" lon="6.201">
        <ele>1644.209446</ele>
        <time>2023-09-19T08:52:53.776Z</time>
      </trkpt>
      <trkpt lat="44.27768" lon="6.20115">
        <ele>1644.745872</ele>
        <time>2023-09-19T08:52:58.729Z</time>
      </trkpt>
      <trkpt lat="44.27764" lon="6.20126">
        <ele>1645.205697</ele>
        <time>2023-09-19T08:53:02.766Z</time>
      </trkpt>
      <trkpt lat="44.2776" lon="6.20137">
        <ele>1645.667378</ele>
        <time>2023-09-19T08:53:08.753Z</time>
      </trkpt>
      <trkpt lat="44.27754" lon="6.2015">
        <ele>1646.195848</ele>
        <time>2023-09-19T08:53:14.756Z</time>
      </trkpt>
      <trkpt lat="44.27749" lon="6.20161">
        <ele>1646.681886</ele>
        <time>2023-09-19T08:53:19.764Z</time>
      </trkpt>
      <trkpt lat="44.27742" lon="6.20172">
        <ele>1647.230416</ele>
        <time>2023-09-19T08:53:25.766Z</time>
      </trkpt>
      <trkpt lat="44.27738" lon="6.20183">
        <ele>1647.703206</ele>
        <time>2023-09-19T08:53:30.774Z</time>
      </trkpt>
      <trkpt lat="44.27737" lon="6.20199">
        <ele>1648.262252</ele>
        <time>2023-09-19T08:53:36.767Z</time>
      </trkpt>
      <trkpt lat="44.27736" lon="6.20211">
        <ele>1648.725763</ele>
        <time>2023-09-19T08:53:41.763Z</time>
      </trkpt>
      <trkpt lat="44.27734" lon="6.20225">
        <ele>1649.239894</ele>
        <time>2023-09-19T08:53:46.748Z</time>
      </trkpt>
      <trkpt lat="44.27731" lon="6.2024">
        <ele>1649.80394</ele>
        <time>2023-09-19T08:53:51.730Z</time>
      </trkpt>
      <trkpt lat="44.27729" lon="6.20253">
        <ele>1650.307309</ele>
        <time>2023-09-19T08:53:55.738Z</time>
      </trkpt>
      <trkpt lat="44.27726" lon="6.20267">
        <ele>1650.803611</ele>
        <time>2023-09-19T08:53:59.769Z</time>
      </trkpt>
      <trkpt lat="44.27725" lon="6.2028">
        <ele>1651.280713</ele>
        <time>2023-09-19T08:54:03.757Z</time>
      </trkpt>
      <trkpt lat="44.27721" lon="6.20292">
        <ele>1651.766441</ele>
        <time>2023-09-19T08:54:07.731Z</time>
      </trkpt>
      <trkpt lat="44.27717" lon="6.20303">
        <ele>1652.2384</ele>
        <time>2023-09-19T08:54:11.763Z</time>
      </trkpt>
      <trkpt lat="44.27712" lon="6.20314">
        <ele>1652.721579</ele>
        <time>2023-09-19T08:54:15.765Z</time>
      </trkpt>
      <trkpt lat="44.27705" lon="6.20327">
        <ele>1653.27889</ele>
        <time>2023-09-19T08:54:20.779Z</time>
      </trkpt>
      <trkpt lat="44.27697" lon="6.20336">
        <ele>1654.137983</ele>
        <time>2023-09-19T08:54:25.757Z</time>
      </trkpt>
      <trkpt lat="44.2769" lon="6.20346">
        <ele>1654.926759</ele>
        <time>2023-09-19T08:54:29.738Z</time>
      </trkpt>
      <trkpt lat="44.27683" lon="6.20356">
        <ele>1655.701827</ele>
        <time>2023-09-19T08:54:33.756Z</time>
      </trkpt>
      <trkpt lat="44.27678" lon="6.20366">
        <ele>1656.453629</ele>
        <time>2023-09-19T08:54:37.728Z</time>
      </trkpt>
      <trkpt lat="44.2767" lon="6.20377">
        <ele>1657.351865</ele>
        <time>2023-09-19T08:54:42.785Z</time>
      </trkpt>
      <trkpt lat="44.27663" lon="6.20386">
        <ele>1658.113242</ele>
        <time>2023-09-19T08:54:46.787Z</time>
      </trkpt>
      <trkpt lat="44.27656" lon="6.20394">
        <ele>1658.857329</ele>
        <time>2023-09-19T08:54:50.785Z</time>
      </trkpt>
      <trkpt lat="44.27647" lon="6.20403">
        <ele>1659.74866</ele>
        <time>2023-09-19T08:54:55.743Z</time>
      </trkpt>
      <trkpt lat="44.27642" lon="6.20414">
        <ele>1660.499031</ele>
        <time>2023-09-19T08:54:59.735Z</time>
      </trkpt>
      <trkpt lat="44.27633" lon="6.20423">
        <ele>1661.373348</ele>
        <time>2023-09-19T08:55:04.742Z</time>
      </trkpt>
      <trkpt lat="44.27625" lon="6.20432">
        <ele>1662.214884</ele>
        <time>2023-09-19T08:55:09.730Z</time>
      </trkpt>
      <trkpt lat="44.27617" lon="6.20441">
        <ele>1663.068279</ele>
        <time>2023-09-19T08:55:14.766Z</time>
      </trkpt>
      <trkpt lat="44.27608" lon="6.20448">
        <ele>1663.877697</ele>
        <time>2023-09-19T08:55:19.779Z</time>
      </trkpt>
      <trkpt lat="44.27599" lon="6.20453">
        <ele>1664.696099</ele>
        <time>2023-09-19T08:55:24.754Z</time>
      </trkpt>
      <trkpt lat="44.27589" lon="6.20459">
        <ele>1665.53121</ele>
        <time>2023-09-19T08:55:29.738Z</time>
      </trkpt>
      <trkpt lat="44.2758" lon="6.20464">
        <ele>1666.367083</ele>
        <time>2023-09-19T08:55:34.784Z</time>
      </trkpt>
      <trkpt lat="44.27571" lon="6.20471">
        <ele>1667.193529</ele>
        <time>2023-09-19T08:55:39.765Z</time>
      </trkpt>
      <trkpt lat="44.27562" lon="6.20476">
        <ele>1667.947521</ele>
        <time>2023-09-19T08:55:44.734Z</time>
      </trkpt>
      <trkpt lat="44.27568" lon="6.20487">
        <ele>1668.442702</ele>
        <time>2023-09-19T08:56:15.753Z</time>
      </trkpt>
      <trkpt lat="44.27573" lon="6.20498">
        <ele>1668.888228</ele>
        <time>2023-09-19T08:56:19.761Z</time>
      </trkpt>
      <trkpt lat="44.27583" lon="6.20499">
        <ele>1669.385489</ele>
        <time>2023-09-19T08:56:24.737Z</time>
      </trkpt>
      <trkpt lat="44.27592" lon="6.20491">
        <ele>1669.894182</ele>
        <time>2023-09-19T08:56:29.740Z</time>
      </trkpt>
      <trkpt lat="44.27594" lon="6.20504">
        <ele>1670.346474</ele>
        <time>2023-09-19T08:56:37.738Z</time>
      </trkpt>
      <trkpt lat="44.2759" lon="6.20518">
        <ele>1670.87774</ele>
        <time>2023-09-19T08:56:43.730Z</time>
      </trkpt>
      <trkpt lat="44.27583" lon="6.20528">
        <ele>1671.348104</ele>
        <time>2023-09-19T08:56:48.748Z</time>
      </trkpt>
      <trkpt lat="44.27578" lon="6.20538">
        <ele>1671.796598</ele>
        <time>2023-09-19T08:56:53.733Z</time>
      </trkpt>
      <trkpt lat="44.27572" lon="6.20551">
        <ele>1672.315917</ele>
        <time>2023-09-19T08:56:58.772Z</time>
      </trkpt>
      <trkpt lat="44.27567" lon="6.20563">
        <ele>1672.792873</ele>
        <time>2023-09-19T08:57:03.735Z</time>
      </trkpt>
      <trkpt lat="44.27562" lon="6.20575">
        <ele>1673.272245</ele>
        <time>2023-09-19T08:57:08.757Z</time>
      </trkpt>
      <trkpt lat="44.27558" lon="6.20586">
        <ele>1673.738495</ele>
        <time>2023-09-19T08:57:13.736Z</time>
      </trkpt>
      <trkpt lat="44.27553" lon="6.20599">
        <ele>1674.246306</ele>
        <time>2023-09-19T08:57:18.759Z</time>
      </trkpt>
      <trkpt lat="44.27546" lon="6.20609">
        <ele>1674.712925</ele>
        <time>2023-09-19T08:57:23.734Z</time>
      </trkpt>
      <trkpt lat="44.27539" lon="6.20619">
        <ele>1675.184664</ele>
        <time>2023-09-19T08:57:28.762Z</time>
      </trkpt>
      <trkpt lat="44.27531" lon="6.20627">
        <ele>1675.676064</ele>
        <time>2023-09-19T08:57:33.782Z</time>
      </trkpt>
      <trkpt lat="44.27522" lon="6.20633">
        <ele>1676.165256</ele>
        <time>2023-09-19T08:57:38.798Z</time>
      </trkpt>
      <trkpt lat="44.27513" lon="6.20636">
        <ele>1676.615142</ele>
        <time>2023-09-19T08:57:43.735Z</time>
      </trkpt>
      <trkpt lat="44.27508" lon="6.20647">
        <ele>1677.91786</ele>
        <time>2023-09-19T08:57:47.736Z</time>
      </trkpt>
      <trkpt lat="44.27503" lon="6.20659">
        <ele>1679.36176</ele>
        <time>2023-09-19T08:57:52.750Z</time>
      </trkpt>
      <trkpt lat="44.27494" lon="6.20666">
        <ele>1680.885764</ele>
        <time>2023-09-19T08:57:57.764Z</time>
      </trkpt>
      <trkpt lat="44.27485" lon="6.20671">
        <ele>1682.289344</ele>
        <time>2023-09-19T08:58:02.790Z</time>
      </trkpt>
      <trkpt lat="44.27476" lon="6.20677">
        <ele>1683.713182</ele>
        <time>2023-09-19T08:58:07.774Z</time>
      </trkpt>
      <trkpt lat="44.27466" lon="6.2068">
        <ele>1685.144571</ele>
        <time>2023-09-19T08:58:12.742Z</time>
      </trkpt>
      <trkpt lat="44.27456" lon="6.20682">
        <ele>1686.536176</ele>
        <time>2023-09-19T08:58:17.737Z</time>
      </trkpt>
      <trkpt lat="44.27447" lon="6.20683">
        <ele>1687.960869</ele>
        <time>2023-09-19T08:58:22.758Z</time>
      </trkpt>
      <trkpt lat="44.27438" lon="6.2069">
        <ele>1689.392142</ele>
        <time>2023-09-19T08:58:28.780Z</time>
      </trkpt>
      <trkpt lat="44.27438" lon="6.20704">
        <ele>1690.820042</ele>
        <time>2023-09-19T08:58:43.758Z</time>
      </trkpt>
      <trkpt lat="44.27436" lon="6.20718">
        <ele>1692.22815</ele>
        <time>2023-09-19T08:58:48.736Z</time>
      </trkpt>
      <trkpt lat="44.27428" lon="6.20722">
        <ele>1693.579946</ele>
        <time>2023-09-19T08:58:55.728Z</time>
      </trkpt>
      <trkpt lat="44.27418" lon="6.20748">
        <ele>1696.6087</ele>
        <time>2023-09-19T08:59:26.750Z</time>
      </trkpt>
      <trkpt lat="44.2741" lon="6.20754">
        <ele>1697.956203</ele>
        <time>2023-09-19T08:59:31.738Z</time>
      </trkpt>
      <trkpt lat="44.27401" lon="6.20761">
        <ele>1699.346791</ele>
        <time>2023-09-19T08:59:36.749Z</time>
      </trkpt>
      <trkpt lat="44.27393" lon="6.2077">
        <ele>1700.851545</ele>
        <time>2023-09-19T08:59:41.737Z</time>
      </trkpt>
      <trkpt lat="44.27386" lon="6.20779">
        <ele>1702.238689</ele>
        <time>2023-09-19T08:59:46.753Z</time>
      </trkpt>
      <trkpt lat="44.27378" lon="6.20788">
        <ele>1704.21586</ele>
        <time>2023-09-19T08:59:51.737Z</time>
      </trkpt>
      <trkpt lat="44.27371" lon="6.20797">
        <ele>1706.032247</ele>
        <time>2023-09-19T08:59:56.751Z</time>
      </trkpt>
      <trkpt lat="44.27363" lon="6.20804">
        <ele>1707.940918</ele>
        <time>2023-09-19T09:00:01.733Z</time>
      </trkpt>
      <trkpt lat="44.27354" lon="6.20807">
        <ele>1709.803243</ele>
        <time>2023-09-19T09:00:09.741Z</time>
      </trkpt>
      <trkpt lat="44.27345" lon="6.20808">
        <ele>1711.606575</ele>
        <time>2023-09-19T09:00:15.723Z</time>
      </trkpt>
      <trkpt lat="44.27335" lon="6.20811">
        <ele>1713.608593</ele>
        <time>2023-09-19T09:00:21.746Z</time>
      </trkpt>
      <trkpt lat="44.27328" lon="6.20818">
        <ele>1715.421852</ele>
        <time>2023-09-19T09:00:26.738Z</time>
      </trkpt>
      <trkpt lat="44.27319" lon="6.20825">
        <ele>1717.382394</ele>
        <time>2023-09-19T09:00:31.751Z</time>
      </trkpt>
      <trkpt lat="44.27312" lon="6.20835">
        <ele>1719.435344</ele>
        <time>2023-09-19T09:00:36.736Z</time>
      </trkpt>
      <trkpt lat="44.27305" lon="6.20845">
        <ele>1721.425513</ele>
        <time>2023-09-19T09:00:41.757Z</time>
      </trkpt>
      <trkpt lat="44.27298" lon="6.20855">
        <ele>1723.549838</ele>
        <time>2023-09-19T09:00:46.741Z</time>
      </trkpt>
      <trkpt lat="44.27291" lon="6.20867">
        <ele>1725.685623</ele>
        <time>2023-09-19T09:00:51.759Z</time>
      </trkpt>
      <trkpt lat="44.27285" lon="6.20877">
        <ele>1727.637832</ele>
        <time>2023-09-19T09:00:56.739Z</time>
      </trkpt>
      <trkpt lat="44.2728" lon="6.20888">
        <ele>1729.436983</ele>
        <time>2023-09-19T09:01:01.758Z</time>
      </trkpt>
      <trkpt lat="44.27279" lon="6.20902">
        <ele>1731.42623</ele>
        <time>2023-09-19T09:01:07.741Z</time>
      </trkpt>
      <trkpt lat="44.27279" lon="6.20915">
        <ele>1733.234667</ele>
        <time>2023-09-19T09:01:12.750Z</time>
      </trkpt>
      <trkpt lat="44.27281" lon="6.20928">
        <ele>1735.227233</ele>
        <time>2023-09-19T09:01:17.754Z</time>
      </trkpt>
      <trkpt lat="44.27283" lon="6.20942">
        <ele>1737.233921</ele>
        <time>2023-09-19T09:01:22.744Z</time>
      </trkpt>
      <trkpt lat="44.27276" lon="6.20952">
        <ele>1738.469025</ele>
        <time>2023-09-19T09:01:27.742Z</time>
      </trkpt>
      <trkpt lat="44.27271" lon="6.20966">
        <ele>1737.786744</ele>
        <time>2023-09-19T09:01:33.743Z</time>
      </trkpt>
      <trkpt lat="44.27268" lon="6.20978">
        <ele>1737.193446</ele>
        <time>2023-09-19T09:01:38.739Z</time>
      </trkpt>
      <trkpt lat="44.27265" lon="6.2099">
        <ele>1736.630744</ele>
        <time>2023-09-19T09:01:43.738Z</time>
      </trkpt>
      <trkpt lat="44.27261" lon="6.21003">
        <ele>1736.003968</ele>
        <time>2023-09-19T09:01:50.738Z</time>
      </trkpt>
      <trkpt lat="44.27256" lon="6.21014">
        <ele>1735.429293</ele>
        <time>2023-09-19T09:06:19.740Z</time>
      </trkpt>
      <trkpt lat="44.27263" lon="6.21004">
        <ele>1734.803315</ele>
        <time>2023-09-19T09:06:58.729Z</time>
      </trkpt>
      <trkpt lat="44.27265" lon="6.2099">
        <ele>1734.174618</ele>
        <time>2023-09-19T09:07:04.735Z</time>
      </trkpt>
      <trkpt lat="44.27269" lon="6.20978">
        <ele>1733.593108</ele>
        <time>2023-09-19T09:07:08.732Z</time>
      </trkpt>
      <trkpt lat="44.27273" lon="6.20965">
        <ele>1732.979661</ele>
        <time>2023-09-19T09:07:13.739Z</time>
      </trkpt>
      <trkpt lat="44.27276" lon="6.20952">
        <ele>1732.354701</ele>
        <time>2023-09-19T09:07:18.732Z</time>
      </trkpt>
      <trkpt lat="44.27281" lon="6.20938">
        <ele>1731.666775</ele>
        <time>2023-09-19T09:07:23.741Z</time>
      </trkpt>
      <trkpt lat="44.2728" lon="6.20923">
        <ele>1731.014556</ele>
        <time>2023-09-19T09:07:28.741Z</time>
      </trkpt>
      <trkpt lat="44.27278" lon="6.20911">
        <ele>1730.447069</ele>
        <time>2023-09-19T09:07:39.736Z</time>
      </trkpt>
      <trkpt lat="44.27278" lon="6.20896">
        <ele>1729.779421</ele>
        <time>2023-09-19T09:07:44.749Z</time>
      </trkpt>
      <trkpt lat="44.27279" lon="6.20883">
        <ele>1729.220267</ele>
        <time>2023-09-19T09:07:47.737Z</time>
      </trkpt>
      <trkpt lat="44.2728" lon="6.2087">
        <ele>1728.631581</ele>
        <time>2023-09-19T09:07:51.741Z</time>
      </trkpt>
      <trkpt lat="44.2728" lon="6.20855">
        <ele>1727.976578</ele>
        <time>2023-09-19T09:07:55.732Z</time>
      </trkpt>
      <trkpt lat="44.27278" lon="6.20841">
        <ele>1727.189415</ele>
        <time>2023-09-19T09:07:58.748Z</time>
      </trkpt>
      <trkpt lat="44.27274" lon="6.20826">
        <ele>1725.526473</ele>
        <time>2023-09-19T09:08:02.739Z</time>
      </trkpt>
      <trkpt lat="44.27267" lon="6.20811">
        <ele>1723.805798</ele>
        <time>2023-09-19T09:08:05.741Z</time>
      </trkpt>
      <trkpt lat="44.27262" lon="6.20798">
        <ele>1722.341351</ele>
        <time>2023-09-19T09:08:08.742Z</time>
      </trkpt>
      <trkpt lat="44.27258" lon="6.20786">
        <ele>1721.054467</ele>
        <time>2023-09-19T09:08:11.732Z</time>
      </trkpt>
      <trkpt lat="44.27253" lon="6.20773">
        <ele>1719.565376</ele>
        <time>2023-09-19T09:08:15.737Z</time>
      </trkpt>
      <trkpt lat="44.27249" lon="6.20761">
        <ele>1718.298206</ele>
        <time>2023-09-19T09:08:19.746Z</time>
      </trkpt>
      <trkpt lat="44.27246" lon="6.20747">
        <ele>1716.828612</ele>
        <time>2023-09-19T09:08:23.750Z</time>
      </trkpt>
      <trkpt lat="44.27246" lon="6.20734">
        <ele>1715.504132</ele>
        <time>2023-09-19T09:08:27.753Z</time>
      </trkpt>
      <trkpt lat="44.27248" lon="6.2072">
        <ele>1714.085085</ele>
        <time>2023-09-19T09:08:31.758Z</time>
      </trkpt>
      <trkpt lat="44.27251" lon="6.20706">
        <ele>1712.675666</ele>
        <time>2023-09-19T09:08:35.761Z</time>
      </trkpt>
      <trkpt lat="44.27253" lon="6.2069">
        <ele>1711.139145</ele>
        <time>2023-09-19T09:08:39.746Z</time>
      </trkpt>
      <trkpt lat="44.2726" lon="6.20679">
        <ele>1709.574224</ele>
        <time>2023-09-19T09:08:43.741Z</time>
      </trkpt>
      <trkpt lat="44.27272" lon="6.2068">
        <ele>1707.898171</ele>
        <time>2023-09-19T09:08:47.731Z</time>
      </trkpt>
      <trkpt lat="44.27282" lon="6.20688">
        <ele>1706.430139</ele>
        <time>2023-09-19T09:08:49.737Z</time>
      </trkpt>
      <trkpt lat="44.2729" lon="6.20693">
        <ele>1705.172388</ele>
        <time>2023-09-19T09:08:51.739Z</time>
      </trkpt>
      <trkpt lat="44.273" lon="6.20696">
        <ele>1703.731705</ele>
        <time>2023-09-19T09:08:56.731Z</time>
      </trkpt>
      <trkpt lat="44.27311" lon="6.20702">
        <ele>1702.207204</ele>
        <time>2023-09-19T09:09:01.724Z</time>
      </trkpt>
      <trkpt lat="44.2732" lon="6.20696">
        <ele>1700.96465</ele>
        <time>2023-09-19T09:09:05.729Z</time>
      </trkpt>
      <trkpt lat="44.2733" lon="6.20693">
        <ele>1699.689753</ele>
        <time>2023-09-19T09:09:09.727Z</time>
      </trkpt>
      <trkpt lat="44.27341" lon="6.20694">
        <ele>1698.410768</ele>
        <time>2023-09-19T09:09:13.730Z</time>
      </trkpt>
      <trkpt lat="44.2735" lon="6.20695">
        <ele>1697.268254</ele>
        <time>2023-09-19T09:09:16.737Z</time>
      </trkpt>
      <trkpt lat="44.27361" lon="6.20695">
        <ele>1695.893943</ele>
        <time>2023-09-19T09:09:20.741Z</time>
      </trkpt>
      <trkpt lat="44.27372" lon="6.20695">
        <ele>1694.531984</ele>
        <time>2023-09-19T09:09:25.757Z</time>
      </trkpt>
      <trkpt lat="44.27383" lon="6.207">
        <ele>1693.091285</ele>
        <time>2023-09-19T09:09:29.743Z</time>
      </trkpt>
      <trkpt lat="44.27392" lon="6.20705">
        <ele>1691.845738</ele>
        <time>2023-09-19T09:09:32.745Z</time>
      </trkpt>
      <trkpt lat="44.27402" lon="6.20704">
        <ele>1690.642116</ele>
        <time>2023-09-19T09:09:35.750Z</time>
      </trkpt>
      <trkpt lat="44.27413" lon="6.20702">
        <ele>1689.268694</ele>
        <time>2023-09-19T09:09:39.749Z</time>
      </trkpt>
      <trkpt lat="44.27424" lon="6.20704">
        <ele>1687.880613</ele>
        <time>2023-09-19T09:09:44.743Z</time>
      </trkpt>
      <trkpt lat="44.27434" lon="6.20707">
        <ele>1686.70632</ele>
        <time>2023-09-19T09:09:48.745Z</time>
      </trkpt>
      <trkpt lat="44.2744" lon="6.20696">
        <ele>1685.485075</ele>
        <time>2023-09-19T09:09:55.753Z</time>
      </trkpt>
      <trkpt lat="44.27444" lon="6.20683">
        <ele>1684.261006</ele>
        <time>2023-09-19T09:10:01.742Z</time>
      </trkpt>
      <trkpt lat="44.27454" lon="6.20682">
        <ele>1682.964573</ele>
        <time>2023-09-19T09:10:05.746Z</time>
      </trkpt>
      <trkpt lat="44.27465" lon="6.2068">
        <ele>1681.641404</ele>
        <time>2023-09-19T09:10:09.750Z</time>
      </trkpt>
      <trkpt lat="44.27477" lon="6.20677">
        <ele>1680.241413</ele>
        <time>2023-09-19T09:10:13.746Z</time>
      </trkpt>
      <trkpt lat="44.27486" lon="6.20673">
        <ele>1679.475957</ele>
        <time>2023-09-19T09:10:16.754Z</time>
      </trkpt>
      <trkpt lat="44.27496" lon="6.20666">
        <ele>1678.532772</ele>
        <time>2023-09-19T09:10:20.740Z</time>
      </trkpt>
      <trkpt lat="44.27504" lon="6.20659">
        <ele>1677.77451</ele>
        <time>2023-09-19T09:10:23.744Z</time>
      </trkpt>
      <trkpt lat="44.27511" lon="6.20648">
        <ele>1676.948063</ele>
        <time>2023-09-19T09:10:27.741Z</time>
      </trkpt>
      <trkpt lat="44.27517" lon="6.20636">
        <ele>1676.091323</ele>
        <time>2023-09-19T09:10:30.743Z</time>
      </trkpt>
      <trkpt lat="44.27527" lon="6.20631">
        <ele>1675.218916</ele>
        <time>2023-09-19T09:10:34.773Z</time>
      </trkpt>
      <trkpt lat="44.27537" lon="6.20624">
        <ele>1674.352053</ele>
        <time>2023-09-19T09:10:38.735Z</time>
      </trkpt>
      <trkpt lat="44.27544" lon="6.20615">
        <ele>1673.613317</ele>
        <time>2023-09-19T09:10:41.761Z</time>
      </trkpt>
      <trkpt lat="44.27552" lon="6.20604">
        <ele>1672.676704</ele>
        <time>2023-09-19T09:10:44.735Z</time>
      </trkpt>
      <trkpt lat="44.27559" lon="6.2059">
        <ele>1671.692865</ele>
        <time>2023-09-19T09:10:47.771Z</time>
      </trkpt>
      <trkpt lat="44.27564" lon="6.20574">
        <ele>1670.663421</ele>
        <time>2023-09-19T09:10:50.781Z</time>
      </trkpt>
      <trkpt lat="44.2757" lon="6.2056">
        <ele>1669.731035</ele>
        <time>2023-09-19T09:10:53.771Z</time>
      </trkpt>
      <trkpt lat="44.27576" lon="6.20546">
        <ele>1668.78961</ele>
        <time>2023-09-19T09:10:56.758Z</time>
      </trkpt>
      <trkpt lat="44.27582" lon="6.20533">
        <ele>1667.883817</ele>
        <time>2023-09-19T09:10:59.766Z</time>
      </trkpt>
      <trkpt lat="44.27587" lon="6.20522">
        <ele>1667.144268</ele>
        <time>2023-09-19T09:11:02.773Z</time>
      </trkpt>
      <trkpt lat="44.27594" lon="6.2051">
        <ele>1666.215997</ele>
        <time>2023-09-19T09:11:06.747Z</time>
      </trkpt>
      <trkpt lat="44.27596" lon="6.20497">
        <ele>1665.433944</ele>
        <time>2023-09-19T09:11:16.773Z</time>
      </trkpt>
      <trkpt lat="44.27597" lon="6.20483">
        <ele>1664.653171</ele>
        <time>2023-09-19T09:11:19.736Z</time>
      </trkpt>
      <trkpt lat="44.27608" lon="6.20476">
        <ele>1663.722292</ele>
        <time>2023-09-19T09:11:23.735Z</time>
      </trkpt>
      <trkpt lat="44.27613" lon="6.20466">
        <ele>1662.954453</ele>
        <time>2023-09-19T09:11:27.766Z</time>
      </trkpt>
      <trkpt lat="44.27618" lon="6.20452">
        <ele>1662.025714</ele>
        <time>2023-09-19T09:11:32.756Z</time>
      </trkpt>
      <trkpt lat="44.27627" lon="6.20441">
        <ele>1661.082559</ele>
        <time>2023-09-19T09:11:36.793Z</time>
      </trkpt>
      <trkpt lat="44.27635" lon="6.20431">
        <ele>1660.18925</ele>
        <time>2023-09-19T09:11:39.741Z</time>
      </trkpt>
      <trkpt lat="44.27641" lon="6.20421">
        <ele>1659.402657</ele>
        <time>2023-09-19T09:11:42.773Z</time>
      </trkpt>
      <trkpt lat="44.27651" lon="6.20411">
        <ele>1658.451939</ele>
        <time>2023-09-19T09:11:46.747Z</time>
      </trkpt>
      <trkpt lat="44.27657" lon="6.20399">
        <ele>1657.574165</ele>
        <time>2023-09-19T09:11:50.777Z</time>
      </trkpt>
      <trkpt lat="44.27662" lon="6.20384">
        <ele>1656.596575</ele>
        <time>2023-09-19T09:11:54.738Z</time>
      </trkpt>
      <trkpt lat="44.27672" lon="6.20372">
        <ele>1655.512859</ele>
        <time>2023-09-19T09:11:57.767Z</time>
      </trkpt>
      <trkpt lat="44.27678" lon="6.20363">
        <ele>1654.77724</ele>
        <time>2023-09-19T09:11:59.736Z</time>
      </trkpt>
      <trkpt lat="44.27685" lon="6.20353">
        <ele>1653.996086</ele>
        <time>2023-09-19T09:12:01.741Z</time>
      </trkpt>
      <trkpt lat="44.27691" lon="6.20343">
        <ele>1653.234545</ele>
        <time>2023-09-19T09:12:03.738Z</time>
      </trkpt>
      <trkpt lat="44.27699" lon="6.20331">
        <ele>1652.252913</ele>
        <time>2023-09-19T09:12:06.734Z</time>
      </trkpt>
      <trkpt lat="44.27708" lon="6.20321">
        <ele>1651.333472</ele>
        <time>2023-09-19T09:12:09.769Z</time>
      </trkpt>
      <trkpt lat="44.27714" lon="6.20308">
        <ele>1650.349645</ele>
        <time>2023-09-19T09:12:12.773Z</time>
      </trkpt>
      <trkpt lat="44.2772" lon="6.20296">
        <ele>1649.402469</ele>
        <time>2023-09-19T09:12:21.768Z</time>
      </trkpt>
      <trkpt lat="44.27724" lon="6.20284">
        <ele>1648.544993</ele>
        <time>2023-09-19T09:12:24.766Z</time>
      </trkpt>
      <trkpt lat="44.27727" lon="6.20267">
        <ele>1647.379008</ele>
        <time>2023-09-19T09:12:27.735Z</time>
      </trkpt>
      <trkpt lat="44.27729" lon="6.2025">
        <ele>1646.250122</ele>
        <time>2023-09-19T09:12:30.733Z</time>
      </trkpt>
      <trkpt lat="44.27733" lon="6.20234">
        <ele>1645.183663</ele>
        <time>2023-09-19T09:12:33.736Z</time>
      </trkpt>
      <trkpt lat="44.27736" lon="6.20219">
        <ele>1644.166125</ele>
        <time>2023-09-19T09:12:36.735Z</time>
      </trkpt>
      <trkpt lat="44.27739" lon="6.20205">
        <ele>1643.210453</ele>
        <time>2023-09-19T09:12:40.759Z</time>
      </trkpt>
      <trkpt lat="44.27735" lon="6.20191">
        <ele>1642.26701</ele>
        <time>2023-09-19T09:12:50.768Z</time>
      </trkpt>
      <trkpt lat="44.27738" lon="6.20179">
        <ele>1641.410003</ele>
        <time>2023-09-19T09:12:55.773Z</time>
      </trkpt>
      <trkpt lat="44.27744" lon="6.20168">
        <ele>1640.563297</ele>
        <time>2023-09-19T09:13:00.768Z</time>
      </trkpt>
      <trkpt lat="44.27752" lon="6.20158">
        <ele>1639.570079</ele>
        <time>2023-09-19T09:13:05.758Z</time>
      </trkpt>
      <trkpt lat="44.2776" lon="6.20149">
        <ele>1638.656595</ele>
        <time>2023-09-19T09:13:09.731Z</time>
      </trkpt>
      <trkpt lat="44.27767" lon="6.20143">
        <ele>1637.824416</ele>
        <time>2023-09-19T09:13:12.737Z</time>
      </trkpt>
      <trkpt lat="44.27776" lon="6.20136">
        <ele>1636.932649</ele>
        <time>2023-09-19T09:13:15.755Z</time>
      </trkpt>
      <trkpt lat="44.27786" lon="6.20132">
        <ele>1636.00779</ele>
        <time>2023-09-19T09:13:18.755Z</time>
      </trkpt>
      <trkpt lat="44.27797" lon="6.20127">
        <ele>1634.90928</ele>
        <time>2023-09-19T09:13:21.738Z</time>
      </trkpt>
      <trkpt lat="44.27808" lon="6.20121">
        <ele>1633.103191</ele>
        <time>2023-09-19T09:13:24.761Z</time>
      </trkpt>
      <trkpt lat="44.27818" lon="6.20118">
        <ele>1631.49872</ele>
        <time>2023-09-19T09:13:26.755Z</time>
      </trkpt>
      <trkpt lat="44.2783" lon="6.20115">
        <ele>1629.608011</ele>
        <time>2023-09-19T09:13:29.735Z</time>
      </trkpt>
      <trkpt lat="44.27839" lon="6.20109">
        <ele>1627.979706</ele>
        <time>2023-09-19T09:13:33.759Z</time>
      </trkpt>
      <trkpt lat="44.27847" lon="6.20099">
        <ele>1626.260545</ele>
        <time>2023-09-19T09:13:37.774Z</time>
      </trkpt>
      <trkpt lat="44.27856" lon="6.20093">
        <ele>1624.650916</ele>
        <time>2023-09-19T09:13:40.762Z</time>
      </trkpt>
      <trkpt lat="44.27867" lon="6.20089">
        <ele>1622.767115</ele>
        <time>2023-09-19T09:13:44.749Z</time>
      </trkpt>
      <trkpt lat="44.27877" lon="6.20087">
        <ele>1621.258495</ele>
        <time>2023-09-19T09:13:48.734Z</time>
      </trkpt>
      <trkpt lat="44.27886" lon="6.20087">
        <ele>1619.810473</ele>
        <time>2023-09-19T09:13:52.737Z</time>
      </trkpt>
      <trkpt lat="44.27895" lon="6.20082">
        <ele>1618.147415</ele>
        <time>2023-09-19T09:13:56.766Z</time>
      </trkpt>
      <trkpt lat="44.27905" lon="6.20071">
        <ele>1616.22669</ele>
        <time>2023-09-19T09:14:00.771Z</time>
      </trkpt>
      <trkpt lat="44.27911" lon="6.20061">
        <ele>1614.650456</ele>
        <time>2023-09-19T09:14:03.765Z</time>
      </trkpt>
      <trkpt lat="44.27915" lon="6.20048">
        <ele>1613.077584</ele>
        <time>2023-09-19T09:14:06.729Z</time>
      </trkpt>
      <trkpt lat="44.27921" lon="6.20035">
        <ele>1611.218335</ele>
        <time>2023-09-19T09:14:10.737Z</time>
      </trkpt>
      <trkpt lat="44.27926" lon="6.20022">
        <ele>1609.517369</ele>
        <time>2023-09-19T09:14:13.761Z</time>
      </trkpt>
      <trkpt lat="44.27934" lon="6.20011">
        <ele>1607.764662</ele>
        <time>2023-09-19T09:14:17.756Z</time>
      </trkpt>
      <trkpt lat="44.27942" lon="6.20002">
        <ele>1606.081606</ele>
        <time>2023-09-19T09:14:20.757Z</time>
      </trkpt>
      <trkpt lat="44.27948" lon="6.19988">
        <ele>1604.648754</ele>
        <time>2023-09-19T09:14:24.749Z</time>
      </trkpt>
      <trkpt lat="44.27946" lon="6.19975">
        <ele>1603.57831</ele>
        <time>2023-09-19T09:14:28.760Z</time>
      </trkpt>
      <trkpt lat="44.27937" lon="6.19968">
        <ele>1602.459696</ele>
        <time>2023-09-19T09:14:31.758Z</time>
      </trkpt>
      <trkpt lat="44.27929" lon="6.19963">
        <ele>1601.375412</ele>
        <time>2023-09-19T09:14:35.759Z</time>
      </trkpt>
      <trkpt lat="44.27929" lon="6.19949">
        <ele>1600.191827</ele>
        <time>2023-09-19T09:14:40.759Z</time>
      </trkpt>
      <trkpt lat="44.27937" lon="6.19945">
        <ele>1599.109033</ele>
        <time>2023-09-19T09:14:44.737Z</time>
      </trkpt>
      <trkpt lat="44.27948" lon="6.19938">
        <ele>1597.740712</ele>
        <time>2023-09-19T09:14:48.763Z</time>
      </trkpt>
      <trkpt lat="44.27956" lon="6.19932">
        <ele>1596.669576</ele>
        <time>2023-09-19T09:14:51.735Z</time>
      </trkpt>
      <trkpt lat="44.27966" lon="6.19928">
        <ele>1595.481164</ele>
        <time>2023-09-19T09:14:55.734Z</time>
      </trkpt>
      <trkpt lat="44.27976" lon="6.19924">
        <ele>1594.31508</ele>
        <time>2023-09-19T09:14:58.763Z</time>
      </trkpt>
      <trkpt lat="44.27987" lon="6.19922">
        <ele>1592.977711</ele>
        <time>2023-09-19T09:15:01.769Z</time>
      </trkpt>
      <trkpt lat="44.27999" lon="6.1992">
        <ele>1591.561325</ele>
        <time>2023-09-19T09:15:04.734Z</time>
      </trkpt>
      <trkpt lat="44.28008" lon="6.19918">
        <ele>1590.459085</ele>
        <time>2023-09-19T09:15:07.758Z</time>
      </trkpt>
      <trkpt lat="44.28019" lon="6.19918">
        <ele>1589.190315</ele>
        <time>2023-09-19T09:15:15.762Z</time>
      </trkpt>
      <trkpt lat="44.28029" lon="6.19916">
        <ele>1588.024757</ele>
        <time>2023-09-19T09:15:18.759Z</time>
      </trkpt>
      <trkpt lat="44.2804" lon="6.19913">
        <ele>1586.711574</ele>
        <time>2023-09-19T09:15:21.758Z</time>
      </trkpt>
      <trkpt lat="44.28053" lon="6.19911">
        <ele>1585.238128</ele>
        <time>2023-09-19T09:15:24.760Z</time>
      </trkpt>
      <trkpt lat="44.28062" lon="6.19908">
        <ele>1583.575744</ele>
        <time>2023-09-19T09:15:26.733Z</time>
      </trkpt>
      <trkpt lat="44.28072" lon="6.19907">
        <ele>1581.521154</ele>
        <time>2023-09-19T09:15:28.761Z</time>
      </trkpt>
      <trkpt lat="44.28083" lon="6.19902">
        <ele>1579.283618</ele>
        <time>2023-09-19T09:15:31.768Z</time>
      </trkpt>
      <trkpt lat="44.28092" lon="6.19894">
        <ele>1577.02733</ele>
        <time>2023-09-19T09:15:35.737Z</time>
      </trkpt>
      <trkpt lat="44.28095" lon="6.19881">
        <ele>1575.08141</ele>
        <time>2023-09-19T09:15:38.753Z</time>
      </trkpt>
      <trkpt lat="44.28093" lon="6.19865">
        <ele>1572.772199</ele>
        <time>2023-09-19T09:15:43.730Z</time>
      </trkpt>
      <trkpt lat="44.28086" lon="6.19853">
        <ele>1570.486827</ele>
        <time>2023-09-19T09:15:48.737Z</time>
      </trkpt>
      <trkpt lat="44.28079" lon="6.19841">
        <ele>1568.123884</ele>
        <time>2023-09-19T09:15:52.730Z</time>
      </trkpt>
      <trkpt lat="44.28079" lon="6.19827">
        <ele>1566.045489</ele>
        <time>2023-09-19T09:15:56.761Z</time>
      </trkpt>
      <trkpt lat="44.28084" lon="6.19814">
        <ele>1563.918452</ele>
        <time>2023-09-19T09:16:00.772Z</time>
      </trkpt>
      <trkpt lat="44.28091" lon="6.19805">
        <ele>1561.979343</ele>
        <time>2023-09-19T09:16:03.768Z</time>
      </trkpt>
      <trkpt lat="44.28102" lon="6.19799">
        <ele>1559.542598</ele>
        <time>2023-09-19T09:16:08.768Z</time>
      </trkpt>
      <trkpt lat="44.28109" lon="6.19791">
        <ele>1557.644801</ele>
        <time>2023-09-19T09:16:12.776Z</time>
      </trkpt>
      <trkpt lat="44.28117" lon="6.19783">
        <ele>1555.685218</ele>
        <time>2023-09-19T09:16:16.756Z</time>
      </trkpt>
      <trkpt lat="44.28125" lon="6.19775">
        <ele>1553.684258</ele>
        <time>2023-09-19T09:16:20.768Z</time>
      </trkpt>
      <trkpt lat="44.28134" lon="6.19767">
        <ele>1551.443194</ele>
        <time>2023-09-19T09:16:24.763Z</time>
      </trkpt>
      <trkpt lat="44.28142" lon="6.19759">
        <ele>1549.358013</ele>
        <time>2023-09-19T09:16:28.766Z</time>
      </trkpt>
      <trkpt lat="44.2815" lon="6.19751">
        <ele>1547.5859</ele>
        <time>2023-09-19T09:16:31.733Z</time>
      </trkpt>
      <trkpt lat="44.2816" lon="6.19748">
        <ele>1546.076645</ele>
        <time>2023-09-19T09:16:35.736Z</time>
      </trkpt>
      <trkpt lat="44.28169" lon="6.19742">
        <ele>1544.603309</ele>
        <time>2023-09-19T09:16:38.759Z</time>
      </trkpt>
      <trkpt lat="44.28177" lon="6.19733">
        <ele>1543.064791</ele>
        <time>2023-09-19T09:16:41.731Z</time>
      </trkpt>
      <trkpt lat="44.28184" lon="6.19722">
        <ele>1541.397191</ele>
        <time>2023-09-19T09:16:45.760Z</time>
      </trkpt>
      <trkpt lat="44.2819" lon="6.19709">
        <ele>1539.747969</ele>
        <time>2023-09-19T09:16:49.764Z</time>
      </trkpt>
      <trkpt lat="44.28198" lon="6.197">
        <ele>1538.155928</ele>
        <time>2023-09-19T09:16:54.754Z</time>
      </trkpt>
      <trkpt lat="44.28207" lon="6.1969">
        <ele>1536.496207</ele>
        <time>2023-09-19T09:16:58.764Z</time>
      </trkpt>
      <trkpt lat="44.28215" lon="6.19682">
        <ele>1534.952207</ele>
        <time>2023-09-19T09:17:02.758Z</time>
      </trkpt>
      <trkpt lat="44.28223" lon="6.19674">
        <ele>1533.482897</ele>
        <time>2023-09-19T09:17:05.726Z</time>
      </trkpt>
      <trkpt lat="44.28232" lon="6.19662">
        <ele>1531.551089</ele>
        <time>2023-09-19T09:17:08.732Z</time>
      </trkpt>
      <trkpt lat="44.28239" lon="6.19649">
        <ele>1529.818684</ele>
        <time>2023-09-19T09:17:11.754Z</time>
      </trkpt>
      <trkpt lat="44.28249" lon="6.19641">
        <ele>1528.046906</ele>
        <time>2023-09-19T09:17:15.759Z</time>
      </trkpt>
      <trkpt lat="44.28259" lon="6.1964">
        <ele>1526.465405</ele>
        <time>2023-09-19T09:17:18.762Z</time>
      </trkpt>
      <trkpt lat="44.28271" lon="6.1964">
        <ele>1524.732787</ele>
        <time>2023-09-19T09:17:21.762Z</time>
      </trkpt>
      <trkpt lat="44.28281" lon="6.19634">
        <ele>1523.051866</ele>
        <time>2023-09-19T09:17:24.728Z</time>
      </trkpt>
      <trkpt lat="44.2829" lon="6.19627">
        <ele>1521.442634</ele>
        <time>2023-09-19T09:17:27.761Z</time>
      </trkpt>
      <trkpt lat="44.283" lon="6.1962">
        <ele>1520.404809</ele>
        <time>2023-09-19T09:17:30.747Z</time>
      </trkpt>
      <trkpt lat="44.28309" lon="6.19617">
        <ele>1519.798704</ele>
        <time>2023-09-19T09:17:33.769Z</time>
      </trkpt>
      <trkpt lat="44.28318" lon="6.1961">
        <ele>1519.190898</ele>
        <time>2023-09-19T09:17:36.758Z</time>
      </trkpt>
      <trkpt lat="44.28325" lon="6.19602">
        <ele>1518.568773</ele>
        <time>2023-09-19T09:17:39.775Z</time>
      </trkpt>
      <trkpt lat="44.28334" lon="6.19592">
        <ele>1517.857875</ele>
        <time>2023-09-19T09:17:43.747Z</time>
      </trkpt>
      <trkpt lat="44.28342" lon="6.19583">
        <ele>1517.243995</ele>
        <time>2023-09-19T09:17:47.775Z</time>
      </trkpt>
      <trkpt lat="44.28351" lon="6.19574">
        <ele>1516.534424</ele>
        <time>2023-09-19T09:17:51.763Z</time>
      </trkpt>
      <trkpt lat="44.28353" lon="6.19558">
        <ele>1515.796456</ele>
        <time>2023-09-19T09:17:54.763Z</time>
      </trkpt>
      <trkpt lat="44.2835" lon="6.19546">
        <ele>1515.196147</ele>
        <time>2023-09-19T09:17:56.766Z</time>
      </trkpt>
      <trkpt lat="44.28349" lon="6.19533">
        <ele>1514.603415</ele>
        <time>2023-09-19T09:17:58.730Z</time>
      </trkpt>
      <trkpt lat="44.28349" lon="6.19519">
        <ele>1514.010489</ele>
        <time>2023-09-19T09:18:00.741Z</time>
      </trkpt>
      <trkpt lat="44.28356" lon="6.19506">
        <ele>1513.267739</ele>
        <time>2023-09-19T09:18:03.768Z</time>
      </trkpt>
      <trkpt lat="44.28364" lon="6.19501">
        <ele>1512.670281</ele>
        <time>2023-09-19T09:18:05.736Z</time>
      </trkpt>
      <trkpt lat="44.28375" lon="6.19497">
        <ele>1511.994554</ele>
        <time>2023-09-19T09:18:07.723Z</time>
      </trkpt>
      <trkpt lat="44.28384" lon="6.19493">
        <ele>1511.354403</ele>
        <time>2023-09-19T09:18:09.765Z</time>
      </trkpt>
      <trkpt lat="44.28393" lon="6.19488">
        <ele>1510.747268</ele>
        <time>2023-09-19T09:18:11.738Z</time>
      </trkpt>
      <trkpt lat="44.28402" lon="6.19482">
        <ele>1510.157378</ele>
        <time>2023-09-19T09:18:13.735Z</time>
      </trkpt>
      <trkpt lat="44.2841" lon="6.19478">
        <ele>1509.572825</ele>
        <time>2023-09-19T09:18:15.738Z</time>
      </trkpt>
      <trkpt lat="44.28423" lon="6.19474">
        <ele>1509.392927</ele>
        <time>2023-09-19T09:18:18.769Z</time>
      </trkpt>
      <trkpt lat="44.28437" lon="6.19471">
        <ele>1509.314371</ele>
        <time>2023-09-19T09:18:21.773Z</time>
      </trkpt>
      <trkpt lat="44.28447" lon="6.19471">
        <ele>1509.25865</ele>
        <time>2023-09-19T09:18:23.761Z</time>
      </trkpt>
      <trkpt lat="44.28456" lon="6.1947">
        <ele>1509.204062</ele>
        <time>2023-09-19T09:18:25.751Z</time>
      </trkpt>
      <trkpt lat="44.28466" lon="6.19467">
        <ele>1509.146927</ele>
        <time>2023-09-19T09:18:27.742Z</time>
      </trkpt>
      <trkpt lat="44.28476" lon="6.19467">
        <ele>1509.089501</ele>
        <time>2023-09-19T09:18:29.764Z</time>
      </trkpt>
      <trkpt lat="44.28486" lon="6.19465">
        <ele>1509.028762</ele>
        <time>2023-09-19T09:18:31.741Z</time>
      </trkpt>
      <trkpt lat="44.28497" lon="6.19463">
        <ele>1508.969159</ele>
        <time>2023-09-19T09:18:33.747Z</time>
      </trkpt>
      <trkpt lat="44.28507" lon="6.19459">
        <ele>1508.90976</ele>
        <time>2023-09-19T09:18:35.751Z</time>
      </trkpt>
      <trkpt lat="44.28516" lon="6.19451">
        <ele>1508.848507</ele>
        <time>2023-09-19T09:18:37.762Z</time>
      </trkpt>
      <trkpt lat="44.28524" lon="6.19441">
        <ele>1508.784057</ele>
        <time>2023-09-19T09:18:39.735Z</time>
      </trkpt>
      <trkpt lat="44.28531" lon="6.19427">
        <ele>1508.714835</ele>
        <time>2023-09-19T09:18:41.766Z</time>
      </trkpt>
      <trkpt lat="44.28533" lon="6.19411">
        <ele>1508.6505</ele>
        <time>2023-09-19T09:18:43.764Z</time>
      </trkpt>
      <trkpt lat="44.28533" lon="6.19395">
        <ele>1508.584318</ele>
        <time>2023-09-19T09:18:45.773Z</time>
      </trkpt>
      <trkpt lat="44.28539" lon="6.19383">
        <ele>1508.522818</ele>
        <time>2023-09-19T09:18:47.770Z</time>
      </trkpt>
      <trkpt lat="44.28548" lon="6.19378">
        <ele>1508.469029</ele>
        <time>2023-09-19T09:18:49.737Z</time>
      </trkpt>
      <trkpt lat="44.28557" lon="6.19373">
        <ele>1508.411372</ele>
        <time>2023-09-19T09:18:51.771Z</time>
      </trkpt>
      <trkpt lat="44.28565" lon="6.19364">
        <ele>1508.351451</ele>
        <time>2023-09-19T09:18:53.734Z</time>
      </trkpt>
      <trkpt lat="44.28571" lon="6.19354">
        <ele>1508.2987</ele>
        <time>2023-09-19T09:18:55.745Z</time>
      </trkpt>
      <trkpt lat="44.28575" lon="6.19341">
        <ele>1508.243599</ele>
        <time>2023-09-19T09:18:59.760Z</time>
      </trkpt>
      <trkpt lat="44.28577" lon="6.19329">
        <ele>1508.191693</ele>
        <time>2023-09-19T09:19:03.790Z</time>
      </trkpt>
      <trkpt lat="44.28578" lon="6.19315">
        <ele>1508.135619</ele>
        <time>2023-09-19T09:19:06.726Z</time>
      </trkpt>
      <trkpt lat="44.28581" lon="6.193">
        <ele>1508.070319</ele>
        <time>2023-09-19T09:19:09.741Z</time>
      </trkpt>
      <trkpt lat="44.28591" lon="6.19297">
        <ele>1508.012427</ele>
        <time>2023-09-19T09:19:11.768Z</time>
      </trkpt>
      <trkpt lat="44.28605" lon="6.19295">
        <ele>1507.937837</ele>
        <time>2023-09-19T09:19:14.765Z</time>
      </trkpt>
      <trkpt lat="44.28614" lon="6.19294">
        <ele>1507.881683</ele>
        <time>2023-09-19T09:19:16.747Z</time>
      </trkpt>
      <trkpt lat="44.28625" lon="6.19292">
        <ele>1507.821645</ele>
        <time>2023-09-19T09:19:18.782Z</time>
      </trkpt>
      <trkpt lat="44.28636" lon="6.1929">
        <ele>1507.761102</ele>
        <time>2023-09-19T09:19:20.759Z</time>
      </trkpt>
      <trkpt lat="44.28647" lon="6.19286">
        <ele>1507.694731</ele>
        <time>2023-09-19T09:19:22.757Z</time>
      </trkpt>
      <trkpt lat="44.28658" lon="6.19283">
        <ele>1507.630813</ele>
        <time>2023-09-19T09:19:24.776Z</time>
      </trkpt>
      <trkpt lat="44.28669" lon="6.1928">
        <ele>1507.56512</ele>
        <time>2023-09-19T09:19:26.777Z</time>
      </trkpt>
      <trkpt lat="44.2868" lon="6.19274">
        <ele>1507.4991</ele>
        <time>2023-09-19T09:19:28.737Z</time>
      </trkpt>
      <trkpt lat="44.28691" lon="6.19266">
        <ele>1507.432666</ele>
        <time>2023-09-19T09:19:30.730Z</time>
      </trkpt>
      <trkpt lat="44.287" lon="6.19257">
        <ele>1507.206184</ele>
        <time>2023-09-19T09:19:32.765Z</time>
      </trkpt>
      <trkpt lat="44.2871" lon="6.19246">
        <ele>1506.870711</ele>
        <time>2023-09-19T09:19:34.769Z</time>
      </trkpt>
      <trkpt lat="44.28718" lon="6.19234">
        <ele>1506.533588</ele>
        <time>2023-09-19T09:19:36.767Z</time>
      </trkpt>
      <trkpt lat="44.28726" lon="6.19222">
        <ele>1506.203027</ele>
        <time>2023-09-19T09:19:38.762Z</time>
      </trkpt>
      <trkpt lat="44.28734" lon="6.1921">
        <ele>1505.878886</ele>
        <time>2023-09-19T09:19:40.771Z</time>
      </trkpt>
      <trkpt lat="44.28741" lon="6.19197">
        <ele>1505.55207</ele>
        <time>2023-09-19T09:19:42.734Z</time>
      </trkpt>
      <trkpt lat="44.28747" lon="6.19182">
        <ele>1505.204086</ele>
        <time>2023-09-19T09:19:44.759Z</time>
      </trkpt>
      <trkpt lat="44.28753" lon="6.19167">
        <ele>1504.86928</ele>
        <time>2023-09-19T09:19:46.748Z</time>
      </trkpt>
      <trkpt lat="44.28758" lon="6.19153">
        <ele>1504.548182</ele>
        <time>2023-09-19T09:19:48.730Z</time>
      </trkpt>
      <trkpt lat="44.28765" lon="6.19142">
        <ele>1504.253467</ele>
        <time>2023-09-19T09:19:50.742Z</time>
      </trkpt>
      <trkpt lat="44.28772" lon="6.19133">
        <ele>1503.989981</ele>
        <time>2023-09-19T09:19:52.740Z</time>
      </trkpt>
      <trkpt lat="44.28776" lon="6.19119">
        <ele>1503.692667</ele>
        <time>2023-09-19T09:19:54.766Z</time>
      </trkpt>
      <trkpt lat="44.28776" lon="6.19106">
        <ele>1503.433048</ele>
        <time>2023-09-19T09:19:56.730Z</time>
      </trkpt>
      <trkpt lat="44.28773" lon="6.19093">
        <ele>1503.160408</ele>
        <time>2023-09-19T09:19:58.741Z</time>
      </trkpt>
      <trkpt lat="44.28768" lon="6.19081">
        <ele>1502.888849</ele>
        <time>2023-09-19T09:20:00.765Z</time>
      </trkpt>
      <trkpt lat="44.28769" lon="6.19066">
        <ele>1502.593286</ele>
        <time>2023-09-19T09:20:02.738Z</time>
      </trkpt>
      <trkpt lat="44.28772" lon="6.19052">
        <ele>1502.396553</ele>
        <time>2023-09-19T09:20:04.769Z</time>
      </trkpt>
      <trkpt lat="44.28776" lon="6.19038">
        <ele>1502.415863</ele>
        <time>2023-09-19T09:20:06.768Z</time>
      </trkpt>
      <trkpt lat="44.28777" lon="6.19024">
        <ele>1502.435334</ele>
        <time>2023-09-19T09:20:08.773Z</time>
      </trkpt>
      <trkpt lat="44.28774" lon="6.19008">
        <ele>1502.456067</ele>
        <time>2023-09-19T09:20:10.729Z</time>
      </trkpt>
      <trkpt lat="44.28767" lon="6.18997">
        <ele>1502.475121</ele>
        <time>2023-09-19T09:20:12.770Z</time>
      </trkpt>
      <trkpt lat="44.28757" lon="6.18991">
        <ele>1502.496101</ele>
        <time>2023-09-19T09:20:14.786Z</time>
      </trkpt>
      <trkpt lat="44.28746" lon="6.18994">
        <ele>1502.515572</ele>
        <time>2023-09-19T09:20:16.760Z</time>
      </trkpt>
      <trkpt lat="44.28737" lon="6.19">
        <ele>1502.534983</ele>
        <time>2023-09-19T09:20:18.740Z</time>
      </trkpt>
      <trkpt lat="44.28726" lon="6.19007">
        <ele>1502.556041</ele>
        <time>2023-09-19T09:20:20.774Z</time>
      </trkpt>
      <trkpt lat="44.28714" lon="6.19006">
        <ele>1502.578192</ele>
        <time>2023-09-19T09:20:22.765Z</time>
      </trkpt>
      <trkpt lat="44.28703" lon="6.19002">
        <ele>1502.598608</ele>
        <time>2023-09-19T09:20:24.761Z</time>
      </trkpt>
      <trkpt lat="44.28693" lon="6.18993">
        <ele>1502.620353</ele>
        <time>2023-09-19T09:20:26.730Z</time>
      </trkpt>
      <trkpt lat="44.28686" lon="6.18981">
        <ele>1502.641317</ele>
        <time>2023-09-19T09:20:28.771Z</time>
      </trkpt>
      <trkpt lat="44.28688" lon="6.18965">
        <ele>1502.661609</ele>
        <time>2023-09-19T09:20:30.767Z</time>
      </trkpt>
      <trkpt lat="44.28693" lon="6.18952">
        <ele>1502.680951</ele>
        <time>2023-09-19T09:20:32.756Z</time>
      </trkpt>
      <trkpt lat="44.28698" lon="6.1894">
        <ele>1502.69946</ele>
        <time>2023-09-19T09:20:34.750Z</time>
      </trkpt>
      <trkpt lat="44.28702" lon="6.18928">
        <ele>1502.716038</ele>
        <time>2023-09-19T09:20:36.769Z</time>
      </trkpt>
      <trkpt lat="44.28705" lon="6.18917">
        <ele>1502.813632</ele>
        <time>2023-09-19T09:20:38.740Z</time>
      </trkpt>
      <trkpt lat="44.28708" lon="6.18904">
        <ele>1502.936745</ele>
        <time>2023-09-19T09:20:40.742Z</time>
      </trkpt>
      <trkpt lat="44.28713" lon="6.18885">
        <ele>1503.116345</ele>
        <time>2023-09-19T09:20:43.739Z</time>
      </trkpt>
      <trkpt lat="44.28717" lon="6.18873">
        <ele>1503.241015</ele>
        <time>2023-09-19T09:20:45.763Z</time>
      </trkpt>
      <trkpt lat="44.2872" lon="6.1886">
        <ele>1503.361657</ele>
        <time>2023-09-19T09:20:47.738Z</time>
      </trkpt>
      <trkpt lat="44.28725" lon="6.18848">
        <ele>1503.484919</ele>
        <time>2023-09-19T09:20:49.739Z</time>
      </trkpt>
      <trkpt lat="44.28728" lon="6.18836">
        <ele>1503.60408</ele>
        <time>2023-09-19T09:20:51.739Z</time>
      </trkpt>
      <trkpt lat="44.28732" lon="6.18821">
        <ele>1503.749652</ele>
        <time>2023-09-19T09:20:54.733Z</time>
      </trkpt>
      <trkpt lat="44.28737" lon="6.1881">
        <ele>1503.868509</ele>
        <time>2023-09-19T09:20:57.736Z</time>
      </trkpt>
      <trkpt lat="44.28742" lon="6.188">
        <ele>1503.983291</ele>
        <time>2023-09-19T09:21:01.731Z</time>
      </trkpt>
      <trkpt lat="44.28744" lon="6.18785">
        <ele>1504.122218</ele>
        <time>2023-09-19T09:21:07.733Z</time>
      </trkpt>
      <trkpt lat="44.28742" lon="6.18772">
        <ele>1504.247422</ele>
        <time>2023-09-19T09:21:10.744Z</time>
      </trkpt>
      <trkpt lat="44.28737" lon="6.18754">
        <ele>1504.416825</ele>
        <time>2023-09-19T09:21:13.746Z</time>
      </trkpt>
      <trkpt lat="44.28732" lon="6.18744">
        <ele>1504.532409</ele>
        <time>2023-09-19T09:21:15.734Z</time>
      </trkpt>
      <trkpt lat="44.28726" lon="6.18733">
        <ele>1504.658275</ele>
        <time>2023-09-19T09:21:17.745Z</time>
      </trkpt>
      <trkpt lat="44.28719" lon="6.18722">
        <ele>1504.794851</ele>
        <time>2023-09-19T09:21:19.752Z</time>
      </trkpt>
      <trkpt lat="44.28711" lon="6.18711">
        <ele>1504.932618</ele>
        <time>2023-09-19T09:21:21.731Z</time>
      </trkpt>
      <trkpt lat="44.28703" lon="6.187">
        <ele>1505.002524</ele>
        <time>2023-09-19T09:21:23.735Z</time>
      </trkpt>
      <trkpt lat="44.28694" lon="6.1869">
        <ele>1504.993807</ele>
        <time>2023-09-19T09:21:25.749Z</time>
      </trkpt>
      <trkpt lat="44.28686" lon="6.1868">
        <ele>1504.985103</ele>
        <time>2023-09-19T09:21:27.748Z</time>
      </trkpt>
      <trkpt lat="44.28677" lon="6.18669">
        <ele>1504.975784</ele>
        <time>2023-09-19T09:21:29.736Z</time>
      </trkpt>
      <trkpt lat="44.28669" lon="6.18658">
        <ele>1504.966789</ele>
        <time>2023-09-19T09:21:31.739Z</time>
      </trkpt>
      <trkpt lat="44.28663" lon="6.18645">
        <ele>1504.957636</ele>
        <time>2023-09-19T09:21:33.745Z</time>
      </trkpt>
      <trkpt lat="44.28664" lon="6.18631">
        <ele>1504.949441</ele>
        <time>2023-09-19T09:21:35.743Z</time>
      </trkpt>
      <trkpt lat="44.28671" lon="6.18622">
        <ele>1504.941612</ele>
        <time>2023-09-19T09:21:37.732Z</time>
      </trkpt>
      <trkpt lat="44.28681" lon="6.18621">
        <ele>1504.934141</ele>
        <time>2023-09-19T09:21:39.735Z</time>
      </trkpt>
      <trkpt lat="44.2869" lon="6.18622">
        <ele>1504.926504</ele>
        <time>2023-09-19T09:21:41.745Z</time>
      </trkpt>
      <trkpt lat="44.28701" lon="6.18626">
        <ele>1504.91789</ele>
        <time>2023-09-19T09:21:43.746Z</time>
      </trkpt>
      <trkpt lat="44.28712" lon="6.18628">
        <ele>1504.908671</ele>
        <time>2023-09-19T09:21:45.734Z</time>
      </trkpt>
      <trkpt lat="44.28723" lon="6.18627">
        <ele>1504.900063</ele>
        <time>2023-09-19T09:21:47.739Z</time>
      </trkpt>
      <trkpt lat="44.28733" lon="6.18619">
        <ele>1504.891282</ele>
        <time>2023-09-19T09:21:49.742Z</time>
      </trkpt>
      <trkpt lat="44.28743" lon="6.18612">
        <ele>1504.882618</ele>
        <time>2023-09-19T09:21:51.734Z</time>
      </trkpt>
      <trkpt lat="44.28754" lon="6.18604">
        <ele>1504.872592</ele>
        <time>2023-09-19T09:21:53.735Z</time>
      </trkpt>
      <trkpt lat="44.28764" lon="6.18597">
        <ele>1504.874069</ele>
        <time>2023-09-19T09:21:55.744Z</time>
      </trkpt>
      <trkpt lat="44.28775" lon="6.18591">
        <ele>1505.061272</ele>
        <time>2023-09-19T09:21:57.733Z</time>
      </trkpt>
      <trkpt lat="44.28785" lon="6.18585">
        <ele>1505.238961</ele>
        <time>2023-09-19T09:21:59.739Z</time>
      </trkpt>
      <trkpt lat="44.28795" lon="6.18579">
        <ele>1505.412792</ele>
        <time>2023-09-19T09:22:01.735Z</time>
      </trkpt>
      <trkpt lat="44.28804" lon="6.18569">
        <ele>1505.592463</ele>
        <time>2023-09-19T09:22:03.744Z</time>
      </trkpt>
      <trkpt lat="44.2881" lon="6.18558">
        <ele>1505.758275</ele>
        <time>2023-09-19T09:22:05.739Z</time>
      </trkpt>
      <trkpt lat="44.28818" lon="6.18548">
        <ele>1505.924733</ele>
        <time>2023-09-19T09:22:07.735Z</time>
      </trkpt>
      <trkpt lat="44.28827" lon="6.1854">
        <ele>1506.091163</ele>
        <time>2023-09-19T09:22:09.727Z</time>
      </trkpt>
      <trkpt lat="44.28836" lon="6.18532">
        <ele>1506.261759</ele>
        <time>2023-09-19T09:22:11.735Z</time>
      </trkpt>
      <trkpt lat="44.28845" lon="6.18525">
        <ele>1506.433749</ele>
        <time>2023-09-19T09:22:13.727Z</time>
      </trkpt>
      <trkpt lat="44.28855" lon="6.18517">
        <ele>1506.607077</ele>
        <time>2023-09-19T09:22:15.742Z</time>
      </trkpt>
      <trkpt lat="44.28863" lon="6.18508">
        <ele>1506.777552</ele>
        <time>2023-09-19T09:22:17.747Z</time>
      </trkpt>
      <trkpt lat="44.28864" lon="6.18492">
        <ele>1506.955426</ele>
        <time>2023-09-19T09:22:19.731Z</time>
      </trkpt>
      <trkpt lat="44.28864" lon="6.18477">
        <ele>1507.135005</ele>
        <time>2023-09-19T09:22:21.749Z</time>
      </trkpt>
      <trkpt lat="44.28866" lon="6.18463">
        <ele>1507.289286</ele>
        <time>2023-09-19T09:22:23.743Z</time>
      </trkpt>
      <trkpt lat="44.28875" lon="6.18459">
        <ele>1507.446638</ele>
        <time>2023-09-19T09:22:25.738Z</time>
      </trkpt>
      <trkpt lat="44.28883" lon="6.18466">
        <ele>1507.591404</ele>
        <time>2023-09-19T09:22:27.740Z</time>
      </trkpt>
      <trkpt lat="44.28889" lon="6.18477">
        <ele>1507.721744</ele>
        <time>2023-09-19T09:22:29.738Z</time>
      </trkpt>
      <trkpt lat="44.28898" lon="6.18486">
        <ele>1507.482039</ele>
        <time>2023-09-19T09:22:31.743Z</time>
      </trkpt>
      <trkpt lat="44.28906" lon="6.18493">
        <ele>1507.259197</ele>
        <time>2023-09-19T09:22:33.745Z</time>
      </trkpt>
      <trkpt lat="44.28915" lon="6.18499">
        <ele>1507.036069</ele>
        <time>2023-09-19T09:22:35.734Z</time>
      </trkpt>
      <trkpt lat="44.28925" lon="6.18503">
        <ele>1506.804463</ele>
        <time>2023-09-19T09:22:37.732Z</time>
      </trkpt>
      <trkpt lat="44.28936" lon="6.18504">
        <ele>1506.567094</ele>
        <time>2023-09-19T09:22:39.740Z</time>
      </trkpt>
      <trkpt lat="44.28948" lon="6.18505">
        <ele>1506.306017</ele>
        <time>2023-09-19T09:22:41.744Z</time>
      </trkpt>
      <trkpt lat="44.28959" lon="6.18505">
        <ele>1506.047072</ele>
        <time>2023-09-19T09:22:43.751Z</time>
      </trkpt>
      <trkpt lat="44.28971" lon="6.18503">
        <ele>1505.779884</ele>
        <time>2023-09-19T09:22:45.737Z</time>
      </trkpt>
      <trkpt lat="44.28983" lon="6.18501">
        <ele>1505.518952</ele>
        <time>2023-09-19T09:22:47.743Z</time>
      </trkpt>
      <trkpt lat="44.28995" lon="6.18498">
        <ele>1505.246428</ele>
        <time>2023-09-19T09:22:49.744Z</time>
      </trkpt>
      <trkpt lat="44.29007" lon="6.18496">
        <ele>1504.963166</ele>
        <time>2023-09-19T09:22:51.743Z</time>
      </trkpt>
      <trkpt lat="44.2902" lon="6.18492">
        <ele>1504.6742</ele>
        <time>2023-09-19T09:22:53.746Z</time>
      </trkpt>
      <trkpt lat="44.29033" lon="6.18485">
        <ele>1504.368287</ele>
        <time>2023-09-19T09:22:55.733Z</time>
      </trkpt>
      <trkpt lat="44.29044" lon="6.18473">
        <ele>1504.057932</ele>
        <time>2023-09-19T09:22:57.732Z</time>
      </trkpt>
      <trkpt lat="44.29055" lon="6.18459">
        <ele>1503.730902</ele>
        <time>2023-09-19T09:22:59.738Z</time>
      </trkpt>
      <trkpt lat="44.29066" lon="6.18446">
        <ele>1502.631123</ele>
        <time>2023-09-19T09:23:01.732Z</time>
      </trkpt>
      <trkpt lat="44.29078" lon="6.18436">
        <ele>1501.514873</ele>
        <time>2023-09-19T09:23:03.724Z</time>
      </trkpt>
      <trkpt lat="44.29091" lon="6.18427">
        <ele>1500.430041</ele>
        <time>2023-09-19T09:23:05.741Z</time>
      </trkpt>
      <trkpt lat="44.29103" lon="6.18419">
        <ele>1499.477</ele>
        <time>2023-09-19T09:23:07.731Z</time>
      </trkpt>
      <trkpt lat="44.29115" lon="6.18418">
        <ele>1498.501938</ele>
        <time>2023-09-19T09:23:09.737Z</time>
      </trkpt>
      <trkpt lat="44.29127" lon="6.18427">
        <ele>1497.529535</ele>
        <time>2023-09-19T09:23:11.745Z</time>
      </trkpt>
      <trkpt lat="44.2914" lon="6.18431">
        <ele>1496.511391</ele>
        <time>2023-09-19T09:23:13.735Z</time>
      </trkpt>
      <trkpt lat="44.29153" lon="6.18427">
        <ele>1495.506639</ele>
        <time>2023-09-19T09:23:15.727Z</time>
      </trkpt>
      <trkpt lat="44.29162" lon="6.18415">
        <ele>1494.586594</ele>
        <time>2023-09-19T09:23:17.731Z</time>
      </trkpt>
      <trkpt lat="44.29166" lon="6.18399">
        <ele>1493.640994</ele>
        <time>2023-09-19T09:23:19.736Z</time>
      </trkpt>
      <trkpt lat="44.29163" lon="6.18383">
        <ele>1492.758792</ele>
        <time>2023-09-19T09:23:21.743Z</time>
      </trkpt>
      <trkpt lat="44.29157" lon="6.18369">
        <ele>1491.910992</ele>
        <time>2023-09-19T09:23:23.745Z</time>
      </trkpt>
      <trkpt lat="44.29157" lon="6.18352">
        <ele>1490.963918</ele>
        <time>2023-09-19T09:23:25.732Z</time>
      </trkpt>
      <trkpt lat="44.29161" lon="6.18335">
        <ele>1490.006139</ele>
        <time>2023-09-19T09:23:27.742Z</time>
      </trkpt>
      <trkpt lat="44.29165" lon="6.18316">
        <ele>1488.903327</ele>
        <time>2023-09-19T09:23:29.754Z</time>
      </trkpt>
      <trkpt lat="44.29166" lon="6.18296">
        <ele>1487.817112</ele>
        <time>2023-09-19T09:23:31.743Z</time>
      </trkpt>
      <trkpt lat="44.29165" lon="6.18279">
        <ele>1486.862726</ele>
        <time>2023-09-19T09:23:33.733Z</time>
      </trkpt>
      <trkpt lat="44.2917" lon="6.18266">
        <ele>1486.021879</ele>
        <time>2023-09-19T09:23:35.737Z</time>
      </trkpt>
      <trkpt lat="44.29181" lon="6.18259">
        <ele>1485.118155</ele>
        <time>2023-09-19T09:23:37.736Z</time>
      </trkpt>
      <trkpt lat="44.29195" lon="6.18262">
        <ele>1484.058302</ele>
        <time>2023-09-19T09:23:39.747Z</time>
      </trkpt>
      <trkpt lat="44.29207" lon="6.18265">
        <ele>1483.054567</ele>
        <time>2023-09-19T09:23:41.736Z</time>
      </trkpt>
      <trkpt lat="44.29219" lon="6.18269">
        <ele>1482.121361</ele>
        <time>2023-09-19T09:23:44.745Z</time>
      </trkpt>
      <trkpt lat="44.29231" lon="6.1827">
        <ele>1481.23494</ele>
        <time>2023-09-19T09:23:47.742Z</time>
      </trkpt>
      <trkpt lat="44.29244" lon="6.18271">
        <ele>1480.168333</ele>
        <time>2023-09-19T09:23:50.748Z</time>
      </trkpt>
      <trkpt lat="44.29255" lon="6.18266">
        <ele>1479.303347</ele>
        <time>2023-09-19T09:23:52.745Z</time>
      </trkpt>
      <trkpt lat="44.29265" lon="6.18258">
        <ele>1478.383654</ele>
        <time>2023-09-19T09:23:54.742Z</time>
      </trkpt>
      <trkpt lat="44.29275" lon="6.18245">
        <ele>1477.390386</ele>
        <time>2023-09-19T09:23:56.737Z</time>
      </trkpt>
      <trkpt lat="44.29282" lon="6.18231">
        <ele>1476.396522</ele>
        <time>2023-09-19T09:23:58.733Z</time>
      </trkpt>
      <trkpt lat="44.2929" lon="6.18217">
        <ele>1476.40687</ele>
        <time>2023-09-19T09:24:00.735Z</time>
      </trkpt>
      <trkpt lat="44.29298" lon="6.18201">
        <ele>1476.610403</ele>
        <time>2023-09-19T09:24:02.734Z</time>
      </trkpt>
      <trkpt lat="44.29304" lon="6.18189">
        <ele>1476.770204</ele>
        <time>2023-09-19T09:24:04.740Z</time>
      </trkpt>
      <trkpt lat="44.29308" lon="6.18177">
        <ele>1476.922243</ele>
        <time>2023-09-19T09:24:07.732Z</time>
      </trkpt>
      <trkpt lat="44.2932" lon="6.18152">
        <ele>1477.255283</ele>
        <time>2023-09-19T09:24:46.741Z</time>
      </trkpt>
      <trkpt lat="44.29323" lon="6.18137">
        <ele>1477.426369</ele>
        <time>2023-09-19T09:24:49.738Z</time>
      </trkpt>
      <trkpt lat="44.29323" lon="6.18124">
        <ele>1477.569913</ele>
        <time>2023-09-19T09:24:51.742Z</time>
      </trkpt>
      <trkpt lat="44.29322" lon="6.18111">
        <ele>1477.714484</ele>
        <time>2023-09-19T09:24:53.732Z</time>
      </trkpt>
      <trkpt lat="44.29321" lon="6.18097">
        <ele>1477.868856</ele>
        <time>2023-09-19T09:24:55.742Z</time>
      </trkpt>
      <trkpt lat="44.2932" lon="6.18082">
        <ele>1478.027435</ele>
        <time>2023-09-19T09:24:57.740Z</time>
      </trkpt>
      <trkpt lat="44.29318" lon="6.18069">
        <ele>1478.175595</ele>
        <time>2023-09-19T09:24:59.747Z</time>
      </trkpt>
      <trkpt lat="44.29315" lon="6.18057">
        <ele>1478.323008</ele>
        <time>2023-09-19T09:25:01.739Z</time>
      </trkpt>
      <trkpt lat="44.2931" lon="6.18044">
        <ele>1478.475771</ele>
        <time>2023-09-19T09:25:03.738Z</time>
      </trkpt>
      <trkpt lat="44.29304" lon="6.18034">
        <ele>1478.622656</ele>
        <time>2023-09-19T09:25:05.737Z</time>
      </trkpt>
      <trkpt lat="44.29296" lon="6.18025">
        <ele>1478.784502</ele>
        <time>2023-09-19T09:25:07.731Z</time>
      </trkpt>
      <trkpt lat="44.29288" lon="6.18017">
        <ele>1478.929255</ele>
        <time>2023-09-19T09:25:09.728Z</time>
      </trkpt>
      <trkpt lat="44.29281" lon="6.18007">
        <ele>1479.030003</ele>
        <time>2023-09-19T09:25:11.734Z</time>
      </trkpt>
      <trkpt lat="44.29272" lon="6.17999">
        <ele>1479.07507</ele>
        <time>2023-09-19T09:25:13.726Z</time>
      </trkpt>
      <trkpt lat="44.29264" lon="6.17992">
        <ele>1479.11749</ele>
        <time>2023-09-19T09:25:15.732Z</time>
      </trkpt>
      <trkpt lat="44.29254" lon="6.17985">
        <ele>1479.168132</ele>
        <time>2023-09-19T09:25:18.734Z</time>
      </trkpt>
      <trkpt lat="44.29255" lon="6.1797">
        <ele>1479.215314</ele>
        <time>2023-09-19T09:25:22.747Z</time>
      </trkpt>
      <trkpt lat="44.29264" lon="6.17968">
        <ele>1479.25628</ele>
        <time>2023-09-19T09:25:25.738Z</time>
      </trkpt>
      <trkpt lat="44.29276" lon="6.17973">
        <ele>1479.312164</ele>
        <time>2023-09-19T09:25:28.745Z</time>
      </trkpt>
      <trkpt lat="44.2929" lon="6.17975">
        <ele>1479.37203</ele>
        <time>2023-09-19T09:25:31.741Z</time>
      </trkpt>
      <trkpt lat="44.29299" lon="6.17976">
        <ele>1479.41455</ele>
        <time>2023-09-19T09:25:33.734Z</time>
      </trkpt>
      <trkpt lat="44.2931" lon="6.17977">
        <ele>1479.462718</ele>
        <time>2023-09-19T09:25:35.750Z</time>
      </trkpt>
      <trkpt lat="44.29321" lon="6.17979">
        <ele>1479.51019</ele>
        <time>2023-09-19T09:25:37.740Z</time>
      </trkpt>
      <trkpt lat="44.29331" lon="6.17979">
        <ele>1479.554406</ele>
        <time>2023-09-19T09:25:39.746Z</time>
      </trkpt>
      <trkpt lat="44.2934" lon="6.17981">
        <ele>1479.597645</ele>
        <time>2023-09-19T09:25:41.733Z</time>
      </trkpt>
      <trkpt lat="44.29351" lon="6.17984">
        <ele>1479.643659</ele>
        <time>2023-09-19T09:25:43.738Z</time>
      </trkpt>
      <trkpt lat="44.29362" lon="6.17988">
        <ele>1479.693391</ele>
        <time>2023-09-19T09:25:45.741Z</time>
      </trkpt>
      <trkpt lat="44.29372" lon="6.17995">
        <ele>1479.74341</ele>
        <time>2023-09-19T09:25:47.743Z</time>
      </trkpt>
      <trkpt lat="44.29381" lon="6.18002">
        <ele>1479.788818</ele>
        <time>2023-09-19T09:25:49.737Z</time>
      </trkpt>
      <trkpt lat="44.29394" lon="6.18011">
        <ele>1479.646077</ele>
        <time>2023-09-19T09:25:52.747Z</time>
      </trkpt>
      <trkpt lat="44.29404" lon="6.18017">
        <ele>1479.496087</ele>
        <time>2023-09-19T09:25:54.759Z</time>
      </trkpt>
      <trkpt lat="44.29414" lon="6.18021">
        <ele>1479.353289</ele>
        <time>2023-09-19T09:25:56.757Z</time>
      </trkpt>
      <trkpt lat="44.29424" lon="6.18023">
        <ele>1479.219731</ele>
        <time>2023-09-19T09:25:58.736Z</time>
      </trkpt>
      <trkpt lat="44.29434" lon="6.1802">
        <ele>1479.068252</ele>
        <time>2023-09-19T09:26:00.740Z</time>
      </trkpt>
      <trkpt lat="44.29443" lon="6.1801">
        <ele>1478.919604</ele>
        <time>2023-09-19T09:26:02.742Z</time>
      </trkpt>
      <trkpt lat="44.29451" lon="6.18">
        <ele>1478.771764</ele>
        <time>2023-09-19T09:26:04.739Z</time>
      </trkpt>
      <trkpt lat="44.29458" lon="6.17989">
        <ele>1478.632817</ele>
        <time>2023-09-19T09:26:06.737Z</time>
      </trkpt>
      <trkpt lat="44.29464" lon="6.17971">
        <ele>1478.447595</ele>
        <time>2023-09-19T09:26:09.735Z</time>
      </trkpt>
      <trkpt lat="44.2947" lon="6.17958">
        <ele>1478.297043</ele>
        <time>2023-09-19T09:26:11.732Z</time>
      </trkpt>
      <trkpt lat="44.29479" lon="6.17952">
        <ele>1478.160538</ele>
        <time>2023-09-19T09:26:13.732Z</time>
      </trkpt>
      <trkpt lat="44.29489" lon="6.17947">
        <ele>1478.013382</ele>
        <time>2023-09-19T09:26:15.732Z</time>
      </trkpt>
      <trkpt lat="44.29499" lon="6.17943">
        <ele>1477.873868</ele>
        <time>2023-09-19T09:26:17.733Z</time>
      </trkpt>
      <trkpt lat="44.29509" lon="6.17938">
        <ele>1477.724477</ele>
        <time>2023-09-19T09:26:19.741Z</time>
      </trkpt>
      <trkpt lat="44.2952" lon="6.17934">
        <ele>1477.576282</ele>
        <time>2023-09-19T09:26:21.734Z</time>
      </trkpt>
      <trkpt lat="44.29531" lon="6.17931">
        <ele>1477.427167</ele>
        <time>2023-09-19T09:26:23.733Z</time>
      </trkpt>
      <trkpt lat="44.29541" lon="6.17928">
        <ele>1477.634323</ele>
        <time>2023-09-19T09:26:25.748Z</time>
      </trkpt>
      <trkpt lat="44.29551" lon="6.17925">
        <ele>1478.061787</ele>
        <time>2023-09-19T09:26:27.735Z</time>
      </trkpt>
      <trkpt lat="44.29564" lon="6.17922">
        <ele>1478.634856</ele>
        <time>2023-09-19T09:26:30.738Z</time>
      </trkpt>
      <trkpt lat="44.29573" lon="6.17921">
        <ele>1479.017391</ele>
        <time>2023-09-19T09:26:32.726Z</time>
      </trkpt>
      <trkpt lat="44.29585" lon="6.17919">
        <ele>1479.544255</ele>
        <time>2023-09-19T09:26:35.743Z</time>
      </trkpt>
      <trkpt lat="44.29596" lon="6.17907">
        <ele>1480.129301</ele>
        <time>2023-09-19T09:26:38.730Z</time>
      </trkpt>
      <trkpt lat="44.29606" lon="6.17893">
        <ele>1480.734823</ele>
        <time>2023-09-19T09:26:41.751Z</time>
      </trkpt>
      <trkpt lat="44.29612" lon="6.17882">
        <ele>1481.155637</ele>
        <time>2023-09-19T09:26:43.748Z</time>
      </trkpt>
      <trkpt lat="44.29617" lon="6.17872">
        <ele>1481.540676</ele>
        <time>2023-09-19T09:26:45.747Z</time>
      </trkpt>
      <trkpt lat="44.2962" lon="6.17857">
        <ele>1482.022046</ele>
        <time>2023-09-19T09:26:48.734Z</time>
      </trkpt>
      <trkpt lat="44.29616" lon="6.17841">
        <ele>1482.52595</ele>
        <time>2023-09-19T09:26:51.725Z</time>
      </trkpt>
      <trkpt lat="44.29611" lon="6.17825">
        <ele>1483.041437</ele>
        <time>2023-09-19T09:26:54.732Z</time>
      </trkpt>
      <trkpt lat="44.29605" lon="6.17813">
        <ele>1483.496209</ele>
        <time>2023-09-19T09:26:57.741Z</time>
      </trkpt>
      <trkpt lat="44.29599" lon="6.17798">
        <ele>1484.019513</ele>
        <time>2023-09-19T09:27:00.736Z</time>
      </trkpt>
      <trkpt lat="44.29593" lon="6.17783">
        <ele>1484.561848</ele>
        <time>2023-09-19T09:27:03.739Z</time>
      </trkpt>
      <trkpt lat="44.29592" lon="6.17769">
        <ele>1484.969408</ele>
        <time>2023-09-19T09:27:05.732Z</time>
      </trkpt>
      <trkpt lat="44.29589" lon="6.17752">
        <ele>1484.908293</ele>
        <time>2023-09-19T09:27:08.736Z</time>
      </trkpt>
      <trkpt lat="44.2959" lon="6.17738">
        <ele>1484.78586</ele>
        <time>2023-09-19T09:27:10.732Z</time>
      </trkpt>
      <trkpt lat="44.29591" lon="6.17724">
        <ele>1484.662412</ele>
        <time>2023-09-19T09:27:12.735Z</time>
      </trkpt>
      <trkpt lat="44.29589" lon="6.17711">
        <ele>1484.545204</ele>
        <time>2023-09-19T09:27:14.730Z</time>
      </trkpt>
      <trkpt lat="44.2958" lon="6.17701">
        <ele>1484.403696</ele>
        <time>2023-09-19T09:27:17.727Z</time>
      </trkpt>
      <trkpt lat="44.29568" lon="6.17694">
        <ele>1484.251465</ele>
        <time>2023-09-19T09:27:20.729Z</time>
      </trkpt>
      <trkpt lat="44.29561" lon="6.17682">
        <ele>1484.110122</ele>
        <time>2023-09-19T09:27:23.741Z</time>
      </trkpt>
      <trkpt lat="44.29551" lon="6.17671">
        <ele>1483.9547</ele>
        <time>2023-09-19T09:27:26.727Z</time>
      </trkpt>
      <trkpt lat="44.29543" lon="6.17665">
        <ele>1483.841962</ele>
        <time>2023-09-19T09:27:28.730Z</time>
      </trkpt>
      <trkpt lat="44.29534" lon="6.17658">
        <ele>1483.717022</ele>
        <time>2023-09-19T09:27:30.732Z</time>
      </trkpt>
      <trkpt lat="44.29526" lon="6.17647">
        <ele>1483.580838</ele>
        <time>2023-09-19T09:27:32.737Z</time>
      </trkpt>
      <trkpt lat="44.2952" lon="6.17637">
        <ele>1483.468733</ele>
        <time>2023-09-19T09:27:34.732Z</time>
      </trkpt>
      <trkpt lat="44.29515" lon="6.17625">
        <ele>1483.346027</ele>
        <time>2023-09-19T09:27:36.739Z</time>
      </trkpt>
      <trkpt lat="44.2951" lon="6.17614">
        <ele>1483.233405</ele>
        <time>2023-09-19T09:27:38.738Z</time>
      </trkpt>
      <trkpt lat="44.29505" lon="6.17602">
        <ele>1483.112107</ele>
        <time>2023-09-19T09:27:40.728Z</time>
      </trkpt>
      <trkpt lat="44.29503" lon="6.17588">
        <ele>1482.98891</ele>
        <time>2023-09-19T09:27:42.729Z</time>
      </trkpt>
      <trkpt lat="44.29503" lon="6.17574">
        <ele>1482.862626</ele>
        <time>2023-09-19T09:27:44.729Z</time>
      </trkpt>
      <trkpt lat="44.29501" lon="6.17557">
        <ele>1482.588333</ele>
        <time>2023-09-19T09:27:46.739Z</time>
      </trkpt>
      <trkpt lat="44.29499" lon="6.17539">
        <ele>1482.262583</ele>
        <time>2023-09-19T09:27:48.735Z</time>
      </trkpt>
      <trkpt lat="44.29501" lon="6.17521">
        <ele>1481.959264</ele>
        <time>2023-09-19T09:27:50.737Z</time>
      </trkpt>
      <trkpt lat="44.29506" lon="6.17508">
        <ele>1481.696401</ele>
        <time>2023-09-19T09:27:52.729Z</time>
      </trkpt>
      <trkpt lat="44.29513" lon="6.17497">
        <ele>1481.44414</ele>
        <time>2023-09-19T09:27:54.746Z</time>
      </trkpt>
      <trkpt lat="44.29519" lon="6.17484">
        <ele>1481.16523</ele>
        <time>2023-09-19T09:27:56.731Z</time>
      </trkpt>
      <trkpt lat="44.29524" lon="6.17468">
        <ele>1480.868597</ele>
        <time>2023-09-19T09:27:58.734Z</time>
      </trkpt>
      <trkpt lat="44.29529" lon="6.17452">
        <ele>1480.567866</ele>
        <time>2023-09-19T09:28:00.737Z</time>
      </trkpt>
      <trkpt lat="44.29531" lon="6.17434">
        <ele>1480.256774</ele>
        <time>2023-09-19T09:28:02.733Z</time>
      </trkpt>
      <trkpt lat="44.29532" lon="6.17419">
        <ele>1479.987665</ele>
        <time>2023-09-19T09:28:04.728Z</time>
      </trkpt>
      <trkpt lat="44.29533" lon="6.17398">
        <ele>1479.627326</ele>
        <time>2023-09-19T09:28:07.730Z</time>
      </trkpt>
      <trkpt lat="44.29534" lon="6.17382">
        <ele>1479.344372</ele>
        <time>2023-09-19T09:28:09.732Z</time>
      </trkpt>
      <trkpt lat="44.29534" lon="6.17367">
        <ele>1479.086614</ele>
        <time>2023-09-19T09:28:11.729Z</time>
      </trkpt>
      <trkpt lat="44.29533" lon="6.17352">
        <ele>1478.819467</ele>
        <time>2023-09-19T09:28:13.736Z</time>
      </trkpt>
      <trkpt lat="44.29534" lon="6.17339">
        <ele>1478.597556</ele>
        <time>2023-09-19T09:28:15.734Z</time>
      </trkpt>
      <trkpt lat="44.29535" lon="6.1732">
        <ele>1478.495507</ele>
        <time>2023-09-19T09:28:18.746Z</time>
      </trkpt>
      <trkpt lat="44.29535" lon="6.17302">
        <ele>1478.528633</ele>
        <time>2023-09-19T09:28:21.722Z</time>
      </trkpt>
      <trkpt lat="44.29535" lon="6.17289">
        <ele>1478.551399</ele>
        <time>2023-09-19T09:28:23.731Z</time>
      </trkpt>
      <trkpt lat="44.29533" lon="6.17276">
        <ele>1478.575213</ele>
        <time>2023-09-19T09:28:25.735Z</time>
      </trkpt>
      <trkpt lat="44.2953" lon="6.17262">
        <ele>1478.600801</ele>
        <time>2023-09-19T09:28:27.739Z</time>
      </trkpt>
      <trkpt lat="44.29529" lon="6.17247">
        <ele>1478.627863</ele>
        <time>2023-09-19T09:28:30.740Z</time>
      </trkpt>
      <trkpt lat="44.29536" lon="6.17235">
        <ele>1478.656089</ele>
        <time>2023-09-19T09:28:33.737Z</time>
      </trkpt>
      <trkpt lat="44.29545" lon="6.17229">
        <ele>1478.679067</ele>
        <time>2023-09-19T09:28:35.733Z</time>
      </trkpt>
      <trkpt lat="44.29555" lon="6.17227">
        <ele>1478.7061</ele>
        <time>2023-09-19T09:28:37.730Z</time>
      </trkpt>
      <trkpt lat="44.29566" lon="6.17226">
        <ele>1478.734105</ele>
        <time>2023-09-19T09:28:39.739Z</time>
      </trkpt>
      <trkpt lat="44.29576" lon="6.17223">
        <ele>1478.758803</ele>
        <time>2023-09-19T09:28:41.739Z</time>
      </trkpt>
      <trkpt lat="44.29589" lon="6.17224">
        <ele>1478.791336</ele>
        <time>2023-09-19T09:28:44.737Z</time>
      </trkpt>
      <trkpt lat="44.29597" lon="6.17233">
        <ele>1478.816939</ele>
        <time>2023-09-19T09:28:46.732Z</time>
      </trkpt>
      <trkpt lat="44.29606" lon="6.17242">
        <ele>1478.843201</ele>
        <time>2023-09-19T09:28:48.734Z</time>
      </trkpt>
      <trkpt lat="44.29617" lon="6.17246">
        <ele>1478.873939</ele>
        <time>2023-09-19T09:28:51.736Z</time>
      </trkpt>
      <trkpt lat="44.29628" lon="6.17245">
        <ele>1478.89955</ele>
        <time>2023-09-19T09:28:53.730Z</time>
      </trkpt>
      <trkpt lat="44.29637" lon="6.17239">
        <ele>1478.900374</ele>
        <time>2023-09-19T09:28:55.732Z</time>
      </trkpt>
      <trkpt lat="44.29651" lon="6.1723">
        <ele>1478.033724</ele>
        <time>2023-09-19T09:28:58.736Z</time>
      </trkpt>
      <trkpt lat="44.2966" lon="6.17226">
        <ele>1477.469894</ele>
        <time>2023-09-19T09:29:00.732Z</time>
      </trkpt>
      <trkpt lat="44.2967" lon="6.17216">
        <ele>1476.757909</ele>
        <time>2023-09-19T09:29:03.733Z</time>
      </trkpt>
      <trkpt lat="44.29677" lon="6.17206">
        <ele>1476.217537</ele>
        <time>2023-09-19T09:29:05.734Z</time>
      </trkpt>
      <trkpt lat="44.29682" lon="6.17196">
        <ele>1475.69875</ele>
        <time>2023-09-19T09:29:07.740Z</time>
      </trkpt>
      <trkpt lat="44.29687" lon="6.17179">
        <ele>1474.940265</ele>
        <time>2023-09-19T09:29:10.734Z</time>
      </trkpt>
      <trkpt lat="44.29688" lon="6.17166">
        <ele>1474.414829</ele>
        <time>2023-09-19T09:29:12.747Z</time>
      </trkpt>
      <trkpt lat="44.2969" lon="6.17152">
        <ele>1473.812737</ele>
        <time>2023-09-19T09:29:14.738Z</time>
      </trkpt>
      <trkpt lat="44.29695" lon="6.17138">
        <ele>1473.186539</ele>
        <time>2023-09-19T09:29:16.736Z</time>
      </trkpt>
      <trkpt lat="44.29701" lon="6.17125">
        <ele>1472.55364</ele>
        <time>2023-09-19T09:29:18.728Z</time>
      </trkpt>
      <trkpt lat="44.29708" lon="6.17114">
        <ele>1471.957852</ele>
        <time>2023-09-19T09:29:20.750Z</time>
      </trkpt>
      <trkpt lat="44.29717" lon="6.17106">
        <ele>1471.356309</ele>
        <time>2023-09-19T09:29:22.730Z</time>
      </trkpt>
      <trkpt lat="44.29727" lon="6.17099">
        <ele>1470.700133</ele>
        <time>2023-09-19T09:29:24.735Z</time>
      </trkpt>
      <trkpt lat="44.29737" lon="6.17091">
        <ele>1470.028844</ele>
        <time>2023-09-19T09:29:26.735Z</time>
      </trkpt>
      <trkpt lat="44.29747" lon="6.17081">
        <ele>1469.34014</ele>
        <time>2023-09-19T09:29:28.741Z</time>
      </trkpt>
      <trkpt lat="44.29755" lon="6.17071">
        <ele>1468.7129</ele>
        <time>2023-09-19T09:29:30.735Z</time>
      </trkpt>
      <trkpt lat="44.29762" lon="6.17058">
        <ele>1467.781759</ele>
        <time>2023-09-19T09:29:32.737Z</time>
      </trkpt>
      <trkpt lat="44.29767" lon="6.17043">
        <ele>1466.782418</ele>
        <time>2023-09-19T09:29:34.743Z</time>
      </trkpt>
      <trkpt lat="44.2977" lon="6.17026">
        <ele>1465.783878</ele>
        <time>2023-09-19T09:29:36.736Z</time>
      </trkpt>
      <trkpt lat="44.2977" lon="6.17009">
        <ele>1464.797146</ele>
        <time>2023-09-19T09:29:38.743Z</time>
      </trkpt>
      <trkpt lat="44.29771" lon="6.16992">
        <ele>1463.797199</ele>
        <time>2023-09-19T09:29:40.745Z</time>
      </trkpt>
      <trkpt lat="44.29778" lon="6.16975">
        <ele>1462.68231</ele>
        <time>2023-09-19T09:29:42.741Z</time>
      </trkpt>
      <trkpt lat="44.29787" lon="6.1696">
        <ele>1461.529089</ele>
        <time>2023-09-19T09:29:44.736Z</time>
      </trkpt>
      <trkpt lat="44.29797" lon="6.16944">
        <ele>1460.282589</ele>
        <time>2023-09-19T09:29:46.739Z</time>
      </trkpt>
      <trkpt lat="44.2981" lon="6.16928">
        <ele>1458.879926</ele>
        <time>2023-09-19T09:29:48.738Z</time>
      </trkpt>
      <trkpt lat="44.29825" lon="6.16915">
        <ele>1457.432349</ele>
        <time>2023-09-19T09:29:50.740Z</time>
      </trkpt>
      <trkpt lat="44.29838" lon="6.16901">
        <ele>1456.122888</ele>
        <time>2023-09-19T09:29:52.741Z</time>
      </trkpt>
      <trkpt lat="44.29846" lon="6.16885">
        <ele>1454.968511</ele>
        <time>2023-09-19T09:29:54.735Z</time>
      </trkpt>
      <trkpt lat="44.29851" lon="6.16867">
        <ele>1453.900868</ele>
        <time>2023-09-19T09:29:56.738Z</time>
      </trkpt>
      <trkpt lat="44.29853" lon="6.16849">
        <ele>1453.14848</ele>
        <time>2023-09-19T09:29:58.739Z</time>
      </trkpt>
      <trkpt lat="44.29854" lon="6.16833">
        <ele>1452.466668</ele>
        <time>2023-09-19T09:30:00.742Z</time>
      </trkpt>
      <trkpt lat="44.29853" lon="6.16817">
        <ele>1451.827247</ele>
        <time>2023-09-19T09:30:02.731Z</time>
      </trkpt>
      <trkpt lat="44.29854" lon="6.16801">
        <ele>1451.160666</ele>
        <time>2023-09-19T09:30:04.744Z</time>
      </trkpt>
      <trkpt lat="44.29858" lon="6.16783">
        <ele>1450.370688</ele>
        <time>2023-09-19T09:30:06.733Z</time>
      </trkpt>
      <trkpt lat="44.29862" lon="6.16762">
        <ele>1449.497451</ele>
        <time>2023-09-19T09:30:08.740Z</time>
      </trkpt>
      <trkpt lat="44.29868" lon="6.16743">
        <ele>1448.669987</ele>
        <time>2023-09-19T09:30:10.738Z</time>
      </trkpt>
      <trkpt lat="44.29874" lon="6.16725">
        <ele>1447.84987</ele>
        <time>2023-09-19T09:30:12.738Z</time>
      </trkpt>
      <trkpt lat="44.2988" lon="6.16708">
        <ele>1447.062714</ele>
        <time>2023-09-19T09:30:14.749Z</time>
      </trkpt>
      <trkpt lat="44.29889" lon="6.16692">
        <ele>1446.226274</ele>
        <time>2023-09-19T09:30:16.741Z</time>
      </trkpt>
      <trkpt lat="44.29897" lon="6.16676">
        <ele>1445.424162</ele>
        <time>2023-09-19T09:30:18.739Z</time>
      </trkpt>
      <trkpt lat="44.29904" lon="6.16659">
        <ele>1444.637029</ele>
        <time>2023-09-19T09:30:20.742Z</time>
      </trkpt>
      <trkpt lat="44.29908" lon="6.1664">
        <ele>1443.834875</ele>
        <time>2023-09-19T09:30:22.742Z</time>
      </trkpt>
      <trkpt lat="44.29909" lon="6.16622">
        <ele>1443.236426</ele>
        <time>2023-09-19T09:30:24.731Z</time>
      </trkpt>
      <trkpt lat="44.29911" lon="6.16606">
        <ele>1442.724638</ele>
        <time>2023-09-19T09:30:26.745Z</time>
      </trkpt>
      <trkpt lat="44.29916" lon="6.1659">
        <ele>1442.199642</ele>
        <time>2023-09-19T09:30:28.734Z</time>
      </trkpt>
      <trkpt lat="44.29923" lon="6.16577">
        <ele>1441.678686</ele>
        <time>2023-09-19T09:30:30.734Z</time>
      </trkpt>
      <trkpt lat="44.29933" lon="6.16566">
        <ele>1441.138018</ele>
        <time>2023-09-19T09:30:32.728Z</time>
      </trkpt>
      <trkpt lat="44.29944" lon="6.16555">
        <ele>1440.561948</ele>
        <time>2023-09-19T09:30:34.742Z</time>
      </trkpt>
      <trkpt lat="44.29953" lon="6.16541">
        <ele>1439.95588</ele>
        <time>2023-09-19T09:30:36.737Z</time>
      </trkpt>
      <trkpt lat="44.29962" lon="6.16526">
        <ele>1439.344552</ele>
        <time>2023-09-19T09:30:38.736Z</time>
      </trkpt>
      <trkpt lat="44.29972" lon="6.16512">
        <ele>1438.741545</ele>
        <time>2023-09-19T09:30:40.735Z</time>
      </trkpt>
      <trkpt lat="44.29983" lon="6.16499">
        <ele>1438.117851</ele>
        <time>2023-09-19T09:30:42.745Z</time>
      </trkpt>
      <trkpt lat="44.29995" lon="6.16487">
        <ele>1437.488611</ele>
        <time>2023-09-19T09:30:44.737Z</time>
      </trkpt>
      <trkpt lat="44.30005" lon="6.16475">
        <ele>1436.905969</ele>
        <time>2023-09-19T09:30:46.738Z</time>
      </trkpt>
      <trkpt lat="44.30012" lon="6.16459">
        <ele>1436.331251</ele>
        <time>2023-09-19T09:30:48.733Z</time>
      </trkpt>
      <trkpt lat="44.30016" lon="6.16442">
        <ele>1435.701717</ele>
        <time>2023-09-19T09:30:50.731Z</time>
      </trkpt>
      <trkpt lat="44.30018" lon="6.16424">
        <ele>1434.840365</ele>
        <time>2023-09-19T09:30:52.742Z</time>
      </trkpt>
      <trkpt lat="44.30014" lon="6.16407">
        <ele>1433.980668</ele>
        <time>2023-09-19T09:30:54.732Z</time>
      </trkpt>
      <trkpt lat="44.30007" lon="6.1639">
        <ele>1433.011897</ele>
        <time>2023-09-19T09:30:56.729Z</time>
      </trkpt>
      <trkpt lat="44.29998" lon="6.16374">
        <ele>1432.050268</ele>
        <time>2023-09-19T09:30:58.738Z</time>
      </trkpt>
      <trkpt lat="44.29992" lon="6.16354">
        <ele>1431.014269</ele>
        <time>2023-09-19T09:31:00.732Z</time>
      </trkpt>
      <trkpt lat="44.29988" lon="6.16334">
        <ele>1430.010116</ele>
        <time>2023-09-19T09:31:02.735Z</time>
      </trkpt>
      <trkpt lat="44.29988" lon="6.1631">
        <ele>1428.886577</ele>
        <time>2023-09-19T09:31:04.733Z</time>
      </trkpt>
      <trkpt lat="44.29992" lon="6.1629">
        <ele>1427.876214</ele>
        <time>2023-09-19T09:31:06.736Z</time>
      </trkpt>
      <trkpt lat="44.29995" lon="6.16274">
        <ele>1427.077425</ele>
        <time>2023-09-19T09:31:08.737Z</time>
      </trkpt>
      <trkpt lat="44.30002" lon="6.16262">
        <ele>1426.344569</ele>
        <time>2023-09-19T09:31:10.739Z</time>
      </trkpt>
      <trkpt lat="44.30013" lon="6.1626">
        <ele>1425.609356</ele>
        <time>2023-09-19T09:31:12.744Z</time>
      </trkpt>
      <trkpt lat="44.30025" lon="6.16259">
        <ele>1424.797378</ele>
        <time>2023-09-19T09:31:14.738Z</time>
      </trkpt>
      <trkpt lat="44.30037" lon="6.16257">
        <ele>1423.992703</ele>
        <time>2023-09-19T09:31:16.739Z</time>
      </trkpt>
      <trkpt lat="44.30049" lon="6.16253">
        <ele>1423.372084</ele>
        <time>2023-09-19T09:31:18.731Z</time>
      </trkpt>
      <trkpt lat="44.30061" lon="6.16255">
        <ele>1422.866229</ele>
        <time>2023-09-19T09:31:20.737Z</time>
      </trkpt>
      <trkpt lat="44.30073" lon="6.16258">
        <ele>1422.329934</ele>
        <time>2023-09-19T09:31:22.738Z</time>
      </trkpt>
      <trkpt lat="44.30085" lon="6.16259">
        <ele>1421.805278</ele>
        <time>2023-09-19T09:31:24.738Z</time>
      </trkpt>
      <trkpt lat="44.30097" lon="6.16257">
        <ele>1421.250203</ele>
        <time>2023-09-19T09:31:26.732Z</time>
      </trkpt>
      <trkpt lat="44.30108" lon="6.16251">
        <ele>1420.730719</ele>
        <time>2023-09-19T09:31:28.733Z</time>
      </trkpt>
      <trkpt lat="44.30118" lon="6.16242">
        <ele>1420.19629</ele>
        <time>2023-09-19T09:31:30.734Z</time>
      </trkpt>
      <trkpt lat="44.30129" lon="6.16235">
        <ele>1419.673859</ele>
        <time>2023-09-19T09:31:32.746Z</time>
      </trkpt>
      <trkpt lat="44.3014" lon="6.16236">
        <ele>1419.210127</ele>
        <time>2023-09-19T09:31:34.746Z</time>
      </trkpt>
      <trkpt lat="44.30149" lon="6.1624">
        <ele>1418.787522</ele>
        <time>2023-09-19T09:31:36.743Z</time>
      </trkpt>
      <trkpt lat="44.30159" lon="6.16237">
        <ele>1418.336207</ele>
        <time>2023-09-19T09:31:38.742Z</time>
      </trkpt>
      <trkpt lat="44.30169" lon="6.16227">
        <ele>1417.789815</ele>
        <time>2023-09-19T09:31:40.743Z</time>
      </trkpt>
      <trkpt lat="44.30179" lon="6.16217">
        <ele>1417.263225</ele>
        <time>2023-09-19T09:31:42.734Z</time>
      </trkpt>
      <trkpt lat="44.30186" lon="6.16206">
        <ele>1416.768121</ele>
        <time>2023-09-19T09:31:44.735Z</time>
      </trkpt>
      <trkpt lat="44.30193" lon="6.16194">
        <ele>1416.293586</ele>
        <time>2023-09-19T09:31:46.745Z</time>
      </trkpt>
      <trkpt lat="44.30199" lon="6.16183">
        <ele>1415.804159</ele>
        <time>2023-09-19T09:31:48.736Z</time>
      </trkpt>
      <trkpt lat="44.30206" lon="6.1617">
        <ele>1415.182173</ele>
        <time>2023-09-19T09:31:50.742Z</time>
      </trkpt>
      <trkpt lat="44.30213" lon="6.1616">
        <ele>1414.600901</ele>
        <time>2023-09-19T09:31:52.736Z</time>
      </trkpt>
      <trkpt lat="44.30218" lon="6.16149">
        <ele>1414.059323</ele>
        <time>2023-09-19T09:31:54.732Z</time>
      </trkpt>
      <trkpt lat="44.30221" lon="6.16133">
        <ele>1413.3574</ele>
        <time>2023-09-19T09:31:57.737Z</time>
      </trkpt>
      <trkpt lat="44.30223" lon="6.16116">
        <ele>1412.647246</ele>
        <time>2023-09-19T09:32:00.737Z</time>
      </trkpt>
      <trkpt lat="44.30224" lon="6.16098">
        <ele>1411.911259</ele>
        <time>2023-09-19T09:32:03.735Z</time>
      </trkpt>
      <trkpt lat="44.30227" lon="6.16079">
        <ele>1411.102684</ele>
        <time>2023-09-19T09:32:06.746Z</time>
      </trkpt>
      <trkpt lat="44.30232" lon="6.16065">
        <ele>1410.421054</ele>
        <time>2023-09-19T09:32:08.754Z</time>
      </trkpt>
      <trkpt lat="44.30238" lon="6.16047">
        <ele>1409.633175</ele>
        <time>2023-09-19T09:32:10.742Z</time>
      </trkpt>
      <trkpt lat="44.30244" lon="6.16029">
        <ele>1408.788554</ele>
        <time>2023-09-19T09:32:12.749Z</time>
      </trkpt>
      <trkpt lat="44.30249" lon="6.16013">
        <ele>1408.056871</ele>
        <time>2023-09-19T09:32:14.746Z</time>
      </trkpt>
      <trkpt lat="44.30252" lon="6.15998">
        <ele>1407.444764</ele>
        <time>2023-09-19T09:32:16.768Z</time>
      </trkpt>
      <trkpt lat="44.30257" lon="6.15987">
        <ele>1406.894376</ele>
        <time>2023-09-19T09:32:18.754Z</time>
      </trkpt>
      <trkpt lat="44.30269" lon="6.15976">
        <ele>1406.086948</ele>
        <time>2023-09-19T09:32:21.748Z</time>
      </trkpt>
      <trkpt lat="44.30278" lon="6.15965">
        <ele>1405.491129</ele>
        <time>2023-09-19T09:32:24.738Z</time>
      </trkpt>
      <trkpt lat="44.30285" lon="6.15956">
        <ele>1405.308399</ele>
        <time>2023-09-19T09:32:27.742Z</time>
      </trkpt>
      <trkpt lat="44.30294" lon="6.15951">
        <ele>1405.127442</ele>
        <time>2023-09-19T09:32:30.740Z</time>
      </trkpt>
      <trkpt lat="44.30303" lon="6.15945">
        <ele>1404.934403</ele>
        <time>2023-09-19T09:32:33.745Z</time>
      </trkpt>
      <trkpt lat="44.30313" lon="6.15945">
        <ele>1404.744316</ele>
        <time>2023-09-19T09:32:38.738Z</time>
      </trkpt>
      <trkpt lat="44.30322" lon="6.15949">
        <ele>1404.573268</ele>
        <time>2023-09-19T09:32:42.761Z</time>
      </trkpt>
      <trkpt lat="44.30335" lon="6.1596">
        <ele>1404.28508</ele>
        <time>2023-09-19T09:33:14.753Z</time>
      </trkpt>
      <trkpt lat="44.30346" lon="6.15963">
        <ele>1404.061918</ele>
        <time>2023-09-19T09:33:18.743Z</time>
      </trkpt>
      <trkpt lat="44.30358" lon="6.15957">
        <ele>1403.825012</ele>
        <time>2023-09-19T09:33:21.745Z</time>
      </trkpt>
      <trkpt lat="44.30366" lon="6.15948">
        <ele>1403.629782</ele>
        <time>2023-09-19T09:33:23.741Z</time>
      </trkpt>
      <trkpt lat="44.30373" lon="6.15939">
        <ele>1403.450796</ele>
        <time>2023-09-19T09:33:25.747Z</time>
      </trkpt>
      <trkpt lat="44.30378" lon="6.15928">
        <ele>1403.273205</ele>
        <time>2023-09-19T09:33:27.736Z</time>
      </trkpt>
      <trkpt lat="44.30384" lon="6.15917">
        <ele>1403.086809</ele>
        <time>2023-09-19T09:33:29.753Z</time>
      </trkpt>
      <trkpt lat="44.30391" lon="6.15909">
        <ele>1402.90691</ele>
        <time>2023-09-19T09:33:31.736Z</time>
      </trkpt>
      <trkpt lat="44.30398" lon="6.159">
        <ele>1402.733502</ele>
        <time>2023-09-19T09:33:33.742Z</time>
      </trkpt>
      <trkpt lat="44.30404" lon="6.15889">
        <ele>1402.54975</ele>
        <time>2023-09-19T09:33:35.750Z</time>
      </trkpt>
      <trkpt lat="44.3041" lon="6.15878">
        <ele>1402.359274</ele>
        <time>2023-09-19T09:33:37.744Z</time>
      </trkpt>
      <trkpt lat="44.30415" lon="6.15866">
        <ele>1402.162976</ele>
        <time>2023-09-19T09:33:39.761Z</time>
      </trkpt>
      <trkpt lat="44.30421" lon="6.15853">
        <ele>1401.272693</ele>
        <time>2023-09-19T09:33:41.740Z</time>
      </trkpt>
      <trkpt lat="44.30425" lon="6.1584">
        <ele>1400.221386</ele>
        <time>2023-09-19T09:33:43.745Z</time>
      </trkpt>
      <trkpt lat="44.30428" lon="6.15826">
        <ele>1399.200869</ele>
        <time>2023-09-19T09:33:45.738Z</time>
      </trkpt>
      <trkpt lat="44.30431" lon="6.15811">
        <ele>1398.109205</ele>
        <time>2023-09-19T09:33:47.744Z</time>
      </trkpt>
      <trkpt lat="44.30431" lon="6.15798">
        <ele>1397.199875</ele>
        <time>2023-09-19T09:33:49.735Z</time>
      </trkpt>
      <trkpt lat="44.30431" lon="6.15784">
        <ele>1396.18345</ele>
        <time>2023-09-19T09:33:52.736Z</time>
      </trkpt>
      <trkpt lat="44.30434" lon="6.1577">
        <ele>1395.14358</ele>
        <time>2023-09-19T09:33:55.738Z</time>
      </trkpt>
      <trkpt lat="44.30442" lon="6.1576">
        <ele>1394.116955</ele>
        <time>2023-09-19T09:33:58.743Z</time>
      </trkpt>
      <trkpt lat="44.30449" lon="6.15747">
        <ele>1392.90872</ele>
        <time>2023-09-19T09:34:01.740Z</time>
      </trkpt>
      <trkpt lat="44.30451" lon="6.15732">
        <ele>1391.832005</ele>
        <time>2023-09-19T09:34:04.739Z</time>
      </trkpt>
      <trkpt lat="44.30444" lon="6.15716">
        <ele>1390.490297</ele>
        <time>2023-09-19T09:34:07.732Z</time>
      </trkpt>
      <trkpt lat="44.30444" lon="6.15702">
        <ele>1389.523093</ele>
        <time>2023-09-19T09:34:09.729Z</time>
      </trkpt>
      <trkpt lat="44.30445" lon="6.1569">
        <ele>1388.627966</ele>
        <time>2023-09-19T09:34:11.741Z</time>
      </trkpt>
      <trkpt lat="44.30445" lon="6.15676">
        <ele>1387.64028</ele>
        <time>2023-09-19T09:34:14.740Z</time>
      </trkpt>
      <trkpt lat="44.30444" lon="6.15662">
        <ele>1386.676329</ele>
        <time>2023-09-19T09:34:16.733Z</time>
      </trkpt>
      <trkpt lat="44.30444" lon="6.15647">
        <ele>1385.603678</ele>
        <time>2023-09-19T09:34:18.735Z</time>
      </trkpt>
      <trkpt lat="44.30443" lon="6.1563">
        <ele>1384.401219</ele>
        <time>2023-09-19T09:34:20.740Z</time>
      </trkpt>
      <trkpt lat="44.30443" lon="6.15615">
        <ele>1383.590483</ele>
        <time>2023-09-19T09:34:22.733Z</time>
      </trkpt>
      <trkpt lat="44.30445" lon="6.156">
        <ele>1382.87396</ele>
        <time>2023-09-19T09:34:24.742Z</time>
      </trkpt>
      <trkpt lat="44.3045" lon="6.15586">
        <ele>1382.073561</ele>
        <time>2023-09-19T09:34:26.745Z</time>
      </trkpt>
      <trkpt lat="44.30453" lon="6.15568">
        <ele>1381.172089</ele>
        <time>2023-09-19T09:34:28.744Z</time>
      </trkpt>
      <trkpt lat="44.30454" lon="6.1555">
        <ele>1380.253903</ele>
        <time>2023-09-19T09:34:30.743Z</time>
      </trkpt>
      <trkpt lat="44.30456" lon="6.15533">
        <ele>1379.410571</ele>
        <time>2023-09-19T09:34:32.751Z</time>
      </trkpt>
      <trkpt lat="44.30461" lon="6.15519">
        <ele>1378.651093</ele>
        <time>2023-09-19T09:34:34.742Z</time>
      </trkpt>
      <trkpt lat="44.30466" lon="6.15501">
        <ele>1377.714484</ele>
        <time>2023-09-19T09:34:37.744Z</time>
      </trkpt>
      <trkpt lat="44.30469" lon="6.15484">
        <ele>1376.812105</ele>
        <time>2023-09-19T09:34:40.730Z</time>
      </trkpt>
      <trkpt lat="44.3047" lon="6.15466">
        <ele>1375.936532</ele>
        <time>2023-09-19T09:34:43.741Z</time>
      </trkpt>
      <trkpt lat="44.30469" lon="6.15449">
        <ele>1375.12296</ele>
        <time>2023-09-19T09:34:46.743Z</time>
      </trkpt>
      <trkpt lat="44.30469" lon="6.15436">
        <ele>1374.450585</ele>
        <time>2023-09-19T09:34:49.814Z</time>
      </trkpt>
      <trkpt lat="44.30469" lon="6.1542">
        <ele>1373.689348</ele>
        <time>2023-09-19T09:34:53.743Z</time>
      </trkpt>
      <trkpt lat="44.3047" lon="6.15407">
        <ele>1373.013576</ele>
        <time>2023-09-19T09:34:57.747Z</time>
      </trkpt>
      <trkpt lat="44.30471" lon="6.15383">
        <ele>1371.835049</ele>
        <time>2023-09-19T09:35:36.744Z</time>
      </trkpt>
      <trkpt lat="44.3047" lon="6.15367">
        <ele>1371.106539</ele>
        <time>2023-09-19T09:35:40.747Z</time>
      </trkpt>
      <trkpt lat="44.30471" lon="6.15354">
        <ele>1370.510493</ele>
        <time>2023-09-19T09:35:43.736Z</time>
      </trkpt>
      <trkpt lat="44.30475" lon="6.15342">
        <ele>1369.916842</ele>
        <time>2023-09-19T09:35:46.736Z</time>
      </trkpt>
      <trkpt lat="44.3048" lon="6.15331">
        <ele>1369.305581</ele>
        <time>2023-09-19T09:35:49.738Z</time>
      </trkpt>
      <trkpt lat="44.30487" lon="6.15318">
        <ele>1368.548107</ele>
        <time>2023-09-19T09:35:53.743Z</time>
      </trkpt>
      <trkpt lat="44.30493" lon="6.15306">
        <ele>1367.872195</ele>
        <time>2023-09-19T09:35:55.738Z</time>
      </trkpt>
      <trkpt lat="44.30497" lon="6.15292">
        <ele>1367.174157</ele>
        <time>2023-09-19T09:35:57.737Z</time>
      </trkpt>
      <trkpt lat="44.30503" lon="6.15278">
        <ele>1366.433202</ele>
        <time>2023-09-19T09:35:59.737Z</time>
      </trkpt>
      <trkpt lat="44.30508" lon="6.15262">
        <ele>1365.646088</ele>
        <time>2023-09-19T09:36:01.736Z</time>
      </trkpt>
      <trkpt lat="44.3051" lon="6.15245">
        <ele>1364.855648</ele>
        <time>2023-09-19T09:36:03.743Z</time>
      </trkpt>
      <trkpt lat="44.30511" lon="6.15229">
        <ele>1364.144125</ele>
        <time>2023-09-19T09:36:05.735Z</time>
      </trkpt>
      <trkpt lat="44.30513" lon="6.15217">
        <ele>1363.548528</ele>
        <time>2023-09-19T09:36:07.745Z</time>
      </trkpt>
      <trkpt lat="44.30516" lon="6.15203">
        <ele>1362.925382</ele>
        <time>2023-09-19T09:36:09.749Z</time>
      </trkpt>
      <trkpt lat="44.30517" lon="6.1519">
        <ele>1362.295913</ele>
        <time>2023-09-19T09:36:11.746Z</time>
      </trkpt>
      <trkpt lat="44.30515" lon="6.15174">
        <ele>1361.574852</ele>
        <time>2023-09-19T09:36:13.750Z</time>
      </trkpt>
      <trkpt lat="44.30512" lon="6.15158">
        <ele>1360.80759</ele>
        <time>2023-09-19T09:36:15.746Z</time>
      </trkpt>
      <trkpt lat="44.30506" lon="6.15143">
        <ele>1360.043496</ele>
        <time>2023-09-19T09:36:17.744Z</time>
      </trkpt>
      <trkpt lat="44.30498" lon="6.15132">
        <ele>1359.406534</ele>
        <time>2023-09-19T09:36:19.746Z</time>
      </trkpt>
      <trkpt lat="44.30491" lon="6.15122">
        <ele>1358.823766</ele>
        <time>2023-09-19T09:36:21.835Z</time>
      </trkpt>
      <trkpt lat="44.30485" lon="6.15111">
        <ele>1358.237977</ele>
        <time>2023-09-19T09:36:23.742Z</time>
      </trkpt>
      <trkpt lat="44.3048" lon="6.15098">
        <ele>1357.643766</ele>
        <time>2023-09-19T09:36:25.733Z</time>
      </trkpt>
      <trkpt lat="44.30478" lon="6.15084">
        <ele>1357.053977</ele>
        <time>2023-09-19T09:36:27.736Z</time>
      </trkpt>
      <trkpt lat="44.30475" lon="6.1507">
        <ele>1356.458048</ele>
        <time>2023-09-19T09:36:29.741Z</time>
      </trkpt>
      <trkpt lat="44.30474" lon="6.15055">
        <ele>1355.803116</ele>
        <time>2023-09-19T09:36:31.746Z</time>
      </trkpt>
      <trkpt lat="44.30475" lon="6.1504">
        <ele>1355.178936</ele>
        <time>2023-09-19T09:36:33.732Z</time>
      </trkpt>
      <trkpt lat="44.30479" lon="6.15028">
        <ele>1354.654594</ele>
        <time>2023-09-19T09:36:35.744Z</time>
      </trkpt>
      <trkpt lat="44.30487" lon="6.15018">
        <ele>1354.02871</ele>
        <time>2023-09-19T09:36:38.743Z</time>
      </trkpt>
      <trkpt lat="44.30497" lon="6.15014">
        <ele>1353.442515</ele>
        <time>2023-09-19T09:36:41.745Z</time>
      </trkpt>
      <trkpt lat="44.30506" lon="6.15007">
        <ele>1352.809602</ele>
        <time>2023-09-19T09:36:44.747Z</time>
      </trkpt>
      <trkpt lat="44.30514" lon="6.14999">
        <ele>1352.279419</ele>
        <time>2023-09-19T09:36:50.741Z</time>
      </trkpt>
      <trkpt lat="44.30521" lon="6.14987">
        <ele>1351.623017</ele>
        <time>2023-09-19T09:37:09.745Z</time>
      </trkpt>
      <trkpt lat="44.30528" lon="6.1498">
        <ele>1351.101348</ele>
        <time>2023-09-19T09:37:11.745Z</time>
      </trkpt>
      <trkpt lat="44.30539" lon="6.14974">
        <ele>1350.462787</ele>
        <time>2023-09-19T09:37:13.740Z</time>
      </trkpt>
      <trkpt lat="44.30548" lon="6.1497">
        <ele>1349.830961</ele>
        <time>2023-09-19T09:37:15.742Z</time>
      </trkpt>
      <trkpt lat="44.30559" lon="6.14969">
        <ele>1348.694339</ele>
        <time>2023-09-19T09:37:17.742Z</time>
      </trkpt>
      <trkpt lat="44.30571" lon="6.14971">
        <ele>1347.367122</ele>
        <time>2023-09-19T09:37:19.747Z</time>
      </trkpt>
      <trkpt lat="44.30582" lon="6.14974">
        <ele>1346.119759</ele>
        <time>2023-09-19T09:37:21.738Z</time>
      </trkpt>
      <trkpt lat="44.30593" lon="6.14973">
        <ele>1344.957792</ele>
        <time>2023-09-19T09:37:23.743Z</time>
      </trkpt>
      <trkpt lat="44.30602" lon="6.1497">
        <ele>1343.898737</ele>
        <time>2023-09-19T09:37:25.737Z</time>
      </trkpt>
      <trkpt lat="44.30611" lon="6.1496">
        <ele>1342.649938</ele>
        <time>2023-09-19T09:37:27.749Z</time>
      </trkpt>
      <trkpt lat="44.30618" lon="6.14945">
        <ele>1341.283305</ele>
        <time>2023-09-19T09:37:29.740Z</time>
      </trkpt>
      <trkpt lat="44.30625" lon="6.14927">
        <ele>1339.734137</ele>
        <time>2023-09-19T09:37:31.744Z</time>
      </trkpt>
      <trkpt lat="44.30636" lon="6.14911">
        <ele>1338.036927</ele>
        <time>2023-09-19T09:37:33.743Z</time>
      </trkpt>
      <trkpt lat="44.30644" lon="6.14897">
        <ele>1336.569687</ele>
        <time>2023-09-19T09:37:35.728Z</time>
      </trkpt>
      <trkpt lat="44.3065" lon="6.14882">
        <ele>1335.311878</ele>
        <time>2023-09-19T09:37:37.736Z</time>
      </trkpt>
      <trkpt lat="44.3065" lon="6.14866">
        <ele>1334.063117</ele>
        <time>2023-09-19T09:37:39.737Z</time>
      </trkpt>
      <trkpt lat="44.30652" lon="6.14848">
        <ele>1332.654479</ele>
        <time>2023-09-19T09:37:41.730Z</time>
      </trkpt>
      <trkpt lat="44.30658" lon="6.14829">
        <ele>1331.032464</ele>
        <time>2023-09-19T09:37:43.737Z</time>
      </trkpt>
      <trkpt lat="44.30664" lon="6.14809">
        <ele>1329.263279</ele>
        <time>2023-09-19T09:37:45.739Z</time>
      </trkpt>
      <trkpt lat="44.3067" lon="6.14794">
        <ele>1327.807376</ele>
        <time>2023-09-19T09:37:47.741Z</time>
      </trkpt>
      <trkpt lat="44.30681" lon="6.14783">
        <ele>1326.249335</ele>
        <time>2023-09-19T09:37:49.742Z</time>
      </trkpt>
      <trkpt lat="44.30695" lon="6.14774">
        <ele>1324.48898</ele>
        <time>2023-09-19T09:37:51.737Z</time>
      </trkpt>
      <trkpt lat="44.30709" lon="6.14766">
        <ele>1322.781557</ele>
        <time>2023-09-19T09:37:53.760Z</time>
      </trkpt>
      <trkpt lat="44.30718" lon="6.14758">
        <ele>1321.540943</ele>
        <time>2023-09-19T09:37:55.834Z</time>
      </trkpt>
      <trkpt lat="44.30728" lon="6.14756">
        <ele>1320.406837</ele>
        <time>2023-09-19T09:37:58.740Z</time>
      </trkpt>
      <trkpt lat="44.30725" lon="6.1477">
        <ele>1319.232631</ele>
        <time>2023-09-19T09:38:02.737Z</time>
      </trkpt>
      <trkpt lat="44.30719" lon="6.1478">
        <ele>1318.127201</ele>
        <time>2023-09-19T09:38:04.733Z</time>
      </trkpt>
      <trkpt lat="44.30713" lon="6.14792">
        <ele>1316.896657</ele>
        <time>2023-09-19T09:38:06.743Z</time>
      </trkpt>
      <trkpt lat="44.30709" lon="6.14806">
        <ele>1315.677592</ele>
        <time>2023-09-19T09:38:08.746Z</time>
      </trkpt>
      <trkpt lat="44.30705" lon="6.14821">
        <ele>1314.349509</ele>
        <time>2023-09-19T09:38:10.736Z</time>
      </trkpt>
      <trkpt lat="44.30714" lon="6.1483">
        <ele>1313.149882</ele>
        <time>2023-09-19T09:38:13.739Z</time>
      </trkpt>
      <trkpt lat="44.30727" lon="6.14824">
        <ele>1311.535567</ele>
        <time>2023-09-19T09:38:16.738Z</time>
      </trkpt>
      <trkpt lat="44.30737" lon="6.1482">
        <ele>1310.313744</ele>
        <time>2023-09-19T09:38:18.747Z</time>
      </trkpt>
      <trkpt lat="44.30749" lon="6.14819">
        <ele>1308.716666</ele>
        <time>2023-09-19T09:38:21.745Z</time>
      </trkpt>
      <trkpt lat="44.30762" lon="6.1482">
        <ele>1306.974162</ele>
        <time>2023-09-19T09:38:24.743Z</time>
      </trkpt>
      <trkpt lat="44.30772" lon="6.1482">
        <ele>1305.587827</ele>
        <time>2023-09-19T09:38:26.745Z</time>
      </trkpt>
      <trkpt lat="44.30781" lon="6.14818">
        <ele>1304.213617</ele>
        <time>2023-09-19T09:38:28.746Z</time>
      </trkpt>
      <trkpt lat="44.30792" lon="6.14816">
        <ele>1302.708088</ele>
        <time>2023-09-19T09:38:30.744Z</time>
      </trkpt>
      <trkpt lat="44.30804" lon="6.14814">
        <ele>1301.02756</ele>
        <time>2023-09-19T09:38:32.746Z</time>
      </trkpt>
      <trkpt lat="44.30816" lon="6.14812">
        <ele>1299.339732</ele>
        <time>2023-09-19T09:38:34.754Z</time>
      </trkpt>
      <trkpt lat="44.30825" lon="6.14805">
        <ele>1297.858861</ele>
        <time>2023-09-19T09:38:36.737Z</time>
      </trkpt>
      <trkpt lat="44.30835" lon="6.14802">
        <ele>1296.504367</ele>
        <time>2023-09-19T09:38:38.743Z</time>
      </trkpt>
      <trkpt lat="44.30845" lon="6.14807">
        <ele>1295.00073</ele>
        <time>2023-09-19T09:38:41.745Z</time>
      </trkpt>
      <trkpt lat="44.30851" lon="6.14819">
        <ele>1293.468881</ele>
        <time>2023-09-19T09:38:44.746Z</time>
      </trkpt>
      <trkpt lat="44.30859" lon="6.14835">
        <ele>1291.545855</ele>
        <time>2023-09-19T09:38:47.748Z</time>
      </trkpt>
      <trkpt lat="44.30869" lon="6.14845">
        <ele>1289.891908</ele>
        <time>2023-09-19T09:38:49.746Z</time>
      </trkpt>
      <trkpt lat="44.30878" lon="6.14856">
        <ele>1288.125712</ele>
        <time>2023-09-19T09:38:51.749Z</time>
      </trkpt>
      <trkpt lat="44.30885" lon="6.14871">
        <ele>1286.38119</ele>
        <time>2023-09-19T09:38:53.739Z</time>
      </trkpt>
      <trkpt lat="44.3089" lon="6.14886">
        <ele>1284.71313</ele>
        <time>2023-09-19T09:38:55.742Z</time>
      </trkpt>
      <trkpt lat="44.30893" lon="6.14899">
        <ele>1283.81007</ele>
        <time>2023-09-19T09:38:57.737Z</time>
      </trkpt>
      <trkpt lat="44.30893" lon="6.14914">
        <ele>1282.880436</ele>
        <time>2023-09-19T09:38:59.736Z</time>
      </trkpt>
      <trkpt lat="44.3089" lon="6.14929">
        <ele>1281.895714</ele>
        <time>2023-09-19T09:39:01.737Z</time>
      </trkpt>
      <trkpt lat="44.3089" lon="6.14943">
        <ele>1281.028055</ele>
        <time>2023-09-19T09:39:03.739Z</time>
      </trkpt>
      <trkpt lat="44.30893" lon="6.14957">
        <ele>1280.1398</ele>
        <time>2023-09-19T09:39:05.739Z</time>
      </trkpt>
      <trkpt lat="44.30895" lon="6.14971">
        <ele>1279.263569</ele>
        <time>2023-09-19T09:39:07.745Z</time>
      </trkpt>
      <trkpt lat="44.30897" lon="6.14984">
        <ele>1278.415224</ele>
        <time>2023-09-19T09:39:09.744Z</time>
      </trkpt>
      <trkpt lat="44.30895" lon="6.14999">
        <ele>1277.489441</ele>
        <time>2023-09-19T09:39:11.735Z</time>
      </trkpt>
      <trkpt lat="44.30893" lon="6.15014">
        <ele>1276.524752</ele>
        <time>2023-09-19T09:39:13.736Z</time>
      </trkpt>
      <trkpt lat="44.3089" lon="6.15031">
        <ele>1275.459489</ele>
        <time>2023-09-19T09:39:15.741Z</time>
      </trkpt>
      <trkpt lat="44.30889" lon="6.15046">
        <ele>1274.5515</ele>
        <time>2023-09-19T09:39:17.743Z</time>
      </trkpt>
      <trkpt lat="44.30888" lon="6.15058">
        <ele>1273.755898</ele>
        <time>2023-09-19T09:39:19.737Z</time>
      </trkpt>
      <trkpt lat="44.30892" lon="6.15073">
        <ele>1272.793406</ele>
        <time>2023-09-19T09:39:21.730Z</time>
      </trkpt>
      <trkpt lat="44.30896" lon="6.15085">
        <ele>1271.940279</ele>
        <time>2023-09-19T09:39:23.747Z</time>
      </trkpt>
      <trkpt lat="44.30898" lon="6.15101">
        <ele>1270.974565</ele>
        <time>2023-09-19T09:39:25.739Z</time>
      </trkpt>
      <trkpt lat="44.309" lon="6.15116">
        <ele>1269.983798</ele>
        <time>2023-09-19T09:39:28.753Z</time>
      </trkpt>
      <trkpt lat="44.30909" lon="6.15119">
        <ele>1269.187841</ele>
        <time>2023-09-19T09:39:33.743Z</time>
      </trkpt>
      <trkpt lat="44.30916" lon="6.1511">
        <ele>1268.531334</ele>
        <time>2023-09-19T09:39:39.746Z</time>
      </trkpt>
      <trkpt lat="44.30906" lon="6.15109">
        <ele>1267.887397</ele>
        <time>2023-09-19T09:39:44.751Z</time>
      </trkpt>
      <trkpt lat="44.30901" lon="6.15122">
        <ele>1267.199736</ele>
        <time>2023-09-19T09:39:47.748Z</time>
      </trkpt>
      <trkpt lat="44.30897" lon="6.15135">
        <ele>1266.525113</ele>
        <time>2023-09-19T09:39:50.745Z</time>
      </trkpt>
      <trkpt lat="44.30889" lon="6.15147">
        <ele>1265.784723</ele>
        <time>2023-09-19T09:39:53.756Z</time>
      </trkpt>
      <trkpt lat="44.30885" lon="6.15158">
        <ele>1265.191377</ele>
        <time>2023-09-19T09:39:55.748Z</time>
      </trkpt>
      <trkpt lat="44.30881" lon="6.1517">
        <ele>1264.568896</ele>
        <time>2023-09-19T09:39:57.744Z</time>
      </trkpt>
      <trkpt lat="44.30875" lon="6.15181">
        <ele>1263.918905</ele>
        <time>2023-09-19T09:39:59.751Z</time>
      </trkpt>
      <trkpt lat="44.30868" lon="6.15193">
        <ele>1263.186347</ele>
        <time>2023-09-19T09:40:01.747Z</time>
      </trkpt>
      <trkpt lat="44.30863" lon="6.15208">
        <ele>1262.419926</ele>
        <time>2023-09-19T09:40:03.747Z</time>
      </trkpt>
      <trkpt lat="44.30863" lon="6.15224">
        <ele>1261.663061</ele>
        <time>2023-09-19T09:40:05.745Z</time>
      </trkpt>
      <trkpt lat="44.30864" lon="6.15241">
        <ele>1260.863485</ele>
        <time>2023-09-19T09:40:07.846Z</time>
      </trkpt>
      <trkpt lat="44.30865" lon="6.15259">
        <ele>1260.022388</ele>
        <time>2023-09-19T09:40:09.735Z</time>
      </trkpt>
      <trkpt lat="44.30868" lon="6.15279">
        <ele>1259.084106</ele>
        <time>2023-09-19T09:40:11.740Z</time>
      </trkpt>
      <trkpt lat="44.30872" lon="6.15299">
        <ele>1258.072673</ele>
        <time>2023-09-19T09:40:13.743Z</time>
      </trkpt>
      <trkpt lat="44.3088" lon="6.15318">
        <ele>1257.018999</ele>
        <time>2023-09-19T09:40:15.742Z</time>
      </trkpt>
      <trkpt lat="44.30888" lon="6.15338">
        <ele>1255.331134</ele>
        <time>2023-09-19T09:40:17.742Z</time>
      </trkpt>
      <trkpt lat="44.30893" lon="6.15348">
        <ele>1254.411531</ele>
        <time>2023-09-19T09:40:18.736Z</time>
      </trkpt>
      <trkpt lat="44.30899" lon="6.15359">
        <ele>1253.442831</ele>
        <time>2023-09-19T09:40:19.752Z</time>
      </trkpt>
      <trkpt lat="44.30906" lon="6.15369">
        <ele>1252.423076</ele>
        <time>2023-09-19T09:40:20.741Z</time>
      </trkpt>
      <trkpt lat="44.30913" lon="6.15378">
        <ele>1251.394341</ele>
        <time>2023-09-19T09:40:21.744Z</time>
      </trkpt>
      <trkpt lat="44.30922" lon="6.15387">
        <ele>1250.320015</ele>
        <time>2023-09-19T09:40:22.740Z</time>
      </trkpt>
      <trkpt lat="44.30931" lon="6.15396">
        <ele>1249.242907</ele>
        <time>2023-09-19T09:40:23.745Z</time>
      </trkpt>
      <trkpt lat="44.3094" lon="6.15402">
        <ele>1248.137776</ele>
        <time>2023-09-19T09:40:24.752Z</time>
      </trkpt>
      <trkpt lat="44.30951" lon="6.15408">
        <ele>1246.981708</ele>
        <time>2023-09-19T09:40:25.751Z</time>
      </trkpt>
      <trkpt lat="44.30962" lon="6.15411">
        <ele>1245.813012</ele>
        <time>2023-09-19T09:40:26.743Z</time>
      </trkpt>
      <trkpt lat="44.30974" lon="6.15413">
        <ele>1244.602541</ele>
        <time>2023-09-19T09:40:27.746Z</time>
      </trkpt>
      <trkpt lat="44.30987" lon="6.15414">
        <ele>1243.326591</ele>
        <time>2023-09-19T09:40:28.747Z</time>
      </trkpt>
      <trkpt lat="44.30999" lon="6.15415">
        <ele>1242.051119</ele>
        <time>2023-09-19T09:40:29.746Z</time>
      </trkpt>
      <trkpt lat="44.31011" lon="6.15416">
        <ele>1240.868721</ele>
        <time>2023-09-19T09:40:30.748Z</time>
      </trkpt>
      <trkpt lat="44.31021" lon="6.15416">
        <ele>1239.777517</ele>
        <time>2023-09-19T09:40:31.750Z</time>
      </trkpt>
      <trkpt lat="44.31031" lon="6.15418">
        <ele>1238.772145</ele>
        <time>2023-09-19T09:40:32.745Z</time>
      </trkpt>
      <trkpt lat="44.31047" lon="6.15417">
        <ele>1236.997888</ele>
        <time>2023-09-19T09:40:34.749Z</time>
      </trkpt>
      <trkpt lat="44.31061" lon="6.15407">
        <ele>1235.299901</ele>
        <time>2023-09-19T09:40:36.745Z</time>
      </trkpt>
      <trkpt lat="44.31069" lon="6.15395">
        <ele>1233.930973</ele>
        <time>2023-09-19T09:40:38.743Z</time>
      </trkpt>
      <trkpt lat="44.31083" lon="6.15396">
        <ele>1232.46512</ele>
        <time>2023-09-19T09:40:40.742Z</time>
      </trkpt>
      <trkpt lat="44.31097" lon="6.15405">
        <ele>1230.71131</ele>
        <time>2023-09-19T09:40:42.729Z</time>
      </trkpt>
      <trkpt lat="44.31114" lon="6.15416">
        <ele>1228.680229</ele>
        <time>2023-09-19T09:40:44.738Z</time>
      </trkpt>
      <trkpt lat="44.31122" lon="6.15422">
        <ele>1227.611288</ele>
        <time>2023-09-19T09:40:45.737Z</time>
      </trkpt>
      <trkpt lat="44.31138" lon="6.15429">
        <ele>1225.784513</ele>
        <time>2023-09-19T09:40:47.737Z</time>
      </trkpt>
      <trkpt lat="44.31152" lon="6.15428">
        <ele>1224.248344</ele>
        <time>2023-09-19T09:40:49.737Z</time>
      </trkpt>
      <trkpt lat="44.31163" lon="6.1541">
        <ele>1222.364702</ele>
        <time>2023-09-19T09:40:51.735Z</time>
      </trkpt>
      <trkpt lat="44.31178" lon="6.15395">
        <ele>1220.319512</ele>
        <time>2023-09-19T09:40:53.736Z</time>
      </trkpt>
      <trkpt lat="44.31186" lon="6.15386">
        <ele>1219.191559</ele>
        <time>2023-09-19T09:40:54.738Z</time>
      </trkpt>
      <trkpt lat="44.31192" lon="6.15375">
        <ele>1218.128812</ele>
        <time>2023-09-19T09:40:55.735Z</time>
      </trkpt>
      <trkpt lat="44.31199" lon="6.15363">
        <ele>1217.056837</ele>
        <time>2023-09-19T09:40:56.746Z</time>
      </trkpt>
      <trkpt lat="44.31205" lon="6.15351">
        <ele>1216.003496</ele>
        <time>2023-09-19T09:40:57.741Z</time>
      </trkpt>
      <trkpt lat="44.31215" lon="6.15332">
        <ele>1214.341623</ele>
        <time>2023-09-19T09:40:59.743Z</time>
      </trkpt>
      <trkpt lat="44.31224" lon="6.15323">
        <ele>1213.216114</ele>
        <time>2023-09-19T09:41:01.743Z</time>
      </trkpt>
      <trkpt lat="44.31233" lon="6.1533">
        <ele>1212.14845</ele>
        <time>2023-09-19T09:41:04.746Z</time>
      </trkpt>
      <trkpt lat="44.3123" lon="6.15342">
        <ele>1211.213449</ele>
        <time>2023-09-19T09:41:06.743Z</time>
      </trkpt>
      <trkpt lat="44.31224" lon="6.15354">
        <ele>1210.119199</ele>
        <time>2023-09-19T09:41:08.749Z</time>
      </trkpt>
      <trkpt lat="44.31216" lon="6.15369">
        <ele>1208.813149</ele>
        <time>2023-09-19T09:41:10.739Z</time>
      </trkpt>
      <trkpt lat="44.31208" lon="6.15385">
        <ele>1207.383704</ele>
        <time>2023-09-19T09:41:12.746Z</time>
      </trkpt>
      <trkpt lat="44.31201" lon="6.15407">
        <ele>1205.704335</ele>
        <time>2023-09-19T09:41:14.743Z</time>
      </trkpt>
      <trkpt lat="44.31193" lon="6.15429">
        <ele>1203.909451</ele>
        <time>2023-09-19T09:41:16.737Z</time>
      </trkpt>
      <trkpt lat="44.31189" lon="6.1544">
        <ele>1202.988556</ele>
        <time>2023-09-19T09:41:17.738Z</time>
      </trkpt>
      <trkpt lat="44.31179" lon="6.15457">
        <ele>1201.465394</ele>
        <time>2023-09-19T09:41:19.735Z</time>
      </trkpt>
      <trkpt lat="44.31177" lon="6.15472">
        <ele>1200.360788</ele>
        <time>2023-09-19T09:41:21.743Z</time>
      </trkpt>
      <trkpt lat="44.31186" lon="6.15485">
        <ele>1199.237574</ele>
        <time>2023-09-19T09:41:23.737Z</time>
      </trkpt>
      <trkpt lat="44.31199" lon="6.15489">
        <ele>1198.018771</ele>
        <time>2023-09-19T09:41:25.735Z</time>
      </trkpt>
      <trkpt lat="44.31216" lon="6.15486">
        <ele>1196.504977</ele>
        <time>2023-09-19T09:41:27.743Z</time>
      </trkpt>
      <trkpt lat="44.31225" lon="6.15483">
        <ele>1195.686066</ele>
        <time>2023-09-19T09:41:28.747Z</time>
      </trkpt>
      <trkpt lat="44.31234" lon="6.15479">
        <ele>1194.836262</ele>
        <time>2023-09-19T09:41:29.751Z</time>
      </trkpt>
      <trkpt lat="44.31243" lon="6.15475">
        <ele>1193.963887</ele>
        <time>2023-09-19T09:41:30.745Z</time>
      </trkpt>
      <trkpt lat="44.31252" lon="6.15469">
        <ele>1193.102836</ele>
        <time>2023-09-19T09:41:31.745Z</time>
      </trkpt>
      <trkpt lat="44.31259" lon="6.1546">
        <ele>1192.24072</ele>
        <time>2023-09-19T09:41:32.744Z</time>
      </trkpt>
      <trkpt lat="44.31267" lon="6.15439">
        <ele>1190.684277</ele>
        <time>2023-09-19T09:41:34.747Z</time>
      </trkpt>
      <trkpt lat="44.31267" lon="6.15426">
        <ele>1189.853351</ele>
        <time>2023-09-19T09:41:35.743Z</time>
      </trkpt>
      <trkpt lat="44.31261" lon="6.15404">
        <ele>1188.382294</ele>
        <time>2023-09-19T09:41:37.743Z</time>
      </trkpt>
      <trkpt lat="44.31263" lon="6.15387">
        <ele>1187.277019</ele>
        <time>2023-09-19T09:41:39.748Z</time>
      </trkpt>
      <trkpt lat="44.31273" lon="6.15388">
        <ele>1186.373446</ele>
        <time>2023-09-19T09:41:41.736Z</time>
      </trkpt>
      <trkpt lat="44.3128" lon="6.15403">
        <ele>1185.234249</ele>
        <time>2023-09-19T09:41:43.747Z</time>
      </trkpt>
      <trkpt lat="44.31286" lon="6.15421">
        <ele>1183.952625</ele>
        <time>2023-09-19T09:41:45.744Z</time>
      </trkpt>
      <trkpt lat="44.31292" lon="6.1544">
        <ele>1182.505563</ele>
        <time>2023-09-19T09:41:47.746Z</time>
      </trkpt>
      <trkpt lat="44.31301" lon="6.15457">
        <ele>1181.008539</ele>
        <time>2023-09-19T09:41:49.737Z</time>
      </trkpt>
      <trkpt lat="44.31313" lon="6.15463">
        <ele>1179.803532</ele>
        <time>2023-09-19T09:41:51.744Z</time>
      </trkpt>
      <trkpt lat="44.31321" lon="6.15451">
        <ele>1178.649706</ele>
        <time>2023-09-19T09:41:53.744Z</time>
      </trkpt>
      <trkpt lat="44.31317" lon="6.15431">
        <ele>1177.269841</ele>
        <time>2023-09-19T09:41:55.738Z</time>
      </trkpt>
      <trkpt lat="44.31309" lon="6.1541">
        <ele>1175.626863</ele>
        <time>2023-09-19T09:41:57.739Z</time>
      </trkpt>
      <trkpt lat="44.31306" lon="6.15387">
        <ele>1173.992764</ele>
        <time>2023-09-19T09:41:59.740Z</time>
      </trkpt>
      <trkpt lat="44.31316" lon="6.15373">
        <ele>1172.64423</ele>
        <time>2023-09-19T09:42:01.743Z</time>
      </trkpt>
      <trkpt lat="44.31332" lon="6.15372">
        <ele>1171.097079</ele>
        <time>2023-09-19T09:42:03.746Z</time>
      </trkpt>
      <trkpt lat="44.31349" lon="6.15368">
        <ele>1169.410025</ele>
        <time>2023-09-19T09:42:05.746Z</time>
      </trkpt>
      <trkpt lat="44.31356" lon="6.1536">
        <ele>1168.48826</ele>
        <time>2023-09-19T09:42:06.747Z</time>
      </trkpt>
      <trkpt lat="44.31363" lon="6.1535">
        <ele>1167.573884</ele>
        <time>2023-09-19T09:42:07.749Z</time>
      </trkpt>
      <trkpt lat="44.31371" lon="6.15342">
        <ele>1166.451848</ele>
        <time>2023-09-19T09:42:08.753Z</time>
      </trkpt>
      <trkpt lat="44.3138" lon="6.15334">
        <ele>1165.24811</ele>
        <time>2023-09-19T09:42:09.744Z</time>
      </trkpt>
      <trkpt lat="44.31389" lon="6.15324">
        <ele>1163.977064</ele>
        <time>2023-09-19T09:42:10.745Z</time>
      </trkpt>
      <trkpt lat="44.31398" lon="6.15314">
        <ele>1162.671044</ele>
        <time>2023-09-19T09:42:11.745Z</time>
      </trkpt>
      <trkpt lat="44.31409" lon="6.15308">
        <ele>1161.345931</ele>
        <time>2023-09-19T09:42:12.754Z</time>
      </trkpt>
      <trkpt lat="44.31419" lon="6.15302">
        <ele>1160.11095</ele>
        <time>2023-09-19T09:42:13.751Z</time>
      </trkpt>
      <trkpt lat="44.31428" lon="6.15296">
        <ele>1158.978961</ele>
        <time>2023-09-19T09:42:14.746Z</time>
      </trkpt>
      <trkpt lat="44.31438" lon="6.15291">
        <ele>1157.834227</ele>
        <time>2023-09-19T09:42:15.747Z</time>
      </trkpt>
      <trkpt lat="44.31448" lon="6.1529">
        <ele>1156.66734</ele>
        <time>2023-09-19T09:42:16.754Z</time>
      </trkpt>
      <trkpt lat="44.31459" lon="6.1529">
        <ele>1155.481143</ele>
        <time>2023-09-19T09:42:17.745Z</time>
      </trkpt>
      <trkpt lat="44.31469" lon="6.15289">
        <ele>1154.243099</ele>
        <time>2023-09-19T09:42:18.748Z</time>
      </trkpt>
      <trkpt lat="44.3148" lon="6.15285">
        <ele>1153.032811</ele>
        <time>2023-09-19T09:42:19.847Z</time>
      </trkpt>
      <trkpt lat="44.3149" lon="6.15278">
        <ele>1151.780109</ele>
        <time>2023-09-19T09:42:20.744Z</time>
      </trkpt>
      <trkpt lat="44.31499" lon="6.15269">
        <ele>1150.51094</ele>
        <time>2023-09-19T09:42:21.744Z</time>
      </trkpt>
      <trkpt lat="44.31507" lon="6.15258">
        <ele>1149.213296</ele>
        <time>2023-09-19T09:42:22.733Z</time>
      </trkpt>
      <trkpt lat="44.31516" lon="6.15247">
        <ele>1147.882623</ele>
        <time>2023-09-19T09:42:23.747Z</time>
      </trkpt>
      <trkpt lat="44.31525" lon="6.15236">
        <ele>1146.541227</ele>
        <time>2023-09-19T09:42:24.745Z</time>
      </trkpt>
      <trkpt lat="44.31534" lon="6.15224">
        <ele>1145.217651</ele>
        <time>2023-09-19T09:42:25.745Z</time>
      </trkpt>
      <trkpt lat="44.31542" lon="6.1521">
        <ele>1143.864342</ele>
        <time>2023-09-19T09:42:26.740Z</time>
      </trkpt>
      <trkpt lat="44.3155" lon="6.15196">
        <ele>1142.483948</ele>
        <time>2023-09-19T09:42:27.741Z</time>
      </trkpt>
      <trkpt lat="44.31558" lon="6.15181">
        <ele>1141.096687</ele>
        <time>2023-09-19T09:42:28.745Z</time>
      </trkpt>
      <trkpt lat="44.31566" lon="6.15168">
        <ele>1139.844491</ele>
        <time>2023-09-19T09:42:29.741Z</time>
      </trkpt>
      <trkpt lat="44.31572" lon="6.15158">
        <ele>1138.789104</ele>
        <time>2023-09-19T09:42:30.743Z</time>
      </trkpt>
      <trkpt lat="44.31581" lon="6.15141">
        <ele>1137.197362</ele>
        <time>2023-09-19T09:42:32.746Z</time>
      </trkpt>
      <trkpt lat="44.31586" lon="6.15129">
        <ele>1136.139386</ele>
        <time>2023-09-19T09:42:34.742Z</time>
      </trkpt>
      <trkpt lat="44.31582" lon="6.15098">
        <ele>1133.741028</ele>
        <time>2023-09-19T09:42:57.743Z</time>
      </trkpt>
      <trkpt lat="44.31581" lon="6.15083">
        <ele>1132.583696</ele>
        <time>2023-09-19T09:42:59.746Z</time>
      </trkpt>
      <trkpt lat="44.31578" lon="6.15064">
        <ele>1131.105405</ele>
        <time>2023-09-19T09:43:01.742Z</time>
      </trkpt>
      <trkpt lat="44.31575" lon="6.15041">
        <ele>1129.369406</ele>
        <time>2023-09-19T09:43:03.737Z</time>
      </trkpt>
      <trkpt lat="44.31574" lon="6.15015">
        <ele>1127.425915</ele>
        <time>2023-09-19T09:43:05.744Z</time>
      </trkpt>
      <trkpt lat="44.31573" lon="6.15001">
        <ele>1126.398949</ele>
        <time>2023-09-19T09:43:06.742Z</time>
      </trkpt>
      <trkpt lat="44.31572" lon="6.14988">
        <ele>1125.401831</ele>
        <time>2023-09-19T09:43:07.743Z</time>
      </trkpt>
      <trkpt lat="44.31571" lon="6.14975">
        <ele>1124.472815</ele>
        <time>2023-09-19T09:43:08.742Z</time>
      </trkpt>
      <trkpt lat="44.31572" lon="6.14962">
        <ele>1123.533512</ele>
        <time>2023-09-19T09:43:09.744Z</time>
      </trkpt>
      <trkpt lat="44.31577" lon="6.14951">
        <ele>1122.563453</ele>
        <time>2023-09-19T09:43:10.755Z</time>
      </trkpt>
      <trkpt lat="44.31584" lon="6.1494">
        <ele>1121.583323</ele>
        <time>2023-09-19T09:43:11.742Z</time>
      </trkpt>
      <trkpt lat="44.31591" lon="6.14933">
        <ele>1120.65232</ele>
        <time>2023-09-19T09:43:12.742Z</time>
      </trkpt>
      <trkpt lat="44.31607" lon="6.14929">
        <ele>1119.011443</ele>
        <time>2023-09-19T09:43:14.735Z</time>
      </trkpt>
      <trkpt lat="44.31624" lon="6.1493">
        <ele>1117.295658</ele>
        <time>2023-09-19T09:43:16.730Z</time>
      </trkpt>
      <trkpt lat="44.31633" lon="6.14926">
        <ele>1116.373884</ele>
        <time>2023-09-19T09:43:17.734Z</time>
      </trkpt>
      <trkpt lat="44.31641" lon="6.14919">
        <ele>1115.446867</ele>
        <time>2023-09-19T09:43:18.737Z</time>
      </trkpt>
      <trkpt lat="44.31649" lon="6.14913">
        <ele>1114.513521</ele>
        <time>2023-09-19T09:43:19.746Z</time>
      </trkpt>
      <trkpt lat="44.31657" lon="6.14907">
        <ele>1113.553733</ele>
        <time>2023-09-19T09:43:20.735Z</time>
      </trkpt>
      <trkpt lat="44.31666" lon="6.149">
        <ele>1112.579902</ele>
        <time>2023-09-19T09:43:21.736Z</time>
      </trkpt>
      <trkpt lat="44.31673" lon="6.14892">
        <ele>1111.603729</ele>
        <time>2023-09-19T09:43:22.750Z</time>
      </trkpt>
      <trkpt lat="44.31681" lon="6.14883">
        <ele>1110.606356</ele>
        <time>2023-09-19T09:43:23.744Z</time>
      </trkpt>
      <trkpt lat="44.3169" lon="6.14876">
        <ele>1109.56578</ele>
        <time>2023-09-19T09:43:24.729Z</time>
      </trkpt>
      <trkpt lat="44.317" lon="6.14869">
        <ele>1108.561743</ele>
        <time>2023-09-19T09:43:25.745Z</time>
      </trkpt>
      <trkpt lat="44.31709" lon="6.14862">
        <ele>1107.54922</ele>
        <time>2023-09-19T09:43:26.755Z</time>
      </trkpt>
      <trkpt lat="44.31719" lon="6.14855">
        <ele>1106.509303</ele>
        <time>2023-09-19T09:43:27.749Z</time>
      </trkpt>
      <trkpt lat="44.31728" lon="6.14847">
        <ele>1105.418953</ele>
        <time>2023-09-19T09:43:28.752Z</time>
      </trkpt>
      <trkpt lat="44.31738" lon="6.14838">
        <ele>1104.326906</ele>
        <time>2023-09-19T09:43:29.753Z</time>
      </trkpt>
      <trkpt lat="44.31747" lon="6.14828">
        <ele>1103.216954</ele>
        <time>2023-09-19T09:43:30.747Z</time>
      </trkpt>
      <trkpt lat="44.31756" lon="6.14817">
        <ele>1102.062066</ele>
        <time>2023-09-19T09:43:31.749Z</time>
      </trkpt>
      <trkpt lat="44.31765" lon="6.14805">
        <ele>1100.901742</ele>
        <time>2023-09-19T09:43:32.746Z</time>
      </trkpt>
      <trkpt lat="44.31775" lon="6.14794">
        <ele>1099.724693</ele>
        <time>2023-09-19T09:43:33.739Z</time>
      </trkpt>
      <trkpt lat="44.31783" lon="6.14782">
        <ele>1098.593024</ele>
        <time>2023-09-19T09:43:34.747Z</time>
      </trkpt>
      <trkpt lat="44.31789" lon="6.14769">
        <ele>1097.529899</ele>
        <time>2023-09-19T09:43:35.745Z</time>
      </trkpt>
      <trkpt lat="44.31794" lon="6.14756">
        <ele>1096.546545</ele>
        <time>2023-09-19T09:43:36.749Z</time>
      </trkpt>
      <trkpt lat="44.318" lon="6.14745">
        <ele>1095.583148</ele>
        <time>2023-09-19T09:43:37.753Z</time>
      </trkpt>
      <trkpt lat="44.31808" lon="6.14736">
        <ele>1094.652686</ele>
        <time>2023-09-19T09:43:38.748Z</time>
      </trkpt>
      <trkpt lat="44.31817" lon="6.14731">
        <ele>1093.697027</ele>
        <time>2023-09-19T09:43:39.749Z</time>
      </trkpt>
      <trkpt lat="44.31827" lon="6.14729">
        <ele>1092.716959</ele>
        <time>2023-09-19T09:43:40.745Z</time>
      </trkpt>
      <trkpt lat="44.31838" lon="6.14729">
        <ele>1091.831743</ele>
        <time>2023-09-19T09:43:41.743Z</time>
      </trkpt>
      <trkpt lat="44.31848" lon="6.14731">
        <ele>1090.90545</ele>
        <time>2023-09-19T09:43:42.750Z</time>
      </trkpt>
      <trkpt lat="44.31859" lon="6.14734">
        <ele>1090.020884</ele>
        <time>2023-09-19T09:43:43.746Z</time>
      </trkpt>
      <trkpt lat="44.31875" lon="6.14738">
        <ele>1088.59583</ele>
        <time>2023-09-19T09:43:45.747Z</time>
      </trkpt>
      <trkpt lat="44.31889" lon="6.14732">
        <ele>1087.384053</ele>
        <time>2023-09-19T09:43:47.747Z</time>
      </trkpt>
      <trkpt lat="44.31897" lon="6.14714">
        <ele>1086.063542</ele>
        <time>2023-09-19T09:43:49.738Z</time>
      </trkpt>
      <trkpt lat="44.31902" lon="6.14691">
        <ele>1084.599026</ele>
        <time>2023-09-19T09:43:51.741Z</time>
      </trkpt>
      <trkpt lat="44.31903" lon="6.14678">
        <ele>1083.831896</ele>
        <time>2023-09-19T09:43:52.744Z</time>
      </trkpt>
      <trkpt lat="44.31905" lon="6.14665">
        <ele>1083.031499</ele>
        <time>2023-09-19T09:43:53.748Z</time>
      </trkpt>
      <trkpt lat="44.31906" lon="6.14652">
        <ele>1082.212078</ele>
        <time>2023-09-19T09:43:54.748Z</time>
      </trkpt>
      <trkpt lat="44.31907" lon="6.14638">
        <ele>1081.384843</ele>
        <time>2023-09-19T09:43:55.748Z</time>
      </trkpt>
      <trkpt lat="44.31908" lon="6.14624">
        <ele>1080.519293</ele>
        <time>2023-09-19T09:43:56.749Z</time>
      </trkpt>
      <trkpt lat="44.31909" lon="6.1461">
        <ele>1079.639238</ele>
        <time>2023-09-19T09:43:57.753Z</time>
      </trkpt>
      <trkpt lat="44.3191" lon="6.14596">
        <ele>1078.77052</ele>
        <time>2023-09-19T09:43:58.762Z</time>
      </trkpt>
      <trkpt lat="44.31911" lon="6.14582">
        <ele>1077.918107</ele>
        <time>2023-09-19T09:43:59.753Z</time>
      </trkpt>
      <trkpt lat="44.31914" lon="6.14568">
        <ele>1077.050484</ele>
        <time>2023-09-19T09:44:00.752Z</time>
      </trkpt>
      <trkpt lat="44.31921" lon="6.14556">
        <ele>1076.254552</ele>
        <time>2023-09-19T09:44:01.847Z</time>
      </trkpt>
      <trkpt lat="44.31927" lon="6.14544">
        <ele>1075.440649</ele>
        <time>2023-09-19T09:44:02.748Z</time>
      </trkpt>
      <trkpt lat="44.31933" lon="6.14532">
        <ele>1074.612969</ele>
        <time>2023-09-19T09:44:03.755Z</time>
      </trkpt>
      <trkpt lat="44.31939" lon="6.14519">
        <ele>1073.75816</ele>
        <time>2023-09-19T09:44:04.753Z</time>
      </trkpt>
      <trkpt lat="44.31946" lon="6.14508">
        <ele>1072.91516</ele>
        <time>2023-09-19T09:44:05.760Z</time>
      </trkpt>
      <trkpt lat="44.31953" lon="6.14496">
        <ele>1072.07216</ele>
        <time>2023-09-19T09:44:06.751Z</time>
      </trkpt>
      <trkpt lat="44.3196" lon="6.14484">
        <ele>1071.222543</ele>
        <time>2023-09-19T09:44:07.755Z</time>
      </trkpt>
      <trkpt lat="44.31968" lon="6.14473">
        <ele>1070.366937</ele>
        <time>2023-09-19T09:44:08.746Z</time>
      </trkpt>
      <trkpt lat="44.31977" lon="6.14465">
        <ele>1069.484347</ele>
        <time>2023-09-19T09:44:09.748Z</time>
      </trkpt>
      <trkpt lat="44.31987" lon="6.14456">
        <ele>1068.592211</ele>
        <time>2023-09-19T09:44:10.752Z</time>
      </trkpt>
      <trkpt lat="44.31996" lon="6.14446">
        <ele>1067.715792</ele>
        <time>2023-09-19T09:44:11.748Z</time>
      </trkpt>
      <trkpt lat="44.32004" lon="6.14436">
        <ele>1066.836355</ele>
        <time>2023-09-19T09:44:12.744Z</time>
      </trkpt>
      <trkpt lat="44.32012" lon="6.14425">
        <ele>1065.967367</ele>
        <time>2023-09-19T09:44:13.748Z</time>
      </trkpt>
      <trkpt lat="44.3202" lon="6.14414">
        <ele>1065.095302</ele>
        <time>2023-09-19T09:44:14.746Z</time>
      </trkpt>
      <trkpt lat="44.32029" lon="6.14404">
        <ele>1064.218884</ele>
        <time>2023-09-19T09:44:15.744Z</time>
      </trkpt>
      <trkpt lat="44.32038" lon="6.14395">
        <ele>1063.338364</ele>
        <time>2023-09-19T09:44:16.748Z</time>
      </trkpt>
      <trkpt lat="44.32046" lon="6.14385">
        <ele>1062.616041</ele>
        <time>2023-09-19T09:44:17.755Z</time>
      </trkpt>
      <trkpt lat="44.32054" lon="6.14368">
        <ele>1061.568966</ele>
        <time>2023-09-19T09:44:19.748Z</time>
      </trkpt>
      <trkpt lat="44.32049" lon="6.14358">
        <ele>1060.936734</ele>
        <time>2023-09-19T09:44:21.740Z</time>
      </trkpt>
      <trkpt lat="44.3204" lon="6.14367">
        <ele>1060.196076</ele>
        <time>2023-09-19T09:44:23.735Z</time>
      </trkpt>
      <trkpt lat="44.32032" lon="6.1438">
        <ele>1059.329636</ele>
        <time>2023-09-19T09:44:25.749Z</time>
      </trkpt>
      <trkpt lat="44.32021" lon="6.14392">
        <ele>1058.376761</ele>
        <time>2023-09-19T09:44:27.739Z</time>
      </trkpt>
      <trkpt lat="44.3201" lon="6.14403">
        <ele>1057.429708</ele>
        <time>2023-09-19T09:44:29.746Z</time>
      </trkpt>
      <trkpt lat="44.31998" lon="6.14415">
        <ele>1056.362185</ele>
        <time>2023-09-19T09:44:31.745Z</time>
      </trkpt>
      <trkpt lat="44.31984" lon="6.14426">
        <ele>1055.2254</ele>
        <time>2023-09-19T09:44:33.741Z</time>
      </trkpt>
      <trkpt lat="44.31969" lon="6.14438">
        <ele>1054.053064</ele>
        <time>2023-09-19T09:44:35.746Z</time>
      </trkpt>
      <trkpt lat="44.31954" lon="6.14449">
        <ele>1052.835606</ele>
        <time>2023-09-19T09:44:37.746Z</time>
      </trkpt>
      <trkpt lat="44.31946" lon="6.14456">
        <ele>1052.191916</ele>
        <time>2023-09-19T09:44:38.745Z</time>
      </trkpt>
      <trkpt lat="44.31938" lon="6.14463">
        <ele>1051.529352</ele>
        <time>2023-09-19T09:44:39.743Z</time>
      </trkpt>
      <trkpt lat="44.31929" lon="6.14469">
        <ele>1050.830807</ele>
        <time>2023-09-19T09:44:40.748Z</time>
      </trkpt>
      <trkpt lat="44.3192" lon="6.14475">
        <ele>1049.903185</ele>
        <time>2023-09-19T09:44:41.743Z</time>
      </trkpt>
      <trkpt lat="44.31911" lon="6.14482">
        <ele>1048.90828</ele>
        <time>2023-09-19T09:44:42.743Z</time>
      </trkpt>
      <trkpt lat="44.31903" lon="6.14491">
        <ele>1047.888746</ele>
        <time>2023-09-19T09:44:43.741Z</time>
      </trkpt>
      <trkpt lat="44.31895" lon="6.14501">
        <ele>1046.835686</ele>
        <time>2023-09-19T09:44:44.741Z</time>
      </trkpt>
      <trkpt lat="44.31888" lon="6.14512">
        <ele>1045.786323</ele>
        <time>2023-09-19T09:44:45.738Z</time>
      </trkpt>
      <trkpt lat="44.31879" lon="6.14522">
        <ele>1044.714093</ele>
        <time>2023-09-19T09:44:46.742Z</time>
      </trkpt>
      <trkpt lat="44.31871" lon="6.14533">
        <ele>1043.613136</ele>
        <time>2023-09-19T09:44:47.747Z</time>
      </trkpt>
      <trkpt lat="44.31864" lon="6.14545">
        <ele>1042.489122</ele>
        <time>2023-09-19T09:44:48.752Z</time>
      </trkpt>
      <trkpt lat="44.31855" lon="6.14556">
        <ele>1041.314008</ele>
        <time>2023-09-19T09:44:49.756Z</time>
      </trkpt>
      <trkpt lat="44.31845" lon="6.14565">
        <ele>1040.115234</ele>
        <time>2023-09-19T09:44:50.747Z</time>
      </trkpt>
      <trkpt lat="44.31834" lon="6.14574">
        <ele>1038.905046</ele>
        <time>2023-09-19T09:44:51.742Z</time>
      </trkpt>
      <trkpt lat="44.31824" lon="6.14583">
        <ele>1037.745158</ele>
        <time>2023-09-19T09:44:52.740Z</time>
      </trkpt>
      <trkpt lat="44.31815" lon="6.14593">
        <ele>1036.64438</ele>
        <time>2023-09-19T09:44:53.747Z</time>
      </trkpt>
      <trkpt lat="44.31808" lon="6.14602">
        <ele>1035.700927</ele>
        <time>2023-09-19T09:44:54.740Z</time>
      </trkpt>
      <trkpt lat="44.31798" lon="6.14619">
        <ele>1034.158295</ele>
        <time>2023-09-19T09:44:56.746Z</time>
      </trkpt>
      <trkpt lat="44.31788" lon="6.14622">
        <ele>1033.089798</ele>
        <time>2023-09-19T09:44:58.748Z</time>
      </trkpt>
      <trkpt lat="44.31787" lon="6.14608">
        <ele>1031.991553</ele>
        <time>2023-09-19T09:45:00.738Z</time>
      </trkpt>
      <trkpt lat="44.31795" lon="6.14594">
        <ele>1030.531348</ele>
        <time>2023-09-19T09:45:02.746Z</time>
      </trkpt>
      <trkpt lat="44.31807" lon="6.14577">
        <ele>1028.660102</ele>
        <time>2023-09-19T09:45:04.740Z</time>
      </trkpt>
      <trkpt lat="44.31814" lon="6.14568">
        <ele>1027.60349</ele>
        <time>2023-09-19T09:45:05.747Z</time>
      </trkpt>
      <trkpt lat="44.3182" lon="6.14558">
        <ele>1026.530883</ele>
        <time>2023-09-19T09:45:06.744Z</time>
      </trkpt>
      <trkpt lat="44.31828" lon="6.14548">
        <ele>1025.392709</ele>
        <time>2023-09-19T09:45:07.744Z</time>
      </trkpt>
      <trkpt lat="44.31835" lon="6.14537">
        <ele>1024.179758</ele>
        <time>2023-09-19T09:45:08.749Z</time>
      </trkpt>
      <trkpt lat="44.31842" lon="6.14525">
        <ele>1022.921498</ele>
        <time>2023-09-19T09:45:09.748Z</time>
      </trkpt>
      <trkpt lat="44.31849" lon="6.14512">
        <ele>1021.651848</ele>
        <time>2023-09-19T09:45:10.743Z</time>
      </trkpt>
      <trkpt lat="44.31856" lon="6.14498">
        <ele>1020.323599</ele>
        <time>2023-09-19T09:45:11.745Z</time>
      </trkpt>
      <trkpt lat="44.31863" lon="6.14485">
        <ele>1018.939691</ele>
        <time>2023-09-19T09:45:12.740Z</time>
      </trkpt>
      <trkpt lat="44.31872" lon="6.14472">
        <ele>1017.521937</ele>
        <time>2023-09-19T09:45:13.735Z</time>
      </trkpt>
      <trkpt lat="44.31879" lon="6.14457">
        <ele>1016.10157</ele>
        <time>2023-09-19T09:45:14.734Z</time>
      </trkpt>
      <trkpt lat="44.31885" lon="6.14442">
        <ele>1014.659578</ele>
        <time>2023-09-19T09:45:15.733Z</time>
      </trkpt>
      <trkpt lat="44.31893" lon="6.14426">
        <ele>1013.174764</ele>
        <time>2023-09-19T09:45:16.741Z</time>
      </trkpt>
      <trkpt lat="44.31901" lon="6.14412">
        <ele>1011.552445</ele>
        <time>2023-09-19T09:45:17.744Z</time>
      </trkpt>
      <trkpt lat="44.31911" lon="6.14397">
        <ele>1009.843663</ele>
        <time>2023-09-19T09:45:18.742Z</time>
      </trkpt>
      <trkpt lat="44.3192" lon="6.14382">
        <ele>1008.131488</ele>
        <time>2023-09-19T09:45:19.738Z</time>
      </trkpt>
      <trkpt lat="44.31928" lon="6.14366">
        <ele>1006.383971</ele>
        <time>2023-09-19T09:45:20.737Z</time>
      </trkpt>
      <trkpt lat="44.31935" lon="6.14348">
        <ele>1004.621033</ele>
        <time>2023-09-19T09:45:21.743Z</time>
      </trkpt>
      <trkpt lat="44.31943" lon="6.14331">
        <ele>1002.838277</ele>
        <time>2023-09-19T09:45:22.772Z</time>
      </trkpt>
      <trkpt lat="44.31951" lon="6.14313">
        <ele>1001.03204</ele>
        <time>2023-09-19T09:45:23.745Z</time>
      </trkpt>
      <trkpt lat="44.3196" lon="6.14297">
        <ele>999.20576</ele>
        <time>2023-09-19T09:45:24.741Z</time>
      </trkpt>
      <trkpt lat="44.31969" lon="6.14281">
        <ele>997.422057</ele>
        <time>2023-09-19T09:45:25.741Z</time>
      </trkpt>
      <trkpt lat="44.31977" lon="6.14266">
        <ele>995.816082</ele>
        <time>2023-09-19T09:45:26.758Z</time>
      </trkpt>
      <trkpt lat="44.31984" lon="6.14253">
        <ele>994.329618</ele>
        <time>2023-09-19T09:45:27.743Z</time>
      </trkpt>
      <trkpt lat="44.3199" lon="6.14238">
        <ele>992.907708</ele>
        <time>2023-09-19T09:45:28.755Z</time>
      </trkpt>
      <trkpt lat="44.31993" lon="6.14224">
        <ele>991.631449</ele>
        <time>2023-09-19T09:45:29.746Z</time>
      </trkpt>
      <trkpt lat="44.31994" lon="6.14211">
        <ele>990.515887</ele>
        <time>2023-09-19T09:45:30.739Z</time>
      </trkpt>
      <trkpt lat="44.32002" lon="6.1419">
        <ele>988.512699</ele>
        <time>2023-09-19T09:45:32.741Z</time>
      </trkpt>
      <trkpt lat="44.3201" lon="6.14182">
        <ele>987.442692</ele>
        <time>2023-09-19T09:45:33.738Z</time>
      </trkpt>
      <trkpt lat="44.32017" lon="6.14173">
        <ele>986.311181</ele>
        <time>2023-09-19T09:45:34.742Z</time>
      </trkpt>
      <trkpt lat="44.32026" lon="6.14165">
        <ele>985.139637</ele>
        <time>2023-09-19T09:45:35.743Z</time>
      </trkpt>
      <trkpt lat="44.32035" lon="6.14158">
        <ele>983.890809</ele>
        <time>2023-09-19T09:45:36.745Z</time>
      </trkpt>
      <trkpt lat="44.32045" lon="6.14151">
        <ele>982.584076</ele>
        <time>2023-09-19T09:45:37.744Z</time>
      </trkpt>
      <trkpt lat="44.32055" lon="6.14141">
        <ele>981.285444</ele>
        <time>2023-09-19T09:45:38.746Z</time>
      </trkpt>
      <trkpt lat="44.32062" lon="6.14131">
        <ele>980.030795</ele>
        <time>2023-09-19T09:45:39.744Z</time>
      </trkpt>
      <trkpt lat="44.32068" lon="6.14118">
        <ele>978.800222</ele>
        <time>2023-09-19T09:45:40.746Z</time>
      </trkpt>
      <trkpt lat="44.32072" lon="6.14103">
        <ele>977.531864</ele>
        <time>2023-09-19T09:45:41.739Z</time>
      </trkpt>
      <trkpt lat="44.32074" lon="6.14088">
        <ele>976.202809</ele>
        <time>2023-09-19T09:45:42.744Z</time>
      </trkpt>
      <trkpt lat="44.32076" lon="6.14071">
        <ele>974.816212</ele>
        <time>2023-09-19T09:45:43.756Z</time>
      </trkpt>
      <trkpt lat="44.32079" lon="6.14053">
        <ele>973.340183</ele>
        <time>2023-09-19T09:45:44.747Z</time>
      </trkpt>
      <trkpt lat="44.32082" lon="6.14035">
        <ele>971.816761</ele>
        <time>2023-09-19T09:45:45.742Z</time>
      </trkpt>
      <trkpt lat="44.32085" lon="6.14017">
        <ele>970.225101</ele>
        <time>2023-09-19T09:45:46.759Z</time>
      </trkpt>
      <trkpt lat="44.32089" lon="6.13998">
        <ele>968.529255</ele>
        <time>2023-09-19T09:45:47.749Z</time>
      </trkpt>
      <trkpt lat="44.32094" lon="6.1398">
        <ele>966.921161</ele>
        <time>2023-09-19T09:45:48.742Z</time>
      </trkpt>
      <trkpt lat="44.32099" lon="6.13964">
        <ele>965.396683</ele>
        <time>2023-09-19T09:45:49.750Z</time>
      </trkpt>
      <trkpt lat="44.32106" lon="6.13949">
        <ele>963.839339</ele>
        <time>2023-09-19T09:45:50.743Z</time>
      </trkpt>
      <trkpt lat="44.32114" lon="6.13935">
        <ele>962.294944</ele>
        <time>2023-09-19T09:45:51.745Z</time>
      </trkpt>
      <trkpt lat="44.32124" lon="6.13922">
        <ele>960.679583</ele>
        <time>2023-09-19T09:45:52.734Z</time>
      </trkpt>
      <trkpt lat="44.32133" lon="6.13909">
        <ele>959.0754</ele>
        <time>2023-09-19T09:45:53.738Z</time>
      </trkpt>
      <trkpt lat="44.32142" lon="6.13897">
        <ele>957.567579</ele>
        <time>2023-09-19T09:45:54.739Z</time>
      </trkpt>
      <trkpt lat="44.3215" lon="6.13886">
        <ele>956.229443</ele>
        <time>2023-09-19T09:45:55.745Z</time>
      </trkpt>
      <trkpt lat="44.32157" lon="6.13877">
        <ele>955.012036</ele>
        <time>2023-09-19T09:45:56.736Z</time>
      </trkpt>
      <trkpt lat="44.32165" lon="6.13869">
        <ele>953.813126</ele>
        <time>2023-09-19T09:45:57.739Z</time>
      </trkpt>
      <trkpt lat="44.32174" lon="6.13862">
        <ele>952.592792</ele>
        <time>2023-09-19T09:45:58.742Z</time>
      </trkpt>
      <trkpt lat="44.32184" lon="6.13856">
        <ele>951.384102</ele>
        <time>2023-09-19T09:45:59.740Z</time>
      </trkpt>
      <trkpt lat="44.32192" lon="6.13852">
        <ele>950.271747</ele>
        <time>2023-09-19T09:46:00.736Z</time>
      </trkpt>
      <trkpt lat="44.32201" lon="6.13848">
        <ele>949.181726</ele>
        <time>2023-09-19T09:46:01.738Z</time>
      </trkpt>
      <trkpt lat="44.32216" lon="6.13842">
        <ele>947.515887</ele>
        <time>2023-09-19T09:46:03.741Z</time>
      </trkpt>
      <trkpt lat="44.32229" lon="6.13839">
        <ele>946.164136</ele>
        <time>2023-09-19T09:46:05.752Z</time>
      </trkpt>
      <trkpt lat="44.32241" lon="6.13841">
        <ele>945.007024</ele>
        <time>2023-09-19T09:46:07.752Z</time>
      </trkpt>
      <trkpt lat="44.32252" lon="6.13841">
        <ele>943.900452</ele>
        <time>2023-09-19T09:46:09.745Z</time>
      </trkpt>
      <trkpt lat="44.32264" lon="6.13838">
        <ele>942.699388</ele>
        <time>2023-09-19T09:46:11.747Z</time>
      </trkpt>
      <trkpt lat="44.32276" lon="6.13835">
        <ele>941.44606</ele>
        <time>2023-09-19T09:46:13.747Z</time>
      </trkpt>
      <trkpt lat="44.3229" lon="6.13833">
        <ele>940.055087</ele>
        <time>2023-09-19T09:46:15.752Z</time>
      </trkpt>
      <trkpt lat="44.32302" lon="6.13836">
        <ele>938.838687</ele>
        <time>2023-09-19T09:46:17.751Z</time>
      </trkpt>
      <trkpt lat="44.32313" lon="6.13847">
        <ele>937.505402</ele>
        <time>2023-09-19T09:46:19.742Z</time>
      </trkpt>
      <trkpt lat="44.32322" lon="6.13863">
        <ele>936.024681</ele>
        <time>2023-09-19T09:46:21.747Z</time>
      </trkpt>
      <trkpt lat="44.32333" lon="6.13876">
        <ele>934.591646</ele>
        <time>2023-09-19T09:46:23.746Z</time>
      </trkpt>
      <trkpt lat="44.32348" lon="6.13884">
        <ele>932.977488</ele>
        <time>2023-09-19T09:46:25.750Z</time>
      </trkpt>
      <trkpt lat="44.32365" lon="6.13889">
        <ele>931.271873</ele>
        <time>2023-09-19T09:46:27.753Z</time>
      </trkpt>
      <trkpt lat="44.32374" lon="6.13892">
        <ele>930.384275</ele>
        <time>2023-09-19T09:46:28.749Z</time>
      </trkpt>
      <trkpt lat="44.32383" lon="6.13895">
        <ele>929.485458</ele>
        <time>2023-09-19T09:46:29.751Z</time>
      </trkpt>
      <trkpt lat="44.32392" lon="6.13898">
        <ele>928.571384</ele>
        <time>2023-09-19T09:46:30.748Z</time>
      </trkpt>
      <trkpt lat="44.32402" lon="6.13901">
        <ele>927.61899</ele>
        <time>2023-09-19T09:46:31.747Z</time>
      </trkpt>
      <trkpt lat="44.32412" lon="6.13905">
        <ele>926.628269</ele>
        <time>2023-09-19T09:46:32.761Z</time>
      </trkpt>
      <trkpt lat="44.32422" lon="6.13908">
        <ele>925.652635</ele>
        <time>2023-09-19T09:46:33.752Z</time>
      </trkpt>
      <trkpt lat="44.32432" lon="6.13912">
        <ele>924.701801</ele>
        <time>2023-09-19T09:46:34.750Z</time>
      </trkpt>
      <trkpt lat="44.32442" lon="6.13912">
        <ele>923.775895</ele>
        <time>2023-09-19T09:46:35.748Z</time>
      </trkpt>
      <trkpt lat="44.32452" lon="6.13908">
        <ele>922.841861</ele>
        <time>2023-09-19T09:46:36.754Z</time>
      </trkpt>
      <trkpt lat="44.3246" lon="6.13902">
        <ele>921.987269</ele>
        <time>2023-09-19T09:46:37.747Z</time>
      </trkpt>
      <trkpt lat="44.32474" lon="6.13892">
        <ele>920.463134</ele>
        <time>2023-09-19T09:46:39.743Z</time>
      </trkpt>
      <trkpt lat="44.32489" lon="6.13894">
        <ele>919.040123</ele>
        <time>2023-09-19T09:46:41.750Z</time>
      </trkpt>
      <trkpt lat="44.32503" lon="6.13907">
        <ele>917.448645</ele>
        <time>2023-09-19T09:46:43.740Z</time>
      </trkpt>
      <trkpt lat="44.3251" lon="6.13916">
        <ele>916.573122</ele>
        <time>2023-09-19T09:46:44.754Z</time>
      </trkpt>
      <trkpt lat="44.32515" lon="6.13925">
        <ele>915.707397</ele>
        <time>2023-09-19T09:46:45.746Z</time>
      </trkpt>
      <trkpt lat="44.32529" lon="6.13938">
        <ele>914.138897</ele>
        <time>2023-09-19T09:46:47.739Z</time>
      </trkpt>
      <trkpt lat="44.32546" lon="6.13934">
        <ele>912.610242</ele>
        <time>2023-09-19T09:46:49.728Z</time>
      </trkpt>
      <trkpt lat="44.32562" lon="6.13925">
        <ele>911.024404</ele>
        <time>2023-09-19T09:46:51.742Z</time>
      </trkpt>
      <trkpt lat="44.32572" lon="6.13925">
        <ele>910.183979</ele>
        <time>2023-09-19T09:46:52.739Z</time>
      </trkpt>
      <trkpt lat="44.32581" lon="6.1393">
        <ele>909.308249</ele>
        <time>2023-09-19T09:46:53.735Z</time>
      </trkpt>
      <trkpt lat="44.3259" lon="6.13935">
        <ele>908.438262</ele>
        <time>2023-09-19T09:46:54.743Z</time>
      </trkpt>
      <trkpt lat="44.32599" lon="6.13941">
        <ele>907.570841</ele>
        <time>2023-09-19T09:46:55.735Z</time>
      </trkpt>
      <trkpt lat="44.32608" lon="6.13947">
        <ele>906.64923</ele>
        <time>2023-09-19T09:46:56.735Z</time>
      </trkpt>
      <trkpt lat="44.32617" lon="6.13955">
        <ele>905.700262</ele>
        <time>2023-09-19T09:46:57.733Z</time>
      </trkpt>
      <trkpt lat="44.32627" lon="6.13962">
        <ele>904.741967</ele>
        <time>2023-09-19T09:46:58.745Z</time>
      </trkpt>
      <trkpt lat="44.32636" lon="6.13969">
        <ele>903.783673</ele>
        <time>2023-09-19T09:46:59.736Z</time>
      </trkpt>
      <trkpt lat="44.32646" lon="6.13976">
        <ele>902.821491</ele>
        <time>2023-09-19T09:47:00.753Z</time>
      </trkpt>
      <trkpt lat="44.32655" lon="6.13982">
        <ele>901.902748</ele>
        <time>2023-09-19T09:47:01.847Z</time>
      </trkpt>
      <trkpt lat="44.32671" lon="6.13992">
        <ele>900.346077</ele>
        <time>2023-09-19T09:47:03.756Z</time>
      </trkpt>
      <trkpt lat="44.32686" lon="6.13984">
        <ele>898.890061</ele>
        <time>2023-09-19T09:47:05.750Z</time>
      </trkpt>
      <trkpt lat="44.32695" lon="6.13963">
        <ele>897.28508</ele>
        <time>2023-09-19T09:47:07.742Z</time>
      </trkpt>
      <trkpt lat="44.32698" lon="6.1395">
        <ele>896.322625</ele>
        <time>2023-09-19T09:47:08.745Z</time>
      </trkpt>
      <trkpt lat="44.327" lon="6.13936">
        <ele>895.348223</ele>
        <time>2023-09-19T09:47:09.748Z</time>
      </trkpt>
      <trkpt lat="44.32699" lon="6.13922">
        <ele>894.30102</ele>
        <time>2023-09-19T09:47:10.755Z</time>
      </trkpt>
      <trkpt lat="44.32696" lon="6.13908">
        <ele>893.298911</ele>
        <time>2023-09-19T09:47:11.749Z</time>
      </trkpt>
      <trkpt lat="44.32692" lon="6.13897">
        <ele>892.373839</ele>
        <time>2023-09-19T09:47:12.753Z</time>
      </trkpt>
      <trkpt lat="44.32688" lon="6.13885">
        <ele>891.455022</ele>
        <time>2023-09-19T09:47:13.751Z</time>
      </trkpt>
      <trkpt lat="44.32687" lon="6.1387">
        <ele>890.449009</ele>
        <time>2023-09-19T09:47:14.749Z</time>
      </trkpt>
      <trkpt lat="44.32689" lon="6.13856">
        <ele>889.410501</ele>
        <time>2023-09-19T09:47:15.746Z</time>
      </trkpt>
      <trkpt lat="44.32691" lon="6.13841">
        <ele>888.319334</ele>
        <time>2023-09-19T09:47:16.744Z</time>
      </trkpt>
      <trkpt lat="44.32693" lon="6.13825">
        <ele>887.177486</ele>
        <time>2023-09-19T09:47:17.758Z</time>
      </trkpt>
      <trkpt lat="44.32692" lon="6.13809">
        <ele>886.03041</ele>
        <time>2023-09-19T09:47:18.754Z</time>
      </trkpt>
      <trkpt lat="44.32691" lon="6.13794">
        <ele>884.986752</ele>
        <time>2023-09-19T09:47:19.752Z</time>
      </trkpt>
      <trkpt lat="44.32691" lon="6.13781">
        <ele>884.053328</ele>
        <time>2023-09-19T09:47:20.748Z</time>
      </trkpt>
      <trkpt lat="44.32691" lon="6.13767">
        <ele>883.113254</ele>
        <time>2023-09-19T09:47:21.754Z</time>
      </trkpt>
      <trkpt lat="44.32703" lon="6.1375">
        <ele>881.437226</ele>
        <time>2023-09-19T09:47:23.744Z</time>
      </trkpt>
      <trkpt lat="44.32718" lon="6.13736">
        <ele>879.650919</ele>
        <time>2023-09-19T09:47:25.746Z</time>
      </trkpt>
      <trkpt lat="44.32727" lon="6.13729">
        <ele>878.641201</ele>
        <time>2023-09-19T09:47:26.743Z</time>
      </trkpt>
      <trkpt lat="44.32736" lon="6.13723">
        <ele>877.602715</ele>
        <time>2023-09-19T09:47:27.749Z</time>
      </trkpt>
      <trkpt lat="44.32746" lon="6.13717">
        <ele>876.522658</ele>
        <time>2023-09-19T09:47:28.757Z</time>
      </trkpt>
      <trkpt lat="44.32757" lon="6.13712">
        <ele>875.41202</ele>
        <time>2023-09-19T09:47:29.747Z</time>
      </trkpt>
      <trkpt lat="44.32768" lon="6.13707">
        <ele>874.266352</ele>
        <time>2023-09-19T09:47:30.748Z</time>
      </trkpt>
      <trkpt lat="44.32779" lon="6.137">
        <ele>873.090489</ele>
        <time>2023-09-19T09:47:31.742Z</time>
      </trkpt>
      <trkpt lat="44.32789" lon="6.13691">
        <ele>871.883909</ele>
        <time>2023-09-19T09:47:32.744Z</time>
      </trkpt>
      <trkpt lat="44.32799" lon="6.13681">
        <ele>870.670489</ele>
        <time>2023-09-19T09:47:33.744Z</time>
      </trkpt>
      <trkpt lat="44.32808" lon="6.13669">
        <ele>869.424478</ele>
        <time>2023-09-19T09:47:34.745Z</time>
      </trkpt>
      <trkpt lat="44.32817" lon="6.13656">
        <ele>868.158255</ele>
        <time>2023-09-19T09:47:35.740Z</time>
      </trkpt>
      <trkpt lat="44.32825" lon="6.13642">
        <ele>866.882769</ele>
        <time>2023-09-19T09:47:36.750Z</time>
      </trkpt>
      <trkpt lat="44.32832" lon="6.13627">
        <ele>865.586201</ele>
        <time>2023-09-19T09:47:37.746Z</time>
      </trkpt>
      <trkpt lat="44.3284" lon="6.13611">
        <ele>864.277922</ele>
        <time>2023-09-19T09:47:38.747Z</time>
      </trkpt>
      <trkpt lat="44.32848" lon="6.13596">
        <ele>862.957897</ele>
        <time>2023-09-19T09:47:39.747Z</time>
      </trkpt>
      <trkpt lat="44.32856" lon="6.13581">
        <ele>861.819832</ele>
        <time>2023-09-19T09:47:40.749Z</time>
      </trkpt>
      <trkpt lat="44.32865" lon="6.13566">
        <ele>861.07701</ele>
        <time>2023-09-19T09:47:41.747Z</time>
      </trkpt>
      <trkpt lat="44.32875" lon="6.13551">
        <ele>860.320736</ele>
        <time>2023-09-19T09:47:42.746Z</time>
      </trkpt>
      <trkpt lat="44.32885" lon="6.13536">
        <ele>859.558126</ele>
        <time>2023-09-19T09:47:43.744Z</time>
      </trkpt>
      <trkpt lat="44.32896" lon="6.13523">
        <ele>858.81145</ele>
        <time>2023-09-19T09:47:44.753Z</time>
      </trkpt>
      <trkpt lat="44.32907" lon="6.13511">
        <ele>858.068319</ele>
        <time>2023-09-19T09:47:45.746Z</time>
      </trkpt>
      <trkpt lat="44.32919" lon="6.135">
        <ele>857.322728</ele>
        <time>2023-09-19T09:47:46.758Z</time>
      </trkpt>
      <trkpt lat="44.3293" lon="6.13489">
        <ele>856.602908</ele>
        <time>2023-09-19T09:47:47.740Z</time>
      </trkpt>
      <trkpt lat="44.32941" lon="6.13479">
        <ele>855.943144</ele>
        <time>2023-09-19T09:47:48.746Z</time>
      </trkpt>
      <trkpt lat="44.32951" lon="6.1347">
        <ele>855.322217</ele>
        <time>2023-09-19T09:47:49.744Z</time>
      </trkpt>
      <trkpt lat="44.3296" lon="6.13461">
        <ele>854.714177</ele>
        <time>2023-09-19T09:47:50.743Z</time>
      </trkpt>
      <trkpt lat="44.3297" lon="6.13452">
        <ele>854.122896</ele>
        <time>2023-09-19T09:47:51.747Z</time>
      </trkpt>
      <trkpt lat="44.32978" lon="6.13442">
        <ele>853.547498</ele>
        <time>2023-09-19T09:47:52.750Z</time>
      </trkpt>
      <trkpt lat="44.32983" lon="6.13429">
        <ele>852.993985</ele>
        <time>2023-09-19T09:47:53.747Z</time>
      </trkpt>
      <trkpt lat="44.32987" lon="6.13416">
        <ele>852.645882</ele>
        <time>2023-09-19T09:47:54.735Z</time>
      </trkpt>
      <trkpt lat="44.32989" lon="6.13401">
        <ele>852.588325</ele>
        <time>2023-09-19T09:47:55.739Z</time>
      </trkpt>
      <trkpt lat="44.32989" lon="6.13386">
        <ele>852.531867</ele>
        <time>2023-09-19T09:47:56.737Z</time>
      </trkpt>
      <trkpt lat="44.32989" lon="6.13373">
        <ele>852.479606</ele>
        <time>2023-09-19T09:47:57.742Z</time>
      </trkpt>
      <trkpt lat="44.32987" lon="6.13359">
        <ele>852.425901</ele>
        <time>2023-09-19T09:47:58.744Z</time>
      </trkpt>
      <trkpt lat="44.32985" lon="6.13346">
        <ele>852.373705</ele>
        <time>2023-09-19T09:47:59.737Z</time>
      </trkpt>
      <trkpt lat="44.32981" lon="6.13334">
        <ele>852.324558</ele>
        <time>2023-09-19T09:48:00.741Z</time>
      </trkpt>
      <trkpt lat="44.32973" lon="6.13313">
        <ele>852.235733</ele>
        <time>2023-09-19T09:48:02.747Z</time>
      </trkpt>
      <trkpt lat="44.32965" lon="6.13293">
        <ele>852.147913</ele>
        <time>2023-09-19T09:48:04.741Z</time>
      </trkpt>
      <trkpt lat="44.32959" lon="6.13272">
        <ele>852.060392</ele>
        <time>2023-09-19T09:48:06.759Z</time>
      </trkpt>
      <trkpt lat="44.32955" lon="6.1325">
        <ele>851.972441</ele>
        <time>2023-09-19T09:48:08.749Z</time>
      </trkpt>
      <trkpt lat="44.32951" lon="6.13228">
        <ele>851.885981</ele>
        <time>2023-09-19T09:48:10.746Z</time>
      </trkpt>
      <trkpt lat="44.32947" lon="6.13207">
        <ele>851.805825</ele>
        <time>2023-09-19T09:48:12.759Z</time>
      </trkpt>
      <trkpt lat="44.32945" lon="6.1319">
        <ele>851.737907</ele>
        <time>2023-09-19T09:48:14.761Z</time>
      </trkpt>
      <trkpt lat="44.32943" lon="6.13175">
        <ele>851.708344</ele>
        <time>2023-09-19T09:48:16.752Z</time>
      </trkpt>
      <trkpt lat="44.32941" lon="6.13161">
        <ele>851.708344</ele>
        <time>2023-09-19T09:48:18.761Z</time>
      </trkpt>
      <trkpt lat="44.32939" lon="6.13148">
        <ele>851.708344</ele>
        <time>2023-09-19T09:48:20.749Z</time>
      </trkpt>
      <trkpt lat="44.32937" lon="6.13131">
        <ele>851.708344</ele>
        <time>2023-09-19T09:48:23.746Z</time>
      </trkpt>
      <trkpt lat="44.32936" lon="6.13114">
        <ele>851.708344</ele>
        <time>2023-09-19T09:48:26.746Z</time>
      </trkpt>
      <trkpt lat="44.32935" lon="6.13098">
        <ele>851.708344</ele>
        <time>2023-09-19T09:48:29.747Z</time>
      </trkpt>
      <trkpt lat="44.32932" lon="6.13086">
        <ele>851.708344</ele>
        <time>2023-09-19T09:48:32.757Z</time>
      </trkpt>
      <trkpt lat="44.32929" lon="6.13074">
        <ele>851.708344</ele>
        <time>2023-09-19T09:48:35.746Z</time>
      </trkpt>
      <trkpt lat="44.32927" lon="6.1306">
        <ele>851.708344</ele>
        <time>2023-09-19T09:48:40.746Z</time>
      </trkpt>
      <trkpt lat="44.32922" lon="6.13057">
        <ele>851.708344</ele>
        <time>2023-09-19T09:50:33.624Z</time>
      </trkpt>
    </trkseg>
  </trk>
</gpx>